Long, Charles (2015): Radiosonde measurements from station Boulder (2013-04) [dataset]. NOAA - Air Resources Laboratory, Boulder, PANGAEA, https://doi.org/10.1594/PANGAEA.846311
Always quote citation above when using data! You can download the citation in several formats below.
Published: 2015-05-19 • DOI registered: 2015-06-16
Other version:
Long, Charles (2015): BSRN Station-to-archive file for station Boulder (2013-04). ftp://ftp.bsrn.awi.de/bou/bou0413.dat.gz
Project(s):
Coverage:
Latitude: 40.050000 * Longitude: -105.007000
Date/Time Start: 2013-04-01T00:00:00 * Date/Time End: 2013-04-30T12:00:00
Minimum ALTITUDE: 15 m * Maximum ALTITUDE: 33048 m
Event(s):
BOU (Boulder) * Latitude: 40.050000 * Longitude: -105.007000 * Date/Time Start: 1992-01-01T00:00:00 * Date/Time End: 2016-06-30T00:00:00 * Elevation: 1577.0 m * Location: Colorado, United States of America * Method/Device: Monitoring station (MONS) * Comment: BSRN station no: 23; Surface type: grass; Topography type: flat, rural; Station scientist: David Longenecker (David.U.Longenecker@noaa.gov) ** Station closed in July 2016 **
Comment:
Start location: Denver, Colorado, USA; Distance from radiation site: 30 km
Parameter(s):
| # | Name | Short Name | Unit | Principal Investigator | Method/Device | Comment |
|---|---|---|---|---|---|---|
| 1 | DATE/TIME | Date/Time | Long, Charles | Geocode | ||
| 2 | ALTITUDE | Altitude | m | Long, Charles | Geocode | |
| 3 | Pressure, at given altitude | PPPP | hPa | Long, Charles | Radiosonde (RADIO) | |
| 4 | Temperature, air | TTT | °C | Long, Charles | Radiosonde (RADIO) | |
| 5 | Dew/frost point | TdTdTd | °C | Long, Charles | Radiosonde (RADIO) | |
| 6 | Wind direction | dd | deg | Long, Charles | Radiosonde (RADIO) | |
| 7 | Wind speed | ff | m/s | Long, Charles | Radiosonde (RADIO) |
License:
Size:
14323 data points
Data
| 1 Date/Time | 2 Altitude [m] | 3 PPPP [hPa] | 4 TTT [°C] | 5 TdTdTd [°C] | 6 dd [deg] | 7 ff [m/s] |
|---|---|---|---|---|---|---|
| 2013-04-01T00:00 | 73 | 1000 | ||||
| 2013-04-01T00:00 | 743 | 925 | ||||
| 2013-04-01T00:00 | 1459 | 850 | ||||
| 2013-04-01T00:00 | 1807 | 816 | 17.0 | -10.0 | ||
| 2013-04-01T00:00 | 2985 | 708 | 4.8 | -13.2 | ||
| 2013-04-01T00:00 | 3080 | 700 | 4.2 | -12.8 | 295 | 3 |
| 2013-04-01T00:00 | 3397 | 673 | 1.6 | -16.4 | ||
| 2013-04-01T00:00 | 3541 | 661 | 1.2 | -22.8 | ||
| 2013-04-01T00:00 | 4076 | 618 | -3.3 | -25.3 | ||
| 2013-04-01T00:00 | 5710 | 500 | -18.3 | -31.3 | 315 | 15 |
| 2013-04-01T00:00 | 5951 | 484 | -20.3 | -32.3 | ||
| 2013-04-01T00:00 | 6183 | 469 | -21.5 | -33.5 | ||
| 2013-04-01T00:00 | 6983 | 420 | -28.5 | -39.5 | ||
| 2013-04-01T00:00 | 7330 | 400 | -30.9 | -42.9 | 300 | 17 |
| 2013-04-01T00:00 | 7673 | 381 | -32.7 | -46.7 | ||
| 2013-04-01T00:00 | 9259 | 302 | -46.1 | -58.1 | ||
| 2013-04-01T00:00 | 9310 | 300 | -46.1 | -58.1 | 290 | 17 |
| 2013-04-01T00:00 | 10500 | 250 | -55.3 | -65.3 | 290 | 22 |
| 2013-04-01T00:00 | 11385 | 217 | -62.7 | -71.7 | ||
| 2013-04-01T00:00 | 11733 | 205 | -64.3 | -73.3 | ||
| 2013-04-01T00:00 | 11880 | 200 | -65.9 | -74.9 | 285 | 24 |
| 2013-04-01T00:00 | 11941 | 198 | -66.3 | -74.3 | ||
| 2013-04-01T00:00 | 12449 | 182 | -67.3 | -75.3 | ||
| 2013-04-01T00:00 | 12652 | 176 | -64.9 | -73.9 | ||
| 2013-04-01T00:00 | 12757 | 173 | -65.1 | -74.1 | ||
| 2013-04-01T00:00 | 12936 | 168 | -62.1 | -71.1 | ||
| 2013-04-01T00:00 | 13010 | 166 | -59.5 | -68.5 | ||
| 2013-04-01T00:00 | 13278 | 159 | -61.1 | -70.1 | ||
| 2013-04-01T00:00 | 13356 | 157 | -60.5 | -69.5 | ||
| 2013-04-01T00:00 | 13516 | 153 | -61.7 | -70.7 | ||
| 2013-04-01T00:00 | 13650 | 150 | -60.3 | -69.3 | 275 | 26 |
| 2013-04-01T00:00 | 13692 | 149 | -59.9 | -68.9 | ||
| 2013-04-01T00:00 | 13862 | 145 | -59.5 | -68.5 | ||
| 2013-04-01T00:00 | 13992 | 142 | -60.9 | -69.9 | ||
| 2013-04-01T00:00 | 14169 | 138 | -61.1 | -70.1 | ||
| 2013-04-01T00:00 | 14260 | 136 | -60.1 | -69.1 | ||
| 2013-04-01T00:00 | 14399 | 133 | -60.5 | -69.5 | ||
| 2013-04-01T00:00 | 14637 | 128 | -59.7 | -69.7 | ||
| 2013-04-01T00:00 | 14836 | 124 | -58.1 | -68.1 | ||
| 2013-04-01T00:00 | 15696 | 108 | -61.7 | -70.7 | ||
| 2013-04-01T00:00 | 16170 | 100 | -62.7 | -71.7 | 285 | 23 |
| 2013-04-01T00:00 | 16672 | 92 | -65.5 | -74.5 | ||
| 2013-04-01T00:00 | 17260 | 83 | -59.5 | -69.5 | ||
| 2013-04-01T00:00 | 17954 | 74 | -59.1 | -69.1 | ||
| 2013-04-01T00:00 | 18380 | 70 | -60.7 | -70.7 | 305 | 16 |
| 2013-04-01T00:00 | 18959 | 63 | -65.1 | -74.1 | ||
| 2013-04-01T00:00 | 19144 | 61 | -63.3 | -72.3 | ||
| 2013-04-01T00:00 | 19235 | 60 | -59.5 | -69.5 | ||
| 2013-04-01T00:00 | 19508 | 58 | -58.5 | -68.5 | ||
| 2013-04-01T00:00 | 19941 | 54 | -59.5 | -69.5 | ||
| 2013-04-01T00:00 | 20470 | 50 | -63.5 | -72.5 | 335 | 9 |
| 2013-04-01T00:00 | 20770 | 47 | -65.1 | -74.1 | ||
| 2013-04-01T00:00 | 20796 | 47 | -64.3 | -73.3 | ||
| 2013-04-01T00:00 | 20822 | 47 | -59.9 | -69.9 | ||
| 2013-04-01T00:00 | 20876 | 46 | -58.9 | -68.9 | ||
| 2013-04-01T00:00 | 20929 | 46 | -55.5 | -66.5 | ||
| 2013-04-01T00:00 | 21068 | 45 | -54.7 | -65.7 | ||
| 2013-04-01T00:00 | 22024 | 39 | -60.9 | -70.9 | ||
| 2013-04-01T00:00 | 22523 | 36 | -58.7 | -68.7 | ||
| 2013-04-01T00:00 | 22806 | 34 | -60.7 | -70.7 | ||
| 2013-04-01T00:00 | 22953 | 33 | -57.9 | -68.9 | ||
| 2013-04-01T00:00 | 23670 | 30 | -58.1 | -69.1 | 300 | 11 |
| 2013-04-01T00:00 | 24062 | 28 | -54.1 | -66.1 | ||
| 2013-04-01T00:00 | 24603 | 25 | -56.9 | -67.9 | ||
| 2013-04-01T00:00 | 25218 | 23 | -56.5 | -68.5 | ||
| 2013-04-01T00:00 | 25410 | 22 | -55.7 | -67.7 | ||
| 2013-04-01T00:00 | 25494 | 22 | -53.7 | -66.7 | ||
| 2013-04-01T00:00 | 25668 | 21 | -52.5 | -65.5 | ||
| 2013-04-01T00:00 | 26260 | 20 | -51.9 | -65.9 | 260 | 11 |
| 2013-04-01T00:00 | 28126 | 15 | -50.3 | -69.3 | ||
| 2013-04-01T00:00 | 28347 | 14 | -47.5 | -69.5 | ||
| 2013-04-01T00:00 | 28578 | 14 | -48.1 | -71.1 | ||
| 2013-04-01T00:00 | 28917 | 13 | -45.9 | -71.9 | ||
| 2013-04-01T00:00 | 29226 | 12 | -42.5 | -71.5 | ||
| 2013-04-01T00:00 | 29664 | 11 | -42.3 | -74.3 | ||
| 2013-04-01T00:00 | 30192 | 11 | -44.3 | -79.3 | ||
| 2013-04-01T00:00 | 30850 | 10 | -41.1 | -78.1 | 255 | 31 |
| 2013-04-01T00:00 | 31490 | 9 | -40.1 | -77.1 | ||
| 2013-04-01T00:00 | 31877 | 8 | -36.9 | -74.9 | ||
| 2013-04-01T00:00 | 32289 | 8 | -37.9 | -75.9 | ||
| 2013-04-01T12:00 | 132 | 1000 | ||||
| 2013-04-01T12:00 | 801 | 925 | ||||
| 2013-04-01T12:00 | 1514 | 850 | ||||
| 2013-04-01T12:00 | 1784 | 822 | 0.6 | -3.5 | ||
| 2013-04-01T12:00 | 1862 | 814 | 2.6 | -2.1 | ||
| 2013-04-01T12:00 | 1922 | 808 | 3.0 | -2.0 | ||
| 2013-04-01T12:00 | 2833 | 721 | -1.7 | -6.7 | ||
| 2013-04-01T12:00 | 3076 | 700 | -1.9 | -8.9 | 220 | 6 |
| 2013-04-01T12:00 | 3201 | 689 | -2.3 | -10.3 | ||
| 2013-04-01T12:00 | 3376 | 674 | -0.5 | -10.5 | ||
| 2013-04-01T12:00 | 3531 | 661 | -1.3 | -13.3 | ||
| 2013-04-01T12:00 | 4149 | 611 | -6.7 | -15.7 | ||
| 2013-04-01T12:00 | 4551 | 580 | -10.3 | -16.3 | ||
| 2013-04-01T12:00 | 4684 | 570 | -11.5 | -18.5 | ||
| 2013-04-01T12:00 | 4860 | 557 | -12.7 | -22.7 | ||
| 2013-04-01T12:00 | 5207 | 532 | -15.5 | -28.5 | ||
| 2013-04-01T12:00 | 5436 | 516 | -16.3 | -35.3 | ||
| 2013-04-01T12:00 | 5680 | 500 | -17.9 | -36.9 | 265 | 13 |
| 2013-04-01T12:00 | 5710 | 498 | -18.1 | -37.1 | ||
| 2013-04-01T12:00 | 6311 | 459 | -23.7 | -42.7 | ||
| 2013-04-01T12:00 | 6651 | 438 | -25.3 | -39.3 | ||
| 2013-04-01T12:00 | 7310 | 400 | -31.5 | -41.5 | 280 | 12 |
| 2013-04-01T12:00 | 7967 | 364 | -37.5 | -46.5 | ||
| 2013-04-01T12:00 | 8374 | 343 | -39.9 | -48.9 | ||
| 2013-04-01T12:00 | 8906 | 317 | -44.5 | -53.5 | ||
| 2013-04-01T12:00 | 9270 | 300 | -46.7 | -55.7 | 265 | 18 |
| 2013-04-01T12:00 | 9771 | 278 | -49.5 | -57.5 | ||
| 2013-04-01T12:00 | 10460 | 250 | -54.9 | -62.9 | 285 | 31 |
| 2013-04-01T12:00 | 10933 | 232 | -58.3 | -66.3 | ||
| 2013-04-01T12:00 | 11821 | 201 | -64.1 | -71.1 | ||
| 2013-04-01T12:00 | 11860 | 200 | -64.1 | -71.1 | 285 | 31 |
| 2013-04-01T12:00 | 12572 | 178 | -63.5 | |||
| 2013-04-01T12:00 | 12962 | 167 | -64.3 | |||
| 2013-04-01T12:00 | 13148 | 162 | -62.7 | |||
| 2013-04-01T12:00 | 13380 | 156 | -62.9 | |||
| 2013-04-01T12:00 | 13500 | 153 | -61.5 | |||
| 2013-04-01T12:00 | 13620 | 150 | -61.3 | 275 | 30 | |
| 2013-04-01T12:00 | 13873 | 144 | -60.3 | |||
| 2013-04-01T12:00 | 14274 | 135 | -60.9 | |||
| 2013-04-01T12:00 | 14414 | 132 | -59.7 | |||
| 2013-04-01T12:00 | 14905 | 122 | -60.1 | |||
| 2013-04-01T12:00 | 15008 | 120 | -58.9 | |||
| 2013-04-01T12:00 | 15607 | 109 | -60.9 | |||
| 2013-04-01T12:00 | 15722 | 107 | -60.1 | |||
| 2013-04-01T12:00 | 15839 | 105 | -60.9 | |||
| 2013-04-01T12:00 | 16150 | 100 | -60.7 | 290 | 26 | |
| 2013-04-01T12:00 | 16429 | 95 | -61.7 | |||
| 2013-04-01T12:00 | 16653 | 92 | -60.1 | |||
| 2013-04-01T12:00 | 17156 | 85 | -62.7 | |||
| 2013-04-01T12:00 | 17569 | 79 | -60.7 | |||
| 2013-04-01T12:00 | 18360 | 70 | -61.1 | 310 | 19 | |
| 2013-04-01T12:00 | 18723 | 66 | -62.1 | |||
| 2013-04-01T12:00 | 19387 | 59 | -59.1 | |||
| 2013-04-01T12:00 | 20062 | 53 | -61.3 | |||
| 2013-04-01T12:00 | 20399 | 50 | -58.5 | |||
| 2013-04-01T12:00 | 20450 | 50 | -58.5 | 315 | 9 | |
| 2013-04-01T12:00 | 20876 | 46 | -61.5 | |||
| 2013-04-01T12:00 | 21243 | 44 | -61.5 | |||
| 2013-04-01T12:00 | 21502 | 42 | -60.3 | |||
| 2013-04-01T12:00 | 21881 | 39 | -61.3 | |||
| 2013-04-01T12:00 | 22137 | 38 | -59.5 | |||
| 2013-04-01T12:00 | 22507 | 35 | -60.5 | |||
| 2013-04-01T12:00 | 22773 | 34 | -59.1 | |||
| 2013-04-01T12:00 | 22938 | 33 | -60.3 | |||
| 2013-04-01T12:00 | 23128 | 32 | -57.7 | |||
| 2013-04-01T12:00 | 23640 | 30 | -59.1 | 260 | 6 | |
| 2013-04-01T12:00 | 24205 | 27 | -60.3 | |||
| 2013-04-01T12:00 | 24654 | 25 | -57.7 | |||
| 2013-04-01T12:00 | 25637 | 21 | -59.3 | |||
| 2013-04-01T12:00 | 25963 | 20 | -55.7 | |||
| 2013-04-01T12:00 | 26190 | 20 | -56.3 | 285 | 12 | |
| 2013-04-01T12:00 | 26548 | 18 | -56.7 | |||
| 2013-04-01T12:00 | 27149 | 17 | -52.9 | |||
| 2013-04-01T12:00 | 27944 | 15 | -52.9 | |||
| 2013-04-01T12:00 | 28522 | 13 | -50.5 | |||
| 2013-04-01T12:00 | 28762 | 13 | -47.5 | |||
| 2013-04-01T12:00 | 29543 | 11 | -48.1 | |||
| 2013-04-01T12:00 | 29885 | 11 | -44.9 | |||
| 2013-04-01T12:00 | 30720 | 10 | -42.7 | 255 | 32 | |
| 2013-04-01T12:00 | 30926 | 9 | -41.7 | |||
| 2013-04-01T12:00 | 31818 | 8 | -41.5 | |||
| 2013-04-01T12:00 | 32146 | 8 | -38.7 | |||
| 2013-04-01T12:00 | 33048 | 7 | -38.9 | -67.9 | ||
| 2013-04-02T00:00 | 113 | 1000 | ||||
| 2013-04-02T00:00 | 769 | 925 | ||||
| 2013-04-02T00:00 | 1471 | 850 | ||||
| 2013-04-02T00:00 | 1681 | 829 | 9.8 | -1.2 | ||
| 2013-04-02T00:00 | 1862 | 811 | 8.0 | -3.0 | ||
| 2013-04-02T00:00 | 2067 | 791 | 7.4 | -3.6 | ||
| 2013-04-02T00:00 | 2641 | 737 | 2.6 | -5.4 | ||
| 2013-04-02T00:00 | 3057 | 700 | -0.3 | -7.3 | 135 | 3 |
| 2013-04-02T00:00 | 3789 | 638 | -5.5 | -10.0 | ||
| 2013-04-02T00:00 | 4177 | 607 | -6.7 | -12.7 | ||
| 2013-04-02T00:00 | 4812 | 559 | -11.9 | -16.9 | ||
| 2013-04-02T00:00 | 4880 | 554 | -12.3 | -18.3 | ||
| 2013-04-02T00:00 | 5005 | 545 | -12.9 | -24.9 | ||
| 2013-04-02T00:00 | 5089 | 539 | -13.7 | -27.7 | ||
| 2013-04-02T00:00 | 5476 | 512 | -16.7 | -26.7 | ||
| 2013-04-02T00:00 | 5549 | 507 | -17.1 | -23.1 | ||
| 2013-04-02T00:00 | 5623 | 502 | -17.7 | -23.7 | ||
| 2013-04-02T00:00 | 5660 | 500 | -18.1 | -24.1 | 255 | 15 |
| 2013-04-02T00:00 | 5705 | 497 | -18.5 | -24.5 | ||
| 2013-04-02T00:00 | 5780 | 492 | -18.7 | -28.7 | ||
| 2013-04-02T00:00 | 5826 | 489 | -19.1 | -30.1 | ||
| 2013-04-02T00:00 | 6339 | 456 | -22.9 | -31.9 | ||
| 2013-04-02T00:00 | 6731 | 432 | -26.5 | -36.5 | ||
| 2013-04-02T00:00 | 7290 | 400 | -31.5 | -37.5 | 260 | 21 |
| 2013-04-02T00:00 | 7343 | 397 | -31.9 | -36.9 | ||
| 2013-04-02T00:00 | 7948 | 364 | -36.9 | -42.9 | ||
| 2013-04-02T00:00 | 8357 | 343 | -38.5 | -47.5 | ||
| 2013-04-02T00:00 | 9215 | 302 | -46.1 | -56.1 | ||
| 2013-04-02T00:00 | 9260 | 300 | -46.3 | -56.3 | 260 | 35 |
| 2013-04-02T00:00 | 9785 | 277 | -49.5 | -59.5 | ||
| 2013-04-02T00:00 | 10450 | 250 | -54.9 | -63.9 | 265 | 42 |
| 2013-04-02T00:00 | 11058 | 227 | -59.9 | -67.9 | ||
| 2013-04-02T00:00 | 11840 | 200 | -62.7 | -70.7 | 260 | 39 |
| 2013-04-02T00:00 | 11871 | 199 | -62.5 | -70.5 | ||
| 2013-04-02T00:00 | 12187 | 189 | -63.7 | -71.7 | ||
| 2013-04-02T00:00 | 12318 | 185 | -62.5 | -70.5 | ||
| 2013-04-02T00:00 | 12555 | 178 | -62.7 | -70.7 | ||
| 2013-04-02T00:00 | 12767 | 172 | -61.1 | -69.1 | ||
| 2013-04-02T00:00 | 12876 | 169 | -59.5 | -67.5 | ||
| 2013-04-02T00:00 | 13140 | 162 | -58.7 | -67.7 | ||
| 2013-04-02T00:00 | 13376 | 156 | -59.3 | -68.3 | ||
| 2013-04-02T00:00 | 13580 | 151 | -58.7 | -67.7 | ||
| 2013-04-02T00:00 | 13630 | 150 | -59.1 | -68.1 | 280 | 28 |
| 2013-04-02T00:00 | 13885 | 144 | -60.1 | -69.1 | ||
| 2013-04-02T00:00 | 14016 | 141 | -59.3 | -68.3 | ||
| 2013-04-02T00:00 | 14105 | 139 | -59.5 | -68.5 | ||
| 2013-04-02T00:00 | 14287 | 135 | -60.5 | -69.5 | ||
| 2013-04-02T00:00 | 14380 | 133 | -59.5 | -68.5 | ||
| 2013-04-02T00:00 | 14619 | 128 | -59.3 | -68.3 | ||
| 2013-04-02T00:00 | 14817 | 124 | -60.7 | -69.7 | ||
| 2013-04-02T00:00 | 14918 | 122 | -58.7 | -67.7 | ||
| 2013-04-02T00:00 | 15074 | 119 | -57.7 | -66.7 | ||
| 2013-04-02T00:00 | 15398 | 113 | -60.1 | -69.1 | ||
| 2013-04-02T00:00 | 15681 | 108 | -58.1 | -67.1 | ||
| 2013-04-02T00:00 | 16170 | 100 | -59.1 | -68.1 | 300 | 20 |
| 2013-04-02T00:00 | 17767 | 77 | -62.5 | -71.5 | ||
| 2013-04-02T00:00 | 18390 | 70 | -60.3 | -69.3 | 290 | 16 |
| 2013-04-02T00:00 | 18534 | 68 | -59.5 | -69.5 | ||
| 2013-04-02T00:00 | 19303 | 60 | -63.1 | -72.1 | ||
| 2013-04-02T00:00 | 20056 | 53 | -57.9 | -67.9 | ||
| 2013-04-02T00:00 | 20418 | 50 | -59.3 | -69.3 | ||
| 2013-04-02T00:00 | 20480 | 50 | -59.3 | -69.3 | 320 | 10 |
| 2013-04-02T00:00 | 20723 | 48 | -57.7 | -67.7 | ||
| 2013-04-02T00:00 | 21576 | 42 | -58.5 | -68.5 | ||
| 2013-04-02T00:00 | 22100 | 38 | -61.9 | -71.9 | ||
| 2013-04-02T00:00 | 23057 | 33 | -58.1 | -69.1 | ||
| 2013-04-02T00:00 | 23690 | 30 | -58.5 | -69.5 | 335 | 8 |
| 2013-04-02T00:00 | 25089 | 24 | -58.5 | -70.5 | ||
| 2013-04-02T00:00 | 25876 | 21 | -53.9 | -67.9 | ||
| 2013-04-02T00:00 | 26250 | 20 | -54.9 | -69.9 | 300 | 9 |
| 2013-04-02T00:00 | 27437 | 16 | -55.1 | -72.1 | ||
| 2013-04-02T00:00 | 28003 | 15 | -50.9 | -73.9 | ||
| 2013-04-02T00:00 | 28534 | 14 | -52.9 | -77.9 | ||
| 2013-04-02T00:00 | 29015 | 13 | -49.3 | -82.3 | ||
| 2013-04-02T00:00 | 29935 | 11 | -47.5 | -82.5 | ||
| 2013-04-02T00:00 | 30174 | 10 | -44.9 | -79.9 | ||
| 2013-04-02T00:00 | 30770 | 10 | -43.1 | -79.1 | 250 | 25 |
| 2013-04-02T00:00 | 30976 | 9 | -41.9 | -77.9 | ||
| 2013-04-02T00:00 | 31555 | 8 | -42.5 | -78.5 | ||
| 2013-04-02T00:00 | 31787 | 8 | -40.3 | -77.3 | ||
| 2013-04-02T00:00 | 32111 | 8 | -40.1 | -77.1 | ||
| 2013-04-02T00:00 | 32912 | 7 | -34.3 | -73.3 | ||
| 2013-04-02T12:00 | 135 | 1000 | ||||
| 2013-04-02T12:00 | 794 | 925 | ||||
| 2013-04-02T12:00 | 1498 | 850 | ||||
| 2013-04-02T12:00 | 1640 | 835 | 2.8 | -0.3 | ||
| 2013-04-02T12:00 | 1973 | 801 | 0.0 | -2.5 | ||
| 2013-04-02T12:00 | 2053 | 793 | 0.2 | -2.6 | ||
| 2013-04-02T12:00 | 2360 | 763 | -1.5 | -2.1 | ||
| 2013-04-02T12:00 | 2668 | 734 | -1.1 | -1.5 | ||
| 2013-04-02T12:00 | 3055 | 700 | -3.5 | -4.1 | 220 | 2 |
| 2013-04-02T12:00 | 3340 | 675 | -5.5 | -5.9 | ||
| 2013-04-02T12:00 | 3422 | 668 | -5.3 | -5.9 | ||
| 2013-04-02T12:00 | 3853 | 632 | -7.9 | -8.8 | ||
| 2013-04-02T12:00 | 4165 | 607 | -9.5 | -15.5 | ||
| 2013-04-02T12:00 | 4331 | 594 | -10.1 | -16.1 | ||
| 2013-04-02T12:00 | 4740 | 563 | -13.1 | -17.7 | ||
| 2013-04-02T12:00 | 5153 | 533 | -16.5 | -23.5 | ||
| 2013-04-02T12:00 | 5496 | 509 | -19.7 | -24.7 | ||
| 2013-04-02T12:00 | 5640 | 500 | -20.7 | -26.7 | 250 | 10 |
| 2013-04-02T12:00 | 5774 | 491 | -21.7 | -27.7 | ||
| 2013-04-02T12:00 | 6408 | 450 | -26.5 | -36.5 | ||
| 2013-04-02T12:00 | 6586 | 439 | -27.1 | -41.1 | ||
| 2013-04-02T12:00 | 7250 | 400 | -30.7 | -44.7 | 245 | 20 |
| 2013-04-02T12:00 | 7268 | 399 | -30.9 | -44.9 | ||
| 2013-04-02T12:00 | 8121 | 353 | -38.7 | -48.7 | ||
| 2013-04-02T12:00 | 8806 | 319 | -44.1 | -53.1 | ||
| 2013-04-02T12:00 | 9220 | 300 | -47.1 | -56.1 | 240 | 29 |
| 2013-04-02T12:00 | 9626 | 282 | -49.7 | -58.7 | ||
| 2013-04-02T12:00 | 10400 | 250 | -56.5 | -64.5 | 240 | 32 |
| 2013-04-02T12:00 | 10579 | 243 | -58.1 | -66.1 | ||
| 2013-04-02T12:00 | 11114 | 223 | -61.5 | -69.5 | ||
| 2013-04-02T12:00 | 11283 | 217 | -61.3 | -69.3 | ||
| 2013-04-02T12:00 | 11790 | 200 | -63.1 | 250 | 23 | |
| 2013-04-02T12:00 | 12271 | 185 | -60.7 | |||
| 2013-04-02T12:00 | 12339 | 183 | -57.7 | |||
| 2013-04-02T12:00 | 12408 | 181 | -57.1 | |||
| 2013-04-02T12:00 | 12878 | 168 | -57.5 | |||
| 2013-04-02T12:00 | 12954 | 166 | -56.3 | |||
| 2013-04-02T12:00 | 13069 | 163 | -56.3 | |||
| 2013-04-02T12:00 | 13386 | 155 | -59.1 | |||
| 2013-04-02T12:00 | 13600 | 150 | -59.7 | 265 | 25 | |
| 2013-04-02T12:00 | 13684 | 148 | -58.7 | |||
| 2013-04-02T12:00 | 13942 | 142 | -60.1 | |||
| 2013-04-02T12:00 | 13986 | 141 | -58.5 | |||
| 2013-04-02T12:00 | 14121 | 138 | -57.9 | |||
| 2013-04-02T12:00 | 14353 | 133 | -57.9 | |||
| 2013-04-02T12:00 | 14642 | 127 | -58.9 | |||
| 2013-04-02T12:00 | 14843 | 123 | -57.1 | |||
| 2013-04-02T12:00 | 14946 | 121 | -57.9 | |||
| 2013-04-02T12:00 | 15432 | 112 | -57.9 | |||
| 2013-04-02T12:00 | 15836 | 105 | -60.1 | |||
| 2013-04-02T12:00 | 16140 | 100 | -59.9 | 285 | 20 | |
| 2013-04-02T12:00 | 16721 | 91 | -59.3 | |||
| 2013-04-02T12:00 | 18370 | 70 | -61.3 | 300 | 20 | |
| 2013-04-02T12:00 | 18397 | 69 | -61.3 | |||
| 2013-04-02T12:00 | 19144 | 61 | -59.5 | |||
| 2013-04-02T12:00 | 19528 | 58 | -61.1 | |||
| 2013-04-02T12:00 | 20240 | 51 | -60.5 | |||
| 2013-04-02T12:00 | 20460 | 50 | -59.1 | 305 | 13 | |
| 2013-04-02T12:00 | 20473 | 49 | -58.9 | |||
| 2013-04-02T12:00 | 20819 | 47 | -61.3 | |||
| 2013-04-02T12:00 | 21130 | 44 | -59.3 | |||
| 2013-04-02T12:00 | 21850 | 40 | -60.1 | |||
| 2013-04-02T12:00 | 22269 | 37 | -59.1 | |||
| 2013-04-02T12:00 | 23398 | 31 | -60.7 | |||
| 2013-04-02T12:00 | 23650 | 30 | -58.9 | 315 | 11 | |
| 2013-04-02T12:00 | 23713 | 29 | -58.7 | |||
| 2013-04-02T12:00 | 24082 | 28 | -59.3 | |||
| 2013-04-02T12:00 | 24647 | 25 | -55.5 | |||
| 2013-04-02T12:00 | 26210 | 20 | -60.7 | 300 | 6 | |
| 2013-04-02T12:00 | 26335 | 19 | -60.9 | |||
| 2013-04-02T12:00 | 26431 | 19 | -58.3 | |||
| 2013-04-02T12:00 | 26664 | 18 | -55.7 | |||
| 2013-04-02T12:00 | 27164 | 17 | -52.9 | |||
| 2013-04-02T12:00 | 27508 | 16 | -55.5 | |||
| 2013-04-02T12:00 | 27996 | 15 | -53.9 | |||
| 2013-04-02T12:00 | 28526 | 13 | -54.9 | |||
| 2013-04-02T12:00 | 29586 | 11 | -47.7 | |||
| 2013-04-02T12:00 | 30288 | 10 | -50.1 | |||
| 2013-04-02T12:00 | 30680 | 10 | -47.5 | 275 | 13 | |
| 2013-04-02T12:00 | 31020 | 9 | -44.7 | |||
| 2013-04-02T12:00 | 31603 | 8 | -47.7 | |||
| 2013-04-02T12:00 | 31914 | 8 | -45.5 | |||
| 2013-04-02T12:00 | 32159 | 8 | -45.9 | |||
| 2013-04-02T12:00 | 32415 | 7 | -42.5 | |||
| 2013-04-02T12:00 | 32592 | 7 | -43.3 | |||
| 2013-04-02T12:00 | 32868 | 7 | -40.5 | -63.5 | ||
| 2013-04-03T00:00 | 159 | 1000 | ||||
| 2013-04-03T00:00 | 808 | 925 | ||||
| 2013-04-03T00:00 | 1501 | 850 | ||||
| 2013-04-03T00:00 | 1785 | 821 | 1.0 | -0.2 | ||
| 2013-04-03T00:00 | 2042 | 795 | -0.7 | -1.5 | ||
| 2013-04-03T00:00 | 2296 | 770 | -0.9 | -1.7 | ||
| 2013-04-03T00:00 | 3052 | 700 | -5.3 | -6.7 | 105 | 4 |
| 2013-04-03T00:00 | 3187 | 688 | -6.1 | -7.7 | ||
| 2013-04-03T00:00 | 3267 | 681 | -5.3 | -6.4 | ||
| 2013-04-03T00:00 | 3371 | 672 | -5.7 | -7.0 | ||
| 2013-04-03T00:00 | 3618 | 651 | -7.1 | -9.3 | ||
| 2013-04-03T00:00 | 3896 | 628 | -9.1 | -10.6 | ||
| 2013-04-03T00:00 | 4158 | 607 | -9.7 | -11.8 | ||
| 2013-04-03T00:00 | 4612 | 572 | -13.3 | -16.5 | ||
| 2013-04-03T00:00 | 4705 | 565 | -14.7 | -20.7 | ||
| 2013-04-03T00:00 | 4840 | 555 | -15.3 | -21.3 | ||
| 2013-04-03T00:00 | 4922 | 549 | -15.3 | -20.3 | ||
| 2013-04-03T00:00 | 5414 | 514 | -19.3 | -23.2 | ||
| 2013-04-03T00:00 | 5530 | 506 | -20.5 | -24.9 | ||
| 2013-04-03T00:00 | 5630 | 500 | -21.9 | -29.9 | 140 | 8 |
| 2013-04-03T00:00 | 5704 | 495 | -22.7 | -34.7 | ||
| 2013-04-03T00:00 | 5793 | 489 | -22.9 | -36.9 | ||
| 2013-04-03T00:00 | 6523 | 442 | -28.3 | -42.3 | ||
| 2013-04-03T00:00 | 7004 | 413 | -32.3 | -42.3 | ||
| 2013-04-03T00:00 | 7230 | 400 | -33.7 | -45.7 | 240 | 2 |
| 2013-04-03T00:00 | 7641 | 377 | -36.7 | -49.7 | ||
| 2013-04-03T00:00 | 9180 | 300 | -50.5 | -59.5 | 215 | 12 |
| 2013-04-03T00:00 | 9556 | 283 | -53.9 | -61.9 | ||
| 2013-04-03T00:00 | 10340 | 250 | -57.3 | -65.3 | 200 | 14 |
| 2013-04-03T00:00 | 10545 | 242 | -57.3 | -65.3 | ||
| 2013-04-03T00:00 | 10922 | 228 | -55.5 | -63.5 | ||
| 2013-04-03T00:00 | 11265 | 216 | -56.7 | -65.7 | ||
| 2013-04-03T00:00 | 11474 | 209 | -55.9 | -64.9 | ||
| 2013-04-03T00:00 | 11760 | 200 | -57.1 | -66.1 | 215 | 9 |
| 2013-04-03T00:00 | 12251 | 185 | -58.1 | -67.1 | ||
| 2013-04-03T00:00 | 12424 | 180 | -56.3 | -65.3 | ||
| 2013-04-03T00:00 | 12712 | 172 | -56.5 | -65.5 | ||
| 2013-04-03T00:00 | 12786 | 170 | -55.3 | -64.3 | ||
| 2013-04-03T00:00 | 13014 | 164 | -55.5 | -64.5 | ||
| 2013-04-03T00:00 | 13092 | 162 | -54.9 | -63.9 | ||
| 2013-04-03T00:00 | 13373 | 155 | -56.3 | -65.3 | ||
| 2013-04-03T00:00 | 13590 | 150 | -56.1 | -65.1 | 265 | 14 |
| 2013-04-03T00:00 | 14165 | 137 | -55.5 | -64.5 | ||
| 2013-04-03T00:00 | 14353 | 133 | -56.9 | -65.9 | ||
| 2013-04-03T00:00 | 14644 | 127 | -57.1 | -66.1 | ||
| 2013-04-03T00:00 | 15000 | 120 | -58.7 | -67.7 | ||
| 2013-04-03T00:00 | 15604 | 109 | -57.1 | -66.1 | ||
| 2013-04-03T00:00 | 15900 | 104 | -57.5 | -66.5 | ||
| 2013-04-03T00:00 | 16022 | 102 | -58.5 | -67.5 | ||
| 2013-04-03T00:00 | 16084 | 101 | -57.7 | -66.7 | ||
| 2013-04-03T00:00 | 16150 | 100 | -58.3 | -67.3 | 280 | 17 |
| 2013-04-03T00:00 | 17678 | 78 | -60.3 | -69.3 | ||
| 2013-04-03T00:00 | 17815 | 76 | -59.1 | -68.1 | ||
| 2013-04-03T00:00 | 18380 | 70 | -60.1 | -69.1 | 280 | 15 |
| 2013-04-03T00:00 | 18469 | 69 | -60.7 | -69.7 | ||
| 2013-04-03T00:00 | 18860 | 64 | -58.9 | -68.9 | ||
| 2013-04-03T00:00 | 19383 | 59 | -59.3 | -69.3 | ||
| 2013-04-03T00:00 | 20091 | 53 | -60.3 | -70.3 | ||
| 2013-04-03T00:00 | 20328 | 51 | -62.1 | -71.1 | ||
| 2013-04-03T00:00 | 20480 | 50 | -61.3 | -70.3 | 285 | 16 |
| 2013-04-03T00:00 | 20542 | 49 | -60.9 | -69.9 | ||
| 2013-04-03T00:00 | 20669 | 48 | -58.3 | -68.3 | ||
| 2013-04-03T00:00 | 21222 | 44 | -59.5 | -69.5 | ||
| 2013-04-03T00:00 | 22134 | 38 | -56.7 | -66.7 | ||
| 2013-04-03T00:00 | 22862 | 34 | -59.3 | -69.3 | ||
| 2013-04-03T00:00 | 23144 | 32 | -56.3 | -66.3 | ||
| 2013-04-03T00:00 | 23700 | 30 | -56.5 | -67.5 | 210 | 3 |
| 2013-04-03T00:00 | 24578 | 26 | -58.1 | -69.1 | ||
| 2013-04-03T00:00 | 25323 | 23 | -55.1 | -66.1 | ||
| 2013-04-03T00:00 | 25603 | 22 | -55.9 | -66.9 | ||
| 2013-04-03T00:00 | 25988 | 20 | -53.5 | -65.5 | ||
| 2013-04-03T00:00 | 26270 | 20 | -55.5 | -67.5 | 320 | 4 |
| 2013-04-03T00:00 | 26431 | 19 | -55.9 | -67.9 | ||
| 2013-04-03T00:00 | 26698 | 18 | -54.5 | -67.5 | ||
| 2013-04-03T00:00 | 27084 | 17 | -55.3 | -68.3 | ||
| 2013-04-03T00:00 | 27695 | 16 | -52.1 | -67.1 | ||
| 2013-04-03T00:00 | 28740 | 13 | -53.9 | -69.9 | ||
| 2013-04-03T00:00 | 29183 | 12 | -48.9 | -68.9 | ||
| 2013-04-03T00:00 | 29610 | 11 | -47.7 | -68.7 | ||
| 2013-04-03T00:00 | 29779 | 11 | -45.5 | -66.5 | ||
| 2013-04-03T00:00 | 30503 | 10 | -46.7 | -68.7 | ||
| 2013-04-03T00:00 | 30780 | 10 | -46.1 | -69.1 | 260 | 12 |
| 2013-04-03T00:00 | 31632 | 8 | -43.7 | -69.7 | ||
| 2013-04-03T00:00 | 31864 | 8 | -44.7 | -71.7 | ||
| 2013-04-03T00:00 | 32356 | 7 | -41.1 | -69.1 | ||
| 2013-04-03T12:00 | 169 | 1000 | ||||
| 2013-04-03T12:00 | 817 | 925 | ||||
| 2013-04-03T12:00 | 1511 | 850 | ||||
| 2013-04-03T12:00 | 1688 | 832 | 2.4 | 1.0 | ||
| 2013-04-03T12:00 | 1824 | 818 | 1.8 | -0.7 | ||
| 2013-04-03T12:00 | 1933 | 807 | 0.8 | -0.5 | ||
| 2013-04-03T12:00 | 2485 | 753 | -1.1 | -2.5 | ||
| 2013-04-03T12:00 | 2971 | 708 | -4.9 | -5.7 | ||
| 2013-04-03T12:00 | 3063 | 700 | -4.7 | -5.2 | 355 | 5 |
| 2013-04-03T12:00 | 3108 | 696 | -4.5 | -5.1 | ||
| 2013-04-03T12:00 | 3441 | 667 | -6.3 | -7.9 | ||
| 2013-04-03T12:00 | 4308 | 596 | -12.7 | -13.3 | ||
| 2013-04-03T12:00 | 4580 | 575 | -13.5 | -16.7 | ||
| 2013-04-03T12:00 | 5550 | 505 | -21.1 | -24.2 | ||
| 2013-04-03T12:00 | 5630 | 500 | -21.7 | -24.6 | 15 | 8 |
| 2013-04-03T12:00 | 5838 | 486 | -23.3 | -25.4 | ||
| 2013-04-03T12:00 | 5989 | 476 | -24.5 | -30.5 | ||
| 2013-04-03T12:00 | 6190 | 463 | -25.7 | -35.7 | ||
| 2013-04-03T12:00 | 6802 | 425 | -31.1 | -37.1 | ||
| 2013-04-03T12:00 | 7240 | 400 | -34.5 | -41.5 | 35 | 12 |
| 2013-04-03T12:00 | 7908 | 363 | -40.1 | -48.1 | ||
| 2013-04-03T12:00 | 9180 | 300 | -51.1 | -58.1 | 25 | 13 |
| 2013-04-03T12:00 | 9761 | 274 | -56.3 | -62.3 | ||
| 2013-04-03T12:00 | 10091 | 260 | -58.9 | -64.9 | ||
| 2013-04-03T12:00 | 10340 | 250 | -57.1 | -63.1 | 45 | 14 |
| 2013-04-03T12:00 | 10416 | 247 | -56.1 | -62.1 | ||
| 2013-04-03T12:00 | 10785 | 233 | -56.7 | -63.7 | ||
| 2013-04-03T12:00 | 10867 | 230 | -55.9 | -62.9 | ||
| 2013-04-03T12:00 | 11091 | 222 | -56.7 | -63.7 | ||
| 2013-04-03T12:00 | 11474 | 209 | -54.5 | -61.5 | ||
| 2013-04-03T12:00 | 11760 | 200 | -55.7 | -63.7 | 315 | 9 |
| 2013-04-03T12:00 | 11792 | 199 | -56.1 | -64.1 | ||
| 2013-04-03T12:00 | 12153 | 188 | -55.1 | -63.1 | ||
| 2013-04-03T12:00 | 12644 | 174 | -56.7 | -64.7 | ||
| 2013-04-03T12:00 | 13057 | 163 | -56.1 | -64.1 | ||
| 2013-04-03T12:00 | 13580 | 150 | -56.9 | -65.9 | 295 | 13 |
| 2013-04-03T12:00 | 14108 | 138 | -56.1 | -65.1 | ||
| 2013-04-03T12:00 | 14341 | 133 | -57.3 | -66.3 | ||
| 2013-04-03T12:00 | 14437 | 131 | -56.9 | -65.9 | ||
| 2013-04-03T12:00 | 14682 | 126 | -58.1 | -67.1 | ||
| 2013-04-03T12:00 | 14988 | 120 | -58.1 | -67.1 | ||
| 2013-04-03T12:00 | 15200 | 116 | -59.1 | -68.1 | ||
| 2013-04-03T12:00 | 15706 | 107 | -57.7 | -66.7 | ||
| 2013-04-03T12:00 | 16140 | 100 | -57.7 | -66.7 | 285 | 13 |
| 2013-04-03T12:00 | 17383 | 82 | -59.5 | -68.5 | ||
| 2013-04-03T12:00 | 17917 | 75 | -58.1 | -68.1 | ||
| 2013-04-03T12:00 | 18380 | 70 | -59.1 | -69.1 | 285 | 14 |
| 2013-04-03T12:00 | 18407 | 69 | -59.1 | -69.1 | ||
| 2013-04-03T12:00 | 19012 | 63 | -57.3 | -67.3 | ||
| 2013-04-03T12:00 | 19411 | 59 | -59.5 | -69.5 | ||
| 2013-04-03T12:00 | 19881 | 55 | -58.1 | -68.1 | ||
| 2013-04-03T12:00 | 20490 | 50 | -60.9 | -70.9 | 220 | 5 |
| 2013-04-03T12:00 | 20886 | 46 | -61.5 | -71.5 | ||
| 2013-04-03T12:00 | 21170 | 44 | -59.5 | -69.5 | ||
| 2013-04-03T12:00 | 21705 | 41 | -61.9 | -71.9 | ||
| 2013-04-03T12:00 | 22258 | 37 | -58.9 | -69.9 | ||
| 2013-04-03T12:00 | 22832 | 34 | -59.3 | -70.3 | ||
| 2013-04-03T12:00 | 23056 | 33 | -56.7 | -68.7 | ||
| 2013-04-03T12:00 | 23612 | 30 | -59.1 | -70.1 | ||
| 2013-04-03T12:00 | 23690 | 30 | -58.9 | -70.9 | 310 | 7 |
| 2013-04-03T12:00 | 23969 | 28 | -56.7 | -68.7 | ||
| 2013-04-03T12:00 | 24720 | 25 | -54.7 | -67.7 | ||
| 2013-04-03T12:00 | 25431 | 22 | -56.5 | -70.5 | ||
| 2013-04-03T12:00 | 26138 | 20 | -54.7 | -70.7 | ||
| 2013-04-03T12:00 | 26260 | 20 | -55.3 | -71.3 | 320 | 5 |
| 2013-04-03T12:00 | 27035 | 17 | -56.5 | -73.5 | ||
| 2013-04-03T12:00 | 27481 | 16 | -54.9 | -74.9 | ||
| 2013-04-03T12:00 | 27838 | 15 | -55.3 | -75.3 | ||
| 2013-04-03T12:00 | 28176 | 14 | -51.7 | -80.7 | ||
| 2013-04-03T12:00 | 28308 | 14 | -51.7 | -82.7 | ||
| 2013-04-03T12:00 | 28444 | 14 | -48.9 | -82.9 | ||
| 2013-04-03T12:00 | 28974 | 13 | -47.5 | -82.5 | ||
| 2013-04-03T12:00 | 29442 | 12 | -48.9 | -82.9 | ||
| 2013-04-03T12:00 | 29889 | 11 | -46.3 | -81.3 | ||
| 2013-04-03T12:00 | 30369 | 10 | -47.7 | -82.7 | ||
| 2013-04-03T12:00 | 30770 | 10 | -45.9 | -80.9 | 250 | 12 |
| 2013-04-03T12:00 | 31042 | 9 | -44.5 | -80.5 | ||
| 2013-04-04T00:00 | 120 | 1000 | ||||
| 2013-04-04T00:00 | 782 | 925 | ||||
| 2013-04-04T00:00 | 1491 | 850 | ||||
| 2013-04-04T00:00 | 1671 | 832 | 13.4 | -10.6 | ||
| 2013-04-04T00:00 | 2408 | 761 | 6.4 | -9.6 | ||
| 2013-04-04T00:00 | 2846 | 721 | 3.4 | -14.6 | ||
| 2013-04-04T00:00 | 3089 | 700 | 1.2 | -15.8 | 12 | |
| 2013-04-04T00:00 | 3545 | 661 | -2.7 | -16.7 | ||
| 2013-04-04T00:00 | 3910 | 631 | -5.9 | -14.9 | ||
| 2013-04-04T00:00 | 4706 | 569 | -13.3 | -24.3 | ||
| 2013-04-04T00:00 | 5298 | 526 | -17.3 | -30.3 | ||
| 2013-04-04T00:00 | 5384 | 520 | -17.9 | -33.9 | ||
| 2013-04-04T00:00 | 5680 | 500 | -20.5 | -36.5 | 350 | 13 |
| 2013-04-04T00:00 | 6723 | 433 | -29.5 | -42.5 | ||
| 2013-04-04T00:00 | 6889 | 423 | -29.9 | -43.9 | ||
| 2013-04-04T00:00 | 7290 | 400 | -33.1 | -48.1 | 350 | 11 |
| 2013-04-04T00:00 | 7593 | 383 | -35.3 | -49.3 | ||
| 2013-04-04T00:00 | 8916 | 315 | -47.5 | -57.5 | ||
| 2013-04-04T00:00 | 9240 | 300 | -49.9 | -59.9 | 350 | 12 |
| 2013-04-04T00:00 | 10410 | 250 | -58.1 | -67.1 | 335 | 15 |
| 2013-04-04T00:00 | 10588 | 243 | -59.3 | -68.3 | ||
| 2013-04-04T00:00 | 11179 | 221 | -60.7 | -69.7 | ||
| 2013-04-04T00:00 | 11349 | 215 | -62.1 | -71.1 | ||
| 2013-04-04T00:00 | 11800 | 200 | -59.9 | -68.9 | 330 | 17 |
| 2013-04-04T00:00 | 11831 | 199 | -59.9 | -68.9 | ||
| 2013-04-04T00:00 | 11894 | 197 | -58.7 | -67.7 | ||
| 2013-04-04T00:00 | 12023 | 193 | -57.7 | -66.7 | ||
| 2013-04-04T00:00 | 12221 | 187 | -59.1 | -68.1 | ||
| 2013-04-04T00:00 | 12459 | 180 | -59.7 | -68.7 | ||
| 2013-04-04T00:00 | 12635 | 175 | -58.7 | -67.7 | ||
| 2013-04-04T00:00 | 12781 | 171 | -56.1 | -65.1 | ||
| 2013-04-04T00:00 | 13241 | 159 | -57.5 | -66.5 | ||
| 2013-04-04T00:00 | 13442 | 154 | -57.1 | -66.1 | ||
| 2013-04-04T00:00 | 13610 | 150 | -57.9 | -66.9 | 300 | 14 |
| 2013-04-04T00:00 | 13694 | 148 | -58.1 | -67.1 | ||
| 2013-04-04T00:00 | 13866 | 144 | -57.9 | -66.9 | ||
| 2013-04-04T00:00 | 13999 | 141 | -56.5 | -66.5 | ||
| 2013-04-04T00:00 | 14367 | 133 | -57.9 | -67.9 | ||
| 2013-04-04T00:00 | 14511 | 130 | -56.9 | -66.9 | ||
| 2013-04-04T00:00 | 14809 | 124 | -57.1 | -67.1 | ||
| 2013-04-04T00:00 | 15015 | 120 | -58.3 | -68.3 | ||
| 2013-04-04T00:00 | 15337 | 114 | -58.3 | -68.3 | ||
| 2013-04-04T00:00 | 15676 | 108 | -59.9 | -68.9 | ||
| 2013-04-04T00:00 | 15792 | 106 | -58.9 | -68.9 | ||
| 2013-04-04T00:00 | 16170 | 100 | -59.9 | -68.9 | 300 | 16 |
| 2013-04-04T00:00 | 17160 | 85 | -59.9 | -69.9 | ||
| 2013-04-04T00:00 | 17667 | 78 | -61.5 | -70.5 | ||
| 2013-04-04T00:00 | 18390 | 70 | -58.5 | -68.5 | 280 | 15 |
| 2013-04-04T00:00 | 18444 | 69 | -58.3 | -68.3 | ||
| 2013-04-04T00:00 | 18673 | 66 | -59.9 | -69.9 | ||
| 2013-04-04T00:00 | 19118 | 62 | -58.5 | -68.5 | ||
| 2013-04-04T00:00 | 19863 | 55 | -59.9 | -69.9 | ||
| 2013-04-04T00:00 | 20059 | 53 | -57.1 | -67.1 | ||
| 2013-04-04T00:00 | 20449 | 50 | -54.9 | -65.9 | ||
| 2013-04-04T00:00 | 20500 | 50 | -55.5 | -66.5 | 275 | 5 |
| 2013-04-04T00:00 | 20851 | 47 | -57.7 | -67.7 | ||
| 2013-04-04T00:00 | 21394 | 43 | -56.7 | -67.7 | ||
| 2013-04-04T00:00 | 22212 | 38 | -59.7 | -69.7 | ||
| 2013-04-04T00:00 | 22498 | 36 | -57.9 | -68.9 | ||
| 2013-04-04T00:00 | 23018 | 33 | -59.1 | -69.1 | ||
| 2013-04-04T00:00 | 23730 | 30 | -54.5 | -65.5 | 275 | 7 |
| 2013-04-04T00:00 | 23991 | 28 | -53.7 | -65.7 | ||
| 2013-04-04T00:00 | 25647 | 22 | -56.9 | -68.9 | ||
| 2013-04-04T00:00 | 25704 | 22 | -55.1 | -67.1 | ||
| 2013-04-04T00:00 | 25910 | 21 | -55.5 | -67.5 | ||
| 2013-04-04T00:00 | 26187 | 20 | -51.7 | -65.7 | ||
| 2013-04-04T00:00 | 26320 | 20 | -51.9 | -65.9 | 330 | 4 |
| 2013-04-04T00:00 | 26652 | 19 | -50.5 | -65.5 | ||
| 2013-04-04T00:00 | 26860 | 18 | -51.7 | -66.7 | ||
| 2013-04-04T00:00 | 27297 | 17 | -50.7 | -67.7 | ||
| 2013-04-04T00:00 | 28054 | 15 | -52.7 | -71.7 | ||
| 2013-04-04T00:00 | 28718 | 13 | -52.7 | -74.7 | ||
| 2013-04-04T00:00 | 28860 | 13 | -51.1 | -75.1 | ||
| 2013-04-04T00:00 | 29154 | 12 | -51.9 | -76.9 | ||
| 2013-04-04T00:00 | 29791 | 11 | -47.9 | -79.9 | ||
| 2013-04-04T00:00 | 30692 | 10 | -48.5 | -82.5 | ||
| 2013-04-04T00:00 | 30840 | 10 | -46.1 | -81.1 | 275 | 15 |
| 2013-04-04T00:00 | 30907 | 9 | -45.5 | -80.5 | ||
| 2013-04-04T00:00 | 31615 | 8 | -45.5 | -80.5 | ||
| 2013-04-04T00:00 | 32499 | 7 | -41.7 | -77.7 | ||
| 2013-04-04T12:00 | 154 | 1000 | ||||
| 2013-04-04T12:00 | 815 | 925 | ||||
| 2013-04-04T12:00 | 1524 | 850 | ||||
| 2013-04-04T12:00 | 1718 | 830 | 8.4 | -1.6 | ||
| 2013-04-04T12:00 | 1818 | 820 | 8.2 | -2.8 | ||
| 2013-04-04T12:00 | 2696 | 736 | 2.0 | -6.0 | ||
| 2013-04-04T12:00 | 3106 | 700 | -0.3 | -8.3 | 310 | 8 |
| 2013-04-04T12:00 | 3301 | 683 | -1.5 | -9.5 | ||
| 2013-04-04T12:00 | 4772 | 565 | -13.7 | -19.7 | ||
| 2013-04-04T12:00 | 5700 | 500 | -19.7 | -31.7 | 315 | 11 |
| 2013-04-04T12:00 | 5774 | 495 | -20.1 | -32.1 | ||
| 2013-04-04T12:00 | 6846 | 427 | -29.3 | -41.3 | ||
| 2013-04-04T12:00 | 7310 | 400 | -31.9 | -43.9 | 340 | 22 |
| 2013-04-04T12:00 | 7688 | 379 | -33.7 | -46.7 | ||
| 2013-04-04T12:00 | 9187 | 304 | -47.1 | -57.1 | ||
| 2013-04-04T12:00 | 9280 | 300 | -47.7 | -57.7 | 345 | 25 |
| 2013-04-04T12:00 | 10460 | 250 | -57.3 | -66.3 | 350 | 24 |
| 2013-04-04T12:00 | 10717 | 240 | -58.5 | -67.5 | ||
| 2013-04-04T12:00 | 11313 | 218 | -63.3 | -71.3 | ||
| 2013-04-04T12:00 | 11630 | 207 | -63.5 | -71.5 | ||
| 2013-04-04T12:00 | 11840 | 200 | -65.3 | 330 | 24 | |
| 2013-04-04T12:00 | 12152 | 190 | -63.9 | -71.9 | ||
| 2013-04-04T12:00 | 12282 | 186 | -64.7 | -72.7 | ||
| 2013-04-04T12:00 | 12381 | 183 | -63.5 | -71.5 | ||
| 2013-04-04T12:00 | 12482 | 180 | -63.7 | -71.7 | ||
| 2013-04-04T12:00 | 12551 | 178 | -62.3 | -70.3 | ||
| 2013-04-04T12:00 | 12656 | 175 | -60.5 | -69.5 | ||
| 2013-04-04T12:00 | 12946 | 167 | -61.3 | -70.3 | ||
| 2013-04-04T12:00 | 13252 | 159 | -58.5 | -67.5 | ||
| 2013-04-04T12:00 | 13452 | 154 | -59.1 | -68.1 | ||
| 2013-04-04T12:00 | 13576 | 151 | -57.7 | -66.7 | ||
| 2013-04-04T12:00 | 13630 | 150 | -57.7 | 310 | 25 | |
| 2013-04-04T12:00 | 13800 | 146 | -57.3 | -66.3 | ||
| 2013-04-04T12:00 | 14020 | 141 | -57.5 | -66.5 | ||
| 2013-04-04T12:00 | 14480 | 131 | -60.5 | -69.5 | ||
| 2013-04-04T12:00 | 14873 | 123 | -59.1 | -68.1 | ||
| 2013-04-04T12:00 | 15184 | 117 | -61.3 | -70.3 | ||
| 2013-04-04T12:00 | 15237 | 116 | -61.1 | -70.1 | ||
| 2013-04-04T12:00 | 15455 | 112 | -59.1 | -68.1 | ||
| 2013-04-04T12:00 | 16040 | 102 | -58.9 | -67.9 | ||
| 2013-04-04T12:00 | 16170 | 100 | -57.7 | 305 | 15 | |
| 2013-04-04T12:00 | 16726 | 91 | -60.5 | |||
| 2013-04-04T12:00 | 17191 | 84 | -59.9 | |||
| 2013-04-04T12:00 | 17717 | 78 | -61.5 | |||
| 2013-04-04T12:00 | 18069 | 73 | -59.1 | |||
| 2013-04-04T12:00 | 18390 | 70 | -60.1 | 300 | 18 | |
| 2013-04-04T12:00 | 18543 | 68 | -61.1 | |||
| 2013-04-04T12:00 | 19802 | 55 | -58.5 | |||
| 2013-04-04T12:00 | 20435 | 50 | -62.1 | |||
| 2013-04-04T12:00 | 20490 | 50 | -61.7 | 275 | 12 | |
| 2013-04-04T12:00 | 20577 | 49 | -61.7 | |||
| 2013-04-04T12:00 | 20666 | 48 | -59.1 | |||
| 2013-04-04T12:00 | 20862 | 47 | -58.5 | |||
| 2013-04-04T12:00 | 21122 | 45 | -54.9 | |||
| 2013-04-04T12:00 | 22120 | 38 | -58.5 | |||
| 2013-04-04T12:00 | 22865 | 34 | -55.9 | |||
| 2013-04-04T12:00 | 23720 | 30 | -57.9 | 10 | 4 | |
| 2013-04-04T12:00 | 23954 | 28 | -58.5 | |||
| 2013-04-04T12:00 | 24844 | 25 | -55.5 | |||
| 2013-04-04T12:00 | 25508 | 22 | -57.1 | |||
| 2013-04-04T12:00 | 25650 | 22 | -55.7 | |||
| 2013-04-04T12:00 | 25914 | 21 | -56.3 | |||
| 2013-04-04T12:00 | 26290 | 20 | -55.1 | 310 | 8 | |
| 2013-04-04T12:00 | 26720 | 18 | -53.3 | |||
| 2013-04-04T12:00 | 27000 | 17 | -53.7 | |||
| 2013-04-04T12:00 | 27294 | 17 | -51.9 | |||
| 2013-04-04T12:00 | 27973 | 15 | -50.5 | |||
| 2013-04-04T12:00 | 28409 | 14 | -51.5 | |||
| 2013-04-04T12:00 | 28734 | 13 | -47.5 | |||
| 2013-04-04T12:00 | 29832 | 11 | -46.7 | |||
| 2013-04-04T12:00 | 30122 | 11 | -48.1 | |||
| 2013-04-04T12:00 | 30488 | 10 | -46.5 | |||
| 2013-04-04T12:00 | 30820 | 10 | -47.9 | 265 | 13 | |
| 2013-04-04T12:00 | 30886 | 9 | -48.1 | |||
| 2013-04-04T12:00 | 31515 | 9 | -46.5 | |||
| 2013-04-04T12:00 | 31976 | 8 | -41.9 | |||
| 2013-04-04T12:00 | 32222 | 8 | -40.9 | |||
| 2013-04-04T12:00 | 32832 | 7 | -42.9 | |||
| 2013-04-04T12:00 | 32924 | 7 | -41.9 | |||
| 2013-04-05T00:00 | 95 | 1000 | ||||
| 2013-04-05T00:00 | 766 | 925 | ||||
| 2013-04-05T00:00 | 1483 | 850 | ||||
| 2013-04-05T00:00 | 1662 | 832 | 18.2 | -8.8 | ||
| 2013-04-05T00:00 | 1920 | 807 | 15.4 | -12.6 | ||
| 2013-04-05T00:00 | 3072 | 702 | 4.4 | -12.6 | ||
| 2013-04-05T00:00 | 3103 | 700 | 4.2 | -12.8 | 245 | 5 |
| 2013-04-05T00:00 | 4264 | 605 | -5.1 | -18.1 | ||
| 2013-04-05T00:00 | 4946 | 554 | -10.5 | -26.5 | ||
| 2013-04-05T00:00 | 5015 | 549 | -10.9 | -31.9 | ||
| 2013-04-05T00:00 | 5113 | 542 | -11.5 | -33.5 | ||
| 2013-04-05T00:00 | 5649 | 505 | -15.3 | -31.3 | ||
| 2013-04-05T00:00 | 5709 | 501 | -15.7 | -28.7 | ||
| 2013-04-05T00:00 | 5740 | 500 | -15.7 | -27.7 | 305 | 15 |
| 2013-04-05T00:00 | 5846 | 493 | -16.7 | -27.7 | ||
| 2013-04-05T00:00 | 6139 | 474 | -18.3 | -29.3 | ||
| 2013-04-05T00:00 | 6574 | 447 | -19.9 | -33.9 | ||
| 2013-04-05T00:00 | 7118 | 415 | -24.7 | -37.7 | ||
| 2013-04-05T00:00 | 7380 | 400 | -27.3 | -37.3 | 310 | 17 |
| 2013-04-05T00:00 | 7488 | 394 | -28.3 | -37.3 | ||
| 2013-04-05T00:00 | 8204 | 356 | -34.3 | -43.3 | ||
| 2013-04-05T00:00 | 9390 | 300 | -43.7 | -51.7 | 320 | 28 |
| 2013-04-05T00:00 | 10590 | 250 | -53.1 | -62.1 | 320 | 31 |
| 2013-04-05T00:00 | 11980 | 200 | -65.3 | 315 | 31 | |
| 2013-04-05T00:00 | 12710 | 177 | -71.7 | |||
| 2013-04-05T00:00 | 12948 | 170 | -70.9 | |||
| 2013-04-05T00:00 | 13196 | 163 | -71.5 | |||
| 2013-04-05T00:00 | 13343 | 159 | -69.5 | |||
| 2013-04-05T00:00 | 13533 | 154 | -69.9 | |||
| 2013-04-05T00:00 | 13572 | 153 | -69.1 | |||
| 2013-04-05T00:00 | 13651 | 151 | -66.1 | |||
| 2013-04-05T00:00 | 13700 | 150 | -64.7 | 305 | 24 | |
| 2013-04-05T00:00 | 14122 | 140 | -62.9 | |||
| 2013-04-05T00:00 | 14300 | 136 | -62.3 | |||
| 2013-04-05T00:00 | 14483 | 132 | -63.5 | |||
| 2013-04-05T00:00 | 14624 | 129 | -62.9 | |||
| 2013-04-05T00:00 | 14768 | 126 | -63.5 | |||
| 2013-04-05T00:00 | 14866 | 124 | -61.3 | |||
| 2013-04-05T00:00 | 14967 | 122 | -60.7 | |||
| 2013-04-05T00:00 | 15333 | 115 | -61.3 | -69.3 | ||
| 2013-04-05T00:00 | 15387 | 114 | -61.5 | |||
| 2013-04-05T00:00 | 15839 | 106 | -59.1 | |||
| 2013-04-05T00:00 | 16018 | 103 | -59.1 | |||
| 2013-04-05T00:00 | 16210 | 100 | -60.1 | 305 | 18 | |
| 2013-04-05T00:00 | 16444 | 96 | -61.5 | |||
| 2013-04-05T00:00 | 17307 | 83 | -59.7 | |||
| 2013-04-05T00:00 | 18340 | 70 | -63.5 | |||
| 2013-04-05T00:00 | 18420 | 70 | -62.7 | 300 | 18 | |
| 2013-04-05T00:00 | 18744 | 66 | -62.7 | |||
| 2013-04-05T00:00 | 18992 | 63 | -58.7 | |||
| 2013-04-05T00:00 | 19606 | 57 | -61.5 | |||
| 2013-04-05T00:00 | 19714 | 56 | -59.3 | |||
| 2013-04-05T00:00 | 20087 | 53 | -59.9 | |||
| 2013-04-05T00:00 | 20350 | 51 | -56.7 | |||
| 2013-04-05T00:00 | 20520 | 50 | -57.3 | 285 | 11 | |
| 2013-04-05T00:00 | 21209 | 44 | -59.5 | |||
| 2013-04-05T00:00 | 21539 | 42 | -57.9 | |||
| 2013-04-05T00:00 | 22276 | 37 | -57.9 | |||
| 2013-04-05T00:00 | 22497 | 36 | -55.9 | |||
| 2013-04-05T00:00 | 23750 | 30 | -56.7 | 345 | 6 | |
| 2013-04-05T00:00 | 24440 | 26 | -56.5 | |||
| 2013-04-05T00:00 | 24857 | 25 | -51.9 | |||
| 2013-04-05T00:00 | 26350 | 20 | -52.3 | 265 | 9 | |
| 2013-04-05T00:00 | 26579 | 19 | -52.9 | -85.9 | ||
| 2013-04-05T00:00 | 27245 | 17 | -53.5 | |||
| 2013-04-05T00:00 | 27510 | 16 | -51.5 | |||
| 2013-04-05T00:00 | 27828 | 15 | -51.5 | |||
| 2013-04-05T00:00 | 28036 | 15 | -47.9 | |||
| 2013-04-05T00:00 | 28522 | 14 | -48.9 | |||
| 2013-04-05T00:00 | 29151 | 13 | -45.5 | |||
| 2013-04-05T00:00 | 29681 | 12 | -46.9 | |||
| 2013-04-05T00:00 | 30138 | 11 | -45.7 | |||
| 2013-04-05T00:00 | 30900 | 10 | -46.7 | 260 | 11 | |
| 2013-04-05T00:00 | 31524 | 9 | -46.5 | |||
| 2013-04-05T00:00 | 32058 | 8 | -42.7 | |||
| 2013-04-05T00:00 | 32304 | 8 | -39.5 | |||
| 2013-04-05T00:00 | 32650 | 7 | -38.9 | -75.9 | ||
| 2013-04-05T12:00 | 53 | 1000 | ||||
| 2013-04-05T12:00 | 732 | 925 | ||||
| 2013-04-05T12:00 | 1457 | 850 | ||||
| 2013-04-05T12:00 | 1711 | 825 | 12.4 | -7.6 | ||
| 2013-04-05T12:00 | 1864 | 810 | 14.2 | -9.8 | ||
| 2013-04-05T12:00 | 2138 | 784 | 13.8 | -12.2 | ||
| 2013-04-05T12:00 | 3077 | 700 | 5.2 | -15.8 | 290 | 5 |
| 2013-04-05T12:00 | 3124 | 696 | 4.8 | -16.2 | ||
| 2013-04-05T12:00 | 4243 | 605 | -3.9 | -24.9 | ||
| 2013-04-05T12:00 | 4888 | 557 | -8.3 | -31.3 | ||
| 2013-04-05T12:00 | 5386 | 522 | -12.1 | -22.1 | ||
| 2013-04-05T12:00 | 5720 | 500 | -14.3 | -26.3 | 255 | 17 |
| 2013-04-05T12:00 | 5857 | 491 | -15.1 | -27.1 | ||
| 2013-04-05T12:00 | 6264 | 465 | -18.3 | -29.3 | ||
| 2013-04-05T12:00 | 6639 | 442 | -21.1 | -28.1 | ||
| 2013-04-05T12:00 | 7118 | 414 | -24.1 | -31.1 | ||
| 2013-04-05T12:00 | 7370 | 400 | -26.3 | -30.9 | 245 | 19 |
| 2013-04-05T12:00 | 7388 | 399 | -26.3 | -30.8 | ||
| 2013-04-05T12:00 | 7700 | 382 | -28.7 | -32.8 | ||
| 2013-04-05T12:00 | 9380 | 300 | -43.1 | -47.6 | 255 | 22 |
| 2013-04-05T12:00 | 10580 | 250 | -53.9 | -58.7 | 260 | 26 |
| 2013-04-05T12:00 | 11356 | 221 | -61.1 | -65.9 | ||
| 2013-04-05T12:00 | 11980 | 200 | -65.5 | 265 | 31 | |
| 2013-04-05T12:00 | 12922 | 171 | -69.1 | |||
| 2013-04-05T12:00 | 13136 | 165 | -66.9 | |||
| 2013-04-05T12:00 | 13247 | 162 | -66.7 | |||
| 2013-04-05T12:00 | 13555 | 154 | -63.1 | |||
| 2013-04-05T12:00 | 13710 | 150 | -63.1 | 280 | 28 | |
| 2013-04-05T12:00 | 14002 | 143 | -64.1 | |||
| 2013-04-05T12:00 | 14132 | 140 | -62.7 | |||
| 2013-04-05T12:00 | 14266 | 137 | -60.1 | |||
| 2013-04-05T12:00 | 14451 | 133 | -58.9 | |||
| 2013-04-05T12:00 | 14642 | 129 | -59.5 | |||
| 2013-04-05T12:00 | 15246 | 117 | -63.1 | |||
| 2013-04-05T12:00 | 15681 | 109 | -62.5 | |||
| 2013-04-05T12:00 | 15912 | 105 | -61.1 | |||
| 2013-04-05T12:00 | 16220 | 100 | -62.3 | 280 | 22 | |
| 2013-04-05T12:00 | 16653 | 93 | -63.1 | |||
| 2013-04-05T12:00 | 17007 | 88 | -61.1 | |||
| 2013-04-05T12:00 | 17286 | 84 | -63.1 | |||
| 2013-04-05T12:00 | 18430 | 70 | -60.7 | 295 | 14 | |
| 2013-04-05T12:00 | 18943 | 64 | -64.5 | |||
| 2013-04-05T12:00 | 19186 | 61 | -61.1 | |||
| 2013-04-05T12:00 | 19980 | 54 | -58.1 | |||
| 2013-04-05T12:00 | 20480 | 50 | -60.9 | |||
| 2013-04-05T12:00 | 20520 | 50 | -60.7 | 290 | 11 | |
| 2013-04-05T12:00 | 20866 | 47 | -59.3 | |||
| 2013-04-05T12:00 | 21149 | 45 | -60.5 | |||
| 2013-04-05T12:00 | 21460 | 43 | -58.5 | |||
| 2013-04-05T12:00 | 21727 | 41 | -59.5 | |||
| 2013-04-05T12:00 | 22219 | 38 | -55.7 | |||
| 2013-04-05T12:00 | 22719 | 35 | -57.9 | |||
| 2013-04-05T12:00 | 22809 | 34 | -56.7 | |||
| 2013-04-05T12:00 | 23357 | 31 | -59.3 | |||
| 2013-04-05T12:00 | 23639 | 30 | -57.3 | |||
| 2013-04-05T12:00 | 23730 | 30 | -57.5 | 335 | 7 | |
| 2013-04-05T12:00 | 24031 | 28 | -57.9 | |||
| 2013-04-05T12:00 | 25147 | 24 | -52.5 | |||
| 2013-04-05T12:00 | 26320 | 20 | -51.9 | 310 | 5 | |
| 2013-04-05T12:00 | 26754 | 18 | -52.1 | |||
| 2013-04-05T12:00 | 27296 | 17 | -49.9 | |||
| 2013-04-05T12:00 | 28269 | 14 | -52.9 | |||
| 2013-04-05T12:00 | 28537 | 14 | -49.1 | |||
| 2013-04-05T12:00 | 30334 | 10 | -47.5 | |||
| 2013-04-05T12:00 | 30713 | 10 | -44.1 | |||
| 2013-04-05T12:00 | 30860 | 10 | -44.5 | 275 | 12 | |
| 2013-04-05T12:00 | 31273 | 9 | -44.7 | -61.7 | ||
| 2013-04-06T00:00 | 660 | 925 | ||||
| 2013-04-06T00:00 | 1389 | 850 | ||||
| 2013-04-06T00:00 | 1684 | 821 | 20.0 | -10.0 | ||
| 2013-04-06T00:00 | 2753 | 723 | 9.6 | -12.4 | ||
| 2013-04-06T00:00 | 3026 | 700 | 7.6 | -13.4 | 280 | 3 |
| 2013-04-06T00:00 | 4528 | 580 | -6.7 | -16.7 | ||
| 2013-04-06T00:00 | 5409 | 517 | -14.7 | -21.7 | ||
| 2013-04-06T00:00 | 5670 | 500 | -16.7 | -25.7 | 255 | 17 |
| 2013-04-06T00:00 | 6020 | 477 | -19.9 | -27.9 | ||
| 2013-04-06T00:00 | 6192 | 466 | -21.5 | -28.5 | ||
| 2013-04-06T00:00 | 6432 | 451 | -23.3 | -29.3 | ||
| 2013-04-06T00:00 | 6579 | 442 | -24.1 | -32.1 | ||
| 2013-04-06T00:00 | 7300 | 400 | -29.9 | -37.9 | 260 | 21 |
| 2013-04-06T00:00 | 7497 | 389 | -31.7 | -39.7 | ||
| 2013-04-06T00:00 | 8783 | 323 | -40.9 | -52.9 | ||
| 2013-04-06T00:00 | 9290 | 300 | -45.5 | -57.5 | 255 | 23 |
| 2013-04-06T00:00 | 10077 | 266 | -52.5 | -62.5 | ||
| 2013-04-06T00:00 | 10249 | 259 | -52.3 | -62.3 | ||
| 2013-04-06T00:00 | 10480 | 250 | -54.3 | -64.3 | 235 | 23 |
| 2013-04-06T00:00 | 10714 | 241 | -55.3 | -65.3 | ||
| 2013-04-06T00:00 | 11640 | 208 | -60.5 | -69.5 | ||
| 2013-04-06T00:00 | 11880 | 200 | -61.5 | -70.5 | 245 | 25 |
| 2013-04-06T00:00 | 11942 | 198 | -61.7 | -70.7 | ||
| 2013-04-06T00:00 | 12132 | 192 | -60.9 | -69.9 | ||
| 2013-04-06T00:00 | 12429 | 183 | -62.3 | -71.3 | ||
| 2013-04-06T00:00 | 12565 | 179 | -61.9 | -70.9 | ||
| 2013-04-06T00:00 | 12635 | 177 | -59.3 | -68.3 | ||
| 2013-04-06T00:00 | 12778 | 173 | -58.9 | -67.9 | ||
| 2013-04-06T00:00 | 12851 | 171 | -57.3 | -67.3 | ||
| 2013-04-06T00:00 | 13308 | 159 | -58.7 | -68.7 | ||
| 2013-04-06T00:00 | 13427 | 156 | -58.1 | -68.1 | ||
| 2013-04-06T00:00 | 13590 | 152 | -58.5 | -68.5 | ||
| 2013-04-06T00:00 | 13670 | 150 | -58.3 | -68.3 | 265 | 31 |
| 2013-04-06T00:00 | 13712 | 149 | -58.3 | -68.3 | ||
| 2013-04-06T00:00 | 13927 | 144 | -56.3 | -66.3 | ||
| 2013-04-06T00:00 | 14150 | 139 | -57.3 | -67.3 | ||
| 2013-04-06T00:00 | 14288 | 136 | -56.3 | -66.3 | ||
| 2013-04-06T00:00 | 14720 | 127 | -57.9 | -67.9 | ||
| 2013-04-06T00:00 | 15284 | 116 | -61.9 | -71.9 | ||
| 2013-04-06T00:00 | 15612 | 110 | -61.5 | -71.5 | ||
| 2013-04-06T00:00 | 15840 | 106 | -62.9 | -72.9 | ||
| 2013-04-06T00:00 | 16137 | 101 | -62.1 | -72.1 | ||
| 2013-04-06T00:00 | 16210 | 100 | -61.3 | -71.3 | 260 | 23 |
| 2013-04-06T00:00 | 16515 | 95 | -60.1 | -70.1 | ||
| 2013-04-06T00:00 | 17084 | 86 | -64.1 | -73.1 | ||
| 2013-04-06T00:00 | 17315 | 83 | -61.5 | -71.5 | ||
| 2013-04-06T00:00 | 17472 | 81 | -61.7 | -71.7 | ||
| 2013-04-06T00:00 | 17658 | 79 | -58.5 | -68.5 | ||
| 2013-04-06T00:00 | 18151 | 73 | -59.9 | -69.9 | ||
| 2013-04-06T00:00 | 18430 | 70 | -57.5 | -68.5 | 295 | 22 |
| 2013-04-06T00:00 | 18493 | 69 | -56.7 | -67.7 | ||
| 2013-04-06T00:00 | 19528 | 58 | -62.5 | -72.5 | ||
| 2013-04-06T00:00 | 19732 | 56 | -59.1 | -70.1 | ||
| 2013-04-06T00:00 | 20427 | 50 | -61.1 | -72.1 | ||
| 2013-04-06T00:00 | 20530 | 50 | -60.5 | -71.5 | 295 | 11 |
| 2013-04-06T00:00 | 20862 | 47 | -59.9 | -70.9 | ||
| 2013-04-06T00:00 | 21105 | 45 | -57.3 | -69.3 | ||
| 2013-04-06T00:00 | 21696 | 41 | -59.5 | -70.5 | ||
| 2013-04-06T00:00 | 21926 | 40 | -59.1 | -71.1 | ||
| 2013-04-06T00:00 | 21989 | 39 | -56.5 | -68.5 | ||
| 2013-04-06T00:00 | 22053 | 39 | -55.9 | -67.9 | ||
| 2013-04-06T00:00 | 22316 | 37 | -57.5 | -69.5 | ||
| 2013-04-06T00:00 | 22807 | 34 | -54.3 | -67.3 | ||
| 2013-04-06T00:00 | 23460 | 31 | -56.9 | -69.9 | ||
| 2013-04-06T00:00 | 23760 | 30 | -55.5 | -69.5 | 350 | 7 |
| 2013-04-06T00:00 | 23781 | 29 | -55.5 | -69.5 | ||
| 2013-04-06T00:00 | 24062 | 28 | -57.3 | -71.3 | ||
| 2013-04-06T00:00 | 24380 | 27 | -54.5 | -69.5 | ||
| 2013-04-06T00:00 | 24717 | 25 | -55.3 | -71.3 | ||
| 2013-04-06T00:00 | 24867 | 25 | -53.3 | -70.3 | ||
| 2013-04-06T00:00 | 25979 | 21 | -52.3 | -77.3 | ||
| 2013-04-06T00:00 | 26360 | 20 | -50.3 | -83.3 | 300 | 10 |
| 2013-04-06T00:00 | 26799 | 18 | -49.1 | -83.1 | ||
| 2013-04-06T00:00 | 27157 | 17 | -50.5 | -84.5 | ||
| 2013-04-06T00:00 | 27737 | 16 | -47.5 | -82.5 | ||
| 2013-04-06T00:00 | 28737 | 13 | -51.3 | -84.3 | ||
| 2013-04-06T00:00 | 29430 | 12 | -47.9 | -82.9 | ||
| 2013-04-06T00:00 | 30394 | 10 | -46.7 | -81.7 | ||
| 2013-04-06T00:00 | 30709 | 10 | -44.9 | -79.9 | ||
| 2013-04-06T00:00 | 30920 | 10 | -45.3 | -80.3 | 265 | 11 |
| 2013-04-06T00:00 | 31122 | 9 | -46.1 | -81.1 | ||
| 2013-04-06T00:00 | 31620 | 9 | -45.1 | -80.1 | ||
| 2013-04-06T12:00 | 41 | 1000 | ||||
| 2013-04-06T12:00 | 723 | 925 | ||||
| 2013-04-06T12:00 | 1452 | 850 | ||||
| 2013-04-06T12:00 | 1621 | 833 | 10.0 | -10.0 | ||
| 2013-04-06T12:00 | 1651 | 830 | 10.2 | -11.8 | ||
| 2013-04-06T12:00 | 1822 | 813 | 9.0 | -10.0 | ||
| 2013-04-06T12:00 | 3040 | 700 | -1.3 | -14.3 | 320 | 6 |
| 2013-04-06T12:00 | 3468 | 663 | -4.7 | -14.7 | ||
| 2013-04-06T12:00 | 3660 | 647 | -4.5 | -22.5 | ||
| 2013-04-06T12:00 | 4094 | 612 | -7.9 | -28.9 | ||
| 2013-04-06T12:00 | 5052 | 540 | -13.9 | -36.9 | ||
| 2013-04-06T12:00 | 5640 | 500 | -19.1 | -39.1 | 310 | 17 |
| 2013-04-06T12:00 | 5987 | 477 | -22.3 | -41.3 | ||
| 2013-04-06T12:00 | 6365 | 453 | -23.1 | -43.1 | ||
| 2013-04-06T12:00 | 7104 | 409 | -27.7 | -44.7 | ||
| 2013-04-06T12:00 | 7260 | 400 | -29.3 | -46.3 | 300 | 26 |
| 2013-04-06T12:00 | 9250 | 300 | -46.1 | -58.1 | 290 | 31 |
| 2013-04-06T12:00 | 10430 | 250 | -57.1 | -67.1 | 285 | 33 |
| 2013-04-06T12:00 | 11198 | 221 | -62.7 | -71.7 | ||
| 2013-04-06T12:00 | 11692 | 204 | -60.7 | -69.7 | ||
| 2013-04-06T12:00 | 11820 | 200 | -61.5 | -70.5 | 280 | 31 |
| 2013-04-06T12:00 | 11945 | 196 | -61.7 | -70.7 | ||
| 2013-04-06T12:00 | 12106 | 191 | -59.1 | -68.1 | ||
| 2013-04-06T12:00 | 12306 | 185 | -58.1 | -67.1 | ||
| 2013-04-06T12:00 | 12622 | 176 | -54.5 | -64.5 | ||
| 2013-04-06T12:00 | 13034 | 165 | -54.7 | -64.7 | ||
| 2013-04-06T12:00 | 13191 | 161 | -52.5 | -62.5 | ||
| 2013-04-06T12:00 | 13435 | 155 | -53.3 | -63.3 | ||
| 2013-04-06T12:00 | 13650 | 150 | -51.7 | -62.7 | 290 | 24 |
| 2013-04-06T12:00 | 13693 | 149 | -51.5 | -62.5 | ||
| 2013-04-06T12:00 | 14815 | 125 | -57.3 | -67.3 | ||
| 2013-04-06T12:00 | 15449 | 113 | -58.7 | -68.7 | ||
| 2013-04-06T12:00 | 15733 | 108 | -58.1 | -68.1 | ||
| 2013-04-06T12:00 | 16220 | 100 | -61.7 | -70.7 | 260 | 15 |
| 2013-04-06T12:00 | 16758 | 91 | -64.3 | -73.3 | ||
| 2013-04-06T12:00 | 16914 | 89 | -63.1 | -72.1 | ||
| 2013-04-06T12:00 | 16991 | 88 | -58.1 | -68.1 | ||
| 2013-04-06T12:00 | 17289 | 84 | -59.5 | -69.5 | ||
| 2013-04-06T12:00 | 18017 | 74 | -56.3 | -66.3 | ||
| 2013-04-06T12:00 | 18450 | 70 | -58.7 | -68.7 | 305 | 11 |
| 2013-04-06T12:00 | 19007 | 64 | -61.9 | -71.9 | ||
| 2013-04-06T12:00 | 19134 | 62 | -61.3 | -71.3 | ||
| 2013-04-06T12:00 | 19245 | 61 | -56.3 | -66.3 | ||
| 2013-04-06T12:00 | 20326 | 51 | -62.9 | -71.9 | ||
| 2013-04-06T12:00 | 20550 | 50 | -60.9 | -70.9 | 285 | 12 |
| 2013-04-06T12:00 | 20964 | 46 | -57.1 | -67.1 | ||
| 2013-04-06T12:00 | 21583 | 42 | -59.9 | -69.9 | ||
| 2013-04-06T12:00 | 22138 | 38 | -57.9 | -67.9 | ||
| 2013-04-06T12:00 | 22967 | 34 | -58.5 | -68.5 | ||
| 2013-04-06T12:00 | 23098 | 33 | -56.5 | -67.5 | ||
| 2013-04-06T12:00 | 23430 | 31 | -55.7 | -66.7 | ||
| 2013-04-06T12:00 | 23760 | 30 | -56.3 | -67.3 | 345 | 4 |
| 2013-04-06T12:00 | 23845 | 29 | -56.7 | -67.7 | ||
| 2013-04-06T12:00 | 23953 | 29 | -55.7 | -66.7 | ||
| 2013-04-06T12:00 | 24592 | 26 | -57.9 | -68.9 | ||
| 2013-04-06T12:00 | 24738 | 25 | -55.5 | -66.5 | ||
| 2013-04-06T12:00 | 25556 | 22 | -54.9 | -66.9 | ||
| 2013-04-06T12:00 | 26123 | 20 | -49.3 | -63.3 | ||
| 2013-04-06T12:00 | 26360 | 20 | -50.1 | -64.1 | 265 | 5 |
| 2013-04-06T12:00 | 27300 | 17 | -52.1 | -66.1 | ||
| 2013-04-06T12:00 | 27529 | 16 | -50.5 | -65.5 | ||
| 2013-04-06T12:00 | 27888 | 15 | -51.5 | -66.5 | ||
| 2013-04-06T12:00 | 28313 | 14 | -49.3 | -66.3 | ||
| 2013-04-06T12:00 | 28628 | 14 | -51.3 | -67.3 | ||
| 2013-04-06T12:00 | 29106 | 13 | -50.3 | -68.3 | ||
| 2013-04-06T12:00 | 30193 | 11 | -46.7 | -67.7 | ||
| 2013-04-06T12:00 | 30437 | 10 | -44.7 | -66.7 | ||
| 2013-04-06T12:00 | 30900 | 10 | -45.1 | -68.1 | 245 | 11 |
| 2013-04-06T12:00 | 31826 | 8 | -46.5 | -73.5 | ||
| 2013-04-07T00:00 | 36 | 1000 | ||||
| 2013-04-07T00:00 | 713 | 925 | ||||
| 2013-04-07T00:00 | 1435 | 850 | ||||
| 2013-04-07T00:00 | 1672 | 826 | 15.4 | -10.6 | ||
| 2013-04-07T00:00 | 2398 | 757 | 8.2 | -10.8 | ||
| 2013-04-07T00:00 | 3045 | 700 | 2.4 | -12.6 | 295 | 3 |
| 2013-04-07T00:00 | 3348 | 674 | -0.5 | -12.5 | ||
| 2013-04-07T00:00 | 4018 | 619 | -7.1 | -13.1 | ||
| 2013-04-07T00:00 | 4665 | 569 | -12.7 | -14.7 | ||
| 2013-04-07T00:00 | 5033 | 542 | -14.7 | -16.1 | ||
| 2013-04-07T00:00 | 5533 | 507 | -18.3 | -20.8 | ||
| 2013-04-07T00:00 | 5650 | 500 | -19.3 | -22.2 | 260 | 18 |
| 2013-04-07T00:00 | 6357 | 454 | -25.3 | -28.9 | ||
| 2013-04-07T00:00 | 6453 | 448 | -26.1 | -32.1 | ||
| 2013-04-07T00:00 | 6815 | 426 | -27.3 | -38.3 | ||
| 2013-04-07T00:00 | 7054 | 412 | -29.1 | -41.1 | ||
| 2013-04-07T00:00 | 7159 | 406 | -28.9 | -40.9 | ||
| 2013-04-07T00:00 | 7270 | 400 | -29.9 | -41.9 | 275 | 24 |
| 2013-04-07T00:00 | 8104 | 355 | -37.9 | -45.9 | ||
| 2013-04-07T00:00 | 8440 | 338 | -39.9 | -46.9 | ||
| 2013-04-07T00:00 | 9240 | 300 | -47.1 | -53.1 | 280 | 31 |
| 2013-04-07T00:00 | 9396 | 293 | -47.3 | -53.3 | ||
| 2013-04-07T00:00 | 10430 | 250 | -55.5 | -61.5 | 285 | 40 |
| 2013-04-07T00:00 | 10741 | 238 | -58.3 | -64.3 | ||
| 2013-04-07T00:00 | 11036 | 227 | -60.5 | -66.5 | ||
| 2013-04-07T00:00 | 11287 | 218 | -61.1 | -67.1 | ||
| 2013-04-07T00:00 | 11820 | 200 | -64.9 | 290 | 32 | |
| 2013-04-07T00:00 | 11974 | 195 | -64.3 | |||
| 2013-04-07T00:00 | 12134 | 190 | -61.3 | |||
| 2013-04-07T00:00 | 12266 | 186 | -60.1 | |||
| 2013-04-07T00:00 | 12540 | 178 | -58.7 | |||
| 2013-04-07T00:00 | 12718 | 173 | -59.7 | |||
| 2013-04-07T00:00 | 12864 | 169 | -59.5 | |||
| 2013-04-07T00:00 | 13208 | 160 | -55.7 | |||
| 2013-04-07T00:00 | 13620 | 150 | -56.1 | 275 | 23 | |
| 2013-04-07T00:00 | 14334 | 134 | -56.5 | |||
| 2013-04-07T00:00 | 14526 | 130 | -55.3 | |||
| 2013-04-07T00:00 | 14676 | 127 | -52.5 | |||
| 2013-04-07T00:00 | 15423 | 113 | -54.9 | |||
| 2013-04-07T00:00 | 15828 | 106 | -58.1 | |||
| 2013-04-07T00:00 | 16200 | 100 | -58.1 | 270 | 20 | |
| 2013-04-07T00:00 | 17215 | 85 | -57.3 | |||
| 2013-04-07T00:00 | 18450 | 70 | -60.1 | 260 | 8 | |
| 2013-04-07T00:00 | 18750 | 66 | -61.3 | |||
| 2013-04-07T00:00 | 18882 | 65 | -58.3 | |||
| 2013-04-07T00:00 | 19431 | 59 | -60.5 | |||
| 2013-04-07T00:00 | 19568 | 58 | -59.5 | |||
| 2013-04-07T00:00 | 19654 | 57 | -56.9 | |||
| 2013-04-07T00:00 | 20131 | 53 | -56.7 | |||
| 2013-04-07T00:00 | 20494 | 50 | -58.9 | |||
| 2013-04-07T00:00 | 20560 | 50 | -58.9 | 245 | 8 | |
| 2013-04-07T00:00 | 20936 | 47 | -56.9 | |||
| 2013-04-07T00:00 | 21393 | 43 | -58.9 | |||
| 2013-04-07T00:00 | 21687 | 41 | -57.3 | |||
| 2013-04-07T00:00 | 22522 | 36 | -58.7 | |||
| 2013-04-07T00:00 | 22661 | 35 | -56.1 | |||
| 2013-04-07T00:00 | 23064 | 33 | -55.3 | |||
| 2013-04-07T00:00 | 23760 | 30 | -57.9 | |||
| 2013-04-07T00:00 | 23790 | 30 | -57.9 | 255 | 4 | |
| 2013-04-07T00:00 | 24250 | 27 | -54.1 | |||
| 2013-04-07T00:00 | 24578 | 26 | -55.7 | |||
| 2013-04-07T00:00 | 24799 | 25 | -52.9 | |||
| 2013-04-07T00:00 | 25600 | 22 | -53.1 | |||
| 2013-04-07T00:00 | 25923 | 21 | -49.7 | |||
| 2013-04-07T00:00 | 26201 | 20 | -51.3 | |||
| 2013-04-07T00:00 | 26328 | 20 | -49.7 | |||
| 2013-04-07T00:00 | 26400 | 20 | -50.1 | 255 | 7 | |
| 2013-04-07T00:00 | 27230 | 17 | -51.7 | |||
| 2013-04-07T00:00 | 28582 | 14 | -48.5 | |||
| 2013-04-07T00:00 | 28815 | 13 | -49.7 | |||
| 2013-04-07T00:00 | 30736 | 10 | -46.9 | |||
| 2013-04-07T00:00 | 30950 | 10 | -46.1 | 265 | 17 | |
| 2013-04-07T00:00 | 31506 | 9 | -43.9 | |||
| 2013-04-07T00:00 | 31957 | 8 | -44.5 | -61.5 | ||
| 2013-04-07T12:00 | 36 | 1000 | ||||
| 2013-04-07T12:00 | 710 | 925 | ||||
| 2013-04-07T12:00 | 1430 | 850 | ||||
| 2013-04-07T12:00 | 1790 | 814 | 6.4 | 0.4 | ||
| 2013-04-07T12:00 | 2107 | 783 | 6.2 | -3.8 | ||
| 2013-04-07T12:00 | 2403 | 755 | 3.6 | -5.4 | ||
| 2013-04-07T12:00 | 2478 | 748 | 3.8 | -6.2 | ||
| 2013-04-07T12:00 | 3016 | 700 | -0.9 | -8.9 | 280 | 10 |
| 2013-04-07T12:00 | 3576 | 652 | -5.9 | -10.9 | ||
| 2013-04-07T12:00 | 3807 | 633 | -6.5 | -13.5 | ||
| 2013-04-07T12:00 | 4469 | 581 | -10.7 | -20.7 | ||
| 2013-04-07T12:00 | 5610 | 500 | -20.9 | -25.9 | 285 | 13 |
| 2013-04-07T12:00 | 5654 | 497 | -21.3 | -26.3 | ||
| 2013-04-07T12:00 | 5926 | 479 | -22.1 | -28.1 | ||
| 2013-04-07T12:00 | 6396 | 449 | -25.7 | -36.7 | ||
| 2013-04-07T12:00 | 6690 | 431 | -28.1 | -41.1 | ||
| 2013-04-07T12:00 | 6977 | 414 | -29.1 | -43.1 | ||
| 2013-04-07T12:00 | 7220 | 400 | -31.3 | -43.3 | 280 | 23 |
| 2013-04-07T12:00 | 8772 | 319 | -45.1 | -51.1 | ||
| 2013-04-07T12:00 | 8856 | 315 | -45.1 | -51.1 | ||
| 2013-04-07T12:00 | 9180 | 300 | -47.7 | -54.7 | 270 | 36 |
| 2013-04-07T12:00 | 9561 | 283 | -50.9 | -57.9 | ||
| 2013-04-07T12:00 | 10370 | 250 | -54.5 | -61.5 | 270 | 33 |
| 2013-04-07T12:00 | 10709 | 237 | -56.7 | -63.7 | ||
| 2013-04-07T12:00 | 11564 | 207 | -56.7 | -63.7 | ||
| 2013-04-07T12:00 | 11718 | 202 | -57.5 | -64.5 | ||
| 2013-04-07T12:00 | 11780 | 200 | -56.7 | 280 | 32 | |
| 2013-04-07T12:00 | 11940 | 195 | -57.1 | |||
| 2013-04-07T12:00 | 12038 | 192 | -55.9 | |||
| 2013-04-07T12:00 | 12377 | 182 | -56.5 | |||
| 2013-04-07T12:00 | 12412 | 181 | -55.7 | |||
| 2013-04-07T12:00 | 12808 | 170 | -57.7 | |||
| 2013-04-07T12:00 | 13512 | 152 | -57.9 | |||
| 2013-04-07T12:00 | 13600 | 150 | -58.5 | 270 | 26 | |
| 2013-04-07T12:00 | 14397 | 132 | -60.7 | |||
| 2013-04-07T12:00 | 14637 | 127 | -59.7 | |||
| 2013-04-07T12:00 | 14686 | 126 | -58.5 | |||
| 2013-04-07T12:00 | 14889 | 122 | -57.5 | |||
| 2013-04-07T12:00 | 15207 | 116 | -56.9 | |||
| 2013-04-07T12:00 | 15372 | 113 | -57.5 | |||
| 2013-04-07T12:00 | 15428 | 112 | -55.9 | |||
| 2013-04-07T12:00 | 15898 | 104 | -56.3 | |||
| 2013-04-07T12:00 | 16150 | 100 | -55.3 | 265 | 22 | |
| 2013-04-07T12:00 | 17089 | 86 | -57.7 | |||
| 2013-04-07T12:00 | 17388 | 82 | -57.1 | |||
| 2013-04-07T12:00 | 17474 | 81 | -54.1 | |||
| 2013-04-07T12:00 | 17683 | 78 | -52.7 | |||
| 2013-04-07T12:00 | 18420 | 70 | -56.3 | 230 | 6 | |
| 2013-04-07T12:00 | 18867 | 65 | -59.1 | |||
| 2013-04-07T12:00 | 19516 | 58 | -57.1 | |||
| 2013-04-07T12:00 | 19947 | 54 | -59.3 | |||
| 2013-04-07T12:00 | 20051 | 54 | -57.9 | |||
| 2013-04-07T12:00 | 20540 | 50 | -58.5 | 270 | 5 | |
| 2013-04-07T12:00 | 20680 | 48 | -58.3 | |||
| 2013-04-07T12:00 | 21129 | 45 | -60.9 | |||
| 2013-04-07T12:00 | 21338 | 44 | -58.1 | |||
| 2013-04-07T12:00 | 22272 | 37 | -59.5 | |||
| 2013-04-07T12:00 | 22508 | 36 | -57.3 | |||
| 2013-04-07T12:00 | 22718 | 35 | -57.9 | |||
| 2013-04-07T12:00 | 23163 | 32 | -55.5 | |||
| 2013-04-07T12:00 | 23683 | 30 | -58.3 | |||
| 2013-04-07T12:00 | 23760 | 30 | -58.1 | 310 | 4 | |
| 2013-04-07T12:00 | 24195 | 28 | -55.9 | |||
| 2013-04-07T12:00 | 24379 | 27 | -56.5 | |||
| 2013-04-07T12:00 | 24816 | 25 | -52.7 | |||
| 2013-04-07T12:00 | 25508 | 22 | -54.7 | |||
| 2013-04-07T12:00 | 26192 | 20 | -51.1 | |||
| 2013-04-07T12:00 | 26350 | 20 | -52.3 | 305 | 8 | |
| 2013-04-07T12:00 | 26748 | 18 | -53.5 | |||
| 2013-04-07T12:00 | 26921 | 18 | -52.3 | |||
| 2013-04-07T12:00 | 27099 | 17 | -53.5 | |||
| 2013-04-07T12:00 | 27245 | 17 | -51.9 | |||
| 2013-04-07T12:00 | 27953 | 15 | -50.5 | |||
| 2013-04-07T12:00 | 28427 | 14 | -51.7 | |||
| 2013-04-07T12:00 | 29449 | 12 | -47.3 | |||
| 2013-04-07T12:00 | 30548 | 10 | -46.5 | -81.5 | ||
| 2013-04-08T00:00 | 672 | 925 | ||||
| 2013-04-08T00:00 | 1393 | 850 | ||||
| 2013-04-08T00:00 | 1693 | 820 | 15.2 | -8.8 | ||
| 2013-04-08T00:00 | 1817 | 808 | 13.8 | -10.2 | ||
| 2013-04-08T00:00 | 3003 | 700 | 2.4 | -11.6 | 265 | 10 |
| 2013-04-08T00:00 | 3283 | 676 | 0.2 | -13.8 | ||
| 2013-04-08T00:00 | 3582 | 651 | -2.9 | -12.9 | ||
| 2013-04-08T00:00 | 3753 | 637 | -3.5 | -14.5 | ||
| 2013-04-08T00:00 | 4615 | 570 | -11.3 | -18.3 | ||
| 2013-04-08T00:00 | 4887 | 550 | -13.1 | -24.1 | ||
| 2013-04-08T00:00 | 5281 | 522 | -16.3 | -25.3 | ||
| 2013-04-08T00:00 | 5514 | 506 | -18.3 | -31.3 | ||
| 2013-04-08T00:00 | 5610 | 500 | -19.1 | -32.1 | 275 | 22 |
| 2013-04-08T00:00 | 6065 | 470 | -23.3 | -33.3 | ||
| 2013-04-08T00:00 | 6429 | 447 | -26.3 | -36.3 | ||
| 2013-04-08T00:00 | 6658 | 433 | -28.1 | -40.1 | ||
| 2013-04-08T00:00 | 7133 | 405 | -31.7 | -40.7 | ||
| 2013-04-08T00:00 | 7230 | 400 | -32.7 | -41.7 | 270 | 21 |
| 2013-04-08T00:00 | 8113 | 352 | -40.7 | -48.7 | ||
| 2013-04-08T00:00 | 8589 | 328 | -43.7 | -50.7 | ||
| 2013-04-08T00:00 | 9180 | 300 | -49.1 | -56.1 | 285 | 40 |
| 2013-04-08T00:00 | 9790 | 273 | -54.5 | -61.5 | ||
| 2013-04-08T00:00 | 10350 | 250 | -55.7 | -62.7 | 275 | 49 |
| 2013-04-08T00:00 | 10636 | 239 | -55.9 | -62.9 | ||
| 2013-04-08T00:00 | 11018 | 225 | -57.5 | -64.5 | ||
| 2013-04-08T00:00 | 11424 | 211 | -56.3 | -63.3 | ||
| 2013-04-08T00:00 | 11577 | 206 | -53.9 | -61.9 | ||
| 2013-04-08T00:00 | 11770 | 200 | -54.1 | -62.1 | 285 | 30 |
| 2013-04-08T00:00 | 11802 | 199 | -54.1 | -62.1 | ||
| 2013-04-08T00:00 | 12232 | 186 | -56.7 | -64.7 | ||
| 2013-04-08T00:00 | 12335 | 183 | -55.5 | -63.5 | ||
| 2013-04-08T00:00 | 12656 | 174 | -54.9 | -62.9 | ||
| 2013-04-08T00:00 | 13070 | 163 | -56.7 | -64.7 | ||
| 2013-04-08T00:00 | 13600 | 150 | -56.5 | -65.5 | 280 | 33 |
| 2013-04-08T00:00 | 14034 | 140 | -58.7 | -67.7 | ||
| 2013-04-08T00:00 | 14124 | 138 | -58.1 | -67.1 | ||
| 2013-04-08T00:00 | 14170 | 137 | -56.7 | -65.7 | ||
| 2013-04-08T00:00 | 14502 | 130 | -56.1 | -65.1 | ||
| 2013-04-08T00:00 | 14601 | 128 | -54.7 | -63.7 | ||
| 2013-04-08T00:00 | 14907 | 122 | -54.5 | -63.5 | ||
| 2013-04-08T00:00 | 15564 | 110 | -57.1 | -66.1 | ||
| 2013-04-08T00:00 | 16170 | 100 | -59.5 | -68.5 | 245 | 15 |
| 2013-04-08T00:00 | 16522 | 94 | -60.3 | -69.3 | ||
| 2013-04-08T00:00 | 16760 | 91 | -54.7 | -64.7 | ||
| 2013-04-08T00:00 | 17268 | 84 | -56.7 | -66.7 | ||
| 2013-04-08T00:00 | 17547 | 80 | -54.1 | -64.1 | ||
| 2013-04-08T00:00 | 18430 | 70 | -58.1 | -68.1 | 260 | 14 |
| 2013-04-08T00:00 | 18742 | 66 | -59.7 | -69.7 | ||
| 2013-04-08T00:00 | 18799 | 66 | -58.9 | -68.9 | ||
| 2013-04-08T00:00 | 18876 | 65 | -55.3 | -65.3 | ||
| 2013-04-08T00:00 | 19054 | 63 | -54.7 | -64.7 | ||
| 2013-04-08T00:00 | 20560 | 50 | -61.3 | -71.3 | 265 | 9 |
| 2013-04-08T00:00 | 20711 | 48 | -58.7 | -68.7 | ||
| 2013-04-08T00:00 | 21602 | 42 | -60.7 | -70.7 | ||
| 2013-04-08T00:00 | 21782 | 41 | -56.3 | -67.3 | ||
| 2013-04-08T00:00 | 22277 | 38 | -57.9 | -68.9 | ||
| 2013-04-08T00:00 | 22549 | 36 | -55.7 | -66.7 | ||
| 2013-04-08T00:00 | 22889 | 34 | -56.1 | -67.1 | ||
| 2013-04-08T00:00 | 23269 | 32 | -54.1 | -66.1 | ||
| 2013-04-08T00:00 | 23780 | 30 | -55.5 | -67.5 | 235 | 7 |
| 2013-04-08T00:00 | 24496 | 26 | -56.3 | -69.3 | ||
| 2013-04-08T00:00 | 25122 | 24 | -52.1 | -67.1 | ||
| 2013-04-08T00:00 | 26380 | 20 | -55.3 | -71.3 | 245 | 14 |
| 2013-04-08T00:00 | 26412 | 19 | -55.3 | -71.3 | ||
| 2013-04-08T00:00 | 26709 | 19 | -52.1 | -72.1 | ||
| 2013-04-08T00:00 | 27094 | 17 | -51.5 | -74.5 | ||
| 2013-04-08T00:00 | 27619 | 16 | -53.5 | -77.5 | ||
| 2013-04-08T00:00 | 28591 | 14 | -49.5 | -83.5 | ||
| 2013-04-08T00:00 | 29911 | 11 | -49.9 | -83.9 | ||
| 2013-04-08T00:00 | 30566 | 10 | -46.1 | -81.1 | ||
| 2013-04-08T00:00 | 30900 | 10 | -46.3 | -81.3 | 260 | 24 |
| 2013-04-08T00:00 | 31828 | 8 | -43.7 | -79.7 | ||
| 2013-04-08T12:00 | 661 | 925 | ||||
| 2013-04-08T12:00 | 1378 | 850 | ||||
| 2013-04-08T12:00 | 1660 | 822 | 6.8 | -2.2 | ||
| 2013-04-08T12:00 | 1740 | 814 | 7.8 | -6.2 | ||
| 2013-04-08T12:00 | 1831 | 805 | 9.0 | -5.0 | ||
| 2013-04-08T12:00 | 2039 | 785 | 9.8 | -8.2 | ||
| 2013-04-08T12:00 | 2978 | 700 | 2.6 | -14.4 | 255 | 2 |
| 2013-04-08T12:00 | 3082 | 691 | 1.8 | -15.2 | ||
| 2013-04-08T12:00 | 3619 | 646 | -2.3 | -14.3 | ||
| 2013-04-08T12:00 | 4446 | 581 | -10.1 | -17.1 | ||
| 2013-04-08T12:00 | 4687 | 563 | -11.9 | -17.9 | ||
| 2013-04-08T12:00 | 4796 | 555 | -12.3 | -20.3 | ||
| 2013-04-08T12:00 | 5590 | 500 | -19.1 | -27.1 | 245 | 15 |
| 2013-04-08T12:00 | 5906 | 479 | -22.1 | -28.1 | ||
| 2013-04-08T12:00 | 6329 | 452 | -24.9 | -31.9 | ||
| 2013-04-08T12:00 | 7166 | 402 | -32.5 | -37.1 | ||
| 2013-04-08T12:00 | 7200 | 400 | -32.7 | -37.2 | 240 | 21 |
| 2013-04-08T12:00 | 8646 | 324 | -43.5 | -47.7 | ||
| 2013-04-08T12:00 | 9170 | 300 | -48.3 | -52.9 | 250 | 30 |
| 2013-04-08T12:00 | 10190 | 256 | -57.5 | -62.3 | ||
| 2013-04-08T12:00 | 10340 | 250 | -58.5 | -63.3 | 250 | 39 |
| 2013-04-08T12:00 | 11463 | 209 | -58.5 | -63.3 | ||
| 2013-04-08T12:00 | 11584 | 205 | -58.3 | -63.2 | ||
| 2013-04-08T12:00 | 11730 | 200 | -56.9 | 250 | 28 | |
| 2013-04-08T12:00 | 11762 | 199 | -56.3 | |||
| 2013-04-08T12:00 | 11858 | 196 | -56.7 | |||
| 2013-04-08T12:00 | 11989 | 192 | -55.1 | |||
| 2013-04-08T12:00 | 12089 | 189 | -54.9 | |||
| 2013-04-08T12:00 | 12509 | 177 | -52.5 | |||
| 2013-04-08T12:00 | 12693 | 172 | -53.7 | |||
| 2013-04-08T12:00 | 12882 | 167 | -53.9 | |||
| 2013-04-08T12:00 | 13077 | 162 | -52.5 | |||
| 2013-04-08T12:00 | 13197 | 159 | -53.1 | |||
| 2013-04-08T12:00 | 13445 | 153 | -52.5 | |||
| 2013-04-08T12:00 | 13570 | 150 | -52.9 | 250 | 31 | |
| 2013-04-08T12:00 | 13788 | 145 | -53.9 | |||
| 2013-04-08T12:00 | 13922 | 142 | -53.7 | |||
| 2013-04-08T12:00 | 14437 | 131 | -55.3 | |||
| 2013-04-08T12:00 | 14736 | 125 | -54.1 | |||
| 2013-04-08T12:00 | 15050 | 119 | -55.1 | |||
| 2013-04-08T12:00 | 15379 | 113 | -55.3 | |||
| 2013-04-08T12:00 | 15784 | 106 | -57.7 | |||
| 2013-04-08T12:00 | 15904 | 104 | -56.3 | |||
| 2013-04-08T12:00 | 16160 | 100 | -56.5 | 305 | 10 | |
| 2013-04-08T12:00 | 16379 | 96 | -56.5 | |||
| 2013-04-08T12:00 | 16512 | 94 | -54.3 | |||
| 2013-04-08T12:00 | 17205 | 84 | -58.1 | |||
| 2013-04-08T12:00 | 17834 | 76 | -58.9 | |||
| 2013-04-08T12:00 | 18286 | 71 | -55.5 | |||
| 2013-04-08T12:00 | 18420 | 70 | -55.7 | 310 | 4 | |
| 2013-04-08T12:00 | 19203 | 61 | -59.9 | |||
| 2013-04-08T12:00 | 19547 | 58 | -57.5 | |||
| 2013-04-08T12:00 | 20259 | 52 | -60.9 | |||
| 2013-04-08T12:00 | 20380 | 51 | -58.1 | |||
| 2013-04-08T12:00 | 20530 | 50 | -58.9 | 245 | 10 | |
| 2013-04-08T12:00 | 21241 | 44 | -61.5 | |||
| 2013-04-08T12:00 | 21962 | 39 | -60.5 | |||
| 2013-04-08T12:00 | 22252 | 37 | -58.1 | |||
| 2013-04-08T12:00 | 23469 | 31 | -59.9 | |||
| 2013-04-08T12:00 | 23730 | 30 | -57.3 | 290 | 7 | |
| 2013-04-08T12:00 | 23772 | 29 | -56.9 | |||
| 2013-04-08T12:00 | 24255 | 27 | -58.5 | |||
| 2013-04-08T12:00 | 24417 | 26 | -56.1 | |||
| 2013-04-08T12:00 | 24706 | 25 | -56.7 | |||
| 2013-04-08T12:00 | 24907 | 24 | -55.1 | |||
| 2013-04-08T12:00 | 25467 | 22 | -55.9 | |||
| 2013-04-08T12:00 | 26310 | 20 | -54.7 | 260 | 5 | |
| 2013-04-08T12:00 | 26773 | 18 | -54.3 | |||
| 2013-04-08T12:00 | 27126 | 17 | -55.3 | |||
| 2013-04-08T12:00 | 27654 | 16 | -54.1 | |||
| 2013-04-08T12:00 | 27855 | 15 | -52.3 | |||
| 2013-04-08T12:00 | 29079 | 13 | -49.9 | |||
| 2013-04-08T12:00 | 30800 | 10 | -50.7 | 250 | 22 | |
| 2013-04-08T12:00 | 31271 | 9 | -51.1 | -71.1 | ||
| 2013-04-09T00:00 | 585 | 925 | ||||
| 2013-04-09T00:00 | 1306 | 850 | ||||
| 2013-04-09T00:00 | 1663 | 815 | 17.2 | -2.8 | ||
| 2013-04-09T00:00 | 2218 | 763 | 12.8 | -6.2 | ||
| 2013-04-09T00:00 | 2328 | 753 | 11.2 | -6.8 | ||
| 2013-04-09T00:00 | 2439 | 743 | 11.0 | -8.0 | ||
| 2013-04-09T00:00 | 2932 | 700 | 6.6 | -10.4 | 175 | 7 |
| 2013-04-09T00:00 | 3869 | 623 | -2.1 | -14.1 | ||
| 2013-04-09T00:00 | 4510 | 574 | -8.5 | -14.5 | ||
| 2013-04-09T00:00 | 4769 | 555 | -10.3 | -18.3 | ||
| 2013-04-09T00:00 | 5308 | 517 | -15.9 | -19.6 | ||
| 2013-04-09T00:00 | 5570 | 500 | -17.5 | -21.9 | 210 | 19 |
| 2013-04-09T00:00 | 7200 | 400 | -30.7 | -36.7 | 215 | 25 |
| 2013-04-09T00:00 | 8268 | 343 | -39.9 | -46.9 | ||
| 2013-04-09T00:00 | 9170 | 300 | -47.9 | -54.9 | 230 | 29 |
| 2013-04-09T00:00 | 9643 | 279 | -51.9 | -58.9 | ||
| 2013-04-09T00:00 | 9854 | 270 | -52.7 | -59.7 | ||
| 2013-04-09T00:00 | 9950 | 266 | -52.1 | -59.1 | ||
| 2013-04-09T00:00 | 10196 | 256 | -54.3 | -61.3 | ||
| 2013-04-09T00:00 | 10350 | 250 | -54.7 | -61.7 | 230 | 38 |
| 2013-04-09T00:00 | 11431 | 211 | -54.9 | -61.9 | ||
| 2013-04-09T00:00 | 11770 | 200 | -57.1 | -64.1 | 235 | 29 |
| 2013-04-09T00:00 | 11897 | 196 | -58.1 | -65.1 | ||
| 2013-04-09T00:00 | 12059 | 191 | -58.5 | -65.5 | ||
| 2013-04-09T00:00 | 12126 | 189 | -57.9 | -65.9 | ||
| 2013-04-09T00:00 | 12226 | 186 | -58.7 | -66.7 | ||
| 2013-04-09T00:00 | 12293 | 184 | -57.9 | -65.9 | ||
| 2013-04-09T00:00 | 12362 | 182 | -54.9 | -62.9 | ||
| 2013-04-09T00:00 | 12433 | 180 | -53.7 | -61.7 | ||
| 2013-04-09T00:00 | 12541 | 177 | -54.3 | -62.3 | ||
| 2013-04-09T00:00 | 12614 | 175 | -52.9 | -60.9 | ||
| 2013-04-09T00:00 | 12954 | 166 | -52.7 | -61.7 | ||
| 2013-04-09T00:00 | 13072 | 163 | -51.3 | -60.3 | ||
| 2013-04-09T00:00 | 13315 | 157 | -50.5 | -60.5 | ||
| 2013-04-09T00:00 | 13357 | 156 | -49.5 | -59.5 | ||
| 2013-04-09T00:00 | 13484 | 153 | -48.7 | -58.7 | ||
| 2013-04-09T00:00 | 13620 | 150 | -49.5 | -60.5 | 250 | 21 |
| 2013-04-09T00:00 | 13976 | 142 | -51.7 | -62.7 | ||
| 2013-04-09T00:00 | 14068 | 140 | -51.3 | -62.3 | ||
| 2013-04-09T00:00 | 14303 | 135 | -53.1 | -64.1 | ||
| 2013-04-09T00:00 | 14545 | 130 | -53.9 | -64.9 | ||
| 2013-04-09T00:00 | 14846 | 124 | -56.1 | -67.1 | ||
| 2013-04-09T00:00 | 15160 | 118 | -57.1 | -68.1 | ||
| 2013-04-09T00:00 | 15268 | 116 | -56.5 | -67.5 | ||
| 2013-04-09T00:00 | 15489 | 112 | -57.9 | -67.9 | ||
| 2013-04-09T00:00 | 15660 | 109 | -57.9 | -67.9 | ||
| 2013-04-09T00:00 | 15777 | 107 | -57.1 | -68.1 | ||
| 2013-04-09T00:00 | 15956 | 104 | -58.7 | -68.7 | ||
| 2013-04-09T00:00 | 16200 | 100 | -59.1 | -69.1 | 245 | 18 |
| 2013-04-09T00:00 | 16864 | 89 | -60.3 | -70.3 | ||
| 2013-04-09T00:00 | 16955 | 88 | -57.9 | -68.9 | ||
| 2013-04-09T00:00 | 17217 | 85 | -56.1 | -67.1 | ||
| 2013-04-09T00:00 | 17498 | 81 | -57.5 | -68.5 | ||
| 2013-04-09T00:00 | 17608 | 79 | -55.9 | -66.9 | ||
| 2013-04-09T00:00 | 18450 | 70 | -61.9 | -71.9 | 265 | 6 |
| 2013-04-09T00:00 | 18601 | 68 | -62.9 | -72.9 | ||
| 2013-04-09T00:00 | 18748 | 66 | -60.1 | -70.1 | ||
| 2013-04-09T00:00 | 19438 | 59 | -59.9 | -70.9 | ||
| 2013-04-09T00:00 | 19974 | 54 | -57.9 | -68.9 | ||
| 2013-04-09T00:00 | 20090 | 53 | -55.9 | -66.9 | ||
| 2013-04-09T00:00 | 20560 | 50 | -57.9 | -68.9 | 135 | 5 |
| 2013-04-09T00:00 | 21530 | 42 | -61.1 | -72.1 | ||
| 2013-04-09T00:00 | 21618 | 42 | -59.5 | -70.5 | ||
| 2013-04-09T00:00 | 21936 | 40 | -60.3 | -71.3 | ||
| 2013-04-09T00:00 | 22239 | 38 | -58.3 | -69.3 | ||
| 2013-04-09T00:00 | 22715 | 35 | -59.5 | -70.5 | ||
| 2013-04-09T00:00 | 22804 | 34 | -58.1 | -69.1 | ||
| 2013-04-09T00:00 | 22986 | 33 | -58.9 | -69.9 | ||
| 2013-04-09T00:00 | 23713 | 30 | -56.3 | -68.3 | ||
| 2013-04-09T00:00 | 23760 | 30 | -56.5 | -68.5 | 275 | 7 |
| 2013-04-09T00:00 | 24107 | 28 | -56.3 | -68.3 | ||
| 2013-04-09T00:00 | 24543 | 26 | -58.5 | -70.5 | ||
| 2013-04-09T00:00 | 24736 | 25 | -56.5 | -68.5 | ||
| 2013-04-09T00:00 | 25305 | 23 | -54.7 | -67.7 | ||
| 2013-04-09T00:00 | 25957 | 21 | -57.9 | -70.9 | ||
| 2013-04-09T00:00 | 26077 | 20 | -57.5 | -70.5 | ||
| 2013-04-09T00:00 | 26231 | 20 | -54.5 | -68.5 | ||
| 2013-04-09T00:00 | 26330 | 20 | -54.3 | -68.3 | 280 | 20 |
| 2013-04-09T00:00 | 26427 | 19 | -54.5 | -68.5 | ||
| 2013-04-09T00:00 | 26659 | 19 | -52.3 | -68.3 | ||
| 2013-04-09T00:00 | 27262 | 17 | -53.7 | -69.7 | ||
| 2013-04-09T00:00 | 28808 | 13 | -52.5 | -72.5 | ||
| 2013-04-09T00:00 | 29559 | 12 | -53.5 | -75.5 | ||
| 2013-04-09T00:00 | 30235 | 10 | -49.3 | -76.3 | ||
| 2013-04-09T00:00 | 30810 | 10 | -49.1 | -78.1 | 250 | 31 |
| 2013-04-09T00:00 | 31427 | 9 | -49.1 | -80.1 | ||
| 2013-04-09T00:00 | 31876 | 8 | -46.5 | -77.5 | ||
| 2013-04-09T00:00 | 32526 | 7 | -49.3 | -81.3 | ||
| 2013-04-09T12:00 | 118 | 1000 | ||||
| 2013-04-09T12:00 | 772 | 925 | ||||
| 2013-04-09T12:00 | 1471 | 850 | ||||
| 2013-04-09T12:00 | 1949 | 800 | -11.5 | -13.8 | ||
| 2013-04-09T12:00 | 2520 | 742 | -15.5 | -17.4 | ||
| 2013-04-09T12:00 | 2633 | 731 | -14.1 | -15.2 | ||
| 2013-04-09T12:00 | 2779 | 717 | -13.9 | -14.6 | ||
| 2013-04-09T12:00 | 2961 | 700 | -14.5 | -15.4 | 345 | 12 |
| 2013-04-09T12:00 | 3257 | 673 | -15.7 | -16.8 | ||
| 2013-04-09T12:00 | 3336 | 666 | -15.3 | -16.2 | ||
| 2013-04-09T12:00 | 3579 | 645 | -11.1 | -11.1 | ||
| 2013-04-09T12:00 | 3736 | 632 | -6.9 | -6.9 | ||
| 2013-04-09T12:00 | 3785 | 628 | -6.3 | -6.3 | ||
| 2013-04-09T12:00 | 3998 | 611 | -7.3 | -7.4 | ||
| 2013-04-09T12:00 | 4126 | 601 | -7.7 | -9.8 | ||
| 2013-04-09T12:00 | 4230 | 593 | -8.1 | -10.4 | ||
| 2013-04-09T12:00 | 4864 | 546 | -12.1 | -13.8 | ||
| 2013-04-09T12:00 | 5005 | 536 | -13.3 | -14.9 | ||
| 2013-04-09T12:00 | 5162 | 525 | -14.7 | -18.9 | ||
| 2013-04-09T12:00 | 5454 | 505 | -17.3 | -24.3 | ||
| 2013-04-09T12:00 | 5540 | 500 | -17.7 | -24.7 | 185 | 24 |
| 2013-04-09T12:00 | 5797 | 483 | -19.1 | -27.1 | ||
| 2013-04-09T12:00 | 7040 | 407 | -29.9 | -35.9 | ||
| 2013-04-09T12:00 | 7170 | 400 | -30.9 | -36.9 | 185 | 29 |
| 2013-04-09T12:00 | 8745 | 318 | -45.3 | -52.3 | ||
| 2013-04-09T12:00 | 9130 | 300 | -46.9 | -54.9 | 180 | 30 |
| 2013-04-09T12:00 | 9219 | 296 | -46.7 | -54.7 | ||
| 2013-04-09T12:00 | 10320 | 250 | -54.7 | -62.7 | 190 | 34 |
| 2013-04-09T12:00 | 10580 | 240 | -54.9 | -62.9 | ||
| 2013-04-09T12:00 | 10688 | 236 | -52.9 | -60.9 | ||
| 2013-04-09T12:00 | 11023 | 224 | -53.9 | -61.9 | ||
| 2013-04-09T12:00 | 11226 | 217 | -55.3 | -63.3 | ||
| 2013-04-09T12:00 | 11558 | 206 | -54.5 | -63.5 | ||
| 2013-04-09T12:00 | 11652 | 203 | -53.9 | -62.9 | ||
| 2013-04-09T12:00 | 11750 | 200 | -51.9 | -60.9 | 205 | 27 |
| 2013-04-09T12:00 | 11947 | 194 | -52.1 | -61.1 | ||
| 2013-04-09T12:00 | 12014 | 192 | -49.9 | -59.9 | ||
| 2013-04-09T12:00 | 12117 | 189 | -49.3 | -59.3 | ||
| 2013-04-09T12:00 | 12581 | 176 | -51.1 | -63.1 | ||
| 2013-04-09T12:00 | 12730 | 172 | -50.5 | -62.5 | ||
| 2013-04-09T12:00 | 13039 | 164 | -52.1 | -65.1 | ||
| 2013-04-09T12:00 | 13199 | 160 | -51.5 | -64.5 | ||
| 2013-04-09T12:00 | 13281 | 158 | -50.5 | -64.5 | ||
| 2013-04-09T12:00 | 13405 | 155 | -51.7 | -65.7 | ||
| 2013-04-09T12:00 | 13620 | 150 | -51.7 | -65.7 | 225 | 17 |
| 2013-04-09T12:00 | 13751 | 147 | -50.3 | -65.3 | ||
| 2013-04-09T12:00 | 14068 | 140 | -51.7 | -66.7 | ||
| 2013-04-09T12:00 | 14598 | 129 | -51.3 | -68.3 | ||
| 2013-04-09T12:00 | 14905 | 123 | -53.3 | -70.3 | ||
| 2013-04-09T12:00 | 15503 | 112 | -55.7 | -72.7 | ||
| 2013-04-09T12:00 | 15676 | 109 | -54.9 | -71.9 | ||
| 2013-04-09T12:00 | 16097 | 102 | -56.9 | -73.9 | ||
| 2013-04-09T12:00 | 16230 | 100 | -56.1 | -73.1 | 250 | 16 |
| 2013-04-09T12:00 | 17239 | 85 | -61.9 | -76.9 | ||
| 2013-04-09T12:00 | 17558 | 80 | -62.5 | -76.5 | ||
| 2013-04-09T12:00 | 17673 | 79 | -61.9 | -76.9 | ||
| 2013-04-09T12:00 | 17808 | 77 | -57.9 | -73.9 | ||
| 2013-04-09T12:00 | 18360 | 71 | -56.1 | -75.1 | ||
| 2013-04-09T12:00 | 18470 | 70 | -56.7 | -74.7 | 280 | 12 |
| 2013-04-09T12:00 | 19392 | 60 | -61.5 | -77.5 | ||
| 2013-04-09T12:00 | 19870 | 55 | -61.7 | -77.7 | ||
| 2013-04-09T12:00 | 19948 | 55 | -59.5 | -76.5 | ||
| 2013-04-09T12:00 | 20132 | 53 | -57.9 | -75.9 | ||
| 2013-04-09T12:00 | 20570 | 50 | -60.7 | -77.7 | 170 | 6 |
| 2013-04-09T12:00 | 21096 | 45 | -64.7 | -79.7 | ||
| 2013-04-09T12:00 | 21685 | 41 | -61.3 | -78.3 | ||
| 2013-04-09T12:00 | 22098 | 39 | -62.5 | -78.5 | ||
| 2013-04-09T12:00 | 22661 | 35 | -60.9 | -78.9 | ||
| 2013-04-09T12:00 | 23261 | 32 | -62.9 | -79.9 | ||
| 2013-04-09T12:00 | 23730 | 30 | -60.7 | -79.7 | 280 | 12 |
| 2013-04-09T12:00 | 23856 | 29 | -59.5 | -79.5 | ||
| 2013-04-09T12:00 | 24250 | 27 | -59.9 | -80.9 | ||
| 2013-04-09T12:00 | 24576 | 26 | -58.1 | -83.1 | ||
| 2013-04-09T12:00 | 24970 | 24 | -59.5 | -83.5 | ||
| 2013-04-09T12:00 | 25312 | 23 | -55.7 | -87.7 | ||
| 2013-04-09T12:00 | 25734 | 21 | -56.1 | -88.1 | ||
| 2013-04-09T12:00 | 25852 | 21 | -54.3 | -87.3 | ||
| 2013-04-09T12:00 | 26290 | 20 | -55.3 | -87.3 | 240 | 14 |
| 2013-04-09T12:00 | 26783 | 18 | -57.9 | -89.9 | ||
| 2013-04-09T12:00 | 28373 | 14 | -53.7 | -86.7 | ||
| 2013-04-09T12:00 | 29806 | 11 | -56.1 | -88.1 | ||
| 2013-04-09T12:00 | 30638 | 10 | -51.1 | -85.1 | ||
| 2013-04-09T12:00 | 30710 | 10 | -50.7 | -84.7 | 250 | 35 |
| 2013-04-09T12:00 | 31044 | 9 | -50.1 | -84.1 | ||
| 2013-04-10T00:00 | 233 | 1000 | ||||
| 2013-04-10T00:00 | 851 | 925 | ||||
| 2013-04-10T00:00 | 1513 | 850 | ||||
| 2013-04-10T00:00 | 1712 | 828 | -11.3 | -14.0 | ||
| 2013-04-10T00:00 | 2311 | 765 | -16.3 | -18.0 | ||
| 2013-04-10T00:00 | 2980 | 700 | -19.7 | -21.2 | 335 | 11 |
| 2013-04-10T00:00 | 3001 | 698 | -19.9 | -21.3 | ||
| 2013-04-10T00:00 | 3260 | 674 | -19.7 | -21.2 | ||
| 2013-04-10T00:00 | 3360 | 665 | -16.7 | -17.7 | ||
| 2013-04-10T00:00 | 3485 | 654 | -16.3 | -17.0 | ||
| 2013-04-10T00:00 | 3626 | 642 | -13.7 | -13.7 | ||
| 2013-04-10T00:00 | 3732 | 633 | -12.7 | -12.7 | ||
| 2013-04-10T00:00 | 3964 | 614 | -12.9 | -12.9 | ||
| 2013-04-10T00:00 | 4343 | 584 | -14.7 | -16.6 | ||
| 2013-04-10T00:00 | 4473 | 574 | -15.5 | -19.6 | ||
| 2013-04-10T00:00 | 4685 | 558 | -16.5 | -20.2 | ||
| 2013-04-10T00:00 | 4752 | 553 | -17.3 | -21.3 | ||
| 2013-04-10T00:00 | 4847 | 546 | -18.3 | -25.3 | ||
| 2013-04-10T00:00 | 5237 | 518 | -21.1 | -27.1 | ||
| 2013-04-10T00:00 | 5352 | 510 | -21.1 | -25.2 | ||
| 2013-04-10T00:00 | 5510 | 500 | -21.7 | -25.5 | 155 | 6 |
| 2013-04-10T00:00 | 5584 | 495 | -22.3 | -26.1 | ||
| 2013-04-10T00:00 | 7110 | 400 | -34.9 | -40.9 | 140 | 8 |
| 2013-04-10T00:00 | 7739 | 365 | -40.7 | -46.7 | ||
| 2013-04-10T00:00 | 8498 | 326 | -45.7 | -52.7 | ||
| 2013-04-10T00:00 | 8580 | 322 | -45.1 | -52.1 | ||
| 2013-04-10T00:00 | 9050 | 300 | -46.9 | -55.9 | 175 | 9 |
| 2013-04-10T00:00 | 9229 | 292 | -46.7 | -56.7 | ||
| 2013-04-10T00:00 | 9819 | 267 | -48.5 | -59.5 | ||
| 2013-04-10T00:00 | 10173 | 253 | -47.9 | -58.9 | ||
| 2013-04-10T00:00 | 10260 | 250 | -46.5 | -58.5 | 180 | 13 |
| 2013-04-10T00:00 | 10340 | 247 | -45.9 | -57.9 | ||
| 2013-04-10T00:00 | 10782 | 231 | -48.3 | -60.3 | ||
| 2013-04-10T00:00 | 10926 | 226 | -47.3 | -59.3 | ||
| 2013-04-10T00:00 | 11604 | 204 | -45.9 | -58.9 | ||
| 2013-04-10T00:00 | 11740 | 200 | -46.3 | -59.3 | 220 | 13 |
| 2013-04-10T00:00 | 11976 | 193 | -45.9 | -59.9 | ||
| 2013-04-10T00:00 | 12185 | 187 | -47.3 | -60.3 | ||
| 2013-04-10T00:00 | 12400 | 181 | -46.9 | -60.9 | ||
| 2013-04-10T00:00 | 12510 | 178 | -47.5 | -61.5 | ||
| 2013-04-10T00:00 | 12852 | 169 | -47.3 | -61.3 | ||
| 2013-04-10T00:00 | 12970 | 166 | -46.7 | -60.7 | ||
| 2013-04-10T00:00 | 13380 | 156 | -48.1 | -62.1 | ||
| 2013-04-10T00:00 | 13508 | 153 | -47.5 | -61.5 | ||
| 2013-04-10T00:00 | 13640 | 150 | -48.5 | -62.5 | 245 | 12 |
| 2013-04-10T00:00 | 13684 | 149 | -48.9 | -62.9 | ||
| 2013-04-10T00:00 | 13999 | 142 | -48.7 | -62.7 | ||
| 2013-04-10T00:00 | 14426 | 133 | -51.1 | -64.1 | ||
| 2013-04-10T00:00 | 14524 | 131 | -50.9 | -63.9 | ||
| 2013-04-10T00:00 | 14931 | 123 | -52.9 | -65.9 | ||
| 2013-04-10T00:00 | 15144 | 119 | -52.9 | -65.9 | ||
| 2013-04-10T00:00 | 15308 | 116 | -54.3 | -67.3 | ||
| 2013-04-10T00:00 | 15419 | 114 | -53.7 | -66.7 | ||
| 2013-04-10T00:00 | 15647 | 110 | -54.7 | -66.7 | ||
| 2013-04-10T00:00 | 15824 | 107 | -53.9 | -66.9 | ||
| 2013-04-10T00:00 | 16067 | 103 | -54.7 | -67.7 | ||
| 2013-04-10T00:00 | 16260 | 100 | -54.1 | -67.1 | 240 | 14 |
| 2013-04-10T00:00 | 17017 | 88 | -55.7 | -67.7 | ||
| 2013-04-10T00:00 | 18011 | 75 | -60.5 | -71.5 | ||
| 2013-04-10T00:00 | 18358 | 71 | -58.9 | -70.9 | ||
| 2013-04-10T00:00 | 18520 | 70 | -59.7 | -71.7 | 265 | 15 |
| 2013-04-10T00:00 | 18866 | 66 | -61.7 | -72.7 | ||
| 2013-04-10T00:00 | 19334 | 61 | -59.1 | -71.1 | ||
| 2013-04-10T00:00 | 19667 | 58 | -61.3 | -72.3 | ||
| 2013-04-10T00:00 | 20316 | 52 | -61.3 | -72.3 | ||
| 2013-04-10T00:00 | 20610 | 50 | -62.7 | -73.7 | 240 | 6 |
| 2013-04-10T00:00 | 20721 | 49 | -63.3 | -74.3 | ||
| 2013-04-10T00:00 | 20989 | 47 | -63.1 | -74.1 | ||
| 2013-04-10T00:00 | 21108 | 46 | -61.1 | -72.1 | ||
| 2013-04-10T00:00 | 21452 | 43 | -63.1 | -74.1 | ||
| 2013-04-10T00:00 | 21667 | 42 | -62.7 | -73.7 | ||
| 2013-04-10T00:00 | 22251 | 38 | -60.7 | -72.7 | ||
| 2013-04-10T00:00 | 22366 | 37 | -58.9 | -70.9 | ||
| 2013-04-10T00:00 | 23390 | 31 | -60.7 | -72.7 | ||
| 2013-04-10T00:00 | 23780 | 30 | -58.7 | -71.7 | 275 | 11 |
| 2013-04-10T00:00 | 24372 | 27 | -57.5 | -70.5 | ||
| 2013-04-10T00:00 | 25613 | 22 | -59.1 | -72.1 | ||
| 2013-04-10T00:00 | 25784 | 21 | -55.9 | -69.9 | ||
| 2013-04-10T00:00 | 26340 | 20 | -55.9 | -69.9 | 255 | 13 |
| 2013-04-10T00:00 | 26404 | 19 | -56.1 | -70.1 | ||
| 2013-04-10T00:00 | 26567 | 19 | -53.7 | -69.7 | ||
| 2013-04-10T00:00 | 27412 | 16 | -56.9 | -71.9 | ||
| 2013-04-10T00:00 | 28042 | 15 | -55.5 | -71.5 | ||
| 2013-04-10T00:00 | 28471 | 14 | -56.5 | -72.5 | ||
| 2013-04-10T12:00 | 245 | 1000 | ||||
| 2013-04-10T12:00 | 857 | 925 | ||||
| 2013-04-10T12:00 | 1512 | 850 | ||||
| 2013-04-10T12:00 | 1666 | 833 | -12.9 | -15.1 | ||
| 2013-04-10T12:00 | 2211 | 775 | -16.5 | -18.5 | ||
| 2013-04-10T12:00 | 2309 | 765 | -15.5 | -17.3 | ||
| 2013-04-10T12:00 | 2589 | 737 | -17.1 | -18.9 | ||
| 2013-04-10T12:00 | 2858 | 711 | -16.7 | -18.4 | ||
| 2013-04-10T12:00 | 2932 | 704 | -15.3 | -17.2 | ||
| 2013-04-10T12:00 | 2980 | 700 | -15.1 | -17.1 | 355 | 15 |
| 2013-04-10T12:00 | 3143 | 685 | -14.3 | -16.6 | ||
| 2013-04-10T12:00 | 3210 | 679 | -12.9 | -15.6 | ||
| 2013-04-10T12:00 | 3437 | 659 | -13.7 | -16.0 | ||
| 2013-04-10T12:00 | 3695 | 637 | -13.1 | -15.2 | ||
| 2013-04-10T12:00 | 3803 | 628 | -13.7 | -15.9 | ||
| 2013-04-10T12:00 | 3937 | 617 | -12.9 | -15.2 | ||
| 2013-04-10T12:00 | 4405 | 580 | -14.9 | -17.5 | ||
| 2013-04-10T12:00 | 4563 | 568 | -14.7 | -18.3 | ||
| 2013-04-10T12:00 | 4724 | 556 | -15.1 | -22.1 | ||
| 2013-04-10T12:00 | 5055 | 532 | -16.9 | -26.9 | ||
| 2013-04-10T12:00 | 5520 | 500 | -20.9 | -30.9 | 315 | 6 |
| 2013-04-10T12:00 | 7130 | 400 | -34.9 | -43.9 | 325 | 3 |
| 2013-04-10T12:00 | 7253 | 393 | -35.9 | -44.9 | ||
| 2013-04-10T12:00 | 9030 | 302 | -48.3 | -56.3 | ||
| 2013-04-10T12:00 | 9070 | 300 | -48.3 | -56.3 | 315 | 8 |
| 2013-04-10T12:00 | 9407 | 285 | -48.3 | -56.3 | ||
| 2013-04-10T12:00 | 9547 | 279 | -46.7 | -54.7 | ||
| 2013-04-10T12:00 | 9642 | 275 | -47.1 | -56.1 | ||
| 2013-04-10T12:00 | 9715 | 272 | -45.9 | -54.9 | ||
| 2013-04-10T12:00 | 9813 | 268 | -45.7 | -54.7 | ||
| 2013-04-10T12:00 | 10143 | 255 | -46.1 | -55.1 | ||
| 2013-04-10T12:00 | 10270 | 250 | -47.1 | -56.1 | 245 | 3 |
| 2013-04-10T12:00 | 10457 | 243 | -48.3 | -57.3 | ||
| 2013-04-10T12:00 | 10539 | 240 | -47.1 | -57.1 | ||
| 2013-04-10T12:00 | 10848 | 229 | -47.7 | -57.7 | ||
| 2013-04-10T12:00 | 11112 | 220 | -47.3 | -57.3 | ||
| 2013-04-10T12:00 | 11172 | 218 | -46.7 | -56.7 | ||
| 2013-04-10T12:00 | 11750 | 200 | -47.1 | -57.1 | 220 | 6 |
| 2013-04-10T12:00 | 12408 | 181 | -47.9 | -58.9 | ||
| 2013-04-10T12:00 | 12668 | 174 | -47.3 | -58.3 | ||
| 2013-04-10T12:00 | 13097 | 163 | -49.3 | -60.3 | ||
| 2013-04-10T12:00 | 13640 | 150 | -50.1 | -61.1 | 285 | 8 |
| 2013-04-10T12:00 | 13861 | 145 | -50.5 | -61.5 | ||
| 2013-04-10T12:00 | 14278 | 136 | -50.3 | -61.3 | ||
| 2013-04-10T12:00 | 14570 | 130 | -52.5 | -62.5 | ||
| 2013-04-10T12:00 | 14926 | 123 | -52.9 | -62.9 | ||
| 2013-04-10T12:00 | 15032 | 121 | -52.3 | -63.3 | ||
| 2013-04-10T12:00 | 15471 | 113 | -54.9 | -64.9 | ||
| 2013-04-10T12:00 | 15999 | 104 | -55.3 | -65.3 | ||
| 2013-04-10T12:00 | 16260 | 100 | -56.9 | -66.9 | 265 | 11 |
| 2013-04-10T12:00 | 16977 | 89 | -59.9 | -69.9 | ||
| 2013-04-10T12:00 | 17301 | 84 | -58.1 | -68.1 | ||
| 2013-04-10T12:00 | 17884 | 77 | -57.9 | -67.9 | ||
| 2013-04-10T12:00 | 18500 | 70 | -59.5 | -69.5 | 265 | 12 |
| 2013-04-10T12:00 | 19116 | 63 | -60.9 | -69.9 | ||
| 2013-04-10T12:00 | 19528 | 59 | -63.3 | -72.3 | ||
| 2013-04-10T12:00 | 19665 | 58 | -61.1 | -70.1 | ||
| 2013-04-10T12:00 | 19904 | 55 | -61.1 | -70.1 | ||
| 2013-04-10T12:00 | 20456 | 51 | -64.7 | -73.7 | ||
| 2013-04-10T12:00 | 20580 | 50 | -63.1 | -72.1 | 275 | 14 |
| 2013-04-10T12:00 | 20870 | 47 | -61.1 | -70.1 | ||
| 2013-04-10T12:00 | 21742 | 41 | -63.7 | -72.7 | ||
| 2013-04-10T12:00 | 21984 | 39 | -61.3 | -70.3 | ||
| 2013-04-10T12:00 | 22552 | 36 | -62.1 | -71.1 | ||
| 2013-04-10T12:00 | 23069 | 33 | -59.3 | -69.3 | ||
| 2013-04-10T12:00 | 23740 | 30 | -61.5 | -71.5 | 295 | 7 |
| 2013-04-10T12:00 | 24298 | 27 | -63.5 | -72.5 | ||
| 2013-04-10T12:00 | 25345 | 23 | -62.9 | -72.9 | ||
| 2013-04-10T12:00 | 25645 | 22 | -62.1 | -72.1 | ||
| 2013-04-10T12:00 | 25817 | 21 | -58.3 | -68.3 | ||
| 2013-04-10T12:00 | 26250 | 20 | -57.3 | -68.3 | 270 | 22 |
| 2013-04-10T12:00 | 26915 | 18 | -56.9 | -67.9 | ||
| 2013-04-10T12:00 | 27130 | 17 | -55.3 | -66.3 | ||
| 2013-04-10T12:00 | 28072 | 15 | -56.5 | -68.5 | ||
| 2013-04-10T12:00 | 28421 | 14 | -53.9 | -66.9 | ||
| 2013-04-10T12:00 | 29081 | 12 | -57.1 | -70.1 | ||
| 2013-04-10T12:00 | 29545 | 11 | -53.7 | -67.7 | ||
| 2013-04-10T12:00 | 30165 | 10 | -54.5 | -70.5 | ||
| 2013-04-11T00:00 | 197 | 1000 | ||||
| 2013-04-11T00:00 | 816 | 925 | ||||
| 2013-04-11T00:00 | 1479 | 850 | ||||
| 2013-04-11T00:00 | 1724 | 824 | -5.9 | -11.9 | ||
| 2013-04-11T00:00 | 1886 | 807 | -7.7 | -13.7 | ||
| 2013-04-11T00:00 | 2418 | 753 | -12.3 | -14.3 | ||
| 2013-04-11T00:00 | 2592 | 736 | -12.3 | -13.8 | ||
| 2013-04-11T00:00 | 2844 | 712 | -13.5 | -14.9 | ||
| 2013-04-11T00:00 | 2876 | 709 | -13.1 | -14.5 | ||
| 2013-04-11T00:00 | 2930 | 704 | -10.3 | -10.9 | ||
| 2013-04-11T00:00 | 2977 | 700 | -10.3 | -11.0 | 335 | 14 |
| 2013-04-11T00:00 | 3110 | 688 | -10.1 | -12.9 | ||
| 2013-04-11T00:00 | 3533 | 651 | -12.1 | -16.6 | ||
| 2013-04-11T00:00 | 4188 | 597 | -15.9 | -19.6 | ||
| 2013-04-11T00:00 | 4341 | 585 | -15.1 | -19.0 | ||
| 2013-04-11T00:00 | 4629 | 563 | -15.9 | -20.9 | ||
| 2013-04-11T00:00 | 4859 | 546 | -17.7 | -21.7 | ||
| 2013-04-11T00:00 | 4928 | 541 | -17.1 | -21.2 | ||
| 2013-04-11T00:00 | 5166 | 524 | -18.9 | -23.0 | ||
| 2013-04-11T00:00 | 5520 | 500 | -20.1 | -28.1 | 335 | 14 |
| 2013-04-11T00:00 | 5699 | 488 | -20.9 | -30.9 | ||
| 2013-04-11T00:00 | 6100 | 462 | -23.9 | -31.9 | ||
| 2013-04-11T00:00 | 6470 | 439 | -26.1 | -36.1 | ||
| 2013-04-11T00:00 | 7140 | 400 | -32.1 | -41.1 | 345 | 19 |
| 2013-04-11T00:00 | 7300 | 391 | -33.5 | -41.5 | ||
| 2013-04-11T00:00 | 7872 | 360 | -38.3 | -47.3 | ||
| 2013-04-11T00:00 | 8426 | 332 | -40.3 | -50.3 | ||
| 2013-04-11T00:00 | 9084 | 301 | -45.5 | -55.5 | ||
| 2013-04-11T00:00 | 9110 | 300 | -45.5 | -55.5 | 31 | |
| 2013-04-11T00:00 | 9473 | 284 | -47.1 | -57.1 | ||
| 2013-04-11T00:00 | 10320 | 250 | -48.7 | -58.7 | 5 | 38 |
| 2013-04-11T00:00 | 10753 | 234 | -49.1 | -59.1 | ||
| 2013-04-11T00:00 | 10838 | 231 | -48.5 | -58.5 | ||
| 2013-04-11T00:00 | 11128 | 221 | -49.3 | -59.3 | ||
| 2013-04-11T00:00 | 11401 | 212 | -47.5 | -57.5 | ||
| 2013-04-11T00:00 | 11720 | 202 | -46.7 | -57.7 | ||
| 2013-04-11T00:00 | 11780 | 200 | -47.1 | -58.1 | 340 | 15 |
| 2013-04-11T00:00 | 12049 | 192 | -47.3 | -58.3 | ||
| 2013-04-11T00:00 | 12582 | 177 | -50.1 | -60.1 | ||
| 2013-04-11T00:00 | 12807 | 171 | -50.3 | -60.3 | ||
| 2013-04-11T00:00 | 13040 | 165 | -49.5 | -60.5 | ||
| 2013-04-11T00:00 | 13446 | 155 | -51.7 | -61.7 | ||
| 2013-04-11T00:00 | 13670 | 150 | -52.1 | -62.1 | 300 | 8 |
| 2013-04-11T00:00 | 13844 | 146 | -52.3 | -62.3 | ||
| 2013-04-11T00:00 | 13888 | 145 | -51.9 | -61.9 | ||
| 2013-04-11T00:00 | 14161 | 139 | -52.7 | -62.7 | ||
| 2013-04-11T00:00 | 14208 | 138 | -52.1 | -62.1 | ||
| 2013-04-11T00:00 | 14446 | 133 | -53.1 | -63.1 | ||
| 2013-04-11T00:00 | 15001 | 122 | -52.7 | -62.7 | ||
| 2013-04-11T00:00 | 15161 | 119 | -53.7 | -63.7 | ||
| 2013-04-11T00:00 | 15380 | 115 | -53.5 | -63.5 | ||
| 2013-04-11T00:00 | 15722 | 109 | -55.1 | -65.1 | ||
| 2013-04-11T00:00 | 15840 | 107 | -54.3 | -64.3 | ||
| 2013-04-11T00:00 | 16207 | 101 | -56.7 | -66.7 | ||
| 2013-04-11T00:00 | 16280 | 100 | -56.1 | -66.1 | 300 | 12 |
| 2013-04-11T00:00 | 18144 | 74 | -60.5 | -69.5 | ||
| 2013-04-11T00:00 | 18520 | 70 | -60.9 | -69.9 | 260 | 16 |
| 2013-04-11T00:00 | 19850 | 56 | -60.1 | -69.1 | ||
| 2013-04-11T00:00 | 20422 | 51 | -63.3 | -72.3 | ||
| 2013-04-11T00:00 | 20610 | 50 | -62.1 | -71.1 | 270 | 4 |
| 2013-04-11T00:00 | 20978 | 47 | -62.3 | -71.3 | ||
| 2013-04-11T00:00 | 21769 | 41 | -64.1 | -73.1 | ||
| 2013-04-11T00:00 | 21965 | 40 | -61.9 | -70.9 | ||
| 2013-04-11T00:00 | 22512 | 36 | -61.9 | -70.9 | ||
| 2013-04-11T00:00 | 22842 | 34 | -58.7 | -68.7 | ||
| 2013-04-11T00:00 | 23386 | 31 | -59.3 | -69.3 | ||
| 2013-04-11T00:00 | 23485 | 31 | -57.9 | -67.9 | ||
| 2013-04-11T00:00 | 23729 | 30 | -59.7 | -69.7 | ||
| 2013-04-11T00:00 | 23780 | 30 | -59.7 | -69.7 | 290 | 7 |
| 2013-04-11T00:00 | 24623 | 26 | -60.5 | -70.5 | ||
| 2013-04-11T00:00 | 24891 | 25 | -58.1 | -68.1 | ||
| 2013-04-11T00:00 | 25492 | 22 | -59.7 | -69.7 | ||
| 2013-04-11T00:00 | 25946 | 21 | -58.9 | -68.9 | ||
| 2013-04-11T00:00 | 26320 | 20 | -55.7 | -65.7 | 260 | 17 |
| 2013-04-11T00:00 | 27272 | 17 | -58.1 | -68.1 | ||
| 2013-04-11T00:00 | 27649 | 16 | -57.3 | -68.3 | ||
| 2013-04-11T00:00 | 27888 | 15 | -54.9 | -65.9 | ||
| 2013-04-11T00:00 | 28483 | 14 | -58.1 | -69.1 | ||
| 2013-04-11T00:00 | 28708 | 13 | -57.7 | -68.7 | ||
| 2013-04-11T00:00 | 29824 | 11 | -52.1 | -66.1 | ||
| 2013-04-11T00:00 | 29938 | 11 | -50.1 | -64.1 | ||
| 2013-04-11T00:00 | 30750 | 10 | -49.7 | -64.7 | 255 | 27 |
| 2013-04-11T00:00 | 31154 | 9 | -49.3 | -65.3 | ||
| 2013-04-11T12:00 | 105 | 1000 | ||||
| 2013-04-11T12:00 | 734 | 925 | ||||
| 2013-04-11T12:00 | 1408 | 850 | ||||
| 2013-04-11T12:00 | 1668 | 822 | -5.5 | -9.0 | ||
| 2013-04-11T12:00 | 1726 | 816 | -5.3 | -9.8 | ||
| 2013-04-11T12:00 | 1773 | 811 | -4.1 | -9.1 | ||
| 2013-04-11T12:00 | 1842 | 804 | 0.8 | -6.2 | ||
| 2013-04-11T12:00 | 1922 | 796 | 1.0 | -8.0 | ||
| 2013-04-11T12:00 | 1973 | 791 | 2.4 | -7.6 | ||
| 2013-04-11T12:00 | 2076 | 781 | 3.2 | -8.8 | ||
| 2013-04-11T12:00 | 2958 | 700 | -3.1 | -12.1 | 325 | 17 |
| 2013-04-11T12:00 | 3151 | 683 | -4.7 | -12.7 | ||
| 2013-04-11T12:00 | 4332 | 586 | -13.7 | -15.8 | ||
| 2013-04-11T12:00 | 4502 | 573 | -14.3 | -15.6 | ||
| 2013-04-11T12:00 | 5449 | 505 | -18.5 | -20.7 | ||
| 2013-04-11T12:00 | 5530 | 500 | -19.1 | -21.6 | 345 | 26 |
| 2013-04-11T12:00 | 5831 | 480 | -21.5 | -23.9 | ||
| 2013-04-11T12:00 | 5939 | 473 | -20.5 | -23.0 | ||
| 2013-04-11T12:00 | 6241 | 454 | -21.9 | -26.0 | ||
| 2013-04-11T12:00 | 6807 | 420 | -26.1 | -30.6 | ||
| 2013-04-11T12:00 | 6928 | 413 | -26.9 | -32.9 | ||
| 2013-04-11T12:00 | 7033 | 407 | -26.5 | -36.5 | ||
| 2013-04-11T12:00 | 7104 | 403 | -26.1 | -38.1 | ||
| 2013-04-11T12:00 | 7160 | 400 | -26.3 | -38.3 | 315 | 33 |
| 2013-04-11T12:00 | 7306 | 392 | -26.7 | -37.7 | ||
| 2013-04-11T12:00 | 9180 | 300 | -42.9 | -50.9 | 300 | 31 |
| 2013-04-11T12:00 | 9687 | 278 | -47.7 | -54.7 | ||
| 2013-04-11T12:00 | 10051 | 263 | -49.3 | -56.3 | ||
| 2013-04-11T12:00 | 10380 | 250 | -52.5 | -59.5 | 290 | 36 |
| 2013-04-11T12:00 | 10406 | 249 | -52.7 | -59.7 | ||
| 2013-04-11T12:00 | 10670 | 239 | -53.3 | -60.3 | ||
| 2013-04-11T12:00 | 11312 | 216 | -58.3 | -65.3 | ||
| 2013-04-11T12:00 | 11489 | 210 | -57.7 | -64.7 | ||
| 2013-04-11T12:00 | 11800 | 200 | -59.3 | -66.3 | 290 | 23 |
| 2013-04-11T12:00 | 11958 | 195 | -59.5 | |||
| 2013-04-11T12:00 | 12088 | 191 | -58.1 | |||
| 2013-04-11T12:00 | 12154 | 189 | -55.9 | |||
| 2013-04-11T12:00 | 12290 | 185 | -53.9 | |||
| 2013-04-11T12:00 | 12830 | 170 | -55.3 | |||
| 2013-04-11T12:00 | 13137 | 162 | -55.1 | |||
| 2013-04-11T12:00 | 13337 | 157 | -53.7 | |||
| 2013-04-11T12:00 | 13630 | 150 | -54.1 | -62.1 | 295 | 13 |
| 2013-04-11T12:00 | 13716 | 148 | -54.3 | |||
| 2013-04-11T12:00 | 13847 | 145 | -53.7 | |||
| 2013-04-11T12:00 | 13981 | 142 | -54.5 | |||
| 2013-04-11T12:00 | 14026 | 141 | -52.7 | |||
| 2013-04-11T12:00 | 14118 | 139 | -51.5 | |||
| 2013-04-11T12:00 | 14649 | 128 | -53.5 | |||
| 2013-04-11T12:00 | 14853 | 124 | -52.3 | |||
| 2013-04-11T12:00 | 15559 | 111 | -57.3 | |||
| 2013-04-11T12:00 | 15674 | 109 | -55.9 | |||
| 2013-04-11T12:00 | 15851 | 106 | -54.9 | |||
| 2013-04-11T12:00 | 16230 | 100 | -56.1 | -64.1 | 275 | 15 |
| 2013-04-11T12:00 | 17035 | 88 | -59.1 | |||
| 2013-04-11T12:00 | 17838 | 77 | -58.5 | |||
| 2013-04-11T12:00 | 18470 | 70 | -61.7 | 240 | 12 | |
| 2013-04-11T12:00 | 18568 | 68 | -62.1 | |||
| 2013-04-11T12:00 | 18649 | 68 | -61.1 | |||
| 2013-04-11T12:00 | 19370 | 60 | -62.9 | |||
| 2013-04-11T12:00 | 19824 | 56 | -61.9 | |||
| 2013-04-11T12:00 | 20254 | 52 | -63.5 | |||
| 2013-04-11T12:00 | 20493 | 50 | -62.9 | |||
| 2013-04-11T12:00 | 20550 | 50 | -62.1 | 265 | 14 | |
| 2013-04-11T12:00 | 20650 | 49 | -60.5 | |||
| 2013-04-11T12:00 | 21218 | 44 | -60.1 | |||
| 2013-04-11T12:00 | 21932 | 40 | -62.9 | |||
| 2013-04-11T12:00 | 23049 | 33 | -59.3 | |||
| 2013-04-11T12:00 | 23720 | 30 | -61.1 | 275 | 13 | |
| 2013-04-11T12:00 | 23741 | 29 | -61.1 | |||
| 2013-04-11T12:00 | 24802 | 25 | -60.1 | |||
| 2013-04-11T12:00 | 25624 | 22 | -57.5 | |||
| 2013-04-11T12:00 | 26260 | 20 | -58.9 | 260 | 16 | |
| 2013-04-11T12:00 | 27092 | 17 | -60.9 | |||
| 2013-04-11T12:00 | 27576 | 16 | -55.9 | |||
| 2013-04-11T12:00 | 29272 | 12 | -55.9 | |||
| 2013-04-11T12:00 | 29698 | 11 | -52.7 | |||
| 2013-04-11T12:00 | 29923 | 11 | -53.5 | |||
| 2013-04-11T12:00 | 30402 | 10 | -49.9 | |||
| 2013-04-11T12:00 | 30670 | 10 | -51.3 | 240 | 20 | |
| 2013-04-11T12:00 | 31070 | 9 | -51.7 | |||
| 2013-04-11T12:00 | 31282 | 9 | -46.7 | -62.7 | ||
| 2013-04-12T00:00 | 90 | 1000 | ||||
| 2013-04-12T00:00 | 736 | 925 | ||||
| 2013-04-12T00:00 | 1427 | 850 | ||||
| 2013-04-12T00:00 | 1710 | 821 | 7.0 | -1.0 | ||
| 2013-04-12T00:00 | 1962 | 796 | 4.6 | -2.4 | ||
| 2013-04-12T00:00 | 2505 | 744 | -0.5 | -3.3 | ||
| 2013-04-12T00:00 | 2994 | 700 | -3.9 | -5.3 | 300 | 8 |
| 2013-04-12T00:00 | 3073 | 693 | -4.7 | -5.7 | ||
| 2013-04-12T00:00 | 3384 | 666 | -6.3 | -7.1 | ||
| 2013-04-12T00:00 | 3657 | 643 | -7.7 | -9.9 | ||
| 2013-04-12T00:00 | 4126 | 605 | -11.1 | -13.9 | ||
| 2013-04-12T00:00 | 4408 | 583 | -13.7 | -15.6 | ||
| 2013-04-12T00:00 | 4632 | 566 | -15.1 | -18.4 | ||
| 2013-04-12T00:00 | 4902 | 546 | -16.7 | -18.7 | ||
| 2013-04-12T00:00 | 5423 | 509 | -21.3 | -27.3 | ||
| 2013-04-12T00:00 | 5560 | 500 | -22.5 | -31.5 | 315 | 21 |
| 2013-04-12T00:00 | 5589 | 498 | -22.9 | -31.9 | ||
| 2013-04-12T00:00 | 6152 | 461 | -24.3 | -38.3 | ||
| 2013-04-12T00:00 | 6855 | 418 | -30.1 | -43.1 | ||
| 2013-04-12T00:00 | 7170 | 400 | -32.3 | -44.3 | 310 | 19 |
| 2013-04-12T00:00 | 7603 | 376 | -34.9 | -45.9 | ||
| 2013-04-12T00:00 | 9140 | 300 | -47.5 | -56.5 | 290 | 21 |
| 2013-04-12T00:00 | 9430 | 287 | -50.1 | -58.1 | ||
| 2013-04-12T00:00 | 10265 | 252 | -56.5 | -64.5 | ||
| 2013-04-12T00:00 | 10320 | 250 | -56.5 | -64.5 | 275 | 22 |
| 2013-04-12T00:00 | 10552 | 241 | -56.5 | -64.5 | ||
| 2013-04-12T00:00 | 10605 | 239 | -55.3 | -63.3 | ||
| 2013-04-12T00:00 | 10685 | 236 | -55.5 | -63.5 | ||
| 2013-04-12T00:00 | 10849 | 230 | -54.1 | -62.1 | ||
| 2013-04-12T00:00 | 11221 | 217 | -54.1 | -62.1 | ||
| 2013-04-12T00:00 | 11587 | 205 | -51.1 | -60.1 | ||
| 2013-04-12T00:00 | 11750 | 200 | -52.5 | 280 | 16 | |
| 2013-04-12T00:00 | 11913 | 195 | -53.7 | |||
| 2013-04-12T00:00 | 11979 | 193 | -53.5 | |||
| 2013-04-12T00:00 | 12114 | 189 | -52.1 | |||
| 2013-04-12T00:00 | 12183 | 187 | -50.3 | |||
| 2013-04-12T00:00 | 12324 | 183 | -49.7 | |||
| 2013-04-12T00:00 | 12615 | 175 | -50.7 | |||
| 2013-04-12T00:00 | 12727 | 172 | -50.5 | -59.5 | ||
| 2013-04-12T00:00 | 12765 | 171 | -50.3 | |||
| 2013-04-12T00:00 | 12958 | 166 | -51.5 | |||
| 2013-04-12T00:00 | 13486 | 153 | -51.5 | |||
| 2013-04-12T00:00 | 13620 | 150 | -52.3 | 295 | 23 | |
| 2013-04-12T00:00 | 14249 | 136 | -54.3 | |||
| 2013-04-12T00:00 | 14440 | 132 | -53.1 | |||
| 2013-04-12T00:00 | 14587 | 129 | -53.9 | |||
| 2013-04-12T00:00 | 14738 | 126 | -51.9 | |||
| 2013-04-12T00:00 | 15106 | 119 | -53.5 | |||
| 2013-04-12T00:00 | 15780 | 107 | -58.7 | |||
| 2013-04-12T00:00 | 16080 | 102 | -58.1 | |||
| 2013-04-12T00:00 | 16210 | 100 | -58.7 | 285 | 14 | |
| 2013-04-12T00:00 | 16486 | 95 | -58.1 | |||
| 2013-04-12T00:00 | 16801 | 91 | -59.5 | |||
| 2013-04-12T00:00 | 17063 | 87 | -54.5 | |||
| 2013-04-12T00:00 | 18010 | 75 | -60.9 | |||
| 2013-04-12T00:00 | 18341 | 71 | -60.7 | |||
| 2013-04-12T00:00 | 18450 | 70 | -59.7 | 280 | 6 | |
| 2013-04-12T00:00 | 18558 | 68 | -57.5 | |||
| 2013-04-12T00:00 | 19197 | 62 | -61.7 | |||
| 2013-04-12T00:00 | 19338 | 60 | -60.7 | |||
| 2013-04-12T00:00 | 19545 | 58 | -61.5 | |||
| 2013-04-12T00:00 | 19662 | 57 | -59.9 | |||
| 2013-04-12T00:00 | 20550 | 50 | -62.1 | 250 | 11 | |
| 2013-04-12T00:00 | 20700 | 48 | -62.5 | |||
| 2013-04-12T00:00 | 20866 | 47 | -61.7 | |||
| 2013-04-12T00:00 | 20985 | 46 | -58.5 | |||
| 2013-04-12T00:00 | 22080 | 39 | -60.5 | |||
| 2013-04-12T00:00 | 22376 | 37 | -57.5 | |||
| 2013-04-12T00:00 | 22957 | 34 | -58.5 | |||
| 2013-04-12T00:00 | 23419 | 31 | -55.5 | |||
| 2013-04-12T00:00 | 23750 | 30 | -58.1 | 275 | 8 | |
| 2013-04-12T00:00 | 24118 | 28 | -56.3 | |||
| 2013-04-12T00:00 | 24846 | 25 | -60.3 | |||
| 2013-04-12T00:00 | 25335 | 23 | -58.7 | |||
| 2013-04-12T00:00 | 26259 | 20 | -59.3 | |||
| 2013-04-12T00:00 | 26300 | 20 | -59.1 | 270 | 17 | |
| 2013-04-12T00:00 | 26726 | 18 | -54.5 | |||
| 2013-04-12T00:00 | 27915 | 15 | -57.5 | |||
| 2013-04-12T00:00 | 28210 | 14 | -51.7 | |||
| 2013-04-12T00:00 | 29401 | 12 | -53.9 | |||
| 2013-04-12T00:00 | 29776 | 11 | -53.7 | |||
| 2013-04-12T00:00 | 30177 | 10 | -50.9 | -63.9 | ||
| 2013-04-12T12:00 | 95 | 1000 | ||||
| 2013-04-12T12:00 | 749 | 925 | ||||
| 2013-04-12T12:00 | 1449 | 850 | ||||
| 2013-04-12T12:00 | 1718 | 822 | 3.2 | -1.8 | ||
| 2013-04-12T12:00 | 2078 | 786 | 1.0 | -6.0 | ||
| 2013-04-12T12:00 | 2483 | 747 | -2.3 | -3.0 | ||
| 2013-04-12T12:00 | 2622 | 734 | -1.5 | -2.4 | ||
| 2013-04-12T12:00 | 2808 | 717 | -1.9 | -6.5 | ||
| 2013-04-12T12:00 | 3008 | 700 | -3.5 | -8.2 | 285 | 9 |
| 2013-04-12T12:00 | 3742 | 637 | -9.5 | -12.1 | ||
| 2013-04-12T12:00 | 3851 | 628 | -9.9 | -12.8 | ||
| 2013-04-12T12:00 | 4074 | 610 | -10.3 | -17.3 | ||
| 2013-04-12T12:00 | 4290 | 593 | -12.1 | -20.1 | ||
| 2013-04-12T12:00 | 4617 | 568 | -14.9 | -20.9 | ||
| 2013-04-12T12:00 | 4886 | 548 | -16.7 | -29.7 | ||
| 2013-04-12T12:00 | 5220 | 524 | -19.3 | -30.3 | ||
| 2013-04-12T12:00 | 5580 | 500 | -20.3 | -31.3 | 290 | 20 |
| 2013-04-12T12:00 | 5774 | 487 | -21.3 | -30.3 | ||
| 2013-04-12T12:00 | 6143 | 463 | -24.3 | -31.3 | ||
| 2013-04-12T12:00 | 6269 | 455 | -25.5 | -30.2 | ||
| 2013-04-12T12:00 | 6462 | 443 | -27.1 | -31.0 | ||
| 2013-04-12T12:00 | 6809 | 422 | -29.5 | -33.4 | ||
| 2013-04-12T12:00 | 7048 | 408 | -30.9 | -36.9 | ||
| 2013-04-12T12:00 | 7190 | 400 | -32.1 | -38.1 | 280 | 21 |
| 2013-04-12T12:00 | 9150 | 300 | -49.1 | -55.1 | 280 | 25 |
| 2013-04-12T12:00 | 9172 | 299 | -49.5 | -55.5 | ||
| 2013-04-12T12:00 | 10320 | 250 | -57.9 | -63.9 | 280 | 24 |
| 2013-04-12T12:00 | 10550 | 241 | -59.5 | -65.5 | ||
| 2013-04-12T12:00 | 10926 | 227 | -57.5 | -63.5 | ||
| 2013-04-12T12:00 | 11209 | 217 | -57.5 | -63.5 | ||
| 2013-04-12T12:00 | 11297 | 214 | -56.3 | -62.3 | ||
| 2013-04-12T12:00 | 11416 | 210 | -56.3 | -62.3 | ||
| 2013-04-12T12:00 | 11477 | 208 | -55.3 | -61.3 | ||
| 2013-04-12T12:00 | 11695 | 201 | -53.9 | -60.9 | ||
| 2013-04-12T12:00 | 11730 | 200 | -53.7 | 285 | 21 | |
| 2013-04-12T12:00 | 11892 | 195 | -53.7 | |||
| 2013-04-12T12:00 | 11958 | 193 | -52.3 | |||
| 2013-04-12T12:00 | 12230 | 185 | -53.5 | |||
| 2013-04-12T12:00 | 12335 | 182 | -52.5 | |||
| 2013-04-12T12:00 | 12406 | 180 | -52.5 | |||
| 2013-04-12T12:00 | 12515 | 177 | -51.1 | |||
| 2013-04-12T12:00 | 12739 | 171 | -50.9 | |||
| 2013-04-12T12:00 | 12893 | 167 | -49.7 | |||
| 2013-04-12T12:00 | 13051 | 163 | -50.1 | |||
| 2013-04-12T12:00 | 13172 | 160 | -48.7 | |||
| 2013-04-12T12:00 | 13466 | 153 | -47.9 | |||
| 2013-04-12T12:00 | 13600 | 150 | -48.3 | 275 | 19 | |
| 2013-04-12T12:00 | 13822 | 145 | -49.1 | |||
| 2013-04-12T12:00 | 14238 | 136 | -52.1 | |||
| 2013-04-12T12:00 | 14579 | 129 | -52.5 | |||
| 2013-04-12T12:00 | 15204 | 117 | -55.3 | |||
| 2013-04-12T12:00 | 15885 | 105 | -60.1 | |||
| 2013-04-12T12:00 | 16005 | 103 | -60.3 | |||
| 2013-04-12T12:00 | 16200 | 100 | -58.5 | 265 | 24 | |
| 2013-04-12T12:00 | 17470 | 81 | -60.1 | |||
| 2013-04-12T12:00 | 17609 | 79 | -58.7 | |||
| 2013-04-12T12:00 | 18113 | 73 | -60.7 | |||
| 2013-04-12T12:00 | 18430 | 70 | -59.7 | 285 | 15 | |
| 2013-04-12T12:00 | 18466 | 69 | -59.9 | |||
| 2013-04-12T12:00 | 18612 | 68 | -57.9 | |||
| 2013-04-12T12:00 | 18895 | 65 | -59.1 | |||
| 2013-04-12T12:00 | 19002 | 63 | -58.1 | |||
| 2013-04-12T12:00 | 19221 | 61 | -59.7 | |||
| 2013-04-12T12:00 | 20067 | 53 | -58.1 | |||
| 2013-04-12T12:00 | 20540 | 50 | -59.3 | 260 | 8 | |
| 2013-04-12T12:00 | 20991 | 46 | -60.9 | |||
| 2013-04-12T12:00 | 21450 | 43 | -58.7 | |||
| 2013-04-12T12:00 | 21978 | 39 | -59.5 | |||
| 2013-04-12T12:00 | 22420 | 37 | -57.3 | |||
| 2013-04-12T12:00 | 23210 | 32 | -61.5 | |||
| 2013-04-12T12:00 | 23730 | 30 | -60.9 | 260 | 14 | |
| 2013-04-12T12:00 | 24362 | 27 | -59.5 | |||
| 2013-04-12T12:00 | 24743 | 25 | -57.5 | |||
| 2013-04-12T12:00 | 25097 | 24 | -59.1 | |||
| 2013-04-12T12:00 | 26076 | 20 | -59.7 | |||
| 2013-04-12T12:00 | 26270 | 20 | -57.5 | 290 | 13 | |
| 2013-04-12T12:00 | 26830 | 18 | -56.9 | |||
| 2013-04-12T12:00 | 27111 | 17 | -58.1 | |||
| 2013-04-12T12:00 | 27445 | 16 | -55.3 | |||
| 2013-04-12T12:00 | 27840 | 15 | -55.9 | |||
| 2013-04-12T12:00 | 28133 | 14 | -53.9 | |||
| 2013-04-12T12:00 | 28856 | 13 | -56.3 | |||
| 2013-04-12T12:00 | 29616 | 11 | -55.1 | |||
| 2013-04-12T12:00 | 30185 | 10 | -51.5 | |||
| 2013-04-12T12:00 | 30555 | 10 | -51.3 | |||
| 2013-04-12T12:00 | 30700 | 10 | -49.9 | 265 | 21 | |
| 2013-04-12T12:00 | 31176 | 9 | -47.9 | |||
| 2013-04-12T12:00 | 31318 | 9 | -48.5 | |||
| 2013-04-12T12:00 | 31848 | 8 | -44.5 | |||
| 2013-04-12T12:00 | 32091 | 8 | -44.1 | |||
| 2013-04-12T12:00 | 32428 | 7 | -46.1 | |||
| 2013-04-12T12:00 | 32603 | 7 | -43.7 | -79.7 | ||
| 2013-04-13T00:00 | 106 | 1000 | ||||
| 2013-04-13T00:00 | 762 | 925 | ||||
| 2013-04-13T00:00 | 1463 | 850 | ||||
| 2013-04-13T00:00 | 1760 | 820 | 6.6 | -2.4 | ||
| 2013-04-13T00:00 | 2448 | 753 | -0.1 | -4.1 | ||
| 2013-04-13T00:00 | 2770 | 723 | -3.1 | -4.2 | ||
| 2013-04-13T00:00 | 3002 | 702 | -4.5 | -5.6 | ||
| 2013-04-13T00:00 | 3029 | 700 | -4.5 | -5.8 | 285 | 5 |
| 2013-04-13T00:00 | 3108 | 693 | -4.7 | -8.9 | ||
| 2013-04-13T00:00 | 3176 | 687 | -4.9 | -9.9 | ||
| 2013-04-13T00:00 | 3361 | 671 | -3.3 | -14.3 | ||
| 2013-04-13T00:00 | 4410 | 586 | -12.7 | -23.7 | ||
| 2013-04-13T00:00 | 4673 | 566 | -14.9 | -25.9 | ||
| 2013-04-13T00:00 | 4999 | 542 | -16.7 | -30.7 | ||
| 2013-04-13T00:00 | 5600 | 500 | -22.1 | -35.1 | 300 | 20 |
| 2013-04-13T00:00 | 6426 | 446 | -29.5 | -40.5 | ||
| 2013-04-13T00:00 | 7200 | 400 | -34.9 | -45.9 | 305 | 22 |
| 2013-04-13T00:00 | 9150 | 300 | -49.1 | -58.1 | 310 | 28 |
| 2013-04-13T00:00 | 9348 | 291 | -50.9 | -59.9 | ||
| 2013-04-13T00:00 | 9950 | 265 | -54.7 | -62.7 | ||
| 2013-04-13T00:00 | 10047 | 261 | -54.9 | -62.9 | ||
| 2013-04-13T00:00 | 10146 | 257 | -53.9 | -61.9 | ||
| 2013-04-13T00:00 | 10320 | 250 | -55.1 | -63.1 | 300 | 32 |
| 2013-04-13T00:00 | 10397 | 247 | -55.5 | -63.5 | ||
| 2013-04-13T00:00 | 10713 | 235 | -56.1 | -64.1 | ||
| 2013-04-13T00:00 | 11456 | 209 | -55.9 | -63.9 | ||
| 2013-04-13T00:00 | 11578 | 205 | -56.3 | -64.3 | ||
| 2013-04-13T00:00 | 11672 | 202 | -54.9 | -62.9 | ||
| 2013-04-13T00:00 | 11740 | 200 | -52.9 | 280 | 24 | |
| 2013-04-13T00:00 | 11837 | 197 | -52.3 | -61.3 | ||
| 2013-04-13T00:00 | 12104 | 189 | -53.1 | -62.1 | ||
| 2013-04-13T00:00 | 12347 | 182 | -52.1 | -61.1 | ||
| 2013-04-13T00:00 | 12673 | 173 | -53.7 | -62.7 | ||
| 2013-04-13T00:00 | 13058 | 163 | -50.3 | -59.3 | ||
| 2013-04-13T00:00 | 13344 | 156 | -49.7 | -58.7 | ||
| 2013-04-13T00:00 | 13513 | 152 | -50.7 | -59.7 | ||
| 2013-04-13T00:00 | 13556 | 151 | -49.9 | -58.9 | ||
| 2013-04-13T00:00 | 13600 | 150 | -50.1 | 260 | 22 | |
| 2013-04-13T00:00 | 14047 | 140 | -52.5 | -61.5 | ||
| 2013-04-13T00:00 | 14187 | 137 | -51.9 | -60.9 | ||
| 2013-04-13T00:00 | 14426 | 132 | -53.3 | -62.3 | ||
| 2013-04-13T00:00 | 14674 | 127 | -53.1 | -62.1 | ||
| 2013-04-13T00:00 | 15365 | 114 | -54.7 | -63.7 | ||
| 2013-04-13T00:00 | 15650 | 109 | -57.1 | -66.1 | ||
| 2013-04-13T00:00 | 16200 | 100 | -58.9 | 255 | 23 | |
| 2013-04-13T00:00 | 17262 | 84 | -58.5 | |||
| 2013-04-13T00:00 | 17940 | 75 | -61.1 | |||
| 2013-04-13T00:00 | 18295 | 71 | -58.7 | |||
| 2013-04-13T00:00 | 18430 | 70 | -59.5 | 280 | 17 | |
| 2013-04-13T00:00 | 18547 | 68 | -60.3 | |||
| 2013-04-13T00:00 | 18742 | 66 | -56.9 | |||
| 2013-04-13T00:00 | 19495 | 59 | -57.7 | |||
| 2013-04-13T00:00 | 19712 | 57 | -56.7 | |||
| 2013-04-13T00:00 | 19902 | 55 | -58.3 | |||
| 2013-04-13T00:00 | 20146 | 53 | -55.9 | |||
| 2013-04-13T00:00 | 20560 | 50 | -57.3 | 260 | 12 | |
| 2013-04-13T00:00 | 21028 | 46 | -60.3 | |||
| 2013-04-13T00:00 | 21374 | 43 | -57.9 | |||
| 2013-04-13T00:00 | 21637 | 42 | -58.7 | |||
| 2013-04-13T00:00 | 21991 | 39 | -56.1 | |||
| 2013-04-13T00:00 | 22693 | 35 | -58.9 | |||
| 2013-04-13T00:00 | 23326 | 32 | -56.5 | |||
| 2013-04-13T00:00 | 23587 | 30 | -53.9 | |||
| 2013-04-13T00:00 | 23780 | 30 | -54.3 | 270 | 6 | |
| 2013-04-13T00:00 | 24355 | 27 | -57.7 | |||
| 2013-04-13T00:00 | 24859 | 25 | -55.7 | |||
| 2013-04-13T00:00 | 25517 | 22 | -57.5 | |||
| 2013-04-13T00:00 | 25801 | 21 | -54.5 | |||
| 2013-04-13T00:00 | 26132 | 20 | -53.3 | |||
| 2013-04-13T00:00 | 26360 | 20 | -53.9 | 255 | 14 | |
| 2013-04-13T00:00 | 27909 | 15 | -54.1 | |||
| 2013-04-13T00:00 | 28460 | 14 | -55.9 | |||
| 2013-04-13T00:00 | 29261 | 12 | -53.9 | |||
| 2013-04-13T00:00 | 29467 | 12 | -51.1 | |||
| 2013-04-13T00:00 | 30490 | 10 | -52.5 | |||
| 2013-04-13T00:00 | 30552 | 10 | -51.3 | -62.3 | ||
| 2013-04-13T12:00 | 76 | 1000 | ||||
| 2013-04-13T12:00 | 726 | 925 | ||||
| 2013-04-13T12:00 | 1424 | 850 | ||||
| 2013-04-13T12:00 | 1659 | 826 | 0.6 | -0.5 | ||
| 2013-04-13T12:00 | 1855 | 806 | 1.8 | -0.7 | ||
| 2013-04-13T12:00 | 1926 | 799 | 3.8 | -0.2 | ||
| 2013-04-13T12:00 | 2048 | 787 | 4.8 | -2.2 | ||
| 2013-04-13T12:00 | 2142 | 778 | 6.0 | -8.0 | ||
| 2013-04-13T12:00 | 2506 | 744 | 5.2 | -12.8 | ||
| 2013-04-13T12:00 | 3001 | 700 | 1.0 | -16.0 | 270 | 12 |
| 2013-04-13T12:00 | 3649 | 645 | -4.7 | -20.7 | ||
| 2013-04-13T12:00 | 4252 | 597 | -7.5 | -25.5 | ||
| 2013-04-13T12:00 | 4663 | 566 | -11.3 | -28.3 | ||
| 2013-04-13T12:00 | 4909 | 548 | -13.1 | -25.1 | ||
| 2013-04-13T12:00 | 5190 | 528 | -15.5 | -26.5 | ||
| 2013-04-13T12:00 | 5610 | 500 | -18.5 | -29.5 | 290 | 11 |
| 2013-04-13T12:00 | 6710 | 430 | -28.1 | -38.1 | ||
| 2013-04-13T12:00 | 7230 | 400 | -30.9 | -40.9 | 290 | 13 |
| 2013-04-13T12:00 | 7301 | 396 | -31.5 | -41.5 | ||
| 2013-04-13T12:00 | 9190 | 300 | -48.1 | -55.1 | 300 | 18 |
| 2013-04-13T12:00 | 9919 | 268 | -55.3 | -62.3 | ||
| 2013-04-13T12:00 | 10370 | 250 | -58.9 | -65.9 | 290 | 23 |
| 2013-04-13T12:00 | 10626 | 240 | -58.5 | -65.5 | ||
| 2013-04-13T12:00 | 10838 | 232 | -58.9 | -65.9 | ||
| 2013-04-13T12:00 | 10892 | 230 | -58.5 | -65.5 | ||
| 2013-04-13T12:00 | 11057 | 224 | -59.5 | -66.5 | ||
| 2013-04-13T12:00 | 11760 | 200 | -60.7 | 295 | 23 | |
| 2013-04-13T12:00 | 12015 | 192 | -57.7 | -64.7 | ||
| 2013-04-13T12:00 | 12281 | 184 | -59.9 | -66.9 | ||
| 2013-04-13T12:00 | 12349 | 182 | -57.9 | -64.9 | ||
| 2013-04-13T12:00 | 12419 | 180 | -57.1 | -64.1 | ||
| 2013-04-13T12:00 | 12742 | 171 | -57.7 | -64.7 | ||
| 2013-04-13T12:00 | 12968 | 165 | -55.9 | -62.9 | ||
| 2013-04-13T12:00 | 13124 | 161 | -55.7 | -62.7 | ||
| 2013-04-13T12:00 | 13406 | 154 | -56.7 | -63.7 | ||
| 2013-04-13T12:00 | 13489 | 152 | -55.7 | -62.7 | ||
| 2013-04-13T12:00 | 13580 | 150 | -55.7 | 290 | 22 | |
| 2013-04-13T12:00 | 13665 | 148 | -55.1 | -62.1 | ||
| 2013-04-13T12:00 | 13928 | 142 | -56.1 | -63.1 | ||
| 2013-04-13T12:00 | 14109 | 138 | -55.7 | -62.7 | ||
| 2013-04-13T12:00 | 15041 | 119 | -59.5 | -66.5 | ||
| 2013-04-13T12:00 | 15827 | 105 | -56.9 | -64.9 | ||
| 2013-04-13T12:00 | 16140 | 100 | -59.1 | 280 | 19 | |
| 2013-04-13T12:00 | 17038 | 86 | -59.5 | |||
| 2013-04-13T12:00 | 17177 | 84 | -57.7 | |||
| 2013-04-13T12:00 | 17905 | 75 | -60.1 | |||
| 2013-04-13T12:00 | 18142 | 72 | -57.3 | |||
| 2013-04-13T12:00 | 18380 | 70 | -56.9 | 270 | 13 | |
| 2013-04-13T12:00 | 18426 | 69 | -56.9 | |||
| 2013-04-13T12:00 | 18903 | 64 | -59.9 | |||
| 2013-04-13T12:00 | 19410 | 59 | -57.1 | |||
| 2013-04-13T12:00 | 20290 | 51 | -60.9 | |||
| 2013-04-13T12:00 | 20490 | 50 | -58.5 | 270 | 12 | |
| 2013-04-13T12:00 | 20528 | 49 | -57.9 | |||
| 2013-04-13T12:00 | 21017 | 46 | -55.9 | |||
| 2013-04-13T12:00 | 21864 | 40 | -60.1 | |||
| 2013-04-13T12:00 | 22337 | 37 | -53.3 | |||
| 2013-04-13T12:00 | 22892 | 34 | -55.1 | |||
| 2013-04-13T12:00 | 23687 | 30 | -53.3 | |||
| 2013-04-13T12:00 | 23730 | 30 | -53.3 | 295 | 5 | |
| 2013-04-13T12:00 | 24422 | 26 | -58.3 | |||
| 2013-04-13T12:00 | 25352 | 23 | -57.7 | |||
| 2013-04-13T12:00 | 25864 | 21 | -54.7 | |||
| 2013-04-13T12:00 | 26300 | 20 | -57.7 | 285 | 3 | |
| 2013-04-13T12:00 | 26556 | 19 | -58.7 | |||
| 2013-04-13T12:00 | 26929 | 18 | -54.3 | |||
| 2013-04-13T12:00 | 27443 | 16 | -55.1 | |||
| 2013-04-13T12:00 | 27638 | 16 | -52.7 | |||
| 2013-04-13T12:00 | 27922 | 15 | -52.7 | |||
| 2013-04-13T12:00 | 28047 | 15 | -54.1 | |||
| 2013-04-13T12:00 | 28305 | 14 | -52.7 | |||
| 2013-04-13T12:00 | 29000 | 13 | -54.3 | |||
| 2013-04-13T12:00 | 30015 | 11 | -48.3 | |||
| 2013-04-13T12:00 | 30502 | 10 | -47.7 | |||
| 2013-04-13T12:00 | 30630 | 10 | -45.9 | |||
| 2013-04-13T12:00 | 30780 | 10 | -45.9 | 250 | 13 | |
| 2013-04-13T12:00 | 31553 | 8 | -46.1 | -62.1 | ||
| 2013-04-14T00:00 | 605 | 925 | ||||
| 2013-04-14T00:00 | 1314 | 850 | ||||
| 2013-04-14T00:00 | 1663 | 815 | 16.8 | -10.2 | ||
| 2013-04-14T00:00 | 2065 | 777 | 13.0 | -11.0 | ||
| 2013-04-14T00:00 | 2250 | 760 | 12.0 | -12.0 | ||
| 2013-04-14T00:00 | 2933 | 700 | 5.8 | -14.2 | 175 | 3 |
| 2013-04-14T00:00 | 3919 | 619 | -3.1 | -16.1 | ||
| 2013-04-14T00:00 | 5217 | 523 | -15.5 | -18.2 | ||
| 2013-04-14T00:00 | 5560 | 500 | -17.5 | -19.5 | 265 | 22 |
| 2013-04-14T00:00 | 5620 | 496 | -17.7 | -19.6 | ||
| 2013-04-14T00:00 | 5864 | 480 | -18.5 | -21.4 | ||
| 2013-04-14T00:00 | 6965 | 413 | -26.3 | -30.4 | ||
| 2013-04-14T00:00 | 7200 | 400 | -28.3 | -32.7 | 270 | 25 |
| 2013-04-14T00:00 | 7983 | 358 | -34.3 | -41.3 | ||
| 2013-04-14T00:00 | 9200 | 300 | -45.5 | -51.5 | 270 | 26 |
| 2013-04-14T00:00 | 9470 | 288 | -48.1 | -54.1 | ||
| 2013-04-14T00:00 | 10380 | 250 | -55.5 | -61.5 | 285 | 33 |
| 2013-04-14T00:00 | 11617 | 205 | -63.9 | -69.9 | ||
| 2013-04-14T00:00 | 11770 | 200 | -64.5 | -70.5 | 290 | 31 |
| 2013-04-14T00:00 | 11955 | 194 | -64.7 | -70.7 | ||
| 2013-04-14T00:00 | 12212 | 186 | -64.1 | -70.1 | ||
| 2013-04-14T00:00 | 12312 | 183 | -62.3 | -68.3 | ||
| 2013-04-14T00:00 | 12518 | 177 | -60.5 | -66.5 | ||
| 2013-04-14T00:00 | 12660 | 173 | -60.9 | -66.9 | ||
| 2013-04-14T00:00 | 12880 | 167 | -58.5 | -64.5 | ||
| 2013-04-14T00:00 | 13071 | 162 | -58.1 | -65.1 | ||
| 2013-04-14T00:00 | 13149 | 160 | -57.3 | -64.3 | ||
| 2013-04-14T00:00 | 13269 | 157 | -53.9 | -60.9 | ||
| 2013-04-14T00:00 | 13434 | 153 | -53.5 | -61.5 | ||
| 2013-04-14T00:00 | 13570 | 150 | -53.9 | -61.9 | 265 | 19 |
| 2013-04-14T00:00 | 14009 | 140 | -56.5 | -64.5 | ||
| 2013-04-14T00:00 | 14286 | 134 | -56.5 | -65.5 | ||
| 2013-04-14T00:00 | 14723 | 125 | -58.9 | -67.9 | ||
| 2013-04-14T00:00 | 14876 | 122 | -58.5 | -67.5 | ||
| 2013-04-14T00:00 | 14927 | 121 | -56.9 | -65.9 | ||
| 2013-04-14T00:00 | 15195 | 116 | -55.1 | -64.1 | ||
| 2013-04-14T00:00 | 15476 | 111 | -54.7 | -64.7 | ||
| 2013-04-14T00:00 | 15534 | 110 | -55.1 | -65.1 | ||
| 2013-04-14T00:00 | 16140 | 100 | -59.7 | -69.7 | 235 | 19 |
| 2013-04-14T00:00 | 16323 | 97 | -60.9 | -69.9 | ||
| 2013-04-14T00:00 | 17047 | 86 | -60.9 | -70.9 | ||
| 2013-04-14T00:00 | 17387 | 81 | -60.1 | -70.1 | ||
| 2013-04-14T00:00 | 17629 | 78 | -57.7 | -67.7 | ||
| 2013-04-14T00:00 | 17956 | 74 | -59.7 | -69.7 | ||
| 2013-04-14T00:00 | 18229 | 71 | -58.9 | -68.9 | ||
| 2013-04-14T00:00 | 18370 | 70 | -59.7 | -69.7 | 245 | 17 |
| 2013-04-14T00:00 | 18550 | 68 | -60.9 | -70.9 | ||
| 2013-04-14T00:00 | 18906 | 64 | -60.9 | -70.9 | ||
| 2013-04-14T00:00 | 19276 | 60 | -58.7 | -69.7 | ||
| 2013-04-14T00:00 | 19402 | 59 | -55.9 | -66.9 | ||
| 2013-04-14T00:00 | 19813 | 55 | -53.9 | -65.9 | ||
| 2013-04-14T00:00 | 20490 | 50 | -57.7 | -69.7 | 275 | 5 |
| 2013-04-14T00:00 | 20591 | 49 | -58.3 | -69.3 | ||
| 2013-04-14T00:00 | 21003 | 46 | -54.5 | -67.5 | ||
| 2013-04-14T00:00 | 21300 | 44 | -55.9 | -67.9 | ||
| 2013-04-14T00:00 | 21672 | 41 | -54.9 | -67.9 | ||
| 2013-04-14T00:00 | 22033 | 39 | -57.5 | -69.5 | ||
| 2013-04-14T00:00 | 23297 | 32 | -55.7 | -69.7 | ||
| 2013-04-14T00:00 | 23438 | 31 | -53.9 | -67.9 | ||
| 2013-04-14T00:00 | 23740 | 30 | -55.1 | -69.1 | 250 | 17 |
| 2013-04-14T00:00 | 24181 | 28 | -53.9 | -68.9 | ||
| 2013-04-14T00:00 | 24628 | 26 | -56.3 | -70.3 | ||
| 2013-04-14T00:00 | 25190 | 23 | -53.1 | -70.1 | ||
| 2013-04-14T00:00 | 25898 | 21 | -54.5 | -71.5 | ||
| 2013-04-14T00:00 | 25958 | 21 | -52.5 | -70.5 | ||
| 2013-04-14T00:00 | 26143 | 20 | -52.3 | -71.3 | ||
| 2013-04-14T00:00 | 26340 | 20 | -52.3 | -72.3 | 270 | 12 |
| 2013-04-14T00:00 | 26737 | 18 | -54.3 | -73.3 | ||
| 2013-04-14T00:00 | 27051 | 17 | -53.1 | -74.1 | ||
| 2013-04-14T00:00 | 27232 | 17 | -54.5 | -73.5 | ||
| 2013-04-14T00:00 | 27692 | 16 | -51.1 | -76.1 | ||
| 2013-04-14T00:00 | 29744 | 11 | -51.7 | -84.7 | ||
| 2013-04-14T00:00 | 30083 | 11 | -49.5 | -83.5 | ||
| 2013-04-14T00:00 | 30381 | 10 | -50.1 | -84.1 | ||
| 2013-04-14T00:00 | 30567 | 10 | -47.9 | -82.9 | ||
| 2013-04-14T00:00 | 30696 | 10 | -44.5 | -80.5 | ||
| 2013-04-14T00:00 | 30840 | 10 | -44.3 | -80.3 | 270 | 16 |
| 2013-04-14T00:00 | 30907 | 9 | -43.5 | -79.5 | ||
| 2013-04-14T00:00 | 31620 | 8 | -44.3 | -80.3 | ||
| 2013-04-14T12:00 | 626 | 925 | ||||
| 2013-04-14T12:00 | 1343 | 850 | ||||
| 2013-04-14T12:00 | 1720 | 812 | 4.6 | -4.4 | ||
| 2013-04-14T12:00 | 1790 | 805 | 4.0 | -10.0 | ||
| 2013-04-14T12:00 | 2263 | 759 | 0.4 | -11.6 | ||
| 2013-04-14T12:00 | 2750 | 714 | -1.5 | -12.5 | ||
| 2013-04-14T12:00 | 2916 | 700 | -2.9 | -13.9 | 275 | 18 |
| 2013-04-14T12:00 | 3213 | 674 | -5.7 | -15.7 | ||
| 2013-04-14T12:00 | 3604 | 641 | -7.5 | -17.5 | ||
| 2013-04-14T12:00 | 4024 | 607 | -11.3 | -18.3 | ||
| 2013-04-14T12:00 | 4855 | 544 | -15.3 | -22.3 | ||
| 2013-04-14T12:00 | 5224 | 518 | -15.5 | -24.5 | ||
| 2013-04-14T12:00 | 5500 | 500 | -17.5 | -27.5 | 255 | 40 |
| 2013-04-14T12:00 | 5943 | 471 | -20.9 | -29.9 | ||
| 2013-04-14T12:00 | 7120 | 400 | -31.9 | -36.2 | 250 | 41 |
| 2013-04-14T12:00 | 7316 | 389 | -33.7 | -37.5 | ||
| 2013-04-14T12:00 | 8856 | 310 | -47.9 | -51.6 | ||
| 2013-04-14T12:00 | 9080 | 300 | -47.9 | -52.4 | 265 | 39 |
| 2013-04-14T12:00 | 9510 | 281 | -48.3 | -54.3 | ||
| 2013-04-14T12:00 | 10043 | 259 | -49.9 | -55.9 | ||
| 2013-04-14T12:00 | 10280 | 250 | -51.1 | -58.1 | 280 | 50 |
| 2013-04-14T12:00 | 11556 | 205 | -54.9 | -61.9 | ||
| 2013-04-14T12:00 | 11710 | 200 | -53.9 | 270 | 32 | |
| 2013-04-14T12:00 | 11742 | 199 | -53.7 | |||
| 2013-04-14T12:00 | 12210 | 185 | -53.3 | |||
| 2013-04-14T12:00 | 12350 | 181 | -54.1 | |||
| 2013-04-14T12:00 | 12421 | 179 | -53.9 | |||
| 2013-04-14T12:00 | 12530 | 176 | -52.1 | |||
| 2013-04-14T12:00 | 12754 | 170 | -51.3 | |||
| 2013-04-14T12:00 | 12986 | 164 | -52.1 | |||
| 2013-04-14T12:00 | 13065 | 162 | -51.3 | |||
| 2013-04-14T12:00 | 13434 | 153 | -52.9 | |||
| 2013-04-14T12:00 | 13476 | 152 | -51.3 | |||
| 2013-04-14T12:00 | 13570 | 150 | -51.1 | 260 | 27 | |
| 2013-04-14T12:00 | 13969 | 141 | -53.7 | |||
| 2013-04-14T12:00 | 15043 | 119 | -58.9 | |||
| 2013-04-14T12:00 | 15203 | 116 | -58.1 | |||
| 2013-04-14T12:00 | 15258 | 115 | -56.3 | |||
| 2013-04-14T12:00 | 15426 | 112 | -57.5 | |||
| 2013-04-14T12:00 | 15539 | 110 | -56.5 | |||
| 2013-04-14T12:00 | 15773 | 106 | -57.1 | |||
| 2013-04-14T12:00 | 15833 | 105 | -54.1 | |||
| 2013-04-14T12:00 | 16150 | 100 | -54.7 | 250 | 16 | |
| 2013-04-14T12:00 | 16706 | 91 | -57.3 | |||
| 2013-04-14T12:00 | 17299 | 83 | -55.7 | |||
| 2013-04-14T12:00 | 18077 | 73 | -59.5 | |||
| 2013-04-14T12:00 | 18215 | 72 | -56.5 | |||
| 2013-04-14T12:00 | 18410 | 70 | -55.3 | 245 | 6 | |
| 2013-04-14T12:00 | 18456 | 69 | -54.7 | |||
| 2013-04-14T12:00 | 18899 | 64 | -58.5 | |||
| 2013-04-14T12:00 | 19007 | 63 | -57.1 | |||
| 2013-04-14T12:00 | 19405 | 59 | -57.7 | |||
| 2013-04-14T12:00 | 20170 | 52 | -61.3 | |||
| 2013-04-14T12:00 | 20520 | 50 | -60.9 | 255 | 16 | |
| 2013-04-14T12:00 | 20985 | 46 | -59.3 | |||
| 2013-04-14T12:00 | 21399 | 43 | -62.3 | |||
| 2013-04-14T12:00 | 21770 | 40 | -55.9 | |||
| 2013-04-14T12:00 | 22186 | 38 | -56.1 | |||
| 2013-04-14T12:00 | 22303 | 37 | -54.7 | |||
| 2013-04-14T12:00 | 23090 | 33 | -58.3 | |||
| 2013-04-14T12:00 | 23282 | 32 | -57.9 | |||
| 2013-04-14T12:00 | 23585 | 30 | -53.5 | |||
| 2013-04-14T12:00 | 23740 | 30 | -53.3 | 215 | 15 | |
| 2013-04-14T12:00 | 24115 | 28 | -53.1 | |||
| 2013-04-14T12:00 | 24392 | 27 | -55.1 | |||
| 2013-04-14T12:00 | 25458 | 22 | -57.5 | |||
| 2013-04-14T12:00 | 25886 | 21 | -56.5 | |||
| 2013-04-14T12:00 | 26098 | 20 | -54.1 | |||
| 2013-04-14T12:00 | 26330 | 20 | -54.3 | 270 | 6 | |
| 2013-04-14T12:00 | 26793 | 18 | -54.9 | |||
| 2013-04-14T12:00 | 27765 | 16 | -49.3 | |||
| 2013-04-14T12:00 | 28633 | 14 | -51.9 | |||
| 2013-04-14T12:00 | 28918 | 13 | -49.3 | |||
| 2013-04-14T12:00 | 29017 | 13 | -46.3 | |||
| 2013-04-14T12:00 | 29434 | 12 | -43.7 | |||
| 2013-04-14T12:00 | 29878 | 11 | -46.7 | |||
| 2013-04-14T12:00 | 30170 | 11 | -45.5 | |||
| 2013-04-14T12:00 | 30539 | 10 | -46.3 | |||
| 2013-04-14T12:00 | 30880 | 10 | -45.1 | 280 | 9 | |
| 2013-04-14T12:00 | 31084 | 9 | -43.1 | |||
| 2013-04-14T12:00 | 31887 | 8 | -46.1 | |||
| 2013-04-14T12:00 | 32123 | 8 | -45.1 | -80.1 | ||
| 2013-04-15T00:00 | 15 | 1000 | ||||
| 2013-04-15T00:00 | 673 | 925 | ||||
| 2013-04-15T00:00 | 1377 | 850 | ||||
| 2013-04-15T00:00 | 1671 | 820 | 7.4 | -11.6 | ||
| 2013-04-15T00:00 | 1751 | 812 | 6.2 | -10.8 | ||
| 2013-04-15T00:00 | 2087 | 779 | 2.8 | -12.2 | ||
| 2013-04-15T00:00 | 2916 | 702 | -3.3 | -17.3 | ||
| 2013-04-15T00:00 | 2947 | 700 | -3.5 | -17.5 | 250 | 16 |
| 2013-04-15T00:00 | 3560 | 647 | -9.5 | -19.5 | ||
| 2013-04-15T00:00 | 4023 | 609 | -13.3 | -21.3 | ||
| 2013-04-15T00:00 | 4263 | 590 | -14.9 | -23.9 | ||
| 2013-04-15T00:00 | 4643 | 561 | -15.1 | -26.1 | ||
| 2013-04-15T00:00 | 4902 | 542 | -16.7 | -29.7 | ||
| 2013-04-15T00:00 | 5013 | 534 | -16.7 | -26.7 | ||
| 2013-04-15T00:00 | 5197 | 521 | -17.5 | -28.5 | ||
| 2013-04-15T00:00 | 5385 | 508 | -18.9 | -28.9 | ||
| 2013-04-15T00:00 | 5510 | 500 | -18.9 | -28.9 | 275 | 45 |
| 2013-04-15T00:00 | 5615 | 493 | -18.7 | -30.7 | ||
| 2013-04-15T00:00 | 6730 | 423 | -28.9 | -38.9 | ||
| 2013-04-15T00:00 | 7130 | 400 | -30.1 | -40.1 | 280 | 49 |
| 2013-04-15T00:00 | 7273 | 392 | -30.9 | -41.9 | ||
| 2013-04-15T00:00 | 7549 | 377 | -30.5 | -43.5 | ||
| 2013-04-15T00:00 | 8626 | 323 | -38.9 | -49.9 | ||
| 2013-04-15T00:00 | 8927 | 309 | -40.5 | -51.5 | ||
| 2013-04-15T00:00 | 9140 | 300 | -42.1 | -53.1 | 275 | 65 |
| 2013-04-15T00:00 | 9697 | 276 | -46.7 | -56.7 | ||
| 2013-04-15T00:00 | 10350 | 250 | -51.5 | -60.5 | 280 | 60 |
| 2013-04-15T00:00 | 10941 | 228 | -55.5 | -64.5 | ||
| 2013-04-15T00:00 | 11343 | 214 | -56.1 | -65.1 | ||
| 2013-04-15T00:00 | 11770 | 200 | -57.7 | -66.7 | 280 | 54 |
| 2013-04-15T00:00 | 11865 | 197 | -56.5 | -65.5 | ||
| 2013-04-15T00:00 | 11995 | 193 | -55.9 | -64.9 | ||
| 2013-04-15T00:00 | 12332 | 183 | -56.7 | -65.7 | ||
| 2013-04-15T00:00 | 12472 | 179 | -56.1 | -65.1 | ||
| 2013-04-15T00:00 | 12652 | 174 | -54.1 | -63.1 | ||
| 2013-04-15T00:00 | 12801 | 170 | -54.5 | -63.5 | ||
| 2013-04-15T00:00 | 12954 | 166 | -52.5 | -61.5 | ||
| 2013-04-15T00:00 | 13071 | 163 | -53.1 | -62.1 | ||
| 2013-04-15T00:00 | 13353 | 156 | -52.7 | -61.7 | ||
| 2013-04-15T00:00 | 13610 | 150 | -53.1 | -62.1 | 275 | 31 |
| 2013-04-15T00:00 | 14144 | 138 | -54.5 | -63.5 | ||
| 2013-04-15T00:00 | 14428 | 132 | -53.7 | -62.7 | ||
| 2013-04-15T00:00 | 14626 | 128 | -52.1 | -62.1 | ||
| 2013-04-15T00:00 | 14830 | 124 | -53.3 | -63.3 | ||
| 2013-04-15T00:00 | 14935 | 122 | -52.7 | -62.7 | ||
| 2013-04-15T00:00 | 15313 | 115 | -55.5 | -64.5 | ||
| 2013-04-15T00:00 | 15369 | 114 | -54.1 | -64.1 | ||
| 2013-04-15T00:00 | 15539 | 111 | -55.1 | -64.1 | ||
| 2013-04-15T00:00 | 15597 | 110 | -52.5 | -62.5 | ||
| 2013-04-15T00:00 | 15715 | 108 | -51.9 | -61.9 | ||
| 2013-04-15T00:00 | 15896 | 105 | -53.5 | -63.5 | ||
| 2013-04-15T00:00 | 15957 | 104 | -52.9 | -62.9 | ||
| 2013-04-15T00:00 | 16220 | 100 | -54.9 | -63.9 | 240 | 3 |
| 2013-04-15T00:00 | 17218 | 85 | -61.5 | -70.5 | ||
| 2013-04-15T00:00 | 18162 | 73 | -62.1 | -71.1 | ||
| 2013-04-15T00:00 | 18273 | 71 | -60.5 | -69.5 | ||
| 2013-04-15T00:00 | 18440 | 70 | -60.7 | -69.7 | 260 | 21 |
| 2013-04-15T00:00 | 18823 | 65 | -61.7 | -70.7 | ||
| 2013-04-15T00:00 | 19213 | 61 | -59.1 | -68.1 | ||
| 2013-04-15T00:00 | 19750 | 56 | -60.3 | -69.3 | ||
| 2013-04-15T00:00 | 19998 | 54 | -56.5 | -65.5 | ||
| 2013-04-15T00:00 | 20550 | 50 | -60.5 | -69.5 | 215 | 17 |
| 2013-04-15T00:00 | 20663 | 49 | -61.1 | -70.1 | ||
| 2013-04-15T00:00 | 20753 | 48 | -58.3 | -67.3 | ||
| 2013-04-15T00:00 | 21181 | 45 | -59.1 | -68.1 | ||
| 2013-04-15T00:00 | 21364 | 43 | -56.9 | -65.9 | ||
| 2013-04-15T00:00 | 21764 | 41 | -57.3 | -66.3 | ||
| 2013-04-15T00:00 | 21999 | 39 | -55.3 | -65.3 | ||
| 2013-04-15T00:00 | 22260 | 38 | -56.7 | -66.7 | ||
| 2013-04-15T00:00 | 22782 | 35 | -53.5 | -63.5 | ||
| 2013-04-15T00:00 | 23438 | 31 | -51.7 | -61.7 | ||
| 2013-04-15T00:00 | 23800 | 30 | -53.9 | -63.9 | 270 | 12 |
| 2013-04-15T00:00 | 24330 | 27 | -56.7 | -66.7 | ||
| 2013-04-15T00:00 | 25011 | 24 | -53.5 | -64.5 | ||
| 2013-04-15T00:00 | 25835 | 21 | -55.1 | -65.1 | ||
| 2013-04-15T00:00 | 26015 | 21 | -49.3 | -61.3 | ||
| 2013-04-15T00:00 | 26400 | 20 | -50.3 | -62.3 | 200 | 4 |
| 2013-04-15T00:00 | 26976 | 18 | -52.7 | -63.7 | ||
| 2013-04-15T00:00 | 27263 | 17 | -52.3 | -64.3 | ||
| 2013-04-15T00:00 | 27527 | 16 | -51.7 | -63.7 | ||
| 2013-04-15T00:00 | 28012 | 15 | -46.7 | -59.7 | ||
| 2013-04-15T00:00 | 29113 | 13 | -48.3 | -62.3 | ||
| 2013-04-15T00:00 | 29687 | 12 | -45.9 | -60.9 | ||
| 2013-04-15T00:00 | 30200 | 11 | -45.9 | -60.9 | ||
| 2013-04-15T00:00 | 30568 | 10 | -42.3 | -58.3 | ||
| 2013-04-15T00:00 | 30894 | 10 | -42.1 | -58.1 | ||
| 2013-04-15T00:00 | 30980 | 10 | -40.5 | -56.5 | 260 | 14 |
| 2013-04-15T00:00 | 31259 | 9 | -37.9 | -54.9 | ||
| 2013-04-15T00:00 | 31701 | 9 | -38.9 | -55.9 | ||
| 2013-04-15T00:00 | 32094 | 8 | -36.3 | -54.3 | ||
| 2013-04-15T12:00 | 41 | 1000 | ||||
| 2013-04-15T12:00 | 696 | 925 | ||||
| 2013-04-15T12:00 | 1397 | 850 | ||||
| 2013-04-15T12:00 | 1777 | 811 | -0.3 | -7.3 | ||
| 2013-04-15T12:00 | 1866 | 802 | 0.8 | -7.2 | ||
| 2013-04-15T12:00 | 2007 | 788 | 0.2 | -9.8 | ||
| 2013-04-15T12:00 | 2284 | 761 | -2.1 | -12.1 | ||
| 2013-04-15T12:00 | 2883 | 705 | -7.7 | -13.7 | ||
| 2013-04-15T12:00 | 2944 | 700 | -8.1 | -13.1 | 175 | 17 |
| 2013-04-15T12:00 | 3431 | 657 | -11.9 | -11.9 | ||
| 2013-04-15T12:00 | 3631 | 640 | -12.3 | -12.3 | ||
| 2013-04-15T12:00 | 3679 | 636 | -11.7 | -11.7 | ||
| 2013-04-15T12:00 | 3912 | 617 | -9.3 | |||
| 2013-04-15T12:00 | 4013 | 609 | -9.5 | |||
| 2013-04-15T12:00 | 4089 | 603 | -8.5 | |||
| 2013-04-15T12:00 | 4153 | 598 | -8.7 | |||
| 2013-04-15T12:00 | 4671 | 559 | -11.7 | -11.7 | ||
| 2013-04-15T12:00 | 5380 | 509 | -16.3 | -17.5 | ||
| 2013-04-15T12:00 | 5520 | 500 | -17.5 | -19.6 | 245 | 37 |
| 2013-04-15T12:00 | 5885 | 476 | -20.5 | -28.5 | ||
| 2013-04-15T12:00 | 6345 | 447 | -24.1 | -32.1 | ||
| 2013-04-15T12:00 | 6880 | 415 | -28.5 | -34.5 | ||
| 2013-04-15T12:00 | 7150 | 400 | -30.9 | -36.9 | 265 | 38 |
| 2013-04-15T12:00 | 7640 | 373 | -34.7 | -40.7 | ||
| 2013-04-15T12:00 | 8562 | 326 | -42.5 | -50.5 | ||
| 2013-04-15T12:00 | 9054 | 303 | -43.3 | -55.3 | ||
| 2013-04-15T12:00 | 9130 | 300 | -43.9 | -55.9 | 260 | 55 |
| 2013-04-15T12:00 | 9518 | 283 | -46.7 | -61.7 | ||
| 2013-04-15T12:00 | 10224 | 254 | -52.3 | -66.3 | ||
| 2013-04-15T12:00 | 10320 | 250 | -52.7 | -65.7 | 255 | 59 |
| 2013-04-15T12:00 | 10718 | 235 | -53.1 | -66.1 | ||
| 2013-04-15T12:00 | 11255 | 216 | -56.7 | -68.7 | ||
| 2013-04-15T12:00 | 11344 | 213 | -54.7 | -67.7 | ||
| 2013-04-15T12:00 | 11496 | 208 | -54.3 | -67.3 | ||
| 2013-04-15T12:00 | 11620 | 204 | -52.9 | -65.9 | ||
| 2013-04-15T12:00 | 11760 | 200 | -52.7 | -66.7 | 270 | 48 |
| 2013-04-15T12:00 | 11923 | 195 | -51.9 | -65.9 | ||
| 2013-04-15T12:00 | 12439 | 180 | -53.3 | -67.3 | ||
| 2013-04-15T12:00 | 12620 | 175 | -52.5 | -67.5 | ||
| 2013-04-15T12:00 | 13037 | 164 | -54.3 | -68.3 | ||
| 2013-04-15T12:00 | 13195 | 160 | -52.5 | -67.5 | ||
| 2013-04-15T12:00 | 13526 | 152 | -52.9 | -68.9 | ||
| 2013-04-15T12:00 | 13610 | 150 | -52.1 | -68.1 | 265 | 33 |
| 2013-04-15T12:00 | 13918 | 143 | -53.5 | -69.5 | ||
| 2013-04-15T12:00 | 14147 | 138 | -52.9 | -69.9 | ||
| 2013-04-15T12:00 | 14630 | 128 | -53.9 | -70.9 | ||
| 2013-04-15T12:00 | 14680 | 127 | -53.1 | -71.1 | ||
| 2013-04-15T12:00 | 14782 | 125 | -53.5 | -70.5 | ||
| 2013-04-15T12:00 | 14886 | 123 | -52.3 | -70.3 | ||
| 2013-04-15T12:00 | 15262 | 116 | -54.7 | -71.7 | ||
| 2013-04-15T12:00 | 15373 | 114 | -53.9 | -71.9 | ||
| 2013-04-15T12:00 | 15601 | 110 | -54.7 | -72.7 | ||
| 2013-04-15T12:00 | 16210 | 100 | -58.3 | -74.3 | 240 | 22 |
| 2013-04-15T12:00 | 17095 | 86 | -63.5 | -77.5 | ||
| 2013-04-15T12:00 | 17558 | 80 | -62.1 | -76.1 | ||
| 2013-04-15T12:00 | 17936 | 75 | -63.3 | -77.3 | ||
| 2013-04-15T12:00 | 18420 | 70 | -62.1 | -77.1 | 255 | 11 |
| 2013-04-15T12:00 | 18747 | 66 | -60.5 | -76.5 | ||
| 2013-04-15T12:00 | 19466 | 59 | -62.7 | -77.7 | ||
| 2013-04-15T12:00 | 19689 | 57 | -60.7 | -77.7 | ||
| 2013-04-15T12:00 | 20317 | 51 | -61.5 | -77.5 | ||
| 2013-04-15T12:00 | 20500 | 50 | -58.9 | -76.9 | 260 | 21 |
| 2013-04-15T12:00 | 20744 | 48 | -56.9 | -77.9 | ||
| 2013-04-15T12:00 | 21248 | 44 | -58.5 | -78.5 | ||
| 2013-04-15T12:00 | 21363 | 43 | -55.7 | -78.7 | ||
| 2013-04-15T12:00 | 21556 | 42 | -54.7 | -80.7 | ||
| 2013-04-15T12:00 | 22500 | 36 | -61.1 | -82.1 | ||
| 2013-04-15T12:00 | 22867 | 34 | -61.9 | -82.9 | ||
| 2013-04-15T12:00 | 23090 | 33 | -56.3 | -85.3 | ||
| 2013-04-15T12:00 | 23284 | 32 | -57.3 | -85.3 | ||
| 2013-04-15T12:00 | 23649 | 30 | -56.1 | -87.1 | ||
| 2013-04-15T12:00 | 23730 | 30 | -56.3 | -86.3 | 230 | 15 |
| 2013-04-15T12:00 | 23858 | 29 | -57.3 | -87.3 | ||
| 2013-04-15T12:00 | 24033 | 28 | -54.9 | |||
| 2013-04-15T12:00 | 24717 | 25 | -53.3 | |||
| 2013-04-15T12:00 | 25076 | 24 | -54.9 | |||
| 2013-04-15T12:00 | 25651 | 22 | -55.3 | |||
| 2013-04-15T12:00 | 25826 | 21 | -53.7 | |||
| 2013-04-15T12:00 | 26098 | 20 | -54.7 | |||
| 2013-04-15T12:00 | 26320 | 20 | -52.5 | 220 | 10 | |
| 2013-04-15T12:00 | 26684 | 18 | -52.7 | |||
| 2013-04-15T12:00 | 26858 | 18 | -48.5 | |||
| 2013-04-15T12:00 | 27337 | 17 | -50.5 | |||
| 2013-04-15T12:00 | 27731 | 16 | -47.7 | |||
| 2013-04-15T12:00 | 28023 | 15 | -48.9 | |||
| 2013-04-15T12:00 | 28240 | 14 | -47.1 | |||
| 2013-04-15T12:00 | 28843 | 13 | -46.7 | |||
| 2013-04-15T12:00 | 29041 | 13 | -45.1 | |||
| 2013-04-15T12:00 | 30069 | 11 | -48.1 | |||
| 2013-04-15T12:00 | 30428 | 10 | -47.1 | |||
| 2013-04-15T12:00 | 30900 | 10 | -43.1 | 245 | 22 | |
| 2013-04-15T12:00 | 31036 | 9 | -41.9 | -77.9 | ||
| 2013-04-16T00:00 | 126 | 1000 | ||||
| 2013-04-16T00:00 | 761 | 925 | ||||
| 2013-04-16T00:00 | 1443 | 850 | ||||
| 2013-04-16T00:00 | 1782 | 814 | -5.7 | -6.6 | ||
| 2013-04-16T00:00 | 2045 | 787 | -6.7 | -7.7 | ||
| 2013-04-16T00:00 | 2255 | 766 | -6.7 | -7.2 | ||
| 2013-04-16T00:00 | 2706 | 723 | -5.1 | -5.1 | ||
| 2013-04-16T00:00 | 2968 | 700 | -6.3 | -6.8 | 145 | 5 |
| 2013-04-16T00:00 | 3471 | 656 | -8.9 | -10.4 | ||
| 2013-04-16T00:00 | 4208 | 596 | -11.5 | -13.0 | ||
| 2013-04-16T00:00 | 5038 | 534 | -17.3 | -19.3 | ||
| 2013-04-16T00:00 | 5236 | 520 | -17.3 | -19.3 | ||
| 2013-04-16T00:00 | 5540 | 500 | -18.3 | -20.3 | 230 | 29 |
| 2013-04-16T00:00 | 5615 | 495 | -18.5 | -20.6 | ||
| 2013-04-16T00:00 | 6204 | 457 | -22.7 | -26.3 | ||
| 2013-04-16T00:00 | 7170 | 400 | -30.7 | -36.7 | 235 | 38 |
| 2013-04-16T00:00 | 8520 | 329 | -42.5 | -51.5 | ||
| 2013-04-16T00:00 | 9005 | 306 | -45.5 | -54.5 | ||
| 2013-04-16T00:00 | 9140 | 300 | -45.3 | -55.3 | 260 | 62 |
| 2013-04-16T00:00 | 9366 | 290 | -45.1 | -56.1 | ||
| 2013-04-16T00:00 | 9790 | 272 | -47.9 | -60.9 | ||
| 2013-04-16T00:00 | 10340 | 250 | -50.9 | -63.9 | 255 | 64 |
| 2013-04-16T00:00 | 10766 | 234 | -53.9 | -65.9 | ||
| 2013-04-16T00:00 | 10989 | 226 | -53.3 | -66.3 | ||
| 2013-04-16T00:00 | 11279 | 216 | -53.5 | -66.5 | ||
| 2013-04-16T00:00 | 11369 | 213 | -52.1 | -65.1 | ||
| 2013-04-16T00:00 | 11461 | 210 | -51.9 | -65.9 | ||
| 2013-04-16T00:00 | 11523 | 208 | -49.3 | -64.3 | ||
| 2013-04-16T00:00 | 11586 | 206 | -47.5 | -63.5 | ||
| 2013-04-16T00:00 | 11748 | 201 | -46.9 | -62.9 | ||
| 2013-04-16T00:00 | 11790 | 200 | -46.9 | -62.9 | 270 | 46 |
| 2013-04-16T00:00 | 11957 | 195 | -47.5 | -64.5 | ||
| 2013-04-16T00:00 | 12059 | 192 | -46.7 | -63.7 | ||
| 2013-04-16T00:00 | 12520 | 179 | -48.9 | -66.9 | ||
| 2013-04-16T00:00 | 13214 | 161 | -48.9 | -69.9 | ||
| 2013-04-16T00:00 | 13462 | 155 | -50.7 | -69.7 | ||
| 2013-04-16T00:00 | 13680 | 150 | -51.1 | -71.1 | 255 | 37 |
| 2013-04-16T00:00 | 14081 | 141 | -51.5 | -71.5 | ||
| 2013-04-16T00:00 | 14457 | 133 | -53.5 | -72.5 | ||
| 2013-04-16T00:00 | 14852 | 125 | -56.5 | -73.5 | ||
| 2013-04-16T00:00 | 15006 | 122 | -56.7 | -73.7 | ||
| 2013-04-16T00:00 | 15378 | 115 | -58.7 | -74.7 | ||
| 2013-04-16T00:00 | 15830 | 107 | -58.1 | -74.1 | ||
| 2013-04-16T00:00 | 16260 | 100 | -60.9 | -75.9 | 230 | 25 |
| 2013-04-16T00:00 | 16591 | 94 | -60.9 | -75.9 | ||
| 2013-04-16T00:00 | 16771 | 92 | -57.9 | -74.9 | ||
| 2013-04-16T00:00 | 17079 | 87 | -57.3 | -75.3 | ||
| 2013-04-16T00:00 | 17561 | 81 | -60.5 | -76.5 | ||
| 2013-04-16T00:00 | 17804 | 78 | -58.9 | -75.9 | ||
| 2013-04-16T00:00 | 18490 | 70 | -61.1 | -77.1 | 225 | 9 |
| 2013-04-16T00:00 | 18797 | 66 | -63.3 | -78.3 | ||
| 2013-04-16T00:00 | 19633 | 58 | -63.7 | -78.7 | ||
| 2013-04-16T00:00 | 19860 | 56 | -60.7 | -77.7 | ||
| 2013-04-16T00:00 | 20453 | 50 | -60.1 | -78.1 | ||
| 2013-04-16T00:00 | 20552 | 50 | -57.5 | -77.5 | ||
| 2013-04-16T00:00 | 20570 | 50 | -57.3 | -77.3 | 245 | 12 |
| 2013-04-16T00:00 | 20828 | 48 | -55.3 | -78.3 | ||
| 2013-04-16T00:00 | 21279 | 44 | -57.1 | -79.1 | ||
| 2013-04-16T00:00 | 21660 | 42 | -53.3 | -81.3 | ||
| 2013-04-16T00:00 | 21892 | 40 | -54.5 | -81.5 | ||
| 2013-04-16T00:00 | 22182 | 38 | -53.5 | -83.5 | ||
| 2013-04-16T00:00 | 22520 | 36 | -55.9 | -82.9 | ||
| 2013-04-16T00:00 | 23062 | 33 | -53.5 | -85.5 | ||
| 2013-04-16T00:00 | 23634 | 30 | -55.7 | -86.7 | ||
| 2013-04-16T00:00 | 23830 | 30 | -54.9 | -86.9 | 235 | 20 |
| 2013-04-16T00:00 | 24003 | 29 | -53.9 | -86.9 | ||
| 2013-04-16T00:00 | 24182 | 28 | -51.1 | -85.1 | ||
| 2013-04-16T00:00 | 25138 | 24 | -51.9 | -84.9 | ||
| 2013-04-16T00:00 | 25381 | 23 | -50.5 | -84.5 | ||
| 2013-04-16T00:00 | 26074 | 21 | -53.3 | -86.3 | ||
| 2013-04-16T00:00 | 26460 | 20 | -52.1 | -85.1 | 230 | 19 |
| 2013-04-16T00:00 | 26526 | 19 | -51.3 | -84.3 | ||
| 2013-04-16T00:00 | 26963 | 18 | -52.9 | -85.9 | ||
| 2013-04-16T00:00 | 27360 | 17 | -49.9 | -83.9 | ||
| 2013-04-16T12:00 | 166 | 1000 | ||||
| 2013-04-16T12:00 | 794 | 925 | ||||
| 2013-04-16T12:00 | 1467 | 850 | ||||
| 2013-04-16T12:00 | 1686 | 827 | -5.5 | -5.9 | ||
| 2013-04-16T12:00 | 2153 | 779 | -5.9 | -5.9 | ||
| 2013-04-16T12:00 | 2982 | 700 | -10.9 | -10.9 | 180 | 14 |
| 2013-04-16T12:00 | 3015 | 697 | -10.9 | -10.9 | ||
| 2013-04-16T12:00 | 3445 | 659 | -10.5 | -10.5 | ||
| 2013-04-16T12:00 | 3574 | 648 | -11.1 | -11.1 | ||
| 2013-04-16T12:00 | 3694 | 638 | -8.1 | -8.1 | ||
| 2013-04-16T12:00 | 3767 | 632 | -7.7 | -7.7 | ||
| 2013-04-16T12:00 | 3965 | 616 | -8.9 | -14.9 | ||
| 2013-04-16T12:00 | 4193 | 598 | -10.7 | -20.7 | ||
| 2013-04-16T12:00 | 4734 | 557 | -14.3 | -30.3 | ||
| 2013-04-16T12:00 | 5124 | 529 | -14.3 | -31.3 | ||
| 2013-04-16T12:00 | 5560 | 500 | -16.1 | -33.1 | 240 | 40 |
| 2013-04-16T12:00 | 5913 | 477 | -17.5 | -34.5 | ||
| 2013-04-16T12:00 | 6494 | 441 | -21.3 | -38.3 | ||
| 2013-04-16T12:00 | 7210 | 400 | -27.3 | -44.3 | 240 | 43 |
| 2013-04-16T12:00 | 7764 | 370 | -32.3 | -49.3 | ||
| 2013-04-16T12:00 | 9210 | 300 | -42.1 | -57.1 | 240 | 45 |
| 2013-04-16T12:00 | 10036 | 265 | -48.3 | -62.3 | ||
| 2013-04-16T12:00 | 10420 | 250 | -50.5 | -63.5 | 240 | 44 |
| 2013-04-16T12:00 | 10578 | 244 | -51.1 | -64.1 | ||
| 2013-04-16T12:00 | 11420 | 214 | -55.5 | -66.5 | ||
| 2013-04-16T12:00 | 11571 | 209 | -53.9 | -65.9 | ||
| 2013-04-16T12:00 | 11664 | 206 | -52.1 | -65.1 | ||
| 2013-04-16T12:00 | 11759 | 203 | -52.3 | -65.3 | ||
| 2013-04-16T12:00 | 11860 | 200 | -51.5 | -64.5 | 245 | 47 |
| 2013-04-16T12:00 | 11958 | 197 | -50.9 | -63.9 | ||
| 2013-04-16T12:00 | 12719 | 175 | -55.5 | -67.5 | ||
| 2013-04-16T12:00 | 13016 | 167 | -56.3 | -67.3 | ||
| 2013-04-16T12:00 | 13208 | 162 | -57.9 | -68.9 | ||
| 2013-04-16T12:00 | 13406 | 157 | -55.7 | -67.7 | ||
| 2013-04-16T12:00 | 13611 | 152 | -55.9 | -67.9 | ||
| 2013-04-16T12:00 | 13690 | 150 | -55.3 | -67.3 | 245 | 46 |
| 2013-04-16T12:00 | 13733 | 149 | -55.3 | -67.3 | ||
| 2013-04-16T12:00 | 13776 | 148 | -54.3 | -66.3 | ||
| 2013-04-16T12:00 | 14129 | 140 | -57.1 | -68.1 | ||
| 2013-04-16T12:00 | 14266 | 137 | -56.7 | -67.7 | ||
| 2013-04-16T12:00 | 14453 | 133 | -57.9 | -68.9 | ||
| 2013-04-16T12:00 | 14645 | 129 | -58.3 | -69.3 | ||
| 2013-04-16T12:00 | 14694 | 128 | -57.9 | -68.9 | ||
| 2013-04-16T12:00 | 15046 | 121 | -59.5 | -70.5 | ||
| 2013-04-16T12:00 | 15363 | 115 | -59.9 | -70.9 | ||
| 2013-04-16T12:00 | 15528 | 112 | -59.3 | -70.3 | ||
| 2013-04-16T12:00 | 15812 | 107 | -60.9 | -70.9 | ||
| 2013-04-16T12:00 | 16240 | 100 | -61.7 | -71.7 | 255 | 30 |
| 2013-04-16T12:00 | 16454 | 96 | -60.1 | -71.1 | ||
| 2013-04-16T12:00 | 16872 | 90 | -62.1 | -72.1 | ||
| 2013-04-16T12:00 | 17139 | 86 | -58.7 | -69.7 | ||
| 2013-04-16T12:00 | 17844 | 77 | -63.1 | -73.1 | ||
| 2013-04-16T12:00 | 18039 | 74 | -60.7 | -71.7 | ||
| 2013-04-16T12:00 | 18460 | 70 | -60.9 | -71.9 | 215 | 13 |
| 2013-04-16T12:00 | 19101 | 63 | -62.5 | -72.5 | ||
| 2013-04-16T12:00 | 19739 | 56 | -61.3 | -72.3 | ||
| 2013-04-16T12:00 | 19849 | 55 | -59.9 | -70.9 | ||
| 2013-04-16T12:00 | 20476 | 50 | -64.5 | -74.5 | ||
| 2013-04-16T12:00 | 20540 | 50 | -63.7 | -73.7 | 215 | 19 |
| 2013-04-16T12:00 | 20651 | 49 | -62.5 | -73.5 | ||
| 2013-04-16T12:00 | 20986 | 46 | -62.3 | -73.3 | ||
| 2013-04-16T12:00 | 21176 | 45 | -60.5 | -71.5 | ||
| 2013-04-16T12:00 | 21273 | 44 | -56.9 | -68.9 | ||
| 2013-04-16T12:00 | 21955 | 39 | -52.3 | -66.3 | ||
| 2013-04-16T12:00 | 22372 | 37 | -52.3 | -67.3 | ||
| 2013-04-16T12:00 | 22742 | 35 | -55.1 | -69.1 | ||
| 2013-04-16T12:00 | 23668 | 30 | -57.3 | -70.3 | ||
| 2013-04-16T12:00 | 23780 | 30 | -55.3 | -69.3 | 235 | 12 |
| 2013-04-16T12:00 | 24242 | 27 | -54.7 | -68.7 | ||
| 2013-04-16T12:00 | 24429 | 27 | -51.3 | -66.3 | ||
| 2013-04-16T12:00 | 24850 | 25 | -50.1 | -65.1 | ||
| 2013-04-16T12:00 | 25493 | 23 | -52.3 | -67.3 | ||
| 2013-04-16T12:00 | 26410 | 20 | -50.1 | -65.1 | 240 | 14 |
| 2013-04-16T12:00 | 26542 | 19 | -50.1 | -65.1 | ||
| 2013-04-16T12:00 | 27022 | 18 | -52.5 | -67.5 | ||
| 2013-04-16T12:00 | 27577 | 16 | -51.7 | -66.7 | ||
| 2013-04-16T12:00 | 28016 | 15 | -53.3 | -68.3 | ||
| 2013-04-16T12:00 | 28719 | 14 | -47.9 | -62.9 | ||
| 2013-04-16T12:00 | 28962 | 13 | -41.7 | -56.7 | ||
| 2013-04-16T12:00 | 29538 | 12 | -40.3 | -56.3 | ||
| 2013-04-16T12:00 | 30108 | 11 | -41.9 | -57.9 | ||
| 2013-04-16T12:00 | 30537 | 10 | -40.5 | -56.5 | ||
| 2013-04-17T00:00 | 114 | 1000 | ||||
| 2013-04-17T00:00 | 747 | 925 | ||||
| 2013-04-17T00:00 | 1427 | 850 | ||||
| 2013-04-17T00:00 | 1835 | 808 | -1.1 | -2.8 | ||
| 2013-04-17T00:00 | 2004 | 791 | -0.3 | -2.2 | ||
| 2013-04-17T00:00 | 2280 | 764 | -2.5 | -4.5 | ||
| 2013-04-17T00:00 | 2353 | 757 | -1.7 | -3.6 | ||
| 2013-04-17T00:00 | 2479 | 745 | -2.5 | -4.5 | ||
| 2013-04-17T00:00 | 2554 | 738 | -2.1 | -4.1 | ||
| 2013-04-17T00:00 | 2727 | 722 | -3.3 | -5.7 | ||
| 2013-04-17T00:00 | 2972 | 700 | -5.5 | -6.8 | 155 | 13 |
| 2013-04-17T00:00 | 3073 | 691 | -6.3 | -7.1 | ||
| 2013-04-17T00:00 | 3394 | 663 | -7.7 | -7.7 | ||
| 2013-04-17T00:00 | 3465 | 657 | -7.1 | -7.1 | ||
| 2013-04-17T00:00 | 3513 | 653 | -5.7 | -6.4 | ||
| 2013-04-17T00:00 | 3561 | 649 | -4.3 | -8.4 | ||
| 2013-04-17T00:00 | 3622 | 644 | -3.7 | -10.7 | ||
| 2013-04-17T00:00 | 3746 | 634 | -2.1 | -11.1 | ||
| 2013-04-17T00:00 | 4539 | 573 | -7.5 | -16.5 | ||
| 2013-04-17T00:00 | 5369 | 514 | -15.5 | -19.9 | ||
| 2013-04-17T00:00 | 5590 | 500 | -17.1 | -21.8 | 220 | 31 |
| 2013-04-17T00:00 | 6128 | 465 | -21.9 | -26.2 | ||
| 2013-04-17T00:00 | 6883 | 419 | -27.9 | -34.9 | ||
| 2013-04-17T00:00 | 7210 | 400 | -30.3 | -38.3 | 235 | 43 |
| 2013-04-17T00:00 | 7967 | 359 | -36.3 | -46.3 | ||
| 2013-04-17T00:00 | 8142 | 350 | -36.9 | -47.9 | ||
| 2013-04-17T00:00 | 9200 | 300 | -44.7 | -57.7 | 230 | 56 |
| 2013-04-17T00:00 | 9245 | 298 | -45.3 | -58.3 | ||
| 2013-04-17T00:00 | 9472 | 288 | -45.9 | -58.9 | ||
| 2013-04-17T00:00 | 9729 | 277 | -48.1 | -61.1 | ||
| 2013-04-17T00:00 | 10400 | 250 | -50.7 | -62.7 | 240 | 51 |
| 2013-04-17T00:00 | 10747 | 237 | -50.5 | -63.5 | ||
| 2013-04-17T00:00 | 10941 | 230 | -51.7 | -63.7 | ||
| 2013-04-17T00:00 | 11026 | 227 | -50.1 | -63.1 | ||
| 2013-04-17T00:00 | 11261 | 219 | -47.9 | -61.9 | ||
| 2013-04-17T00:00 | 11321 | 217 | -48.1 | -62.1 | ||
| 2013-04-17T00:00 | 11382 | 215 | -46.5 | -60.5 | ||
| 2013-04-17T00:00 | 11538 | 210 | -45.1 | -59.1 | ||
| 2013-04-17T00:00 | 11602 | 208 | -43.3 | -57.3 | ||
| 2013-04-17T00:00 | 11700 | 205 | -42.9 | -56.9 | ||
| 2013-04-17T00:00 | 11870 | 200 | -44.3 | -59.3 | 225 | 39 |
| 2013-04-17T00:00 | 12421 | 184 | -49.1 | -63.1 | ||
| 2013-04-17T00:00 | 13284 | 161 | -54.3 | -67.3 | ||
| 2013-04-17T00:00 | 13652 | 152 | -53.7 | -66.7 | ||
| 2013-04-17T00:00 | 13740 | 150 | -54.1 | -67.1 | 235 | 34 |
| 2013-04-17T00:00 | 14360 | 136 | -58.5 | -69.5 | ||
| 2013-04-17T00:00 | 14547 | 132 | -58.7 | -69.7 | ||
| 2013-04-17T00:00 | 14987 | 123 | -61.3 | -71.3 | ||
| 2013-04-17T00:00 | 15140 | 120 | -61.7 | -71.7 | ||
| 2013-04-17T00:00 | 15350 | 116 | -60.9 | -70.9 | ||
| 2013-04-17T00:00 | 15458 | 114 | -61.5 | -71.5 | ||
| 2013-04-17T00:00 | 15679 | 110 | -60.3 | -71.3 | ||
| 2013-04-17T00:00 | 15736 | 109 | -56.1 | -68.1 | ||
| 2013-04-17T00:00 | 15913 | 106 | -55.3 | -67.3 | ||
| 2013-04-17T00:00 | 16290 | 100 | -56.9 | -68.9 | 220 | 14 |
| 2013-04-17T00:00 | 16620 | 94 | -57.1 | -69.1 | ||
| 2013-04-17T00:00 | 17278 | 85 | -61.7 | -71.7 | ||
| 2013-04-17T00:00 | 17828 | 78 | -63.3 | -73.3 | ||
| 2013-04-17T00:00 | 18510 | 70 | -61.3 | -72.3 | 245 | 13 |
| 2013-04-17T00:00 | 18800 | 66 | -60.7 | -71.7 | ||
| 2013-04-17T00:00 | 19617 | 58 | -63.9 | -73.9 | ||
| 2013-04-17T00:00 | 19854 | 56 | -58.1 | -70.1 | ||
| 2013-04-17T00:00 | 20246 | 52 | -57.5 | -69.5 | ||
| 2013-04-17T00:00 | 20454 | 51 | -53.7 | -67.7 | ||
| 2013-04-17T00:00 | 20610 | 50 | -54.1 | -68.1 | 175 | 11 |
| 2013-04-17T00:00 | 21561 | 43 | -60.5 | -72.5 | ||
| 2013-04-17T00:00 | 21969 | 40 | -54.9 | -68.9 | ||
| 2013-04-17T00:00 | 22326 | 38 | -56.3 | -69.3 | ||
| 2013-04-17T00:00 | 22547 | 36 | -53.1 | -68.1 | ||
| 2013-04-17T00:00 | 22688 | 36 | -53.7 | -68.7 | ||
| 2013-04-17T00:00 | 22906 | 34 | -51.9 | -66.9 | ||
| 2013-04-17T00:00 | 23529 | 31 | -52.3 | -67.3 | ||
| 2013-04-17T00:00 | 23870 | 30 | -53.9 | -68.9 | 240 | 10 |
| 2013-04-17T00:00 | 24043 | 29 | -54.5 | -69.5 | ||
| 2013-04-17T00:00 | 24642 | 26 | -51.7 | -67.7 | ||
| 2013-04-17T00:00 | 26145 | 21 | -50.1 | -67.1 | ||
| 2013-04-17T00:00 | 26510 | 20 | -47.1 | -65.1 | 225 | 13 |
| 2013-04-17T00:00 | 26644 | 19 | -46.3 | -64.3 | ||
| 2013-04-17T00:00 | 27172 | 18 | -45.5 | -64.5 | ||
| 2013-04-17T00:00 | 27864 | 16 | -48.1 | -68.1 | ||
| 2013-04-17T00:00 | 28590 | 14 | -46.9 | -66.9 | ||
| 2013-04-17T00:00 | 28867 | 14 | -48.1 | -69.1 | ||
| 2013-04-17T00:00 | 29358 | 13 | -44.5 | -64.5 | ||
| 2013-04-17T00:00 | 29674 | 12 | -44.5 | -65.5 | ||
| 2013-04-17T00:00 | 30065 | 11 | -41.1 | -61.1 | ||
| 2013-04-17T00:00 | 30543 | 10 | -42.5 | -62.5 | ||
| 2013-04-17T00:00 | 31130 | 10 | -39.7 | -59.7 | 230 | 14 |
| 2013-04-17T00:00 | 31268 | 9 | -38.7 | -58.7 | ||
| 2013-04-17T12:00 | 133 | 1000 | ||||
| 2013-04-17T12:00 | 771 | 925 | ||||
| 2013-04-17T12:00 | 1454 | 850 | ||||
| 2013-04-17T12:00 | 1890 | 805 | -3.9 | -3.9 | ||
| 2013-04-17T12:00 | 1919 | 802 | -4.1 | |||
| 2013-04-17T12:00 | 2422 | 752 | -6.7 | |||
| 2013-04-17T12:00 | 2537 | 741 | -6.7 | |||
| 2013-04-17T12:00 | 2847 | 712 | -8.3 | |||
| 2013-04-17T12:00 | 2980 | 700 | -8.1 | 215 | 7 | |
| 2013-04-17T12:00 | 2991 | 699 | -8.1 | |||
| 2013-04-17T12:00 | 3283 | 673 | -9.9 | |||
| 2013-04-17T12:00 | 3410 | 662 | -7.3 | |||
| 2013-04-17T12:00 | 3576 | 648 | -7.5 | -12.5 | ||
| 2013-04-17T12:00 | 3930 | 619 | -8.9 | -17.9 | ||
| 2013-04-17T12:00 | 4998 | 538 | -15.9 | -25.9 | ||
| 2013-04-17T12:00 | 5550 | 500 | -20.5 | -32.5 | 215 | 35 |
| 2013-04-17T12:00 | 5565 | 499 | -20.7 | -32.7 | ||
| 2013-04-17T12:00 | 6210 | 457 | -23.5 | -36.5 | ||
| 2013-04-17T12:00 | 6976 | 411 | -29.1 | -36.1 | ||
| 2013-04-17T12:00 | 7170 | 400 | -30.5 | -39.5 | 210 | 47 |
| 2013-04-17T12:00 | 7385 | 388 | -31.9 | -41.9 | ||
| 2013-04-17T12:00 | 7812 | 365 | -35.7 | -46.7 | ||
| 2013-04-17T12:00 | 8122 | 349 | -36.9 | -50.9 | ||
| 2013-04-17T12:00 | 9102 | 302 | -45.5 | -60.5 | ||
| 2013-04-17T12:00 | 9150 | 300 | -45.7 | -60.7 | 220 | 50 |
| 2013-04-17T12:00 | 9992 | 264 | -49.5 | -63.5 | ||
| 2013-04-17T12:00 | 10350 | 250 | -51.9 | -64.9 | 220 | 50 |
| 2013-04-17T12:00 | 11499 | 209 | -54.9 | -66.9 | ||
| 2013-04-17T12:00 | 11592 | 206 | -53.1 | -65.1 | ||
| 2013-04-17T12:00 | 11780 | 200 | -52.9 | -64.9 | 215 | 41 |
| 2013-04-17T12:00 | 11812 | 199 | -52.9 | -64.9 | ||
| 2013-04-17T12:00 | 11943 | 195 | -51.7 | -64.7 | ||
| 2013-04-17T12:00 | 12077 | 191 | -52.3 | -65.3 | ||
| 2013-04-17T12:00 | 12145 | 189 | -50.5 | -63.5 | ||
| 2013-04-17T12:00 | 12391 | 182 | -49.5 | -63.5 | ||
| 2013-04-17T12:00 | 12573 | 177 | -50.3 | -64.3 | ||
| 2013-04-17T12:00 | 12951 | 167 | -50.3 | -64.3 | ||
| 2013-04-17T12:00 | 13269 | 159 | -51.7 | -64.7 | ||
| 2013-04-17T12:00 | 13351 | 157 | -51.1 | -65.1 | ||
| 2013-04-17T12:00 | 13650 | 150 | -52.9 | -65.9 | 225 | 41 |
| 2013-04-17T12:00 | 13823 | 146 | -53.9 | -66.9 | ||
| 2013-04-17T12:00 | 14092 | 140 | -53.3 | -66.3 | ||
| 2013-04-17T12:00 | 14914 | 123 | -58.1 | -69.1 | ||
| 2013-04-17T12:00 | 15122 | 119 | -57.5 | -69.5 | ||
| 2013-04-17T12:00 | 15337 | 115 | -58.3 | -69.3 | ||
| 2013-04-17T12:00 | 15392 | 114 | -56.3 | -68.3 | ||
| 2013-04-17T12:00 | 15852 | 106 | -57.1 | -69.1 | ||
| 2013-04-17T12:00 | 15912 | 105 | -55.5 | -67.5 | ||
| 2013-04-17T12:00 | 16230 | 100 | -57.1 | -69.1 | 255 | 28 |
| 2013-04-17T12:00 | 16848 | 90 | -60.1 | -71.1 | ||
| 2013-04-17T12:00 | 16938 | 89 | -57.5 | -69.5 | ||
| 2013-04-17T12:00 | 17132 | 86 | -57.1 | -69.1 | ||
| 2013-04-17T12:00 | 18271 | 72 | -63.5 | -73.5 | ||
| 2013-04-17T12:00 | 18426 | 70 | -63.7 | -73.7 | ||
| 2013-04-17T12:00 | 18460 | 70 | -63.3 | -73.3 | 235 | 14 |
| 2013-04-17T12:00 | 18548 | 69 | -61.9 | -72.9 | ||
| 2013-04-17T12:00 | 19156 | 62 | -63.3 | -73.3 | ||
| 2013-04-17T12:00 | 19704 | 57 | -59.3 | -71.3 | ||
| 2013-04-17T12:00 | 20357 | 51 | -61.1 | -72.1 | ||
| 2013-04-17T12:00 | 20529 | 50 | -58.3 | -70.3 | ||
| 2013-04-17T12:00 | 20550 | 50 | -58.3 | -70.3 | 250 | 14 |
| 2013-04-17T12:00 | 20780 | 48 | -58.5 | -70.5 | ||
| 2013-04-17T12:00 | 20912 | 47 | -55.9 | -68.9 | ||
| 2013-04-17T12:00 | 21623 | 42 | -55.3 | -69.3 | ||
| 2013-04-17T12:00 | 21966 | 40 | -52.7 | -67.7 | ||
| 2013-04-17T12:00 | 22749 | 35 | -54.7 | -69.7 | ||
| 2013-04-17T12:00 | 23026 | 33 | -54.3 | -69.3 | ||
| 2013-04-17T12:00 | 23179 | 33 | -51.7 | -67.7 | ||
| 2013-04-17T12:00 | 23459 | 31 | -51.3 | -68.3 | ||
| 2013-04-17T12:00 | 23708 | 30 | -53.1 | -70.1 | ||
| 2013-04-17T12:00 | 23820 | 30 | -52.5 | -69.5 | 230 | 16 |
| 2013-04-17T12:00 | 24356 | 27 | -53.7 | -71.7 | ||
| 2013-04-17T12:00 | 24942 | 25 | -51.1 | -71.1 | ||
| 2013-04-17T12:00 | 25204 | 24 | -52.1 | -72.1 | ||
| 2013-04-17T12:00 | 25706 | 22 | -49.7 | -73.7 | ||
| 2013-04-17T12:00 | 26450 | 20 | -48.7 | -76.7 | 205 | 15 |
| 2013-04-17T12:00 | 26649 | 19 | -49.1 | -78.1 | ||
| 2013-04-17T12:00 | 27253 | 17 | -46.1 | -78.1 | ||
| 2013-04-17T12:00 | 28486 | 14 | -45.5 | -80.5 | ||
| 2013-04-17T12:00 | 28957 | 13 | -42.5 | -78.5 | ||
| 2013-04-17T12:00 | 29735 | 12 | -44.5 | -80.5 | ||
| 2013-04-17T12:00 | 30251 | 11 | -40.9 | -77.9 | ||
| 2013-04-17T12:00 | 30878 | 10 | -41.9 | -77.9 | ||
| 2013-04-17T12:00 | 31100 | 10 | -41.5 | -77.5 | 215 | 22 |
| 2013-04-17T12:00 | 31592 | 9 | -40.7 | -77.7 | ||
| 2013-04-18T00:00 | 176 | 1000 | ||||
| 2013-04-18T00:00 | 806 | 925 | ||||
| 2013-04-18T00:00 | 1483 | 850 | ||||
| 2013-04-18T00:00 | 1639 | 833 | -5.1 | -6.2 | ||
| 2013-04-18T00:00 | 1905 | 805 | -7.5 | -8.8 | ||
| 2013-04-18T00:00 | 2824 | 714 | -13.9 | -15.8 | ||
| 2013-04-18T00:00 | 2985 | 700 | -14.3 | -16.4 | 355 | 7 |
| 2013-04-18T00:00 | 3532 | 651 | -16.1 | -18.9 | ||
| 2013-04-18T00:00 | 3861 | 623 | -16.9 | -21.4 | ||
| 2013-04-18T00:00 | 4093 | 604 | -16.1 | -21.1 | ||
| 2013-04-18T00:00 | 5133 | 525 | -21.9 | -26.7 | ||
| 2013-04-18T00:00 | 5500 | 500 | -24.3 | -28.7 | 230 | 19 |
| 2013-04-18T00:00 | 6481 | 436 | -31.3 | -37.3 | ||
| 2013-04-18T00:00 | 7090 | 400 | -34.3 | -40.3 | 200 | 43 |
| 2013-04-18T00:00 | 9030 | 300 | -48.9 | -56.9 | 205 | 45 |
| 2013-04-18T00:00 | 9770 | 268 | -47.9 | -61.9 | ||
| 2013-04-18T00:00 | 9919 | 262 | -46.7 | -62.7 | ||
| 2013-04-18T00:00 | 10240 | 250 | -46.1 | -65.1 | 220 | 37 |
| 2013-04-18T00:00 | 10566 | 238 | -45.7 | -69.7 | ||
| 2013-04-18T00:00 | 10736 | 232 | -44.3 | -73.3 | ||
| 2013-04-18T00:00 | 10970 | 224 | -44.5 | -76.5 | ||
| 2013-04-18T00:00 | 11430 | 209 | -47.5 | -75.5 | ||
| 2013-04-18T00:00 | 11720 | 200 | -47.9 | -75.9 | 225 | 32 |
| 2013-04-18T00:00 | 12126 | 188 | -50.5 | -73.5 | ||
| 2013-04-18T00:00 | 12409 | 180 | -48.9 | -75.9 | ||
| 2013-04-18T00:00 | 12631 | 174 | -49.3 | -76.3 | ||
| 2013-04-18T00:00 | 12938 | 166 | -49.7 | -76.7 | ||
| 2013-04-18T00:00 | 13426 | 154 | -52.5 | -75.5 | ||
| 2013-04-18T00:00 | 13600 | 150 | -52.3 | -75.3 | 235 | 36 |
| 2013-04-18T00:00 | 13643 | 149 | -52.1 | -75.1 | ||
| 2013-04-18T00:00 | 13863 | 144 | -53.1 | -75.1 | ||
| 2013-04-18T00:00 | 13953 | 142 | -52.1 | -76.1 | ||
| 2013-04-18T00:00 | 14185 | 137 | -50.9 | -76.9 | ||
| 2013-04-18T00:00 | 14377 | 133 | -51.3 | -77.3 | ||
| 2013-04-18T00:00 | 14526 | 130 | -50.5 | -78.5 | ||
| 2013-04-18T00:00 | 14937 | 122 | -51.7 | -78.7 | ||
| 2013-04-18T00:00 | 15044 | 120 | -50.5 | -79.5 | ||
| 2013-04-18T00:00 | 15264 | 116 | -50.9 | -80.9 | ||
| 2013-04-18T00:00 | 15377 | 114 | -49.9 | -81.9 | ||
| 2013-04-18T00:00 | 15788 | 107 | -51.9 | -80.9 | ||
| 2013-04-18T00:00 | 15972 | 104 | -51.5 | -80.5 | ||
| 2013-04-18T00:00 | 16230 | 100 | -53.1 | -79.1 | 245 | 20 |
| 2013-04-18T00:00 | 17186 | 86 | -59.1 | -78.1 | ||
| 2013-04-18T00:00 | 17493 | 81 | -56.7 | -77.7 | ||
| 2013-04-18T00:00 | 17737 | 78 | -56.7 | -78.7 | ||
| 2013-04-18T00:00 | 18490 | 70 | -58.7 | -79.7 | 230 | 15 |
| 2013-04-18T00:00 | 19049 | 64 | -60.7 | -79.7 | ||
| 2013-04-18T00:00 | 20080 | 54 | -60.7 | -79.7 | ||
| 2013-04-18T00:00 | 20545 | 50 | -59.1 | -80.1 | ||
| 2013-04-18T00:00 | 20590 | 50 | -58.3 | -80.3 | 240 | 11 |
| 2013-04-18T00:00 | 20679 | 49 | -54.7 | -82.7 | ||
| 2013-04-18T00:00 | 20903 | 47 | -53.5 | -85.5 | ||
| 2013-04-18T00:00 | 21390 | 44 | -56.3 | -84.3 | ||
| 2013-04-18T00:00 | 21640 | 42 | -54.3 | -86.3 | ||
| 2013-04-18T00:00 | 22105 | 39 | -57.9 | -84.9 | ||
| 2013-04-18T00:00 | 22202 | 38 | -56.5 | -85.5 | ||
| 2013-04-18T00:00 | 22367 | 37 | -57.1 | -85.1 | ||
| 2013-04-18T00:00 | 22451 | 37 | -54.9 | -86.9 | ||
| 2013-04-18T00:00 | 22607 | 36 | -53.7 | |||
| 2013-04-18T00:00 | 23258 | 32 | -51.3 | |||
| 2013-04-18T00:00 | 23860 | 30 | -51.3 | 235 | 8 | |
| 2013-04-18T00:00 | 24612 | 26 | -52.9 | |||
| 2013-04-18T00:00 | 25728 | 22 | -46.9 | |||
| 2013-04-18T00:00 | 26377 | 20 | -45.7 | |||
| 2013-04-18T00:00 | 26520 | 20 | -46.3 | 235 | 13 | |
| 2013-04-18T00:00 | 26929 | 18 | -47.7 | |||
| 2013-04-18T00:00 | 27254 | 17 | -45.5 | |||
| 2013-04-18T00:00 | 27596 | 17 | -46.1 | |||
| 2013-04-18T00:00 | 27917 | 16 | -44.5 | |||
| 2013-04-18T00:00 | 28888 | 14 | -46.3 | |||
| 2013-04-18T00:00 | 29280 | 13 | -43.7 | |||
| 2013-04-18T00:00 | 29863 | 12 | -43.5 | |||
| 2013-04-18T00:00 | 30568 | 10 | -40.7 | -77.7 | ||
| 2013-04-18T12:00 | 216 | 1000 | ||||
| 2013-04-18T12:00 | 839 | 925 | ||||
| 2013-04-18T12:00 | 1507 | 850 | ||||
| 2013-04-18T12:00 | 1667 | 833 | -8.3 | -10.9 | ||
| 2013-04-18T12:00 | 1864 | 812 | -9.7 | -13.6 | ||
| 2013-04-18T12:00 | 1997 | 798 | -10.9 | -14.2 | ||
| 2013-04-18T12:00 | 2094 | 788 | -10.3 | -13.7 | ||
| 2013-04-18T12:00 | 2371 | 760 | -11.7 | -15.4 | ||
| 2013-04-18T12:00 | 2792 | 719 | -14.9 | -18.6 | ||
| 2013-04-18T12:00 | 2996 | 700 | -16.7 | -19.5 | 350 | 11 |
| 2013-04-18T12:00 | 3136 | 687 | -17.9 | -19.8 | ||
| 2013-04-18T12:00 | 3234 | 678 | -17.9 | -19.6 | ||
| 2013-04-18T12:00 | 4195 | 595 | -24.3 | -25.8 | ||
| 2013-04-18T12:00 | 4582 | 564 | -26.1 | -28.0 | ||
| 2013-04-18T12:00 | 4659 | 558 | -25.1 | -27.5 | ||
| 2013-04-18T12:00 | 4777 | 549 | -23.9 | -29.9 | ||
| 2013-04-18T12:00 | 4951 | 536 | -24.3 | -32.3 | ||
| 2013-04-18T12:00 | 5460 | 500 | -28.7 | -38.7 | 290 | 12 |
| 2013-04-18T12:00 | 5503 | 497 | -29.1 | -39.1 | ||
| 2013-04-18T12:00 | 6372 | 439 | -37.3 | -41.8 | ||
| 2013-04-18T12:00 | 7010 | 400 | -42.9 | -47.9 | 240 | 13 |
| 2013-04-18T12:00 | 7529 | 370 | -47.5 | -52.5 | ||
| 2013-04-18T12:00 | 8449 | 322 | -45.3 | -53.3 | ||
| 2013-04-18T12:00 | 8745 | 308 | -45.5 | -54.5 | ||
| 2013-04-18T12:00 | 8876 | 302 | -44.1 | -54.1 | ||
| 2013-04-18T12:00 | 8920 | 300 | -44.3 | -54.3 | 245 | 13 |
| 2013-04-18T12:00 | 9623 | 270 | -45.1 | -56.1 | ||
| 2013-04-18T12:00 | 10005 | 255 | -42.9 | -54.9 | ||
| 2013-04-18T12:00 | 10140 | 250 | -43.1 | -56.1 | 250 | 16 |
| 2013-04-18T12:00 | 10555 | 235 | -43.7 | -56.7 | ||
| 2013-04-18T12:00 | 10641 | 232 | -43.1 | -56.1 | ||
| 2013-04-18T12:00 | 11245 | 212 | -44.7 | -57.7 | ||
| 2013-04-18T12:00 | 11640 | 200 | -44.9 | -57.9 | 245 | 23 |
| 2013-04-18T12:00 | 11878 | 193 | -44.7 | -57.7 | ||
| 2013-04-18T12:00 | 12159 | 185 | -46.3 | -59.3 | ||
| 2013-04-18T12:00 | 12341 | 180 | -45.7 | -58.7 | ||
| 2013-04-18T12:00 | 13079 | 161 | -47.5 | -60.5 | ||
| 2013-04-18T12:00 | 13371 | 154 | -48.7 | -60.7 | ||
| 2013-04-18T12:00 | 13457 | 152 | -47.9 | -60.9 | ||
| 2013-04-18T12:00 | 13550 | 150 | -48.3 | -60.3 | 250 | 29 |
| 2013-04-18T12:00 | 13864 | 143 | -48.7 | -60.7 | ||
| 2013-04-18T12:00 | 13957 | 141 | -47.3 | -60.3 | ||
| 2013-04-18T12:00 | 14099 | 138 | -47.7 | -60.7 | ||
| 2013-04-18T12:00 | 14799 | 124 | -50.1 | -62.1 | ||
| 2013-04-18T12:00 | 15012 | 120 | -51.9 | -63.9 | ||
| 2013-04-18T12:00 | 15121 | 118 | -50.9 | -62.9 | ||
| 2013-04-18T12:00 | 15517 | 111 | -51.9 | -63.9 | ||
| 2013-04-18T12:00 | 15693 | 108 | -53.5 | -65.5 | ||
| 2013-04-18T12:00 | 16190 | 100 | -54.1 | -66.1 | 245 | 21 |
| 2013-04-18T12:00 | 16976 | 88 | -55.9 | -66.9 | ||
| 2013-04-18T12:00 | 17510 | 81 | -59.5 | -70.5 | ||
| 2013-04-18T12:00 | 17588 | 80 | -58.1 | -69.1 | ||
| 2013-04-18T12:00 | 18155 | 73 | -56.9 | -67.9 | ||
| 2013-04-18T12:00 | 18450 | 70 | -57.7 | -68.7 | 255 | 19 |
| 2013-04-18T12:00 | 19043 | 63 | -58.1 | -69.1 | ||
| 2013-04-18T12:00 | 19365 | 60 | -59.9 | -70.9 | ||
| 2013-04-18T12:00 | 19565 | 58 | -56.5 | -67.5 | ||
| 2013-04-18T12:00 | 19784 | 56 | -57.5 | -68.5 | ||
| 2013-04-18T12:00 | 19863 | 55 | -56.3 | -67.3 | ||
| 2013-04-18T12:00 | 20570 | 50 | -59.3 | -70.3 | 270 | 9 |
| 2013-04-18T12:00 | 20595 | 49 | -59.3 | -70.3 | ||
| 2013-04-18T12:00 | 20787 | 48 | -58.1 | -69.1 | ||
| 2013-04-18T12:00 | 21386 | 43 | -58.7 | -69.7 | ||
| 2013-04-18T12:00 | 21531 | 42 | -57.7 | -68.7 | ||
| 2013-04-18T12:00 | 21635 | 42 | -54.7 | -66.7 | ||
| 2013-04-18T12:00 | 21803 | 41 | -55.3 | -67.3 | ||
| 2013-04-18T12:00 | 22221 | 38 | -53.1 | -65.1 | ||
| 2013-04-18T12:00 | 22960 | 34 | -55.1 | -67.1 | ||
| 2013-04-18T12:00 | 23305 | 32 | -53.1 | -65.1 | ||
| 2013-04-18T12:00 | 23776 | 30 | -53.7 | -65.7 | ||
| 2013-04-18T12:00 | 23830 | 30 | -53.3 | -66.3 | 250 | 13 |
| 2013-04-18T12:00 | 24139 | 28 | -50.7 | -64.7 | ||
| 2013-04-18T12:00 | 24417 | 27 | -51.5 | -64.5 | ||
| 2013-04-18T12:00 | 24935 | 25 | -49.9 | -63.9 | ||
| 2013-04-18T12:00 | 25170 | 24 | -51.3 | -65.3 | ||
| 2013-04-18T12:00 | 25526 | 23 | -51.1 | -65.1 | ||
| 2013-04-18T12:00 | 26087 | 21 | -47.1 | -63.1 | ||
| 2013-04-18T12:00 | 26405 | 20 | -48.5 | -64.5 | ||
| 2013-04-18T12:00 | 26480 | 20 | -48.1 | -64.1 | 215 | 8 |
| 2013-04-18T12:00 | 26580 | 19 | -46.5 | -63.5 | ||
| 2013-04-18T12:00 | 27292 | 17 | -44.1 | -62.1 | ||
| 2013-04-18T12:00 | 27639 | 16 | -46.5 | -64.5 | ||
| 2013-04-18T12:00 | 28346 | 15 | -46.1 | -64.1 | ||
| 2013-04-18T12:00 | 29350 | 13 | -40.9 | -59.9 | ||
| 2013-04-18T12:00 | 30126 | 11 | -39.7 | -59.7 | ||
| 2013-04-19T00:00 | 201 | 1000 | ||||
| 2013-04-19T00:00 | 830 | 925 | ||||
| 2013-04-19T00:00 | 1506 | 850 | ||||
| 2013-04-19T00:00 | 1736 | 826 | -0.7 | -12.7 | ||
| 2013-04-19T00:00 | 2029 | 796 | -3.5 | -15.5 | ||
| 2013-04-19T00:00 | 2671 | 733 | -9.5 | -15.5 | ||
| 2013-04-19T00:00 | 2734 | 727 | -10.3 | -17.3 | ||
| 2013-04-19T00:00 | 2829 | 718 | -11.1 | -15.7 | ||
| 2013-04-19T00:00 | 2958 | 706 | -11.7 | -18.7 | ||
| 2013-04-19T00:00 | 3026 | 700 | -12.3 | -19.3 | 310 | 7 |
| 2013-04-19T00:00 | 3324 | 673 | -14.3 | -20.3 | ||
| 2013-04-19T00:00 | 4070 | 609 | -20.9 | -24.3 | ||
| 2013-04-19T00:00 | 4402 | 582 | -23.5 | -28.5 | ||
| 2013-04-19T00:00 | 4528 | 572 | -24.3 | -30.3 | ||
| 2013-04-19T00:00 | 4631 | 564 | -23.5 | -35.5 | ||
| 2013-04-19T00:00 | 4683 | 560 | -23.5 | -35.5 | ||
| 2013-04-19T00:00 | 4934 | 541 | -25.7 | -36.7 | ||
| 2013-04-19T00:00 | 5110 | 528 | -25.7 | -45.7 | ||
| 2013-04-19T00:00 | 5444 | 504 | -28.5 | -48.5 | ||
| 2013-04-19T00:00 | 5510 | 500 | -28.5 | -49.5 | 345 | 19 |
| 2013-04-19T00:00 | 5683 | 488 | -29.1 | -50.1 | ||
| 2013-04-19T00:00 | 6476 | 436 | -35.9 | -51.9 | ||
| 2013-04-19T00:00 | 7070 | 400 | -40.1 | -57.1 | 355 | 20 |
| 2013-04-19T00:00 | 7542 | 373 | -43.7 | -59.7 | ||
| 2013-04-19T00:00 | 8141 | 341 | -45.5 | -62.5 | ||
| 2013-04-19T00:00 | 8990 | 300 | -50.3 | -66.3 | 15 | 37 |
| 2013-04-19T00:00 | 9302 | 286 | -49.5 | -66.5 | ||
| 2013-04-19T00:00 | 9607 | 273 | -48.3 | -66.3 | ||
| 2013-04-19T00:00 | 10180 | 250 | -50.3 | -68.3 | 335 | 20 |
| 2013-04-19T00:00 | 10259 | 247 | -49.5 | -68.5 | ||
| 2013-04-19T00:00 | 10447 | 240 | -49.3 | -68.3 | ||
| 2013-04-19T00:00 | 10529 | 237 | -48.5 | -68.5 | ||
| 2013-04-19T00:00 | 10613 | 234 | -48.7 | -68.7 | ||
| 2013-04-19T00:00 | 10900 | 224 | -46.9 | -68.9 | ||
| 2013-04-19T00:00 | 11295 | 211 | -46.7 | -69.7 | ||
| 2013-04-19T00:00 | 11390 | 208 | -45.9 | -69.9 | ||
| 2013-04-19T00:00 | 11616 | 201 | -47.3 | -72.3 | ||
| 2013-04-19T00:00 | 11650 | 200 | -47.1 | -72.1 | 305 | 18 |
| 2013-04-19T00:00 | 11953 | 191 | -48.1 | -74.1 | ||
| 2013-04-19T00:00 | 12417 | 178 | -47.7 | -74.7 | ||
| 2013-04-19T00:00 | 12834 | 167 | -50.7 | -74.7 | ||
| 2013-04-19T00:00 | 13072 | 161 | -49.3 | -75.3 | ||
| 2013-04-19T00:00 | 13404 | 153 | -50.9 | -75.9 | ||
| 2013-04-19T00:00 | 13490 | 151 | -49.9 | -75.9 | ||
| 2013-04-19T00:00 | 13540 | 150 | -50.1 | -76.1 | 285 | 22 |
| 2013-04-19T00:00 | 13627 | 148 | -50.5 | -75.5 | ||
| 2013-04-19T00:00 | 13943 | 141 | -49.3 | -77.3 | ||
| 2013-04-19T00:00 | 14522 | 129 | -50.9 | -76.9 | ||
| 2013-04-19T00:00 | 14778 | 124 | -52.7 | -76.7 | ||
| 2013-04-19T00:00 | 15097 | 118 | -52.5 | -76.5 | ||
| 2013-04-19T00:00 | 15547 | 110 | -54.5 | -76.5 | ||
| 2013-04-19T00:00 | 15724 | 107 | -53.9 | -76.9 | ||
| 2013-04-19T00:00 | 15784 | 106 | -52.5 | -77.5 | ||
| 2013-04-19T00:00 | 16170 | 100 | -53.3 | -77.3 | 255 | 23 |
| 2013-04-19T00:00 | 16993 | 87 | -55.7 | -77.7 | ||
| 2013-04-19T00:00 | 17336 | 83 | -53.3 | -79.3 | ||
| 2013-04-19T00:00 | 17953 | 75 | -57.1 | -79.1 | ||
| 2013-04-19T00:00 | 18450 | 70 | -56.3 | -79.3 | 240 | 11 |
| 2013-04-19T00:00 | 18514 | 69 | -55.7 | -79.7 | ||
| 2013-04-19T00:00 | 19485 | 59 | -59.3 | -79.3 | ||
| 2013-04-19T00:00 | 20431 | 51 | -56.7 | -80.7 | ||
| 2013-04-19T00:00 | 20570 | 50 | -55.1 | -82.1 | 245 | 11 |
| 2013-04-19T00:00 | 20926 | 47 | -53.1 | -83.1 | ||
| 2013-04-19T00:00 | 21187 | 45 | -54.7 | -83.7 | ||
| 2013-04-19T00:00 | 21373 | 44 | -52.3 | -85.3 | ||
| 2013-04-19T00:00 | 22063 | 39 | -54.7 | -85.7 | ||
| 2013-04-19T00:00 | 22079 | 39 | -54.3 | -86.3 | ||
| 2013-04-19T00:00 | 22144 | 39 | -53.1 | |||
| 2013-04-19T00:00 | 23311 | 32 | -53.7 | |||
| 2013-04-19T00:00 | 23552 | 31 | -52.1 | |||
| 2013-04-19T00:00 | 23803 | 30 | -52.5 | |||
| 2013-04-19T00:00 | 23860 | 30 | -51.7 | 230 | 10 | |
| 2013-04-19T00:00 | 23969 | 29 | -50.1 | |||
| 2013-04-19T00:00 | 25557 | 23 | -51.5 | |||
| 2013-04-19T00:00 | 25845 | 22 | -49.5 | |||
| 2013-04-19T00:00 | 26500 | 20 | -48.3 | 240 | 11 | |
| 2013-04-19T00:00 | 26632 | 19 | -48.9 | |||
| 2013-04-19T00:00 | 26837 | 19 | -45.9 | |||
| 2013-04-19T00:00 | 27346 | 17 | -44.7 | |||
| 2013-04-19T00:00 | 27422 | 17 | -44.7 | -79.7 | ||
| 2013-04-19T00:00 | 28686 | 14 | -44.3 | |||
| 2013-04-19T00:00 | 29120 | 13 | -41.9 | |||
| 2013-04-19T00:00 | 29427 | 12 | -42.5 | |||
| 2013-04-19T00:00 | 29640 | 12 | -40.1 | |||
| 2013-04-19T00:00 | 30576 | 10 | -38.3 | |||
| 2013-04-19T00:00 | 31097 | 10 | -40.1 | |||
| 2013-04-19T00:00 | 31180 | 10 | -40.1 | 260 | 6 | |
| 2013-04-19T00:00 | 31601 | 9 | -39.7 | -76.7 | ||
| 2013-04-19T12:00 | 186 | 1000 | ||||
| 2013-04-19T12:00 | 822 | 925 | ||||
| 2013-04-19T12:00 | 1505 | 850 | ||||
| 2013-04-19T12:00 | 1639 | 836 | -1.3 | -9.3 | ||
| 2013-04-19T12:00 | 1687 | 831 | 2.0 | -8.0 | ||
| 2013-04-19T12:00 | 1863 | 813 | 1.8 | -14.2 | ||
| 2013-04-19T12:00 | 2815 | 721 | -5.3 | -19.3 | ||
| 2013-04-19T12:00 | 3049 | 700 | -7.3 | -19.3 | 345 | 10 |
| 2013-04-19T12:00 | 3990 | 619 | -15.1 | -22.1 | ||
| 2013-04-19T12:00 | 4274 | 596 | -16.7 | -24.7 | ||
| 2013-04-19T12:00 | 4452 | 582 | -17.1 | -27.1 | ||
| 2013-04-19T12:00 | 4634 | 568 | -16.5 | -34.5 | ||
| 2013-04-19T12:00 | 4956 | 544 | -19.5 | -35.5 | ||
| 2013-04-19T12:00 | 5346 | 516 | -20.9 | -34.9 | ||
| 2013-04-19T12:00 | 5580 | 500 | -22.9 | -33.9 | 330 | 25 |
| 2013-04-19T12:00 | 5639 | 496 | -23.5 | -33.5 | ||
| 2013-04-19T12:00 | 6630 | 432 | -31.7 | -38.7 | ||
| 2013-04-19T12:00 | 6963 | 412 | -33.7 | -39.7 | ||
| 2013-04-19T12:00 | 7180 | 400 | -34.5 | -41.5 | 340 | 29 |
| 2013-04-19T12:00 | 7427 | 386 | -36.1 | -45.1 | ||
| 2013-04-19T12:00 | 8252 | 342 | -43.5 | -52.5 | ||
| 2013-04-19T12:00 | 9120 | 300 | -50.1 | -58.1 | 350 | 36 |
| 2013-04-19T12:00 | 9681 | 275 | -54.3 | -62.3 | ||
| 2013-04-19T12:00 | 10290 | 250 | -56.5 | -64.5 | 345 | 34 |
| 2013-04-19T12:00 | 10817 | 230 | -56.9 | -64.9 | ||
| 2013-04-19T12:00 | 11040 | 222 | -57.5 | -65.5 | ||
| 2013-04-19T12:00 | 11213 | 216 | -56.5 | -64.5 | ||
| 2013-04-19T12:00 | 11302 | 213 | -52.9 | -60.9 | ||
| 2013-04-19T12:00 | 11363 | 211 | -52.3 | -60.3 | ||
| 2013-04-19T12:00 | 11517 | 206 | -53.5 | -61.5 | ||
| 2013-04-19T12:00 | 11676 | 201 | -52.9 | -60.9 | ||
| 2013-04-19T12:00 | 11710 | 200 | -53.1 | 305 | 26 | |
| 2013-04-19T12:00 | 11905 | 194 | -53.7 | |||
| 2013-04-19T12:00 | 11971 | 192 | -53.1 | |||
| 2013-04-19T12:00 | 12106 | 188 | -53.7 | |||
| 2013-04-19T12:00 | 12458 | 178 | -51.9 | |||
| 2013-04-19T12:00 | 12605 | 174 | -52.1 | |||
| 2013-04-19T12:00 | 12680 | 172 | -51.3 | |||
| 2013-04-19T12:00 | 13028 | 163 | -51.3 | |||
| 2013-04-19T12:00 | 13580 | 150 | -50.1 | 305 | 25 | |
| 2013-04-19T12:00 | 13624 | 149 | -49.9 | |||
| 2013-04-19T12:00 | 14029 | 140 | -51.1 | |||
| 2013-04-19T12:00 | 14707 | 126 | -54.3 | |||
| 2013-04-19T12:00 | 14861 | 123 | -54.1 | |||
| 2013-04-19T12:00 | 15629 | 109 | -57.1 | |||
| 2013-04-19T12:00 | 15866 | 105 | -55.3 | |||
| 2013-04-19T12:00 | 16180 | 100 | -55.3 | 300 | 26 | |
| 2013-04-19T12:00 | 17861 | 76 | -59.1 | |||
| 2013-04-19T12:00 | 18353 | 70 | -58.9 | |||
| 2013-04-19T12:00 | 18430 | 70 | -58.3 | 295 | 14 | |
| 2013-04-19T12:00 | 18576 | 68 | -57.3 | |||
| 2013-04-19T12:00 | 19022 | 63 | -59.3 | |||
| 2013-04-19T12:00 | 19222 | 61 | -57.7 | |||
| 2013-04-19T12:00 | 19642 | 57 | -59.7 | |||
| 2013-04-19T12:00 | 20021 | 54 | -58.9 | |||
| 2013-04-19T12:00 | 20295 | 52 | -53.7 | |||
| 2013-04-19T12:00 | 20560 | 50 | -54.1 | 265 | 10 | |
| 2013-04-19T12:00 | 21216 | 45 | -56.7 | |||
| 2013-04-19T12:00 | 21489 | 43 | -54.9 | |||
| 2013-04-19T12:00 | 21947 | 40 | -55.9 | |||
| 2013-04-19T12:00 | 22476 | 37 | -53.5 | |||
| 2013-04-19T12:00 | 23464 | 31 | -55.1 | |||
| 2013-04-19T12:00 | 23820 | 30 | -52.9 | 265 | 14 | |
| 2013-04-19T12:00 | 24383 | 27 | -49.9 | |||
| 2013-04-19T12:00 | 25028 | 24 | -51.3 | |||
| 2013-04-19T12:00 | 25295 | 23 | -49.5 | |||
| 2013-04-19T12:00 | 25747 | 22 | -50.3 | |||
| 2013-04-19T12:00 | 25986 | 21 | -47.5 | |||
| 2013-04-19T12:00 | 26470 | 20 | -47.5 | 200 | 6 | |
| 2013-04-19T12:00 | 28417 | 14 | -45.7 | |||
| 2013-04-19T12:00 | 29176 | 13 | -43.3 | |||
| 2013-04-19T12:00 | 29540 | 12 | -40.1 | |||
| 2013-04-19T12:00 | 30459 | 11 | -42.5 | |||
| 2013-04-19T12:00 | 30776 | 10 | -38.7 | |||
| 2013-04-19T12:00 | 30973 | 10 | -38.7 | -75.7 | ||
| 2013-04-20T00:00 | 116 | 1000 | ||||
| 2013-04-20T00:00 | 768 | 925 | ||||
| 2013-04-20T00:00 | 1465 | 850 | ||||
| 2013-04-20T00:00 | 1711 | 825 | 9.8 | -11.2 | ||
| 2013-04-20T00:00 | 1933 | 803 | 7.6 | -17.4 | ||
| 2013-04-20T00:00 | 2360 | 762 | 3.6 | -16.4 | ||
| 2013-04-20T00:00 | 3043 | 700 | -2.5 | -16.5 | 275 | 11 |
| 2013-04-20T00:00 | 3563 | 655 | -7.3 | -17.3 | ||
| 2013-04-20T00:00 | 4224 | 601 | -12.5 | -19.5 | ||
| 2013-04-20T00:00 | 4546 | 576 | -14.1 | -21.1 | ||
| 2013-04-20T00:00 | 5310 | 520 | -20.7 | -23.3 | ||
| 2013-04-20T00:00 | 5439 | 511 | -19.7 | -22.5 | ||
| 2013-04-20T00:00 | 5541 | 504 | -19.7 | -25.7 | ||
| 2013-04-20T00:00 | 5610 | 500 | -20.1 | -26.1 | 305 | 13 |
| 2013-04-20T00:00 | 5865 | 483 | -22.1 | -29.1 | ||
| 2013-04-20T00:00 | 6907 | 418 | -30.5 | -36.5 | ||
| 2013-04-20T00:00 | 7200 | 401 | -32.5 | -41.5 | ||
| 2013-04-20T00:00 | 7220 | 400 | -32.5 | -41.5 | 310 | 21 |
| 2013-04-20T00:00 | 7634 | 377 | -35.5 | -41.5 | ||
| 2013-04-20T00:00 | 9180 | 300 | -48.7 | -54.7 | 300 | 28 |
| 2013-04-20T00:00 | 9491 | 286 | -51.5 | -57.5 | ||
| 2013-04-20T00:00 | 10350 | 250 | -58.1 | -64.1 | 305 | 33 |
| 2013-04-20T00:00 | 10980 | 226 | -60.9 | -66.9 | ||
| 2013-04-20T00:00 | 11497 | 208 | -58.5 | -65.5 | ||
| 2013-04-20T00:00 | 11619 | 204 | -57.5 | -64.5 | ||
| 2013-04-20T00:00 | 11750 | 200 | -55.1 | -62.1 | 290 | 29 |
| 2013-04-20T00:00 | 11945 | 194 | -52.1 | -60.1 | ||
| 2013-04-20T00:00 | 12217 | 186 | -51.7 | -60.7 | ||
| 2013-04-20T00:00 | 12722 | 172 | -52.9 | -62.9 | ||
| 2013-04-20T00:00 | 12835 | 169 | -52.5 | -62.5 | ||
| 2013-04-20T00:00 | 13186 | 160 | -53.9 | -64.9 | ||
| 2013-04-20T00:00 | 13610 | 150 | -51.5 | -64.5 | 290 | 24 |
| 2013-04-20T00:00 | 13653 | 149 | -51.5 | -64.5 | ||
| 2013-04-20T00:00 | 14194 | 137 | -53.9 | -67.9 | ||
| 2013-04-20T00:00 | 14730 | 126 | -53.7 | -68.7 | ||
| 2013-04-20T00:00 | 15314 | 115 | -54.9 | -70.9 | ||
| 2013-04-20T00:00 | 15596 | 110 | -56.3 | -72.3 | ||
| 2013-04-20T00:00 | 15891 | 105 | -55.3 | -72.3 | ||
| 2013-04-20T00:00 | 16210 | 100 | -55.9 | -72.9 | 280 | 25 |
| 2013-04-20T00:00 | 16747 | 91 | -54.7 | -73.7 | ||
| 2013-04-20T00:00 | 17961 | 75 | -59.9 | -77.9 | ||
| 2013-04-20T00:00 | 18327 | 71 | -57.5 | -77.5 | ||
| 2013-04-20T00:00 | 18460 | 70 | -58.1 | -77.1 | 310 | 7 |
| 2013-04-20T00:00 | 19110 | 63 | -59.5 | -78.5 | ||
| 2013-04-20T00:00 | 19590 | 58 | -62.3 | -79.3 | ||
| 2013-04-20T00:00 | 19665 | 57 | -58.7 | -78.7 | ||
| 2013-04-20T00:00 | 19797 | 56 | -57.1 | -80.1 | ||
| 2013-04-20T00:00 | 20510 | 50 | -54.1 | -86.1 | ||
| 2013-04-20T00:00 | 20580 | 50 | -54.3 | -86.3 | 260 | 9 |
| 2013-04-20T00:00 | 21166 | 45 | -56.3 | -88.3 | ||
| 2013-04-20T00:00 | 21581 | 42 | -57.5 | |||
| 2013-04-20T00:00 | 22043 | 39 | -54.3 | |||
| 2013-04-20T00:00 | 22224 | 38 | -50.7 | |||
| 2013-04-20T00:00 | 22782 | 35 | -53.9 | |||
| 2013-04-20T00:00 | 23216 | 33 | -49.5 | |||
| 2013-04-20T00:00 | 23870 | 30 | -50.9 | 240 | 13 | |
| 2013-04-20T00:00 | 24481 | 27 | -51.9 | |||
| 2013-04-20T00:00 | 25158 | 24 | -48.9 | |||
| 2013-04-20T00:00 | 25948 | 21 | -49.9 | |||
| 2013-04-20T00:00 | 26520 | 20 | -46.3 | 250 | 6 | |
| 2013-04-20T00:00 | 26553 | 19 | -45.9 | |||
| 2013-04-20T00:00 | 27485 | 17 | -44.7 | |||
| 2013-04-20T00:00 | 27921 | 16 | -46.7 | |||
| 2013-04-20T00:00 | 28045 | 15 | -45.3 | |||
| 2013-04-20T00:00 | 28300 | 15 | -46.5 | |||
| 2013-04-20T00:00 | 28612 | 14 | -43.3 | |||
| 2013-04-20T00:00 | 29040 | 13 | -42.5 | |||
| 2013-04-20T00:00 | 29239 | 13 | -43.9 | |||
| 2013-04-20T00:00 | 30047 | 11 | -40.1 | |||
| 2013-04-20T00:00 | 30777 | 10 | -40.3 | |||
| 2013-04-20T00:00 | 30842 | 10 | -38.1 | |||
| 2013-04-20T00:00 | 31109 | 10 | -37.9 | -75.9 | ||
| 2013-04-20T12:00 | 89 | 1000 | ||||
| 2013-04-20T12:00 | 746 | 925 | ||||
| 2013-04-20T12:00 | 1449 | 850 | ||||
| 2013-04-20T12:00 | 1650 | 829 | 4.0 | -2.0 | ||
| 2013-04-20T12:00 | 1758 | 818 | 5.0 | -5.0 | ||
| 2013-04-20T12:00 | 1990 | 795 | 5.0 | -6.0 | ||
| 2013-04-20T12:00 | 3018 | 700 | -3.5 | -10.5 | 300 | 8 |
| 2013-04-20T12:00 | 3108 | 692 | -4.3 | -10.3 | ||
| 2013-04-20T12:00 | 3538 | 655 | -5.9 | -12.9 | ||
| 2013-04-20T12:00 | 4215 | 600 | -11.5 | -16.5 | ||
| 2013-04-20T12:00 | 5334 | 517 | -19.9 | -24.9 | ||
| 2013-04-20T12:00 | 5590 | 500 | -20.7 | -26.7 | 285 | 11 |
| 2013-04-20T12:00 | 6151 | 463 | -25.5 | -31.5 | ||
| 2013-04-20T12:00 | 7200 | 400 | -33.7 | -39.7 | 290 | 10 |
| 2013-04-20T12:00 | 8988 | 307 | -49.7 | -57.7 | ||
| 2013-04-20T12:00 | 9140 | 300 | -50.9 | -58.9 | 300 | 11 |
| 2013-04-20T12:00 | 9653 | 277 | -55.1 | -63.1 | ||
| 2013-04-20T12:00 | 10177 | 255 | -57.7 | -64.7 | ||
| 2013-04-20T12:00 | 10310 | 250 | -58.1 | -65.1 | 265 | 17 |
| 2013-04-20T12:00 | 10335 | 249 | -58.1 | -65.1 | ||
| 2013-04-20T12:00 | 10437 | 245 | -56.9 | -63.9 | ||
| 2013-04-20T12:00 | 10647 | 237 | -56.5 | -63.5 | ||
| 2013-04-20T12:00 | 10755 | 233 | -55.3 | -63.3 | ||
| 2013-04-20T12:00 | 10977 | 225 | -56.1 | -64.1 | ||
| 2013-04-20T12:00 | 11236 | 216 | -55.1 | -63.1 | ||
| 2013-04-20T12:00 | 11538 | 206 | -55.5 | -63.5 | ||
| 2013-04-20T12:00 | 11730 | 200 | -53.7 | -61.7 | 280 | 24 |
| 2013-04-20T12:00 | 11926 | 194 | -52.3 | -61.3 | ||
| 2013-04-20T12:00 | 12304 | 183 | -50.7 | -59.7 | ||
| 2013-04-20T12:00 | 12896 | 167 | -52.5 | -61.5 | ||
| 2013-04-20T12:00 | 13132 | 161 | -51.7 | -61.7 | ||
| 2013-04-20T12:00 | 13419 | 154 | -52.3 | -62.3 | ||
| 2013-04-20T12:00 | 13546 | 151 | -51.3 | -61.3 | ||
| 2013-04-20T12:00 | 13590 | 150 | -51.5 | -61.5 | 305 | 24 |
| 2013-04-20T12:00 | 13677 | 148 | -51.5 | -61.5 | ||
| 2013-04-20T12:00 | 13944 | 142 | -53.3 | -63.3 | ||
| 2013-04-20T12:00 | 14459 | 131 | -55.3 | -65.3 | ||
| 2013-04-20T12:00 | 14757 | 125 | -55.3 | -65.3 | ||
| 2013-04-20T12:00 | 15180 | 117 | -53.1 | -64.1 | ||
| 2013-04-20T12:00 | 15576 | 110 | -54.1 | -64.1 | ||
| 2013-04-20T12:00 | 15872 | 105 | -55.9 | -65.9 | ||
| 2013-04-20T12:00 | 16190 | 100 | -55.9 | -65.9 | 295 | 22 |
| 2013-04-20T12:00 | 16951 | 88 | -55.9 | -66.9 | ||
| 2013-04-20T12:00 | 17516 | 81 | -58.7 | -68.7 | ||
| 2013-04-20T12:00 | 18450 | 70 | -55.7 | -66.7 | 300 | 13 |
| 2013-04-20T12:00 | 18496 | 69 | -55.5 | -66.5 | ||
| 2013-04-20T12:00 | 19481 | 59 | -61.3 | -71.3 | ||
| 2013-04-20T12:00 | 19738 | 57 | -58.5 | -69.5 | ||
| 2013-04-20T12:00 | 20560 | 50 | -61.5 | -71.5 | 245 | 6 |
| 2013-04-20T12:00 | 20635 | 49 | -61.5 | -71.5 | ||
| 2013-04-20T12:00 | 20826 | 47 | -59.9 | -70.9 | ||
| 2013-04-20T12:00 | 21024 | 46 | -60.5 | -70.5 | ||
| 2013-04-20T12:00 | 21273 | 44 | -55.3 | -67.3 | ||
| 2013-04-20T12:00 | 22031 | 39 | -54.5 | -67.5 | ||
| 2013-04-20T12:00 | 22145 | 38 | -52.7 | -66.7 | ||
| 2013-04-20T12:00 | 22346 | 37 | -53.9 | -66.9 | ||
| 2013-04-20T12:00 | 22607 | 36 | -52.1 | -66.1 | ||
| 2013-04-20T12:00 | 23524 | 31 | -52.7 | -68.7 | ||
| 2013-04-20T12:00 | 23733 | 30 | -50.9 | -67.9 | ||
| 2013-04-20T12:00 | 23830 | 30 | -51.3 | -68.3 | 265 | 5 |
| 2013-04-20T12:00 | 24229 | 28 | -53.5 | -71.5 | ||
| 2013-04-20T12:00 | 24368 | 27 | -51.1 | -69.1 | ||
| 2013-04-20T12:00 | 25354 | 23 | -52.1 | -75.1 | ||
| 2013-04-20T12:00 | 25663 | 22 | -48.5 | -74.5 | ||
| 2013-04-20T12:00 | 26433 | 20 | -47.9 | -82.9 | ||
| 2013-04-20T12:00 | 26470 | 20 | -47.9 | -82.9 | 245 | 10 |
| 2013-04-20T12:00 | 26776 | 19 | -45.3 | -80.3 | ||
| 2013-04-20T12:00 | 26951 | 18 | -46.3 | -81.3 | ||
| 2013-04-20T12:00 | 27549 | 17 | -44.5 | -80.5 | ||
| 2013-04-20T12:00 | 27994 | 15 | -46.1 | -81.1 | ||
| 2013-04-20T12:00 | 28250 | 15 | -43.9 | -79.9 | ||
| 2013-04-20T12:00 | 28940 | 13 | -44.5 | -80.5 | ||
| 2013-04-20T12:00 | 29038 | 13 | -42.5 | -78.5 | ||
| 2013-04-20T12:00 | 29609 | 12 | -39.9 | -76.9 | ||
| 2013-04-20T12:00 | 30665 | 10 | -41.1 | -78.1 | ||
| 2013-04-20T12:00 | 31140 | 10 | -39.9 | -76.9 | 215 | 13 |
| 2013-04-21T00:00 | 89 | 1000 | ||||
| 2013-04-21T00:00 | 748 | 925 | ||||
| 2013-04-21T00:00 | 1453 | 850 | ||||
| 2013-04-21T00:00 | 1641 | 831 | 12.2 | -6.8 | ||
| 2013-04-21T00:00 | 1966 | 799 | 9.0 | -6.0 | ||
| 2013-04-21T00:00 | 3042 | 700 | -1.3 | -8.3 | 100 | 3 |
| 2013-04-21T00:00 | 3190 | 687 | -2.9 | -8.9 | ||
| 2013-04-21T00:00 | 3708 | 643 | -7.7 | -9.3 | ||
| 2013-04-21T00:00 | 4738 | 562 | -14.5 | -18.3 | ||
| 2013-04-21T00:00 | 4901 | 550 | -15.9 | -20.8 | ||
| 2013-04-21T00:00 | 5406 | 514 | -19.9 | -24.1 | ||
| 2013-04-21T00:00 | 5620 | 500 | -21.5 | -27.5 | 295 | 14 |
| 2013-04-21T00:00 | 5813 | 487 | -22.9 | -30.9 | ||
| 2013-04-21T00:00 | 6212 | 461 | -25.9 | -33.9 | ||
| 2013-04-21T00:00 | 6793 | 425 | -31.1 | -39.1 | ||
| 2013-04-21T00:00 | 7046 | 410 | -33.3 | -43.3 | ||
| 2013-04-21T00:00 | 7220 | 400 | -34.9 | -44.9 | 290 | 11 |
| 2013-04-21T00:00 | 7485 | 385 | -37.3 | -47.3 | ||
| 2013-04-21T00:00 | 8545 | 329 | -47.1 | -55.1 | ||
| 2013-04-21T00:00 | 9150 | 300 | -52.3 | -60.3 | 280 | 15 |
| 2013-04-21T00:00 | 9778 | 272 | -55.1 | -62.1 | ||
| 2013-04-21T00:00 | 10320 | 250 | -56.5 | -64.5 | 300 | 15 |
| 2013-04-21T00:00 | 10711 | 235 | -57.1 | -65.1 | ||
| 2013-04-21T00:00 | 10874 | 229 | -56.3 | -64.3 | ||
| 2013-04-21T00:00 | 11101 | 221 | -53.7 | -61.7 | ||
| 2013-04-21T00:00 | 11159 | 219 | -52.3 | -60.3 | ||
| 2013-04-21T00:00 | 11278 | 215 | -52.5 | -60.5 | ||
| 2013-04-21T00:00 | 11369 | 212 | -51.1 | -60.1 | ||
| 2013-04-21T00:00 | 11750 | 200 | -51.5 | -60.5 | 300 | 26 |
| 2013-04-21T00:00 | 11815 | 198 | -51.5 | -60.5 | ||
| 2013-04-21T00:00 | 12327 | 183 | -49.7 | -59.7 | ||
| 2013-04-21T00:00 | 12693 | 173 | -51.1 | -61.1 | ||
| 2013-04-21T00:00 | 13620 | 150 | -52.3 | -62.3 | 290 | 22 |
| 2013-04-21T00:00 | 13839 | 145 | -52.5 | -62.5 | ||
| 2013-04-21T00:00 | 14490 | 131 | -54.9 | -64.9 | ||
| 2013-04-21T00:00 | 14638 | 128 | -54.1 | -64.1 | ||
| 2013-04-21T00:00 | 14841 | 124 | -55.3 | -65.3 | ||
| 2013-04-21T00:00 | 15378 | 114 | -53.5 | -64.5 | ||
| 2013-04-21T00:00 | 15607 | 110 | -54.3 | -65.3 | ||
| 2013-04-21T00:00 | 16220 | 100 | -55.5 | -65.5 | 300 | 32 |
| 2013-04-21T00:00 | 16479 | 96 | -56.5 | -66.5 | ||
| 2013-04-21T00:00 | 16903 | 89 | -54.7 | -65.7 | ||
| 2013-04-21T00:00 | 17163 | 86 | -56.7 | -66.7 | ||
| 2013-04-21T00:00 | 18142 | 73 | -57.7 | -67.7 | ||
| 2013-04-21T00:00 | 18386 | 71 | -55.7 | -66.7 | ||
| 2013-04-21T00:00 | 18480 | 70 | -56.5 | -67.5 | 320 | 18 |
| 2013-04-21T00:00 | 19817 | 56 | -62.3 | -72.3 | ||
| 2013-04-21T00:00 | 20176 | 53 | -61.7 | -71.7 | ||
| 2013-04-21T00:00 | 20488 | 50 | -56.9 | -67.9 | ||
| 2013-04-21T00:00 | 20580 | 50 | -57.1 | -68.1 | 305 | 7 |
| 2013-04-21T00:00 | 21241 | 45 | -59.3 | -69.3 | ||
| 2013-04-21T00:00 | 21541 | 42 | -56.7 | -67.7 | ||
| 2013-04-21T00:00 | 21998 | 39 | -57.7 | -68.7 | ||
| 2013-04-21T00:00 | 22192 | 38 | -53.5 | -64.5 | ||
| 2013-04-21T00:00 | 22551 | 36 | -51.5 | -63.5 | ||
| 2013-04-21T00:00 | 22914 | 34 | -52.9 | -64.9 | ||
| 2013-04-21T00:00 | 23850 | 30 | -49.9 | -62.9 | 290 | 10 |
| 2013-04-21T00:00 | 24324 | 27 | -49.5 | -62.5 | ||
| 2013-04-21T00:00 | 24562 | 26 | -50.9 | -63.9 | ||
| 2013-04-21T00:00 | 25198 | 24 | -48.5 | -63.5 | ||
| 2013-04-21T00:00 | 26052 | 21 | -51.9 | -65.9 | ||
| 2013-04-21T00:00 | 26364 | 20 | -48.3 | -64.3 | ||
| 2013-04-21T00:00 | 26500 | 20 | -48.3 | -65.3 | 225 | 5 |
| 2013-04-21T00:00 | 26733 | 19 | -49.5 | -65.5 | ||
| 2013-04-21T00:00 | 27155 | 18 | -46.7 | -65.7 | ||
| 2013-04-21T00:00 | 28311 | 15 | -46.3 | -67.3 | ||
| 2013-04-21T00:00 | 29104 | 13 | -41.9 | -63.9 | ||
| 2013-04-21T00:00 | 29359 | 13 | -42.3 | -65.3 | ||
| 2013-04-21T12:00 | 122 | 1000 | ||||
| 2013-04-21T12:00 | 781 | 925 | ||||
| 2013-04-21T12:00 | 1486 | 850 | ||||
| 2013-04-21T12:00 | 1650 | 833 | 5.8 | 1.8 | ||
| 2013-04-21T12:00 | 1679 | 830 | 6.6 | 0.6 | ||
| 2013-04-21T12:00 | 1728 | 825 | 6.8 | -3.2 | ||
| 2013-04-21T12:00 | 1798 | 818 | 7.2 | -4.8 | ||
| 2013-04-21T12:00 | 2011 | 797 | 6.4 | -7.6 | ||
| 2013-04-21T12:00 | 2752 | 727 | -0.3 | -9.3 | ||
| 2013-04-21T12:00 | 3062 | 700 | -2.7 | -10.7 | 280 | 13 |
| 2013-04-21T12:00 | 3678 | 647 | -7.7 | -13.7 | ||
| 2013-04-21T12:00 | 3811 | 636 | -8.5 | -14.5 | ||
| 2013-04-21T12:00 | 3896 | 629 | -8.7 | -16.7 | ||
| 2013-04-21T12:00 | 4057 | 616 | -10.3 | -17.3 | ||
| 2013-04-21T12:00 | 4120 | 611 | -10.7 | -18.7 | ||
| 2013-04-21T12:00 | 4412 | 588 | -13.5 | -20.5 | ||
| 2013-04-21T12:00 | 4477 | 583 | -13.9 | -21.9 | ||
| 2013-04-21T12:00 | 4568 | 576 | -13.9 | -25.9 | ||
| 2013-04-21T12:00 | 4687 | 567 | -14.7 | -27.7 | ||
| 2013-04-21T12:00 | 5630 | 500 | -21.5 | -38.5 | 295 | 11 |
| 2013-04-21T12:00 | 5733 | 493 | -22.3 | -39.3 | ||
| 2013-04-21T12:00 | 6144 | 466 | -24.7 | -45.7 | ||
| 2013-04-21T12:00 | 7240 | 400 | -34.1 | -49.1 | 310 | 20 |
| 2013-04-21T12:00 | 8392 | 338 | -43.7 | -55.7 | ||
| 2013-04-21T12:00 | 9190 | 300 | -48.7 | -59.7 | 315 | 30 |
| 2013-04-21T12:00 | 10041 | 263 | -54.7 | -64.7 | ||
| 2013-04-21T12:00 | 10164 | 258 | -54.3 | -64.3 | ||
| 2013-04-21T12:00 | 10360 | 250 | -56.1 | -66.1 | 305 | 32 |
| 2013-04-21T12:00 | 10943 | 228 | -56.7 | -66.7 | ||
| 2013-04-21T12:00 | 11027 | 225 | -54.9 | -64.9 | ||
| 2013-04-21T12:00 | 11113 | 222 | -54.7 | -64.7 | ||
| 2013-04-21T12:00 | 11377 | 213 | -54.9 | -64.9 | ||
| 2013-04-21T12:00 | 11745 | 201 | -57.1 | -67.1 | ||
| 2013-04-21T12:00 | 11780 | 200 | -56.9 | -66.9 | 290 | 31 |
| 2013-04-21T12:00 | 12071 | 191 | -56.1 | -66.1 | ||
| 2013-04-21T12:00 | 12414 | 181 | -53.5 | -64.5 | ||
| 2013-04-21T12:00 | 12630 | 175 | -53.9 | -64.9 | ||
| 2013-04-21T12:00 | 12968 | 166 | -53.3 | -65.3 | ||
| 2013-04-21T12:00 | 13244 | 159 | -54.3 | -66.3 | ||
| 2013-04-21T12:00 | 13630 | 150 | -53.3 | -65.3 | 295 | 32 |
| 2013-04-21T12:00 | 13716 | 148 | -53.3 | -66.3 | ||
| 2013-04-21T12:00 | 14072 | 140 | -53.7 | -66.7 | ||
| 2013-04-21T12:00 | 14257 | 136 | -54.9 | -66.9 | ||
| 2013-04-21T12:00 | 14496 | 131 | -55.1 | -67.1 | ||
| 2013-04-21T12:00 | 14594 | 129 | -54.9 | -67.9 | ||
| 2013-04-21T12:00 | 14900 | 123 | -51.9 | -65.9 | ||
| 2013-04-21T12:00 | 15114 | 119 | -51.3 | -65.3 | ||
| 2013-04-21T12:00 | 15621 | 110 | -53.5 | -67.5 | ||
| 2013-04-21T12:00 | 16230 | 100 | -55.5 | -68.5 | 275 | 14 |
| 2013-04-21T12:00 | 16674 | 93 | -59.3 | -71.3 | ||
| 2013-04-21T12:00 | 17514 | 81 | -61.9 | -72.9 | ||
| 2013-04-21T12:00 | 18071 | 74 | -59.9 | -71.9 | ||
| 2013-04-21T12:00 | 18460 | 70 | -61.3 | -73.3 | 275 | 25 |
| 2013-04-21T12:00 | 18576 | 68 | -61.5 | -73.5 | ||
| 2013-04-21T12:00 | 18931 | 64 | -57.9 | -70.9 | ||
| 2013-04-21T12:00 | 19865 | 55 | -60.1 | -73.1 | ||
| 2013-04-21T12:00 | 20186 | 53 | -57.9 | -71.9 | ||
| 2013-04-21T12:00 | 20560 | 50 | -60.5 | -73.5 | 240 | 7 |
| 2013-04-21T12:00 | 20635 | 49 | -61.1 | -74.1 | ||
| 2013-04-21T12:00 | 21062 | 46 | -61.9 | -73.9 | ||
| 2013-04-21T12:00 | 21338 | 44 | -58.3 | -72.3 | ||
| 2013-04-21T12:00 | 21828 | 40 | -56.1 | -71.1 | ||
| 2013-04-21T12:00 | 22395 | 37 | -56.9 | -71.9 | ||
| 2013-04-21T12:00 | 22710 | 35 | -53.3 | -71.3 | ||
| 2013-04-21T12:00 | 23418 | 31 | -52.7 | -72.7 | ||
| 2013-04-21T12:00 | 23709 | 30 | -50.9 | -71.9 | ||
| 2013-04-21T12:00 | 23810 | 30 | -51.3 | -72.3 | 250 | 8 |
| 2013-04-21T12:00 | 23985 | 29 | -52.1 | -74.1 | ||
| 2013-04-21T12:00 | 24212 | 28 | -48.1 | -72.1 | ||
| 2013-04-21T12:00 | 24621 | 26 | -47.3 | -74.3 | ||
| 2013-04-21T12:00 | 25188 | 24 | -51.3 | -82.3 | ||
| 2013-04-21T12:00 | 25574 | 22 | -49.3 | |||
| 2013-04-21T12:00 | 26460 | 20 | -48.3 | 220 | 8 | |
| 2013-04-21T12:00 | 26971 | 18 | -48.9 | |||
| 2013-04-21T12:00 | 27529 | 17 | -45.3 | |||
| 2013-04-21T12:00 | 27849 | 16 | -46.7 | |||
| 2013-04-21T12:00 | 28359 | 15 | -45.9 | |||
| 2013-04-21T12:00 | 28869 | 13 | -41.7 | |||
| 2013-04-21T12:00 | 30150 | 11 | -41.7 | |||
| 2013-04-21T12:00 | 30833 | 10 | -39.1 | |||
| 2013-04-21T12:00 | 30966 | 10 | -37.5 | -75.5 | ||
| 2013-04-22T00:00 | 103 | 1000 | ||||
| 2013-04-22T00:00 | 765 | 925 | ||||
| 2013-04-22T00:00 | 1474 | 850 | ||||
| 2013-04-22T00:00 | 1682 | 829 | 14.0 | -9.0 | ||
| 2013-04-22T00:00 | 2412 | 759 | 6.8 | -13.2 | ||
| 2013-04-22T00:00 | 3073 | 700 | 0.8 | -14.2 | 295 | 4 |
| 2013-04-22T00:00 | 3588 | 656 | -3.9 | -14.9 | ||
| 2013-04-22T00:00 | 4448 | 587 | -12.1 | -15.2 | ||
| 2013-04-22T00:00 | 4632 | 573 | -13.5 | -15.8 | ||
| 2013-04-22T00:00 | 4873 | 555 | -15.7 | -19.0 | ||
| 2013-04-22T00:00 | 5562 | 506 | -20.3 | -21.5 | ||
| 2013-04-22T00:00 | 5660 | 500 | -21.1 | -22.4 | 250 | 12 |
| 2013-04-22T00:00 | 7260 | 400 | -34.3 | -40.3 | 275 | 21 |
| 2013-04-22T00:00 | 7312 | 397 | -34.7 | -40.7 | ||
| 2013-04-22T00:00 | 7968 | 361 | -39.1 | -45.1 | ||
| 2013-04-22T00:00 | 9210 | 300 | -50.5 | -57.5 | 285 | 29 |
| 2013-04-22T00:00 | 9678 | 279 | -54.1 | -61.1 | ||
| 2013-04-22T00:00 | 9935 | 268 | -54.9 | -61.9 | ||
| 2013-04-22T00:00 | 10129 | 260 | -53.7 | -60.7 | ||
| 2013-04-22T00:00 | 10380 | 250 | -55.1 | -63.1 | 300 | 47 |
| 2013-04-22T00:00 | 10509 | 245 | -54.7 | -62.7 | ||
| 2013-04-22T00:00 | 11162 | 221 | -57.5 | -65.5 | ||
| 2013-04-22T00:00 | 11365 | 214 | -56.5 | -64.5 | ||
| 2013-04-22T00:00 | 11800 | 200 | -56.7 | -64.7 | 285 | 48 |
| 2013-04-22T00:00 | 11864 | 198 | -56.7 | -64.7 | ||
| 2013-04-22T00:00 | 12159 | 189 | -55.1 | -64.1 | ||
| 2013-04-22T00:00 | 12364 | 183 | -55.7 | -64.7 | ||
| 2013-04-22T00:00 | 12540 | 178 | -54.3 | -63.3 | ||
| 2013-04-22T00:00 | 12871 | 169 | -54.9 | -63.9 | ||
| 2013-04-22T00:00 | 13142 | 162 | -53.3 | -63.3 | ||
| 2013-04-22T00:00 | 13640 | 150 | -54.3 | -64.3 | 290 | 34 |
| 2013-04-22T00:00 | 13769 | 147 | -55.1 | -65.1 | ||
| 2013-04-22T00:00 | 13901 | 144 | -54.3 | -64.3 | ||
| 2013-04-22T00:00 | 13991 | 142 | -52.5 | -63.5 | ||
| 2013-04-22T00:00 | 14176 | 138 | -53.3 | -64.3 | ||
| 2013-04-22T00:00 | 14461 | 132 | -52.7 | -63.7 | ||
| 2013-04-22T00:00 | 14914 | 123 | -54.5 | -65.5 | ||
| 2013-04-22T00:00 | 15179 | 118 | -54.5 | -65.5 | ||
| 2013-04-22T00:00 | 16036 | 103 | -59.9 | -70.9 | ||
| 2013-04-22T00:00 | 16220 | 100 | -59.9 | -70.9 | 285 | 29 |
| 2013-04-22T00:00 | 17138 | 86 | -59.9 | -70.9 | ||
| 2013-04-22T00:00 | 17240 | 84 | -57.5 | -68.5 | ||
| 2013-04-22T00:00 | 17514 | 81 | -56.1 | -68.1 | ||
| 2013-04-22T00:00 | 18460 | 70 | -61.1 | -72.1 | 285 | 8 |
| 2013-04-22T00:00 | 18712 | 67 | -62.1 | -73.1 | ||
| 2013-04-22T00:00 | 18994 | 64 | -61.7 | -72.7 | ||
| 2013-04-22T00:00 | 19111 | 63 | -59.5 | -70.5 | ||
| 2013-04-22T00:00 | 19592 | 58 | -62.1 | -73.1 | ||
| 2013-04-22T00:00 | 19818 | 56 | -62.1 | -73.1 | ||
| 2013-04-22T00:00 | 19907 | 55 | -59.7 | -70.7 | ||
| 2013-04-22T00:00 | 20506 | 50 | -62.1 | -73.1 | ||
| 2013-04-22T00:00 | 20550 | 50 | -61.9 | -72.9 | 290 | 10 |
| 2013-04-22T00:00 | 20765 | 48 | -59.3 | -71.3 | ||
| 2013-04-22T00:00 | 21096 | 45 | -60.3 | -71.3 | ||
| 2013-04-22T00:00 | 21263 | 44 | -55.7 | -67.7 | ||
| 2013-04-22T00:00 | 22135 | 38 | -53.7 | -66.7 | ||
| 2013-04-22T00:00 | 22354 | 37 | -51.7 | -65.7 | ||
| 2013-04-22T00:00 | 23153 | 33 | -54.9 | -68.9 | ||
| 2013-04-22T00:00 | 23490 | 31 | -52.1 | -67.1 | ||
| 2013-04-22T00:00 | 23677 | 30 | -52.3 | -67.3 | ||
| 2013-04-22T00:00 | 23810 | 30 | -51.1 | -66.1 | 270 | 7 |
| 2013-04-22T00:00 | 23897 | 29 | -49.7 | -65.7 | ||
| 2013-04-22T00:00 | 24666 | 26 | -51.1 | -68.1 | ||
| 2013-04-22T00:00 | 24868 | 25 | -47.9 | -66.9 | ||
| 2013-04-22T00:00 | 25105 | 24 | -46.1 | -67.1 | ||
| 2013-04-22T00:00 | 25492 | 23 | -48.1 | -69.1 | ||
| 2013-04-22T00:00 | 26213 | 20 | -46.3 | -70.3 | ||
| 2013-04-22T00:00 | 26480 | 20 | -47.7 | -70.7 | 285 | 4 |
| 2013-04-22T00:00 | 27097 | 18 | -50.7 | -71.7 | ||
| 2013-04-22T00:00 | 28023 | 15 | -46.9 | -72.9 | ||
| 2013-04-22T00:00 | 28455 | 14 | -46.5 | -73.5 | ||
| 2013-04-22T00:00 | 29428 | 12 | -40.9 | -68.9 | ||
| 2013-04-22T00:00 | 30096 | 11 | -40.9 | -67.9 | ||
| 2013-04-22T00:00 | 30335 | 11 | -39.5 | -66.5 | ||
| 2013-04-22T00:00 | 30774 | 10 | -41.3 | -68.3 | ||
| 2013-04-22T00:00 | 31120 | 10 | -38.3 | -66.3 | 145 | 2 |
| 2013-04-22T00:00 | 31259 | 9 | -37.3 | -66.3 | ||
| 2013-04-22T00:00 | 31693 | 9 | -38.9 | -66.9 | ||
| 2013-04-22T00:00 | 32400 | 8 | -37.3 | -66.3 | ||
| 2013-04-22T12:00 | 84 | 1000 | ||||
| 2013-04-22T12:00 | 747 | 925 | ||||
| 2013-04-22T12:00 | 1457 | 850 | ||||
| 2013-04-22T12:00 | 1640 | 831 | 5.2 | -0.8 | ||
| 2013-04-22T12:00 | 1719 | 823 | 5.6 | -5.4 | ||
| 2013-04-22T12:00 | 1982 | 797 | 8.2 | -6.8 | ||
| 2013-04-22T12:00 | 2985 | 704 | -0.7 | -9.7 | ||
| 2013-04-22T12:00 | 3041 | 700 | -1.1 | -9.1 | 300 | 11 |
| 2013-04-22T12:00 | 4052 | 615 | -10.5 | -11.1 | ||
| 2013-04-22T12:00 | 4331 | 593 | -12.1 | -12.3 | ||
| 2013-04-22T12:00 | 5362 | 517 | -19.5 | -22.9 | ||
| 2013-04-22T12:00 | 5620 | 500 | -21.5 | -25.2 | 290 | 20 |
| 2013-04-22T12:00 | 5949 | 478 | -23.9 | -27.0 | ||
| 2013-04-22T12:00 | 7220 | 400 | -34.9 | -39.3 | 280 | 33 |
| 2013-04-22T12:00 | 7924 | 361 | -41.1 | -46.1 | ||
| 2013-04-22T12:00 | 8965 | 309 | -46.9 | -53.9 | ||
| 2013-04-22T12:00 | 9160 | 300 | -47.7 | -55.7 | 290 | 45 |
| 2013-04-22T12:00 | 9497 | 285 | -48.9 | -56.9 | ||
| 2013-04-22T12:00 | 10143 | 258 | -53.1 | -61.1 | ||
| 2013-04-22T12:00 | 10350 | 250 | -53.7 | -61.7 | 295 | 55 |
| 2013-04-22T12:00 | 11494 | 209 | -55.1 | -63.1 | ||
| 2013-04-22T12:00 | 11648 | 204 | -55.7 | -63.7 | ||
| 2013-04-22T12:00 | 11780 | 200 | -54.5 | -63.5 | 290 | 45 |
| 2013-04-22T12:00 | 11812 | 199 | -54.1 | -63.1 | ||
| 2013-04-22T12:00 | 12074 | 191 | -54.1 | -63.1 | ||
| 2013-04-22T12:00 | 12142 | 189 | -52.3 | -61.3 | ||
| 2013-04-22T12:00 | 12350 | 183 | -51.9 | -60.9 | ||
| 2013-04-22T12:00 | 12676 | 174 | -52.9 | -62.9 | ||
| 2013-04-22T12:00 | 12938 | 167 | -54.7 | -64.7 | ||
| 2013-04-22T12:00 | 13015 | 165 | -53.9 | -63.9 | ||
| 2013-04-22T12:00 | 13415 | 155 | -54.7 | -64.7 | ||
| 2013-04-22T12:00 | 13498 | 153 | -53.5 | -63.5 | ||
| 2013-04-22T12:00 | 13630 | 150 | -53.9 | -63.9 | 285 | 36 |
| 2013-04-22T12:00 | 13759 | 147 | -54.7 | -64.7 | ||
| 2013-04-22T12:00 | 13980 | 142 | -54.1 | -64.1 | ||
| 2013-04-22T12:00 | 14492 | 131 | -57.1 | -67.1 | ||
| 2013-04-22T12:00 | 14688 | 127 | -57.3 | -67.3 | ||
| 2013-04-22T12:00 | 14994 | 121 | -55.5 | -66.5 | ||
| 2013-04-22T12:00 | 15598 | 110 | -56.9 | -67.9 | ||
| 2013-04-22T12:00 | 16200 | 100 | -58.7 | -69.7 | 290 | 28 |
| 2013-04-22T12:00 | 17656 | 79 | -62.3 | -72.3 | ||
| 2013-04-22T12:00 | 17864 | 76 | -58.1 | -69.1 | ||
| 2013-04-22T12:00 | 18430 | 70 | -58.5 | -69.5 | 270 | 19 |
| 2013-04-22T12:00 | 18584 | 68 | -59.7 | -70.7 | ||
| 2013-04-22T12:00 | 18798 | 66 | -58.5 | -69.5 | ||
| 2013-04-22T12:00 | 19029 | 63 | -59.9 | -70.9 | ||
| 2013-04-22T12:00 | 19498 | 59 | -58.1 | -69.1 | ||
| 2013-04-22T12:00 | 20260 | 52 | -61.9 | -72.9 | ||
| 2013-04-22T12:00 | 20530 | 50 | -59.9 | -70.9 | 225 | 4 |
| 2013-04-22T12:00 | 20708 | 48 | -57.9 | -69.9 | ||
| 2013-04-22T12:00 | 20998 | 46 | -59.3 | -71.3 | ||
| 2013-04-22T12:00 | 21148 | 45 | -57.9 | -69.9 | ||
| 2013-04-22T12:00 | 21532 | 42 | -60.7 | -71.7 | ||
| 2013-04-22T12:00 | 22284 | 37 | -54.5 | -67.5 | ||
| 2013-04-22T12:00 | 22665 | 35 | -56.5 | -69.5 | ||
| 2013-04-22T12:00 | 22996 | 33 | -52.5 | -66.5 | ||
| 2013-04-22T12:00 | 23492 | 31 | -51.7 | -66.7 | ||
| 2013-04-22T12:00 | 23770 | 30 | -52.1 | -67.1 | 210 | 7 |
| 2013-04-22T12:00 | 24078 | 28 | -52.9 | -67.9 | ||
| 2013-04-22T12:00 | 24308 | 27 | -51.5 | -67.5 | ||
| 2013-04-22T12:00 | 24668 | 26 | -54.1 | -69.1 | ||
| 2013-04-22T12:00 | 25153 | 24 | -52.7 | -68.7 | ||
| 2013-04-22T12:00 | 25289 | 23 | -48.3 | -68.3 | ||
| 2013-04-22T12:00 | 25515 | 22 | -47.1 | -68.1 | ||
| 2013-04-22T12:00 | 26243 | 20 | -49.1 | -69.1 | ||
| 2013-04-22T12:00 | 26373 | 20 | -46.9 | -69.9 | ||
| 2013-04-22T12:00 | 26420 | 20 | -46.7 | -69.7 | 160 | 2 |
| 2013-04-22T12:00 | 26655 | 19 | -46.9 | -69.9 | ||
| 2013-04-22T12:00 | 27149 | 17 | -49.7 | -70.7 | ||
| 2013-04-22T12:00 | 27447 | 17 | -49.5 | -71.5 | ||
| 2013-04-22T12:00 | 27762 | 16 | -45.9 | -70.9 | ||
| 2013-04-22T12:00 | 28357 | 14 | -46.3 | -72.3 | ||
| 2013-04-22T12:00 | 29215 | 13 | -43.5 | -70.5 | ||
| 2013-04-22T12:00 | 29476 | 12 | -44.5 | -71.5 | ||
| 2013-04-22T12:00 | 29859 | 11 | -41.1 | -67.1 | ||
| 2013-04-23T00:00 | 202 | 1000 | ||||
| 2013-04-23T00:00 | 844 | 925 | ||||
| 2013-04-23T00:00 | 1530 | 850 | ||||
| 2013-04-23T00:00 | 1819 | 819 | -5.1 | -6.0 | ||
| 2013-04-23T00:00 | 2258 | 774 | -8.7 | -8.9 | ||
| 2013-04-23T00:00 | 2460 | 754 | -9.3 | -9.3 | ||
| 2013-04-23T00:00 | 2698 | 731 | -11.5 | -12.0 | ||
| 2013-04-23T00:00 | 3039 | 700 | -12.5 | -12.9 | 355 | 5 |
| 2013-04-23T00:00 | 3181 | 687 | -13.3 | -14.0 | ||
| 2013-04-23T00:00 | 3292 | 677 | -13.1 | -13.9 | ||
| 2013-04-23T00:00 | 3406 | 667 | -8.7 | -8.7 | ||
| 2013-04-23T00:00 | 3476 | 661 | -7.1 | -7.1 | ||
| 2013-04-23T00:00 | 3702 | 642 | -8.1 | -8.2 | ||
| 2013-04-23T00:00 | 4210 | 601 | -10.5 | -14.0 | ||
| 2013-04-23T00:00 | 4857 | 552 | -14.7 | -19.4 | ||
| 2013-04-23T00:00 | 5610 | 500 | -20.1 | -26.1 | 250 | 24 |
| 2013-04-23T00:00 | 5849 | 484 | -22.1 | -29.1 | ||
| 2013-04-23T00:00 | 6188 | 462 | -25.1 | -31.1 | ||
| 2013-04-23T00:00 | 6314 | 454 | -25.9 | -30.9 | ||
| 2013-04-23T00:00 | 7220 | 400 | -32.7 | -39.7 | 255 | 35 |
| 2013-04-23T00:00 | 7397 | 390 | -34.1 | -41.1 | ||
| 2013-04-23T00:00 | 8147 | 350 | -37.5 | -52.5 | ||
| 2013-04-23T00:00 | 8843 | 316 | -42.1 | -62.1 | ||
| 2013-04-23T00:00 | 9190 | 300 | -45.1 | -64.1 | 275 | 57 |
| 2013-04-23T00:00 | 9279 | 296 | -45.9 | -63.9 | ||
| 2013-04-23T00:00 | 9765 | 275 | -48.5 | -65.5 | ||
| 2013-04-23T00:00 | 10390 | 250 | -53.7 | -67.7 | 275 | 62 |
| 2013-04-23T00:00 | 10920 | 230 | -57.3 | -70.3 | ||
| 2013-04-23T00:00 | 11257 | 218 | -57.9 | -70.9 | ||
| 2013-04-23T00:00 | 11374 | 214 | -56.3 | -69.3 | ||
| 2013-04-23T00:00 | 11463 | 211 | -56.1 | -70.1 | ||
| 2013-04-23T00:00 | 11810 | 200 | -58.1 | -71.1 | 280 | 42 |
| 2013-04-23T00:00 | 12471 | 180 | -58.3 | -71.3 | ||
| 2013-04-23T00:00 | 12612 | 176 | -58.3 | -71.3 | ||
| 2013-04-23T00:00 | 12795 | 171 | -54.1 | -69.1 | ||
| 2013-04-23T00:00 | 13102 | 163 | -53.5 | -69.5 | ||
| 2013-04-23T00:00 | 13423 | 155 | -55.7 | -70.7 | ||
| 2013-04-23T00:00 | 13547 | 152 | -55.3 | -71.3 | ||
| 2013-04-23T00:00 | 13630 | 150 | -55.7 | -70.7 | 275 | 33 |
| 2013-04-23T00:00 | 13845 | 145 | -56.9 | -71.9 | ||
| 2013-04-23T00:00 | 14249 | 136 | -57.3 | -72.3 | ||
| 2013-04-23T00:00 | 14486 | 131 | -55.9 | -71.9 | ||
| 2013-04-23T00:00 | 14937 | 122 | -56.3 | -73.3 | ||
| 2013-04-23T00:00 | 15042 | 120 | -53.9 | -72.9 | ||
| 2013-04-23T00:00 | 15597 | 110 | -55.7 | -74.7 | ||
| 2013-04-23T00:00 | 15655 | 109 | -54.9 | -74.9 | ||
| 2013-04-23T00:00 | 15893 | 105 | -55.3 | -75.3 | ||
| 2013-04-23T00:00 | 16078 | 102 | -53.7 | -75.7 | ||
| 2013-04-23T00:00 | 16210 | 100 | -54.5 | -76.5 | 285 | 21 |
| 2013-04-23T00:00 | 16680 | 92 | -54.5 | -78.5 | ||
| 2013-04-23T00:00 | 17424 | 82 | -57.9 | -80.9 | ||
| 2013-04-23T00:00 | 17673 | 79 | -56.3 | -81.3 | ||
| 2013-04-23T00:00 | 18470 | 70 | -60.3 | -83.3 | 265 | 10 |
| 2013-04-23T00:00 | 18650 | 68 | -61.7 | -82.7 | ||
| 2013-04-23T00:00 | 19368 | 60 | -63.7 | -82.7 | ||
| 2013-04-23T00:00 | 19637 | 57 | -63.1 | -83.1 | ||
| 2013-04-23T00:00 | 19744 | 56 | -61.5 | -83.5 | ||
| 2013-04-23T00:00 | 19999 | 54 | -62.3 | -83.3 | ||
| 2013-04-23T00:00 | 20254 | 52 | -58.7 | -84.7 | ||
| 2013-04-23T00:00 | 20550 | 50 | -57.9 | -85.9 | 250 | 3 |
| 2013-04-23T00:00 | 20576 | 49 | -57.9 | -85.9 | ||
| 2013-04-23T00:00 | 21221 | 44 | -61.3 | -87.3 | ||
| 2013-04-23T00:00 | 21623 | 42 | -57.7 | -88.7 | ||
| 2013-04-23T00:00 | 21851 | 40 | -57.5 | -88.5 | ||
| 2013-04-23T00:00 | 22024 | 39 | -57.5 | |||
| 2013-04-23T00:00 | 22236 | 38 | -54.7 | |||
| 2013-04-23T00:00 | 22960 | 34 | -55.1 | |||
| 2013-04-23T00:00 | 23348 | 32 | -51.5 | |||
| 2013-04-23T00:00 | 23800 | 30 | -50.9 | 250 | 7 | |
| 2013-04-23T00:00 | 24412 | 27 | -51.3 | |||
| 2013-04-23T00:00 | 24508 | 26 | -50.3 | |||
| 2013-04-23T00:00 | 25034 | 24 | -53.1 | |||
| 2013-04-23T00:00 | 25273 | 23 | -50.7 | |||
| 2013-04-23T00:00 | 25466 | 23 | -50.9 | |||
| 2013-04-23T00:00 | 25844 | 21 | -46.7 | |||
| 2013-04-23T00:00 | 26218 | 20 | -45.5 | |||
| 2013-04-23T00:00 | 26450 | 20 | -46.9 | 175 | 6 | |
| 2013-04-23T00:00 | 26823 | 18 | -47.5 | |||
| 2013-04-23T00:00 | 27220 | 17 | -45.9 | |||
| 2013-04-23T00:00 | 28011 | 15 | -46.1 | |||
| 2013-04-23T00:00 | 28585 | 14 | -42.7 | |||
| 2013-04-23T00:00 | 29526 | 12 | -44.5 | |||
| 2013-04-23T00:00 | 29909 | 11 | -42.7 | |||
| 2013-04-23T00:00 | 30080 | 11 | -44.1 | |||
| 2013-04-23T00:00 | 30685 | 10 | -42.7 | -78.7 | ||
| 2013-04-23T12:00 | 235 | 1000 | ||||
| 2013-04-23T12:00 | 862 | 925 | ||||
| 2013-04-23T12:00 | 1535 | 850 | ||||
| 2013-04-23T12:00 | 1751 | 827 | -7.7 | -8.4 | ||
| 2013-04-23T12:00 | 2222 | 778 | -10.7 | -10.7 | ||
| 2013-04-23T12:00 | 3029 | 700 | -15.5 | -16.2 | 305 | 2 |
| 2013-04-23T12:00 | 3247 | 680 | -16.5 | -17.2 | ||
| 2013-04-23T12:00 | 3414 | 665 | -16.1 | -16.6 | ||
| 2013-04-23T12:00 | 3645 | 645 | -12.3 | -12.3 | ||
| 2013-04-23T12:00 | 3764 | 635 | -11.9 | -11.9 | ||
| 2013-04-23T12:00 | 5051 | 535 | -20.1 | -21.3 | ||
| 2013-04-23T12:00 | 5304 | 517 | -20.1 | -21.7 | ||
| 2013-04-23T12:00 | 5448 | 507 | -21.1 | -22.9 | ||
| 2013-04-23T12:00 | 5560 | 500 | -21.3 | -23.1 | 230 | 22 |
| 2013-04-23T12:00 | 5860 | 480 | -22.1 | -24.0 | ||
| 2013-04-23T12:00 | 6139 | 462 | -24.7 | -27.2 | ||
| 2013-04-23T12:00 | 6874 | 417 | -30.5 | -32.0 | ||
| 2013-04-23T12:00 | 7170 | 400 | -33.1 | -35.8 | 250 | 40 |
| 2013-04-23T12:00 | 7258 | 395 | -33.7 | -36.7 | ||
| 2013-04-23T12:00 | 7880 | 361 | -39.1 | -42.4 | ||
| 2013-04-23T12:00 | 8528 | 328 | -44.5 | -51.5 | ||
| 2013-04-23T12:00 | 9130 | 300 | -45.9 | -55.9 | 255 | 54 |
| 2013-04-23T12:00 | 9152 | 299 | -45.9 | -55.9 | ||
| 2013-04-23T12:00 | 9241 | 295 | -45.5 | -56.5 | ||
| 2013-04-23T12:00 | 10170 | 256 | -52.1 | -63.1 | ||
| 2013-04-23T12:00 | 10320 | 250 | -52.5 | -63.5 | 255 | 58 |
| 2013-04-23T12:00 | 10582 | 240 | -53.7 | -64.7 | ||
| 2013-04-23T12:00 | 10938 | 227 | -54.7 | -65.7 | ||
| 2013-04-23T12:00 | 11224 | 217 | -56.3 | -66.3 | ||
| 2013-04-23T12:00 | 11708 | 201 | -57.3 | -67.3 | ||
| 2013-04-23T12:00 | 11750 | 200 | -57.1 | -67.1 | 260 | 45 |
| 2013-04-23T12:00 | 11845 | 197 | -56.5 | -66.5 | ||
| 2013-04-23T12:00 | 11877 | 196 | -54.7 | -65.7 | ||
| 2013-04-23T12:00 | 11976 | 193 | -53.7 | -64.7 | ||
| 2013-04-23T12:00 | 12316 | 183 | -55.5 | -66.5 | ||
| 2013-04-23T12:00 | 12637 | 174 | -54.5 | -65.5 | ||
| 2013-04-23T12:00 | 12711 | 172 | -52.1 | -64.1 | ||
| 2013-04-23T12:00 | 12826 | 169 | -51.5 | -64.5 | ||
| 2013-04-23T12:00 | 13019 | 164 | -52.3 | -65.3 | ||
| 2013-04-23T12:00 | 13179 | 160 | -51.1 | -65.1 | ||
| 2013-04-23T12:00 | 13600 | 150 | -52.3 | -66.3 | 280 | 36 |
| 2013-04-23T12:00 | 13774 | 146 | -53.1 | -67.1 | ||
| 2013-04-23T12:00 | 14137 | 138 | -51.9 | -67.9 | ||
| 2013-04-23T12:00 | 15032 | 120 | -55.9 | -70.9 | ||
| 2013-04-23T12:00 | 15469 | 112 | -56.3 | -72.3 | ||
| 2013-04-23T12:00 | 15699 | 108 | -57.7 | -72.7 | ||
| 2013-04-23T12:00 | 16120 | 101 | -58.7 | -73.7 | ||
| 2013-04-23T12:00 | 16190 | 100 | -57.7 | -72.7 | 265 | 29 |
| 2013-04-23T12:00 | 17199 | 85 | -57.1 | -74.1 | ||
| 2013-04-23T12:00 | 17555 | 80 | -59.7 | -75.7 | ||
| 2013-04-23T12:00 | 18031 | 74 | -58.7 | -75.7 | ||
| 2013-04-23T12:00 | 18430 | 70 | -61.9 | -76.9 | 255 | 11 |
| 2013-04-23T12:00 | 18527 | 68 | -62.9 | -77.9 | ||
| 2013-04-23T12:00 | 18837 | 65 | -63.5 | -78.5 | ||
| 2013-04-23T12:00 | 19028 | 63 | -61.1 | -77.1 | ||
| 2013-04-23T12:00 | 19328 | 60 | -60.5 | -77.5 | ||
| 2013-04-23T12:00 | 19411 | 59 | -58.5 | -76.5 | ||
| 2013-04-23T12:00 | 19765 | 56 | -61.1 | -78.1 | ||
| 2013-04-23T12:00 | 20520 | 50 | -60.5 | -78.5 | 245 | 8 |
| 2013-04-23T12:00 | 20532 | 49 | -60.5 | -78.5 | ||
| 2013-04-23T12:00 | 20826 | 47 | -58.7 | -78.7 | ||
| 2013-04-23T12:00 | 21039 | 46 | -60.5 | -79.5 | ||
| 2013-04-23T12:00 | 21548 | 42 | -58.3 | -80.3 | ||
| 2013-04-23T12:00 | 22039 | 39 | -59.5 | -82.5 | ||
| 2013-04-23T12:00 | 22168 | 38 | -58.3 | -82.3 | ||
| 2013-04-23T12:00 | 22251 | 37 | -55.9 | -83.9 | ||
| 2013-04-23T12:00 | 22702 | 35 | -55.5 | -86.5 | ||
| 2013-04-23T12:00 | 22776 | 34 | -54.1 | -86.1 | ||
| 2013-04-23T12:00 | 22812 | 34 | -53.5 | |||
| 2013-04-23T12:00 | 23374 | 31 | -52.1 | |||
| 2013-04-23T12:00 | 23705 | 30 | -54.7 | |||
| 2013-04-23T12:00 | 23750 | 30 | -54.5 | 215 | 11 | |
| 2013-04-23T12:00 | 23944 | 29 | -54.5 | |||
| 2013-04-23T12:00 | 25356 | 23 | -48.3 | |||
| 2013-04-23T12:00 | 25911 | 21 | -49.5 | |||
| 2013-04-23T12:00 | 26390 | 20 | -47.9 | 195 | 7 | |
| 2013-04-23T12:00 | 26557 | 19 | -46.9 | |||
| 2013-04-23T12:00 | 27270 | 17 | -47.9 | |||
| 2013-04-23T12:00 | 28157 | 15 | -46.3 | |||
| 2013-04-23T12:00 | 28421 | 14 | -48.1 | |||
| 2013-04-23T12:00 | 28603 | 14 | -47.1 | |||
| 2013-04-23T12:00 | 28885 | 13 | -48.1 | |||
| 2013-04-23T12:00 | 29545 | 12 | -45.1 | |||
| 2013-04-23T12:00 | 29763 | 12 | -46.1 | |||
| 2013-04-23T12:00 | 30105 | 11 | -43.9 | -79.9 | ||
| 2013-04-24T00:00 | 211 | 1000 | ||||
| 2013-04-24T00:00 | 841 | 925 | ||||
| 2013-04-24T00:00 | 1517 | 850 | ||||
| 2013-04-24T00:00 | 1687 | 832 | -2.1 | -10.1 | ||
| 2013-04-24T00:00 | 1792 | 821 | -3.1 | -12.1 | ||
| 2013-04-24T00:00 | 2324 | 767 | -8.1 | -12.0 | ||
| 2013-04-24T00:00 | 2591 | 741 | -8.9 | -17.9 | ||
| 2013-04-24T00:00 | 2738 | 727 | -9.7 | -17.7 | ||
| 2013-04-24T00:00 | 2823 | 719 | -9.1 | -14.1 | ||
| 2013-04-24T00:00 | 2986 | 704 | -8.7 | -14.7 | ||
| 2013-04-24T00:00 | 3034 | 700 | -9.1 | -15.1 | 335 | 6 |
| 2013-04-24T00:00 | 3980 | 618 | -16.9 | -21.1 | ||
| 2013-04-24T00:00 | 4350 | 588 | -20.1 | -25.1 | ||
| 2013-04-24T00:00 | 4400 | 584 | -20.3 | -26.3 | ||
| 2013-04-24T00:00 | 4592 | 569 | -21.9 | -26.9 | ||
| 2013-04-24T00:00 | 4696 | 561 | -22.1 | -31.1 | ||
| 2013-04-24T00:00 | 4828 | 551 | -23.3 | -36.3 | ||
| 2013-04-24T00:00 | 4976 | 540 | -23.7 | -42.7 | ||
| 2013-04-24T00:00 | 5208 | 523 | -24.3 | -45.3 | ||
| 2013-04-24T00:00 | 5540 | 500 | -27.1 | -47.1 | 300 | 16 |
| 2013-04-24T00:00 | 7100 | 400 | -40.1 | -55.1 | 285 | 21 |
| 2013-04-24T00:00 | 7151 | 397 | -40.5 | -55.5 | ||
| 2013-04-24T00:00 | 8669 | 316 | -50.1 | -62.1 | ||
| 2013-04-24T00:00 | 9020 | 300 | -50.9 | -62.9 | 260 | 31 |
| 2013-04-24T00:00 | 9085 | 297 | -50.9 | -62.9 | ||
| 2013-04-24T00:00 | 9286 | 288 | -48.9 | -60.9 | ||
| 2013-04-24T00:00 | 9879 | 263 | -50.5 | -62.5 | ||
| 2013-04-24T00:00 | 10055 | 256 | -49.9 | -61.9 | ||
| 2013-04-24T00:00 | 10210 | 250 | -50.1 | -62.1 | 270 | 28 |
| 2013-04-24T00:00 | 10503 | 239 | -50.7 | -62.7 | ||
| 2013-04-24T00:00 | 11012 | 221 | -50.3 | -62.3 | ||
| 2013-04-24T00:00 | 11376 | 209 | -48.9 | -61.9 | ||
| 2013-04-24T00:00 | 11670 | 200 | -49.5 | -62.5 | 265 | 41 |
| 2013-04-24T00:00 | 11736 | 198 | -49.5 | -62.5 | ||
| 2013-04-24T00:00 | 11903 | 193 | -50.7 | -62.7 | ||
| 2013-04-24T00:00 | 12924 | 165 | -49.3 | -62.3 | ||
| 2013-04-24T00:00 | 13290 | 156 | -50.3 | -63.3 | ||
| 2013-04-24T00:00 | 13540 | 150 | -52.5 | -64.5 | 270 | 41 |
| 2013-04-24T00:00 | 13714 | 146 | -53.5 | -65.5 | ||
| 2013-04-24T00:00 | 13848 | 143 | -51.3 | -63.3 | ||
| 2013-04-24T00:00 | 13893 | 142 | -51.1 | -64.1 | ||
| 2013-04-24T00:00 | 14172 | 136 | -52.5 | -64.5 | ||
| 2013-04-24T00:00 | 14364 | 132 | -52.5 | -64.5 | ||
| 2013-04-24T00:00 | 14463 | 130 | -51.9 | -63.9 | ||
| 2013-04-24T00:00 | 14613 | 127 | -53.1 | -65.1 | ||
| 2013-04-24T00:00 | 15032 | 119 | -52.3 | -64.3 | ||
| 2013-04-24T00:00 | 15422 | 112 | -53.5 | -65.5 | ||
| 2013-04-24T00:00 | 15773 | 106 | -56.3 | -68.3 | ||
| 2013-04-24T00:00 | 16150 | 100 | -57.7 | -68.7 | 260 | 30 |
| 2013-04-24T00:00 | 16796 | 90 | -59.7 | -70.7 | ||
| 2013-04-24T00:00 | 17139 | 85 | -57.3 | -68.3 | ||
| 2013-04-24T00:00 | 17958 | 75 | -56.9 | -68.9 | ||
| 2013-04-24T00:00 | 18400 | 70 | -58.3 | -69.3 | 270 | 21 |
| 2013-04-24T00:00 | 19779 | 56 | -61.3 | -72.3 | ||
| 2013-04-24T00:00 | 19880 | 55 | -58.5 | -69.5 | ||
| 2013-04-24T00:00 | 20146 | 52 | -60.3 | -71.3 | ||
| 2013-04-24T00:00 | 20374 | 51 | -58.9 | -69.9 | ||
| 2013-04-24T00:00 | 20500 | 50 | -59.5 | -70.5 | 235 | 13 |
| 2013-04-24T00:00 | 20576 | 49 | -59.7 | -70.7 | ||
| 2013-04-24T00:00 | 20690 | 48 | -57.9 | -69.9 | ||
| 2013-04-24T00:00 | 20887 | 47 | -57.9 | -69.9 | ||
| 2013-04-24T00:00 | 21009 | 46 | -54.5 | -66.5 | ||
| 2013-04-24T00:00 | 22732 | 35 | -54.3 | -67.3 | ||
| 2013-04-24T00:00 | 22955 | 34 | -51.9 | -65.9 | ||
| 2013-04-24T00:00 | 23572 | 30 | -52.3 | -66.3 | ||
| 2013-04-24T00:00 | 23770 | 30 | -51.1 | -65.1 | 205 | 8 |
| 2013-04-24T00:00 | 23792 | 29 | -51.1 | -65.1 | ||
| 2013-04-24T00:00 | 24403 | 27 | -53.3 | -67.3 | ||
| 2013-04-24T00:00 | 25647 | 22 | -43.7 | -63.7 | ||
| 2013-04-24T00:00 | 26440 | 20 | -45.7 | -65.7 | 180 | 9 |
| 2013-04-24T00:00 | 26849 | 18 | -47.5 | -67.5 | ||
| 2013-04-24T00:00 | 28437 | 14 | -44.3 | -70.3 | ||
| 2013-04-24T00:00 | 28713 | 14 | -45.7 | -71.7 | ||
| 2013-04-24T00:00 | 29249 | 13 | -45.3 | -73.3 | ||
| 2013-04-24T00:00 | 29616 | 12 | -42.9 | -71.9 | ||
| 2013-04-24T00:00 | 30298 | 11 | -44.3 | -74.3 | ||
| 2013-04-24T00:00 | 30992 | 10 | -42.3 | -74.3 | ||
| 2013-04-24T12:00 | 203 | 1000 | ||||
| 2013-04-24T12:00 | 838 | 925 | ||||
| 2013-04-24T12:00 | 1518 | 850 | ||||
| 2013-04-24T12:00 | 1753 | 825 | -2.3 | -11.3 | ||
| 2013-04-24T12:00 | 1820 | 818 | -1.7 | -12.7 | ||
| 2013-04-24T12:00 | 1879 | 812 | 0.4 | -16.6 | ||
| 2013-04-24T12:00 | 1988 | 801 | 0.2 | -19.8 | ||
| 2013-04-24T12:00 | 3054 | 700 | -8.3 | -23.3 | 305 | 4 |
| 2013-04-24T12:00 | 3357 | 673 | -10.7 | -25.7 | ||
| 2013-04-24T12:00 | 3565 | 655 | -11.1 | -34.1 | ||
| 2013-04-24T12:00 | 3742 | 640 | -12.1 | -37.1 | ||
| 2013-04-24T12:00 | 4433 | 584 | -17.7 | -47.7 | ||
| 2013-04-24T12:00 | 4639 | 568 | -19.7 | -40.7 | ||
| 2013-04-24T12:00 | 4836 | 553 | -21.3 | -26.3 | ||
| 2013-04-24T12:00 | 5038 | 538 | -22.3 | -33.3 | ||
| 2013-04-24T12:00 | 5217 | 525 | -23.9 | -28.6 | ||
| 2013-04-24T12:00 | 5357 | 515 | -25.3 | -28.8 | ||
| 2013-04-24T12:00 | 5580 | 500 | -27.1 | -30.0 | 275 | 20 |
| 2013-04-24T12:00 | 5991 | 472 | -30.3 | -32.9 | ||
| 2013-04-24T12:00 | 6204 | 458 | -31.5 | -34.2 | ||
| 2013-04-24T12:00 | 6439 | 443 | -31.7 | -34.0 | ||
| 2013-04-24T12:00 | 6914 | 414 | -34.5 | -36.6 | ||
| 2013-04-24T12:00 | 7150 | 400 | -36.5 | -39.3 | 280 | 33 |
| 2013-04-24T12:00 | 7720 | 368 | -41.3 | -44.7 | ||
| 2013-04-24T12:00 | 8798 | 313 | -49.1 | -53.2 | ||
| 2013-04-24T12:00 | 9080 | 300 | -49.7 | -54.7 | 275 | 50 |
| 2013-04-24T12:00 | 9576 | 278 | -51.3 | -57.3 | ||
| 2013-04-24T12:00 | 10260 | 250 | -54.7 | -61.7 | 280 | 59 |
| 2013-04-24T12:00 | 10680 | 234 | -56.9 | -63.9 | ||
| 2013-04-24T12:00 | 11670 | 200 | -58.1 | -65.1 | 285 | 51 |
| 2013-04-24T12:00 | 11701 | 199 | -57.9 | -64.9 | ||
| 2013-04-24T12:00 | 11926 | 192 | -58.9 | -65.9 | ||
| 2013-04-24T12:00 | 12058 | 188 | -57.7 | -64.7 | ||
| 2013-04-24T12:00 | 12297 | 181 | -57.1 | -64.1 | ||
| 2013-04-24T12:00 | 12476 | 176 | -54.1 | -61.1 | ||
| 2013-04-24T12:00 | 12734 | 169 | -54.3 | -61.3 | ||
| 2013-04-24T12:00 | 12927 | 164 | -52.7 | -59.7 | ||
| 2013-04-24T12:00 | 13126 | 159 | -52.5 | -60.5 | ||
| 2013-04-24T12:00 | 13510 | 150 | -53.5 | -61.5 | 275 | 41 |
| 2013-04-24T12:00 | 13596 | 148 | -53.9 | -61.9 | ||
| 2013-04-24T12:00 | 13772 | 144 | -53.3 | -61.3 | ||
| 2013-04-24T12:00 | 14427 | 130 | -54.1 | -63.1 | ||
| 2013-04-24T12:00 | 15041 | 118 | -58.1 | -66.1 | ||
| 2013-04-24T12:00 | 15597 | 108 | -58.5 | -67.5 | ||
| 2013-04-24T12:00 | 16090 | 100 | -57.1 | -66.1 | 270 | 33 |
| 2013-04-24T12:00 | 16218 | 98 | -56.1 | -65.1 | ||
| 2013-04-24T12:00 | 17528 | 79 | -61.5 | -70.5 | ||
| 2013-04-24T12:00 | 17922 | 74 | -60.1 | -69.1 | ||
| 2013-04-24T12:00 | 18116 | 72 | -61.3 | -70.3 | ||
| 2013-04-24T12:00 | 18299 | 70 | -60.9 | -69.9 | ||
| 2013-04-24T12:00 | 18320 | 70 | -60.5 | -69.5 | 275 | 32 |
| 2013-04-24T12:00 | 18437 | 68 | -58.3 | -67.3 | ||
| 2013-04-24T12:00 | 19184 | 61 | -57.7 | -66.7 | ||
| 2013-04-24T12:00 | 19385 | 59 | -54.5 | -64.5 | ||
| 2013-04-24T12:00 | 19538 | 57 | -54.1 | -64.1 | ||
| 2013-04-24T12:00 | 19924 | 54 | -57.3 | -67.3 | ||
| 2013-04-24T12:00 | 20440 | 50 | -58.7 | -68.7 | 245 | 15 |
| 2013-04-24T12:00 | 20656 | 48 | -59.9 | -69.9 | ||
| 2013-04-24T12:00 | 20976 | 45 | -58.3 | -68.3 | ||
| 2013-04-24T12:00 | 21199 | 44 | -54.9 | -65.9 | ||
| 2013-04-24T12:00 | 21976 | 39 | -56.5 | -67.5 | ||
| 2013-04-24T12:00 | 22090 | 38 | -54.7 | -65.7 | ||
| 2013-04-24T12:00 | 22257 | 37 | -55.7 | -66.7 | ||
| 2013-04-24T12:00 | 22429 | 36 | -54.3 | -66.3 | ||
| 2013-04-24T12:00 | 22554 | 35 | -51.3 | -64.3 | ||
| 2013-04-24T12:00 | 23242 | 32 | -50.1 | -64.1 | ||
| 2013-04-24T12:00 | 23386 | 31 | -48.3 | -63.3 | ||
| 2013-04-24T12:00 | 23720 | 30 | -50.5 | -65.5 | 180 | 8 |
| 2013-04-24T12:00 | 24008 | 28 | -51.1 | -66.1 | ||
| 2013-04-24T12:00 | 24910 | 25 | -47.5 | -65.5 | ||
| 2013-04-24T12:00 | 25807 | 21 | -50.1 | -69.1 | ||
| 2013-04-24T12:00 | 26338 | 20 | -47.9 | -70.9 | ||
| 2013-04-24T12:00 | 26380 | 20 | -48.1 | -70.1 | 170 | 7 |
| 2013-04-24T12:00 | 26681 | 19 | -50.3 | -71.3 | ||
| 2013-04-24T12:00 | 27068 | 18 | -48.7 | -72.7 | ||
| 2013-04-24T12:00 | 27677 | 16 | -49.5 | -75.5 | ||
| 2013-04-24T12:00 | 28723 | 14 | -43.9 | -74.9 | ||
| 2013-04-24T12:00 | 29590 | 12 | -43.5 | -74.5 | ||
| 2013-04-24T12:00 | 30161 | 11 | -41.3 | -73.3 | ||
| 2013-04-24T12:00 | 31000 | 10 | -42.5 | -74.5 | 140 | 6 |
| 2013-04-24T12:00 | 31346 | 9 | -42.3 | -73.3 | ||
| 2013-04-24T12:00 | 31709 | 9 | -44.1 | -76.1 | ||
| 2013-04-24T12:00 | 32092 | 8 | -43.3 | -75.3 | ||
| 2013-04-25T00:00 | 167 | 1000 | ||||
| 2013-04-25T00:00 | 819 | 925 | ||||
| 2013-04-25T00:00 | 1516 | 850 | ||||
| 2013-04-25T00:00 | 1651 | 836 | 10.6 | -16.4 | ||
| 2013-04-25T00:00 | 1801 | 821 | 8.8 | -16.2 | ||
| 2013-04-25T00:00 | 2720 | 733 | 0.0 | -19.0 | ||
| 2013-04-25T00:00 | 3091 | 700 | -3.5 | -19.5 | 285 | 7 |
| 2013-04-25T00:00 | 3692 | 648 | -9.3 | -21.3 | ||
| 2013-04-25T00:00 | 4167 | 609 | -13.3 | -25.3 | ||
| 2013-04-25T00:00 | 4419 | 589 | -15.9 | -24.9 | ||
| 2013-04-25T00:00 | 4509 | 582 | -16.3 | -26.3 | ||
| 2013-04-25T00:00 | 4758 | 563 | -17.1 | -45.1 | ||
| 2013-04-25T00:00 | 5000 | 545 | -18.5 | -47.5 | ||
| 2013-04-25T00:00 | 5640 | 500 | -23.3 | -48.3 | 310 | 15 |
| 2013-04-25T00:00 | 6447 | 447 | -29.9 | -51.9 | ||
| 2013-04-25T00:00 | 7143 | 405 | -33.1 | -54.1 | ||
| 2013-04-25T00:00 | 7230 | 400 | -33.7 | -53.7 | 280 | 20 |
| 2013-04-25T00:00 | 8711 | 322 | -45.1 | -59.1 | ||
| 2013-04-25T00:00 | 9135 | 302 | -47.9 | -60.9 | ||
| 2013-04-25T00:00 | 9190 | 300 | -47.7 | -60.7 | 285 | 23 |
| 2013-04-25T00:00 | 9390 | 291 | -48.3 | -61.3 | ||
| 2013-04-25T00:00 | 9830 | 272 | -51.5 | -63.5 | ||
| 2013-04-25T00:00 | 10380 | 250 | -54.1 | -66.1 | 275 | 33 |
| 2013-04-25T00:00 | 11517 | 209 | -57.5 | -68.5 | ||
| 2013-04-25T00:00 | 11762 | 201 | -58.5 | -69.5 | ||
| 2013-04-25T00:00 | 11790 | 200 | -58.5 | -69.5 | 280 | 44 |
| 2013-04-25T00:00 | 11981 | 194 | -57.3 | -68.3 | ||
| 2013-04-25T00:00 | 12313 | 184 | -59.3 | -70.3 | ||
| 2013-04-25T00:00 | 12485 | 179 | -58.5 | -69.5 | ||
| 2013-04-25T00:00 | 12770 | 171 | -60.5 | -71.5 | ||
| 2013-04-25T00:00 | 12917 | 167 | -59.3 | -70.3 | ||
| 2013-04-25T00:00 | 13222 | 159 | -61.1 | -72.1 | ||
| 2013-04-25T00:00 | 13380 | 155 | -59.3 | -70.3 | ||
| 2013-04-25T00:00 | 13590 | 150 | -58.5 | -69.5 | 280 | 41 |
| 2013-04-25T00:00 | 13890 | 143 | -57.9 | -68.9 | ||
| 2013-04-25T00:00 | 14296 | 134 | -60.3 | -71.3 | ||
| 2013-04-25T00:00 | 14532 | 129 | -60.1 | -71.1 | ||
| 2013-04-25T00:00 | 15406 | 112 | -62.7 | -72.7 | ||
| 2013-04-25T00:00 | 15630 | 108 | -60.9 | -71.9 | ||
| 2013-04-25T00:00 | 16120 | 100 | -61.5 | -72.5 | 275 | 36 |
| 2013-04-25T00:00 | 16666 | 91 | -63.5 | -73.5 | ||
| 2013-04-25T00:00 | 17316 | 82 | -62.7 | -73.7 | ||
| 2013-04-25T00:00 | 17906 | 74 | -60.7 | -71.7 | ||
| 2013-04-25T00:00 | 18083 | 72 | -58.7 | -69.7 | ||
| 2013-04-25T00:00 | 18320 | 70 | -59.3 | -70.3 | 275 | 30 |
| 2013-04-25T00:00 | 18611 | 66 | -61.3 | -72.3 | ||
| 2013-04-25T00:00 | 19062 | 62 | -61.5 | -72.5 | ||
| 2013-04-25T00:00 | 19766 | 55 | -55.9 | -67.9 | ||
| 2013-04-25T00:00 | 19906 | 54 | -52.3 | -65.3 | ||
| 2013-04-25T00:00 | 20050 | 53 | -52.1 | -65.1 | ||
| 2013-04-25T00:00 | 20450 | 50 | -54.3 | -67.3 | 265 | 15 |
| 2013-04-25T00:00 | 21443 | 42 | -60.9 | -72.9 | ||
| 2013-04-25T00:00 | 21487 | 42 | -60.3 | -72.3 | ||
| 2013-04-25T00:00 | 21577 | 41 | -55.3 | -68.3 | ||
| 2013-04-25T00:00 | 22119 | 38 | -53.3 | -67.3 | ||
| 2013-04-25T00:00 | 22307 | 37 | -50.1 | -65.1 | ||
| 2013-04-25T00:00 | 22667 | 35 | -49.3 | -65.3 | ||
| 2013-04-25T00:00 | 23489 | 31 | -52.3 | -67.3 | ||
| 2013-04-25T00:00 | 23594 | 30 | -50.5 | -66.5 | ||
| 2013-04-25T00:00 | 23730 | 30 | -50.3 | -66.3 | 250 | 11 |
| 2013-04-25T00:00 | 23839 | 29 | -50.7 | -66.7 | ||
| 2013-04-25T00:00 | 23973 | 28 | -48.3 | -66.3 | ||
| 2013-04-25T00:00 | 24514 | 26 | -50.9 | -67.9 | ||
| 2013-04-25T00:00 | 25497 | 22 | -46.1 | -68.1 | ||
| 2013-04-25T00:00 | 26165 | 20 | -47.1 | -71.1 | ||
| 2013-04-25T00:00 | 26400 | 20 | -45.9 | -71.9 | 180 | 13 |
| 2013-04-25T00:00 | 27562 | 16 | -44.1 | -75.1 | ||
| 2013-04-25T12:00 | 151 | 1000 | ||||
| 2013-04-25T12:00 | 807 | 925 | ||||
| 2013-04-25T12:00 | 1508 | 850 | ||||
| 2013-04-25T12:00 | 1630 | 837 | 2.4 | -3.6 | ||
| 2013-04-25T12:00 | 1688 | 831 | 3.4 | -5.6 | ||
| 2013-04-25T12:00 | 1756 | 824 | 3.2 | -9.8 | ||
| 2013-04-25T12:00 | 1926 | 807 | 4.8 | -10.2 | ||
| 2013-04-25T12:00 | 2057 | 794 | 4.2 | -10.8 | ||
| 2013-04-25T12:00 | 2181 | 782 | 5.0 | -18.0 | ||
| 2013-04-25T12:00 | 2979 | 708 | -1.3 | -27.3 | ||
| 2013-04-25T12:00 | 3078 | 700 | -1.3 | -28.3 | 305 | 9 |
| 2013-04-25T12:00 | 3639 | 652 | -3.9 | -47.9 | ||
| 2013-04-25T12:00 | 4326 | 597 | -8.5 | -52.5 | ||
| 2013-04-25T12:00 | 5680 | 500 | -18.7 | -53.7 | 265 | 16 |
| 2013-04-25T12:00 | 5860 | 488 | -20.1 | -54.1 | ||
| 2013-04-25T12:00 | 7195 | 406 | -29.1 | -58.1 | ||
| 2013-04-25T12:00 | 7300 | 400 | -30.1 | -59.1 | 265 | 30 |
| 2013-04-25T12:00 | 8213 | 351 | -37.9 | -58.9 | ||
| 2013-04-25T12:00 | 8492 | 337 | -39.3 | -52.3 | ||
| 2013-04-25T12:00 | 9143 | 306 | -45.1 | -54.1 | ||
| 2013-04-25T12:00 | 9280 | 300 | -46.1 | -55.1 | 265 | 43 |
| 2013-04-25T12:00 | 10362 | 254 | -55.1 | -63.1 | ||
| 2013-04-25T12:00 | 10470 | 250 | -55.9 | -63.9 | 265 | 35 |
| 2013-04-25T12:00 | 11860 | 200 | -62.5 | -70.5 | 260 | 40 |
| 2013-04-25T12:00 | 12048 | 194 | -61.5 | -69.5 | ||
| 2013-04-25T12:00 | 12242 | 188 | -62.7 | -70.7 | ||
| 2013-04-25T12:00 | 12612 | 177 | -63.5 | -71.5 | ||
| 2013-04-25T12:00 | 12752 | 173 | -62.5 | -70.5 | ||
| 2013-04-25T12:00 | 12860 | 170 | -60.7 | -68.7 | ||
| 2013-04-25T12:00 | 12933 | 168 | -60.9 | -68.9 | ||
| 2013-04-25T12:00 | 13008 | 166 | -59.1 | -67.1 | ||
| 2013-04-25T12:00 | 13278 | 159 | -57.3 | -66.3 | ||
| 2013-04-25T12:00 | 13561 | 152 | -59.1 | -68.1 | ||
| 2013-04-25T12:00 | 13650 | 150 | -59.1 | -68.1 | 275 | 41 |
| 2013-04-25T12:00 | 14126 | 139 | -59.9 | -68.9 | ||
| 2013-04-25T12:00 | 14306 | 135 | -61.5 | -70.5 | ||
| 2013-04-25T12:00 | 14539 | 130 | -61.7 | -70.7 | ||
| 2013-04-25T12:00 | 14984 | 121 | -60.1 | -69.1 | ||
| 2013-04-25T12:00 | 15193 | 117 | -61.1 | -70.1 | ||
| 2013-04-25T12:00 | 15519 | 111 | -60.5 | -69.5 | ||
| 2013-04-25T12:00 | 15921 | 104 | -63.5 | -72.5 | ||
| 2013-04-25T12:00 | 16170 | 100 | -63.5 | -72.5 | 280 | 31 |
| 2013-04-25T12:00 | 16638 | 92 | -65.9 | -74.9 | ||
| 2013-04-25T12:00 | 18107 | 72 | -62.1 | -71.1 | ||
| 2013-04-25T12:00 | 18350 | 70 | -63.3 | -72.3 | 285 | 26 |
| 2013-04-25T12:00 | 18474 | 68 | -64.1 | -73.1 | ||
| 2013-04-25T12:00 | 19033 | 62 | -63.9 | -72.9 | ||
| 2013-04-25T12:00 | 19587 | 57 | -61.5 | -71.5 | ||
| 2013-04-25T12:00 | 19797 | 55 | -58.1 | -68.1 | ||
| 2013-04-25T12:00 | 20126 | 52 | -55.9 | -66.9 | ||
| 2013-04-25T12:00 | 20440 | 50 | -55.1 | -66.1 | 275 | 19 |
| 2013-04-25T12:00 | 20889 | 46 | -54.9 | -66.9 | ||
| 2013-04-25T12:00 | 21042 | 45 | -53.3 | -65.3 | ||
| 2013-04-25T12:00 | 21784 | 40 | -56.7 | -68.7 | ||
| 2013-04-25T12:00 | 22571 | 35 | -52.9 | -65.9 | ||
| 2013-04-25T12:00 | 23355 | 31 | -52.1 | -67.1 | ||
| 2013-04-25T12:00 | 23521 | 30 | -50.1 | -66.1 | ||
| 2013-04-25T12:00 | 23720 | 30 | -50.7 | -66.7 | 210 | 11 |
| 2013-04-25T12:00 | 23873 | 29 | -51.5 | -67.5 | ||
| 2013-04-25T12:00 | 24358 | 27 | -48.5 | -67.5 | ||
| 2013-04-25T12:00 | 24628 | 26 | -49.3 | -68.3 | ||
| 2013-04-25T12:00 | 25206 | 23 | -47.3 | -70.3 | ||
| 2013-04-25T12:00 | 25750 | 22 | -49.1 | -72.1 | ||
| 2013-04-25T12:00 | 26024 | 21 | -47.7 | -73.7 | ||
| 2013-04-25T12:00 | 26245 | 20 | -49.1 | -74.1 | ||
| 2013-04-25T12:00 | 26380 | 20 | -48.5 | -74.5 | 175 | 8 |
| 2013-04-25T12:00 | 26751 | 18 | -48.3 | -76.3 | ||
| 2013-04-25T12:00 | 27147 | 17 | -45.9 | -76.9 | ||
| 2013-04-25T12:00 | 27731 | 16 | -46.1 | -79.1 | ||
| 2013-04-25T12:00 | 28894 | 13 | -41.7 | -76.7 | ||
| 2013-04-25T12:00 | 29844 | 11 | -42.7 | -78.7 | ||
| 2013-04-25T12:00 | 30502 | 10 | -39.3 | -76.3 | ||
| 2013-04-25T12:00 | 31040 | 10 | -40.1 | -77.1 | 135 | 9 |
| 2013-04-25T12:00 | 31317 | 9 | -41.5 | -77.5 | ||
| 2013-04-25T12:00 | 32140 | 8 | -41.5 | -77.5 | ||
| 2013-04-26T00:00 | 81 | 1000 | ||||
| 2013-04-26T00:00 | 743 | 925 | ||||
| 2013-04-26T00:00 | 1452 | 850 | ||||
| 2013-04-26T00:00 | 1733 | 822 | 15.2 | -10.8 | ||
| 2013-04-26T00:00 | 2278 | 770 | 10.0 | -12.0 | ||
| 2013-04-26T00:00 | 3063 | 700 | 4.4 | -13.6 | 170 | 6 |
| 2013-04-26T00:00 | 3203 | 688 | 3.4 | -14.6 | ||
| 2013-04-26T00:00 | 4199 | 607 | -5.1 | -18.1 | ||
| 2013-04-26T00:00 | 5128 | 538 | -14.1 | -18.8 | ||
| 2013-04-26T00:00 | 5690 | 500 | -18.5 | -22.8 | 260 | 19 |
| 2013-04-26T00:00 | 5885 | 487 | -20.3 | -24.4 | ||
| 2013-04-26T00:00 | 6226 | 465 | -22.5 | -28.5 | ||
| 2013-04-26T00:00 | 7186 | 407 | -29.9 | -36.9 | ||
| 2013-04-26T00:00 | 7310 | 400 | -30.9 | -37.9 | 250 | 27 |
| 2013-04-26T00:00 | 9012 | 312 | -46.1 | -54.1 | ||
| 2013-04-26T00:00 | 9280 | 300 | -46.7 | -56.7 | 255 | 32 |
| 2013-04-26T00:00 | 9369 | 296 | -46.9 | -56.9 | ||
| 2013-04-26T00:00 | 10470 | 250 | -53.9 | -64.9 | 255 | 28 |
| 2013-04-26T00:00 | 10626 | 244 | -54.9 | -65.9 | ||
| 2013-04-26T00:00 | 10784 | 238 | -54.9 | -65.9 | ||
| 2013-04-26T00:00 | 11519 | 212 | -56.1 | -67.1 | ||
| 2013-04-26T00:00 | 11670 | 207 | -57.1 | -67.1 | ||
| 2013-04-26T00:00 | 11880 | 200 | -57.1 | -67.1 | 250 | 29 |
| 2013-04-26T00:00 | 11944 | 198 | -56.1 | -67.1 | ||
| 2013-04-26T00:00 | 12271 | 188 | -57.7 | -67.7 | ||
| 2013-04-26T00:00 | 12724 | 175 | -55.9 | -66.9 | ||
| 2013-04-26T00:00 | 12982 | 168 | -57.5 | -68.5 | ||
| 2013-04-26T00:00 | 13614 | 152 | -56.5 | -68.5 | ||
| 2013-04-26T00:00 | 13710 | 150 | -57.1 | -68.1 | 265 | 33 |
| 2013-04-26T00:00 | 14099 | 141 | -58.7 | -69.7 | ||
| 2013-04-26T00:00 | 14953 | 123 | -59.5 | -70.5 | ||
| 2013-04-26T00:00 | 15483 | 113 | -58.7 | -70.7 | ||
| 2013-04-26T00:00 | 15824 | 107 | -59.7 | -71.7 | ||
| 2013-04-26T00:00 | 16250 | 100 | -57.7 | -70.7 | 270 | 32 |
| 2013-04-26T00:00 | 17173 | 86 | -59.5 | -72.5 | ||
| 2013-04-26T00:00 | 17768 | 78 | -62.5 | -74.5 | ||
| 2013-04-26T00:00 | 17943 | 76 | -61.7 | -73.7 | ||
| 2013-04-26T00:00 | 18411 | 70 | -65.1 | -76.1 | ||
| 2013-04-26T00:00 | 18470 | 70 | -65.1 | -76.1 | 280 | 18 |
| 2013-04-26T00:00 | 19904 | 55 | -61.3 | -74.3 | ||
| 2013-04-26T00:00 | 20412 | 51 | -64.5 | -76.5 | ||
| 2013-04-26T00:00 | 20540 | 50 | -63.7 | -76.7 | 285 | 22 |
| 2013-04-26T00:00 | 20626 | 49 | -62.5 | -75.5 | ||
| 2013-04-26T00:00 | 20753 | 48 | -59.1 | -74.1 | ||
| 2013-04-26T00:00 | 20871 | 47 | -59.1 | -74.1 | ||
| 2013-04-26T00:00 | 20938 | 46 | -56.3 | -73.3 | ||
| 2013-04-26T00:00 | 21131 | 45 | -53.9 | -72.9 | ||
| 2013-04-26T00:00 | 21553 | 42 | -53.9 | -73.9 | ||
| 2013-04-26T00:00 | 21783 | 41 | -52.3 | -75.3 | ||
| 2013-04-26T00:00 | 22558 | 36 | -56.7 | -81.7 | ||
| 2013-04-26T00:00 | 22844 | 34 | -53.3 | -85.3 | ||
| 2013-04-26T00:00 | 23050 | 33 | -53.7 | |||
| 2013-04-26T00:00 | 23127 | 33 | -51.5 | |||
| 2013-04-26T00:00 | 23344 | 32 | -51.9 | |||
| 2013-04-26T00:00 | 23529 | 31 | -48.3 | |||
| 2013-04-26T00:00 | 23820 | 30 | -48.7 | 205 | 9 | |
| 2013-04-26T00:00 | 23842 | 29 | -48.7 | |||
| 2013-04-26T00:00 | 23931 | 29 | -47.5 | |||
| 2013-04-26T00:00 | 25067 | 24 | -50.5 | |||
| 2013-04-26T00:00 | 25280 | 24 | -50.1 | |||
| 2013-04-26T00:00 | 25945 | 21 | -43.9 | |||
| 2013-04-26T00:00 | 26490 | 20 | -45.9 | 110 | 5 | |
| 2013-04-26T00:00 | 26523 | 19 | -45.9 | |||
| 2013-04-26T00:00 | 28281 | 15 | -42.3 | |||
| 2013-04-26T00:00 | 28688 | 14 | -43.9 | |||
| 2013-04-26T00:00 | 29072 | 13 | -41.9 | |||
| 2013-04-26T00:00 | 30323 | 11 | -42.1 | |||
| 2013-04-26T00:00 | 31017 | 10 | -40.1 | |||
| 2013-04-26T12:00 | 115 | 1000 | ||||
| 2013-04-26T12:00 | 785 | 925 | ||||
| 2013-04-26T12:00 | 1499 | 850 | ||||
| 2013-04-26T12:00 | 1660 | 834 | 6.6 | -2.4 | ||
| 2013-04-26T12:00 | 1699 | 830 | 7.4 | -3.6 | ||
| 2013-04-26T12:00 | 1818 | 818 | 8.2 | -7.8 | ||
| 2013-04-26T12:00 | 1939 | 806 | 7.4 | -8.6 | ||
| 2013-04-26T12:00 | 2093 | 791 | 9.2 | -10.8 | ||
| 2013-04-26T12:00 | 2177 | 783 | 9.0 | -13.0 | ||
| 2013-04-26T12:00 | 2873 | 719 | 3.4 | -15.6 | ||
| 2013-04-26T12:00 | 3092 | 700 | 1.6 | -15.4 | 350 | 4 |
| 2013-04-26T12:00 | 3430 | 671 | -1.3 | -14.3 | ||
| 2013-04-26T12:00 | 4670 | 572 | -13.1 | -14.6 | ||
| 2013-04-26T12:00 | 5202 | 533 | -17.3 | -20.2 | ||
| 2013-04-26T12:00 | 5401 | 519 | -18.1 | -26.1 | ||
| 2013-04-26T12:00 | 5690 | 500 | -19.5 | -28.5 | 280 | 9 |
| 2013-04-26T12:00 | 5735 | 497 | -19.7 | -28.7 | ||
| 2013-04-26T12:00 | 5976 | 481 | -21.9 | -27.9 | ||
| 2013-04-26T12:00 | 6270 | 462 | -24.1 | -31.1 | ||
| 2013-04-26T12:00 | 6888 | 424 | -28.9 | -39.9 | ||
| 2013-04-26T12:00 | 7300 | 400 | -32.3 | -40.3 | 245 | 9 |
| 2013-04-26T12:00 | 7936 | 365 | -38.1 | -43.1 | ||
| 2013-04-26T12:00 | 8660 | 328 | -44.3 | -50.3 | ||
| 2013-04-26T12:00 | 8763 | 323 | -44.9 | -50.9 | ||
| 2013-04-26T12:00 | 8846 | 319 | -44.1 | -50.1 | ||
| 2013-04-26T12:00 | 8994 | 312 | -45.3 | -52.3 | ||
| 2013-04-26T12:00 | 9260 | 300 | -45.1 | -53.1 | 270 | 9 |
| 2013-04-26T12:00 | 9282 | 299 | -45.1 | -53.1 | ||
| 2013-04-26T12:00 | 10248 | 258 | -52.7 | -60.7 | ||
| 2013-04-26T12:00 | 10460 | 250 | -52.7 | -60.7 | 255 | 19 |
| 2013-04-26T12:00 | 10538 | 247 | -52.9 | -60.9 | ||
| 2013-04-26T12:00 | 10803 | 237 | -54.7 | -62.7 | ||
| 2013-04-26T12:00 | 10884 | 234 | -54.1 | -62.1 | ||
| 2013-04-26T12:00 | 11880 | 200 | -56.9 | 250 | 21 | |
| 2013-04-26T12:00 | 12008 | 196 | -57.1 | |||
| 2013-04-26T12:00 | 12106 | 193 | -55.1 | |||
| 2013-04-26T12:00 | 12239 | 189 | -54.7 | |||
| 2013-04-26T12:00 | 12550 | 180 | -55.5 | |||
| 2013-04-26T12:00 | 12839 | 172 | -54.9 | |||
| 2013-04-26T12:00 | 13141 | 164 | -57.1 | |||
| 2013-04-26T12:00 | 13376 | 158 | -56.9 | |||
| 2013-04-26T12:00 | 13661 | 151 | -58.1 | |||
| 2013-04-26T12:00 | 13710 | 150 | -57.9 | 270 | 25 | |
| 2013-04-26T12:00 | 13924 | 145 | -56.7 | |||
| 2013-04-26T12:00 | 14328 | 136 | -57.3 | |||
| 2013-04-26T12:00 | 14807 | 126 | -59.5 | |||
| 2013-04-26T12:00 | 15217 | 118 | -59.1 | |||
| 2013-04-26T12:00 | 15432 | 114 | -60.1 | |||
| 2013-04-26T12:00 | 16004 | 104 | -59.3 | |||
| 2013-04-26T12:00 | 16250 | 100 | -59.9 | 270 | 24 | |
| 2013-04-26T12:00 | 16933 | 89 | -60.3 | |||
| 2013-04-26T12:00 | 17899 | 76 | -63.9 | |||
| 2013-04-26T12:00 | 18460 | 70 | -61.1 | 295 | 21 | |
| 2013-04-26T12:00 | 18513 | 69 | -60.9 | |||
| 2013-04-26T12:00 | 19477 | 59 | -60.9 | |||
| 2013-04-26T12:00 | 20157 | 53 | -62.9 | |||
| 2013-04-26T12:00 | 20550 | 50 | -60.1 | 295 | 11 | |
| 2013-04-26T12:00 | 20650 | 49 | -59.7 | |||
| 2013-04-26T12:00 | 21447 | 43 | -59.3 | |||
| 2013-04-26T12:00 | 21852 | 40 | -56.3 | |||
| 2013-04-26T12:00 | 22405 | 37 | -56.9 | |||
| 2013-04-26T12:00 | 22685 | 35 | -52.9 | |||
| 2013-04-26T12:00 | 22868 | 34 | -53.3 | |||
| 2013-04-26T12:00 | 23057 | 33 | -50.5 | |||
| 2013-04-26T12:00 | 23334 | 32 | -50.7 | -62.7 | ||
| 2013-04-26T12:00 | 23643 | 30 | -51.7 | |||
| 2013-04-26T12:00 | 23800 | 30 | -49.7 | 255 | 2 | |
| 2013-04-26T12:00 | 23932 | 29 | -47.7 | |||
| 2013-04-26T12:00 | 24298 | 27 | -50.1 | |||
| 2013-04-26T12:00 | 24393 | 27 | -48.3 | |||
| 2013-04-26T12:00 | 24967 | 25 | -49.3 | |||
| 2013-04-26T12:00 | 25893 | 21 | -47.3 | |||
| 2013-04-26T12:00 | 26108 | 21 | -48.3 | |||
| 2013-04-26T12:00 | 26470 | 20 | -46.5 | 120 | 11 | |
| 2013-04-26T12:00 | 26537 | 19 | -45.7 | |||
| 2013-04-26T12:00 | 27999 | 15 | -44.1 | |||
| 2013-04-26T12:00 | 28666 | 14 | -41.3 | |||
| 2013-04-26T12:00 | 29306 | 13 | -41.5 | |||
| 2013-04-26T12:00 | 29789 | 12 | -39.7 | |||
| 2013-04-26T12:00 | 30747 | 10 | -40.1 | -67.1 | ||
| 2013-04-27T00:00 | 140 | 1000 | ||||
| 2013-04-27T00:00 | 811 | 925 | ||||
| 2013-04-27T00:00 | 1527 | 850 | ||||
| 2013-04-27T00:00 | 1733 | 830 | 16.2 | -9.8 | ||
| 2013-04-27T00:00 | 2063 | 798 | 12.8 | -11.2 | ||
| 2013-04-27T00:00 | 2989 | 713 | 3.8 | -14.2 | ||
| 2013-04-27T00:00 | 3138 | 700 | 2.4 | -13.6 | 10 | 5 |
| 2013-04-27T00:00 | 3961 | 631 | -5.7 | -15.7 | ||
| 2013-04-27T00:00 | 4730 | 571 | -13.3 | -16.4 | ||
| 2013-04-27T00:00 | 5166 | 539 | -15.7 | -19.9 | ||
| 2013-04-27T00:00 | 5292 | 530 | -16.3 | -22.3 | ||
| 2013-04-27T00:00 | 5740 | 500 | -19.7 | -28.7 | 300 | 8 |
| 2013-04-27T00:00 | 5770 | 498 | -19.9 | -29.9 | ||
| 2013-04-27T00:00 | 6057 | 479 | -21.7 | -34.7 | ||
| 2013-04-27T00:00 | 6578 | 446 | -24.9 | -38.9 | ||
| 2013-04-27T00:00 | 7360 | 400 | -31.7 | -44.7 | 300 | 7 |
| 2013-04-27T00:00 | 8228 | 353 | -39.1 | -50.1 | ||
| 2013-04-27T00:00 | 8424 | 343 | -40.1 | -51.1 | ||
| 2013-04-27T00:00 | 9320 | 300 | -47.7 | -57.7 | 15 | 6 |
| 2013-04-27T00:00 | 9453 | 294 | -48.9 | -58.9 | ||
| 2013-04-27T00:00 | 10199 | 262 | -53.9 | -62.9 | ||
| 2013-04-27T00:00 | 10500 | 250 | -54.9 | -63.9 | 25 | 9 |
| 2013-04-27T00:00 | 11229 | 223 | -54.5 | -63.5 | ||
| 2013-04-27T00:00 | 11403 | 217 | -54.9 | -63.9 | ||
| 2013-04-27T00:00 | 11764 | 205 | -57.3 | -66.3 | ||
| 2013-04-27T00:00 | 11920 | 200 | -57.5 | -66.5 | 350 | 9 |
| 2013-04-27T00:00 | 11952 | 199 | -57.7 | -66.7 | ||
| 2013-04-27T00:00 | 12344 | 187 | -57.3 | -66.3 | ||
| 2013-04-27T00:00 | 12586 | 180 | -54.9 | -63.9 | ||
| 2013-04-27T00:00 | 12876 | 172 | -53.9 | -62.9 | ||
| 2013-04-27T00:00 | 13142 | 165 | -54.5 | -63.5 | ||
| 2013-04-27T00:00 | 13418 | 158 | -56.1 | -65.1 | ||
| 2013-04-27T00:00 | 13622 | 153 | -55.1 | -64.1 | ||
| 2013-04-27T00:00 | 13750 | 150 | -55.3 | -64.3 | 275 | 15 |
| 2013-04-27T00:00 | 14098 | 142 | -56.1 | -65.1 | ||
| 2013-04-27T00:00 | 14188 | 140 | -55.7 | -64.7 | ||
| 2013-04-27T00:00 | 14657 | 130 | -57.1 | -66.1 | ||
| 2013-04-27T00:00 | 15321 | 117 | -57.5 | -66.5 | ||
| 2013-04-27T00:00 | 15939 | 106 | -60.3 | -69.3 | ||
| 2013-04-27T00:00 | 16310 | 100 | -59.9 | -68.9 | 280 | 22 |
| 2013-04-27T00:00 | 17480 | 82 | -61.7 | -70.7 | ||
| 2013-04-27T00:00 | 18480 | 70 | -58.9 | -67.9 | ||
| 2013-04-27T00:00 | 18540 | 70 | -59.3 | -68.3 | 285 | 18 |
| 2013-04-27T00:00 | 19252 | 62 | -62.9 | -71.9 | ||
| 2013-04-27T00:00 | 19840 | 56 | -63.3 | -72.3 | ||
| 2013-04-27T00:00 | 20072 | 54 | -62.1 | -71.1 | ||
| 2013-04-27T00:00 | 20222 | 53 | -58.3 | -67.3 | ||
| 2013-04-27T00:00 | 20620 | 50 | -61.7 | -70.7 | 300 | 12 |
| 2013-04-27T00:00 | 20632 | 49 | -61.7 | -70.7 | ||
| 2013-04-27T00:00 | 21001 | 47 | -62.9 | -71.9 | ||
| 2013-04-27T00:00 | 21556 | 43 | -56.1 | -65.1 | ||
| 2013-04-27T00:00 | 21952 | 40 | -55.3 | -65.3 | ||
| 2013-04-27T00:00 | 22508 | 37 | -57.7 | -66.7 | ||
| 2013-04-27T00:00 | 22698 | 35 | -56.7 | -66.7 | ||
| 2013-04-27T00:00 | 22990 | 34 | -51.3 | -61.3 | ||
| 2013-04-27T00:00 | 23278 | 32 | -53.3 | -63.3 | ||
| 2013-04-27T00:00 | 23860 | 30 | -50.9 | -61.9 | 285 | 4 |
| 2013-04-27T00:00 | 23947 | 29 | -50.9 | -61.9 | ||
| 2013-04-27T00:00 | 24311 | 28 | -47.1 | -59.1 | ||
| 2013-04-27T00:00 | 24502 | 27 | -48.5 | -60.5 | ||
| 2013-04-27T00:00 | 24901 | 25 | -47.1 | -59.1 | ||
| 2013-04-27T00:00 | 25549 | 23 | -48.1 | -60.1 | ||
| 2013-04-27T00:00 | 26147 | 21 | -44.1 | -58.1 | ||
| 2013-04-27T00:00 | 26550 | 20 | -43.9 | -57.9 | 80 | 7 |
| 2013-04-27T00:00 | 26822 | 19 | -45.5 | -59.5 | ||
| 2013-04-27T00:00 | 27328 | 17 | -42.9 | -57.9 | ||
| 2013-04-27T00:00 | 28255 | 15 | -44.3 | -60.3 | ||
| 2013-04-27T00:00 | 29391 | 13 | -39.3 | -56.3 | ||
| 2013-04-27T00:00 | 29933 | 12 | -39.9 | -57.9 | ||
| 2013-04-27T00:00 | 30971 | 10 | -36.9 | -56.9 | ||
| 2013-04-27T00:00 | 31260 | 10 | -37.3 | -57.3 | 115 | 17 |
| 2013-04-27T00:00 | 31399 | 9 | -37.9 | -57.9 | ||
| 2013-04-27T00:00 | 32302 | 8 | -34.9 | -56.9 | ||
| 2013-04-27T12:00 | 140 | 1000 | ||||
| 2013-04-27T12:00 | 812 | 925 | ||||
| 2013-04-27T12:00 | 1530 | 850 | ||||
| 2013-04-27T12:00 | 1650 | 838 | 9.0 | -4.0 | ||
| 2013-04-27T12:00 | 1690 | 834 | 10.8 | -10.2 | ||
| 2013-04-27T12:00 | 1810 | 822 | 11.8 | -12.2 | ||
| 2013-04-27T12:00 | 2109 | 793 | 11.2 | -15.8 | ||
| 2013-04-27T12:00 | 3133 | 700 | 2.4 | -18.6 | 335 | 7 |
| 2013-04-27T12:00 | 3748 | 648 | -3.1 | -20.1 | ||
| 2013-04-27T12:00 | 4439 | 593 | -9.7 | -18.7 | ||
| 2013-04-27T12:00 | 4930 | 556 | -14.5 | -21.5 | ||
| 2013-04-27T12:00 | 5109 | 543 | -14.5 | -30.5 | ||
| 2013-04-27T12:00 | 5249 | 533 | -15.1 | -33.1 | ||
| 2013-04-27T12:00 | 5740 | 500 | -18.9 | -36.9 | 6 | |
| 2013-04-27T12:00 | 5815 | 495 | -19.5 | -37.5 | ||
| 2013-04-27T12:00 | 6516 | 450 | -23.1 | -42.1 | ||
| 2013-04-27T12:00 | 7360 | 400 | -29.5 | -48.5 | 10 | 8 |
| 2013-04-27T12:00 | 8254 | 352 | -37.7 | -52.7 | ||
| 2013-04-27T12:00 | 9074 | 312 | -43.1 | -57.1 | ||
| 2013-04-27T12:00 | 9350 | 300 | -45.3 | -58.3 | 40 | 16 |
| 2013-04-27T12:00 | 10540 | 250 | -54.7 | -65.7 | 25 | 15 |
| 2013-04-27T12:00 | 10799 | 240 | -56.7 | -66.7 | ||
| 2013-04-27T12:00 | 11151 | 227 | -57.3 | -67.3 | ||
| 2013-04-27T12:00 | 11698 | 208 | -60.1 | -70.1 | ||
| 2013-04-27T12:00 | 11850 | 203 | -59.5 | -69.5 | ||
| 2013-04-27T12:00 | 11940 | 200 | -60.1 | -70.1 | 350 | 14 |
| 2013-04-27T12:00 | 12600 | 180 | -57.1 | -67.1 | ||
| 2013-04-27T12:00 | 12959 | 170 | -58.7 | -68.7 | ||
| 2013-04-27T12:00 | 13146 | 165 | -58.1 | -68.1 | ||
| 2013-04-27T12:00 | 13184 | 164 | -56.9 | -66.9 | ||
| 2013-04-27T12:00 | 13380 | 159 | -56.3 | -67.3 | ||
| 2013-04-27T12:00 | 13501 | 156 | -54.7 | -65.7 | ||
| 2013-04-27T12:00 | 13750 | 150 | -55.1 | -66.1 | 320 | 20 |
| 2013-04-27T12:00 | 14144 | 141 | -55.1 | -66.1 | ||
| 2013-04-27T12:00 | 14562 | 132 | -57.3 | -68.3 | ||
| 2013-04-27T12:00 | 15008 | 123 | -56.9 | -67.9 | ||
| 2013-04-27T12:00 | 15323 | 117 | -58.1 | -69.1 | ||
| 2013-04-27T12:00 | 15654 | 111 | -57.9 | -68.9 | ||
| 2013-04-27T12:00 | 15711 | 110 | -57.9 | -68.9 | ||
| 2013-04-27T12:00 | 16320 | 100 | -58.9 | -69.9 | 315 | 20 |
| 2013-04-27T12:00 | 18261 | 73 | -64.9 | -74.9 | ||
| 2013-04-27T12:00 | 18520 | 70 | -61.7 | -71.7 | 300 | 9 |
| 2013-04-27T12:00 | 18529 | 69 | -61.5 | -71.5 | ||
| 2013-04-27T12:00 | 18764 | 67 | -60.9 | -70.9 | ||
| 2013-04-27T12:00 | 19440 | 60 | -63.9 | -73.9 | ||
| 2013-04-27T12:00 | 19765 | 57 | -60.7 | -70.7 | ||
| 2013-04-27T12:00 | 20155 | 53 | -62.5 | -72.5 | ||
| 2013-04-27T12:00 | 20600 | 50 | -62.7 | -72.7 | 275 | 9 |
| 2013-04-27T12:00 | 20928 | 47 | -63.1 | -73.1 | ||
| 2013-04-27T12:00 | 21854 | 40 | -60.1 | -71.1 | ||
| 2013-04-27T12:00 | 22286 | 38 | -53.7 | -65.7 | ||
| 2013-04-27T12:00 | 22810 | 35 | -54.7 | -66.7 | ||
| 2013-04-27T12:00 | 23110 | 33 | -50.9 | -63.9 | ||
| 2013-04-27T12:00 | 23386 | 32 | -52.1 | -65.1 | ||
| 2013-04-27T12:00 | 23676 | 30 | -50.3 | -64.3 | ||
| 2013-04-27T12:00 | 23840 | 30 | -50.7 | -64.7 | 290 | 1 |
| 2013-04-27T12:00 | 24128 | 28 | -50.7 | -64.7 | ||
| 2013-04-27T12:00 | 24826 | 25 | -47.3 | -63.3 | ||
| 2013-04-27T12:00 | 25355 | 23 | -49.3 | -65.3 | ||
| 2013-04-27T12:00 | 26116 | 21 | -46.5 | -66.5 | ||
| 2013-04-27T12:00 | 26338 | 20 | -47.3 | -67.3 | ||
| 2013-04-27T12:00 | 26510 | 20 | -46.5 | -67.5 | 80 | 7 |
| 2013-04-27T12:00 | 26747 | 19 | -44.7 | -67.7 | ||
| 2013-04-27T12:00 | 27324 | 17 | -45.1 | -71.1 | ||
| 2013-04-27T12:00 | 29004 | 13 | -38.9 | -71.9 | ||
| 2013-04-27T12:00 | 29842 | 12 | -41.9 | -77.9 | ||
| 2013-04-27T12:00 | 30300 | 11 | -41.9 | -77.9 | ||
| 2013-04-27T12:00 | 30481 | 11 | -39.7 | -76.7 | ||
| 2013-04-27T12:00 | 31123 | 10 | -40.5 | -77.5 | ||
| 2013-04-27T12:00 | 31200 | 10 | -40.3 | -77.3 | 95 | 23 |
| 2013-04-27T12:00 | 32315 | 8 | -35.9 | -73.9 | ||
| 2013-04-27T12:00 | 33001 | 7 | -35.3 | -73.3 | ||
| 2013-04-28T00:00 | 92 | 1000 | ||||
| 2013-04-28T00:00 | 770 | 925 | ||||
| 2013-04-28T00:00 | 1492 | 850 | ||||
| 2013-04-28T00:00 | 1797 | 820 | 19.0 | -24.0 | ||
| 2013-04-28T00:00 | 2081 | 793 | 16.2 | -23.8 | ||
| 2013-04-28T00:00 | 3124 | 700 | 6.4 | -20.6 | 275 | 6 |
| 2013-04-28T00:00 | 3908 | 635 | -1.5 | -18.5 | ||
| 2013-04-28T00:00 | 4459 | 592 | -6.3 | -20.3 | ||
| 2013-04-28T00:00 | 5057 | 548 | -9.9 | -49.9 | ||
| 2013-04-28T00:00 | 5443 | 521 | -13.3 | -52.3 | ||
| 2013-04-28T00:00 | 5650 | 507 | -13.5 | -56.5 | ||
| 2013-04-28T00:00 | 5760 | 500 | -14.3 | -56.3 | 330 | 11 |
| 2013-04-28T00:00 | 7410 | 400 | -28.3 | -57.3 | 330 | 9 |
| 2013-04-28T00:00 | 7627 | 388 | -30.5 | -57.5 | ||
| 2013-04-28T00:00 | 8877 | 324 | -40.7 | -59.7 | ||
| 2013-04-28T00:00 | 9400 | 300 | -44.9 | -58.9 | 350 | 18 |
| 2013-04-28T00:00 | 9927 | 277 | -49.1 | -61.1 | ||
| 2013-04-28T00:00 | 10590 | 250 | -55.3 | -66.3 | 355 | 15 |
| 2013-04-28T00:00 | 11198 | 227 | -59.5 | -69.5 | ||
| 2013-04-28T00:00 | 11624 | 212 | -60.5 | -70.5 | ||
| 2013-04-28T00:00 | 11990 | 200 | -62.3 | -72.3 | 330 | 12 |
| 2013-04-28T00:00 | 12178 | 194 | -62.3 | -72.3 | ||
| 2013-04-28T00:00 | 12437 | 186 | -63.3 | -73.3 | ||
| 2013-04-28T00:00 | 12503 | 184 | -62.9 | -72.9 | ||
| 2013-04-28T00:00 | 12537 | 183 | -61.1 | -71.1 | ||
| 2013-04-28T00:00 | 12992 | 170 | -62.1 | -72.1 | ||
| 2013-04-28T00:00 | 13102 | 167 | -61.1 | -71.1 | ||
| 2013-04-28T00:00 | 13215 | 164 | -58.5 | -69.5 | ||
| 2013-04-28T00:00 | 13448 | 158 | -59.3 | -70.3 | ||
| 2013-04-28T00:00 | 13609 | 154 | -57.9 | -68.9 | ||
| 2013-04-28T00:00 | 13780 | 150 | -58.1 | -69.1 | 290 | 21 |
| 2013-04-28T00:00 | 13864 | 148 | -58.5 | -69.5 | ||
| 2013-04-28T00:00 | 14730 | 129 | -56.3 | -68.3 | ||
| 2013-04-28T00:00 | 14930 | 125 | -54.7 | -66.7 | ||
| 2013-04-28T00:00 | 15033 | 123 | -55.7 | -67.7 | ||
| 2013-04-28T00:00 | 15351 | 117 | -54.5 | -67.5 | ||
| 2013-04-28T00:00 | 15743 | 110 | -56.1 | -68.1 | ||
| 2013-04-28T00:00 | 16350 | 100 | -58.7 | -70.7 | 305 | 12 |
| 2013-04-28T00:00 | 17256 | 86 | -63.1 | -74.1 | ||
| 2013-04-28T00:00 | 17661 | 80 | -61.9 | -72.9 | ||
| 2013-04-28T00:00 | 18550 | 70 | -63.5 | -74.5 | 295 | 13 |
| 2013-04-28T00:00 | 19185 | 63 | -63.7 | -74.7 | ||
| 2013-04-28T00:00 | 19333 | 61 | -62.1 | -73.1 | ||
| 2013-04-28T00:00 | 19526 | 59 | -62.7 | -73.7 | ||
| 2013-04-28T00:00 | 19878 | 56 | -60.1 | -72.1 | ||
| 2013-04-28T00:00 | 20057 | 54 | -61.3 | -73.3 | ||
| 2013-04-28T00:00 | 20371 | 52 | -59.1 | -71.1 | ||
| 2013-04-28T00:00 | 20640 | 50 | -59.7 | -71.7 | 5 | 5 |
| 2013-04-28T00:00 | 21253 | 45 | -61.5 | -73.5 | ||
| 2013-04-28T00:00 | 21663 | 42 | -59.9 | -71.9 | ||
| 2013-04-28T00:00 | 22141 | 39 | -54.9 | -68.9 | ||
| 2013-04-28T00:00 | 22306 | 38 | -51.7 | -67.7 | ||
| 2013-04-28T00:00 | 22904 | 34 | -53.7 | -68.7 | ||
| 2013-04-28T00:00 | 23584 | 31 | -51.9 | -68.9 | ||
| 2013-04-28T00:00 | 23814 | 30 | -53.5 | -69.5 | ||
| 2013-04-28T00:00 | 23890 | 30 | -53.1 | -70.1 | 125 | 6 |
| 2013-04-28T00:00 | 24869 | 25 | -48.5 | -72.5 | ||
| 2013-04-28T00:00 | 25509 | 23 | -48.9 | -75.9 | ||
| 2013-04-28T00:00 | 25738 | 22 | -46.7 | -78.7 | ||
| 2013-04-28T00:00 | 26068 | 21 | -46.9 | -79.9 | ||
| 2013-04-28T00:00 | 26417 | 20 | -44.1 | -80.1 | ||
| 2013-04-28T00:00 | 26550 | 20 | -44.5 | -80.5 | 115 | 10 |
| 2013-04-28T00:00 | 26617 | 19 | -44.5 | -80.5 | ||
| 2013-04-28T00:00 | 27221 | 18 | -41.3 | -78.3 | ||
| 2013-04-28T00:00 | 28012 | 16 | -42.1 | -78.1 | ||
| 2013-04-28T00:00 | 29411 | 13 | -39.5 | -76.5 | ||
| 2013-04-28T00:00 | 30540 | 11 | -40.1 | -77.1 | ||
| 2013-04-28T12:00 | 71 | 1000 | ||||
| 2013-04-28T12:00 | 753 | 925 | ||||
| 2013-04-28T12:00 | 1480 | 850 | ||||
| 2013-04-28T12:00 | 1661 | 832 | 11.2 | -10.8 | ||
| 2013-04-28T12:00 | 1732 | 825 | 15.0 | -13.0 | ||
| 2013-04-28T12:00 | 1938 | 805 | 14.8 | -17.2 | ||
| 2013-04-28T12:00 | 2517 | 751 | 10.0 | -17.0 | ||
| 2013-04-28T12:00 | 2842 | 722 | 8.4 | -18.6 | ||
| 2013-04-28T12:00 | 3101 | 700 | 6.0 | -19.0 | 25 | 1 |
| 2013-04-28T12:00 | 4585 | 581 | -6.9 | -23.9 | ||
| 2013-04-28T12:00 | 5513 | 515 | -12.5 | -33.5 | ||
| 2013-04-28T12:00 | 5617 | 508 | -11.9 | -37.9 | ||
| 2013-04-28T12:00 | 5750 | 500 | -12.1 | -47.1 | 290 | 8 |
| 2013-04-28T12:00 | 5811 | 496 | -12.5 | -49.5 | ||
| 2013-04-28T12:00 | 7400 | 400 | -27.1 | -44.1 | 300 | 10 |
| 2013-04-28T12:00 | 7527 | 393 | -28.3 | -44.3 | ||
| 2013-04-28T12:00 | 8363 | 349 | -35.5 | -47.5 | ||
| 2013-04-28T12:00 | 9400 | 300 | -43.9 | -53.9 | 325 | 11 |
| 2013-04-28T12:00 | 10600 | 250 | -54.3 | -63.3 | 335 | 14 |
| 2013-04-28T12:00 | 11517 | 216 | -62.5 | -70.5 | ||
| 2013-04-28T12:00 | 11990 | 200 | -65.9 | -73.9 | 340 | 11 |
| 2013-04-28T12:00 | 12112 | 196 | -66.9 | -74.9 | ||
| 2013-04-28T12:00 | 12363 | 188 | -66.9 | -74.9 | ||
| 2013-04-28T12:00 | 12492 | 184 | -67.3 | -75.3 | ||
| 2013-04-28T12:00 | 12726 | 177 | -66.5 | -74.5 | ||
| 2013-04-28T12:00 | 12865 | 173 | -64.1 | -72.1 | ||
| 2013-04-28T12:00 | 12936 | 171 | -62.3 | -70.3 | ||
| 2013-04-28T12:00 | 13009 | 169 | -61.3 | -69.3 | ||
| 2013-04-28T12:00 | 13308 | 161 | -62.7 | -70.7 | ||
| 2013-04-28T12:00 | 13542 | 155 | -62.5 | -70.5 | ||
| 2013-04-28T12:00 | 13663 | 152 | -60.5 | -68.5 | ||
| 2013-04-28T12:00 | 13750 | 150 | -59.7 | -67.7 | 310 | 19 |
| 2013-04-28T12:00 | 13876 | 147 | -58.9 | -67.9 | ||
| 2013-04-28T12:00 | 14226 | 139 | -58.9 | -67.9 | ||
| 2013-04-28T12:00 | 14599 | 131 | -56.9 | -65.9 | ||
| 2013-04-28T12:00 | 14696 | 129 | -57.7 | -66.7 | ||
| 2013-04-28T12:00 | 15364 | 116 | -57.9 | -66.9 | ||
| 2013-04-28T12:00 | 15927 | 106 | -60.3 | -69.3 | ||
| 2013-04-28T12:00 | 16290 | 100 | -61.1 | -70.1 | 285 | 20 |
| 2013-04-28T12:00 | 17227 | 85 | -63.1 | -72.1 | ||
| 2013-04-28T12:00 | 17837 | 77 | -61.5 | -70.5 | ||
| 2013-04-28T12:00 | 18305 | 72 | -63.7 | -72.7 | ||
| 2013-04-28T12:00 | 18490 | 70 | -63.5 | -72.5 | 300 | 12 |
| 2013-04-28T12:00 | 18695 | 67 | -62.5 | -71.5 | ||
| 2013-04-28T12:00 | 19394 | 60 | -64.3 | -73.3 | ||
| 2013-04-28T12:00 | 20014 | 54 | -61.5 | -70.5 | ||
| 2013-04-28T12:00 | 20141 | 53 | -58.9 | -68.9 | ||
| 2013-04-28T12:00 | 20580 | 50 | -58.1 | -68.1 | 280 | 8 |
| 2013-04-28T12:00 | 21090 | 46 | -58.3 | -68.3 | ||
| 2013-04-28T12:00 | 21598 | 42 | -60.5 | -70.5 | ||
| 2013-04-28T12:00 | 21901 | 40 | -55.7 | -66.7 | ||
| 2013-04-28T12:00 | 22288 | 38 | -56.3 | -67.3 | ||
| 2013-04-28T12:00 | 22545 | 36 | -52.3 | -64.3 | ||
| 2013-04-28T12:00 | 23094 | 33 | -54.1 | -66.1 | ||
| 2013-04-28T12:00 | 23830 | 30 | -51.9 | -64.9 | 5 | 6 |
| 2013-04-28T12:00 | 24253 | 28 | -51.7 | -65.7 | ||
| 2013-04-28T12:00 | 24537 | 26 | -48.5 | -64.5 | ||
| 2013-04-28T12:00 | 25310 | 23 | -50.3 | -67.3 | ||
| 2013-04-28T12:00 | 26037 | 21 | -45.3 | -68.3 | ||
| 2013-04-28T12:00 | 26490 | 20 | -46.5 | -71.5 | 110 | 8 |
| 2013-04-28T12:00 | 26557 | 19 | -46.5 | -72.5 | ||
| 2013-04-28T12:00 | 26973 | 18 | -43.7 | -74.7 | ||
| 2013-04-28T12:00 | 27267 | 17 | -45.1 | -77.1 | ||
| 2013-04-28T12:00 | 27614 | 16 | -43.3 | -78.3 | ||
| 2013-04-28T12:00 | 28151 | 15 | -43.7 | -79.7 | ||
| 2013-04-28T12:00 | 29278 | 13 | -40.7 | -77.7 | ||
| 2013-04-28T12:00 | 29488 | 12 | -38.7 | -75.7 | ||
| 2013-04-28T12:00 | 29873 | 12 | -38.7 | -75.7 | ||
| 2013-04-28T12:00 | 30279 | 11 | -40.9 | -77.9 | ||
| 2013-04-28T12:00 | 30710 | 10 | -39.7 | -76.7 | ||
| 2013-04-28T12:00 | 31180 | 10 | -41.3 | -78.3 | 110 | 14 |
| 2013-04-28T12:00 | 31386 | 9 | -41.5 | -77.5 | ||
| 2013-04-28T12:00 | 31599 | 9 | -40.3 | -77.3 | ||
| 2013-04-29T00:00 | 19 | 1000 | ||||
| 2013-04-29T00:00 | 705 | 925 | ||||
| 2013-04-29T00:00 | 1436 | 850 | ||||
| 2013-04-29T00:00 | 1695 | 825 | 22.8 | -10.2 | ||
| 2013-04-29T00:00 | 3086 | 700 | 9.4 | -12.6 | 300 | 6 |
| 2013-04-29T00:00 | 3829 | 639 | 2.2 | -13.8 | ||
| 2013-04-29T00:00 | 4544 | 584 | -4.7 | -14.7 | ||
| 2013-04-29T00:00 | 5750 | 500 | -15.1 | -22.1 | 275 | 11 |
| 2013-04-29T00:00 | 5917 | 489 | -16.7 | -22.7 | ||
| 2013-04-29T00:00 | 7390 | 400 | -27.5 | -36.5 | 280 | 18 |
| 2013-04-29T00:00 | 8176 | 358 | -33.9 | -44.9 | ||
| 2013-04-29T00:00 | 8596 | 337 | -35.7 | -49.7 | ||
| 2013-04-29T00:00 | 9400 | 300 | -42.7 | -55.7 | 285 | 17 |
| 2013-04-29T00:00 | 10600 | 250 | -53.5 | -63.5 | 295 | 18 |
| 2013-04-29T00:00 | 10626 | 249 | -53.9 | -63.9 | ||
| 2013-04-29T00:00 | 11990 | 200 | -65.5 | -74.5 | 285 | 16 |
| 2013-04-29T00:00 | 12082 | 197 | -66.1 | -75.1 | ||
| 2013-04-29T00:00 | 12332 | 189 | -66.7 | -75.7 | ||
| 2013-04-29T00:00 | 12967 | 170 | -69.1 | -77.1 | ||
| 2013-04-29T00:00 | 13038 | 168 | -67.9 | -75.9 | ||
| 2013-04-29T00:00 | 13074 | 167 | -62.7 | -71.7 | ||
| 2013-04-29T00:00 | 13149 | 165 | -58.1 | -68.1 | ||
| 2013-04-29T00:00 | 13264 | 162 | -57.1 | -67.1 | ||
| 2013-04-29T00:00 | 13462 | 157 | -57.7 | -67.7 | ||
| 2013-04-29T00:00 | 13750 | 150 | -59.9 | -69.9 | 280 | 16 |
| 2013-04-29T00:00 | 13833 | 148 | -60.5 | -70.5 | ||
| 2013-04-29T00:00 | 13918 | 146 | -59.7 | -69.7 | ||
| 2013-04-29T00:00 | 14269 | 138 | -60.1 | -70.1 | ||
| 2013-04-29T00:00 | 14406 | 135 | -59.3 | -69.3 | ||
| 2013-04-29T00:00 | 15087 | 121 | -61.3 | -71.3 | ||
| 2013-04-29T00:00 | 15349 | 116 | -59.1 | -69.1 | ||
| 2013-04-29T00:00 | 15403 | 115 | -58.1 | -68.1 | ||
| 2013-04-29T00:00 | 15513 | 113 | -58.1 | -68.1 | ||
| 2013-04-29T00:00 | 15798 | 108 | -56.7 | -67.7 | ||
| 2013-04-29T00:00 | 16098 | 103 | -56.5 | -67.5 | ||
| 2013-04-29T00:00 | 16290 | 100 | -57.7 | -68.7 | 290 | 15 |
| 2013-04-29T00:00 | 17411 | 83 | -62.9 | -72.9 | ||
| 2013-04-29T00:00 | 18500 | 70 | -64.5 | -74.5 | 255 | 10 |
| 2013-04-29T00:00 | 18740 | 67 | -64.5 | -74.5 | ||
| 2013-04-29T00:00 | 18897 | 65 | -62.1 | -72.1 | ||
| 2013-04-29T00:00 | 19185 | 62 | -62.1 | -72.1 | ||
| 2013-04-29T00:00 | 19335 | 61 | -59.3 | -70.3 | ||
| 2013-04-29T00:00 | 19532 | 59 | -60.1 | -71.1 | ||
| 2013-04-29T00:00 | 20073 | 54 | -57.1 | -68.1 | ||
| 2013-04-29T00:00 | 20600 | 50 | -60.9 | -71.9 | 355 | 3 |
| 2013-04-29T00:00 | 20726 | 49 | -61.5 | -72.5 | ||
| 2013-04-29T00:00 | 20944 | 47 | -59.1 | -70.1 | ||
| 2013-04-29T00:00 | 21451 | 43 | -60.5 | -71.5 | ||
| 2013-04-29T00:00 | 21537 | 43 | -58.9 | -70.9 | ||
| 2013-04-29T00:00 | 21835 | 41 | -58.9 | -70.9 | ||
| 2013-04-29T00:00 | 21912 | 40 | -56.5 | -68.5 | ||
| 2013-04-29T00:00 | 22202 | 38 | -53.3 | -66.3 | ||
| 2013-04-29T00:00 | 22543 | 36 | -53.1 | -67.1 | ||
| 2013-04-29T00:00 | 22721 | 35 | -51.3 | -66.3 | ||
| 2013-04-29T00:00 | 23189 | 33 | -53.7 | -67.7 | ||
| 2013-04-29T00:00 | 23712 | 30 | -53.1 | -68.1 | ||
| 2013-04-29T00:00 | 23850 | 30 | -52.1 | -68.1 | 5 | 4 |
| 2013-04-29T00:00 | 24091 | 28 | -52.1 | -69.1 | ||
| 2013-04-29T00:00 | 24273 | 28 | -50.1 | -69.1 | ||
| 2013-04-29T00:00 | 24907 | 25 | -49.1 | -73.1 | ||
| 2013-04-29T00:00 | 25224 | 24 | -46.1 | -77.1 | ||
| 2013-04-29T00:00 | 25674 | 22 | -47.5 | -82.5 | ||
| 2013-04-29T00:00 | 25942 | 21 | -45.7 | -80.7 | ||
| 2013-04-29T00:00 | 26520 | 20 | -46.7 | -81.7 | 85 | 10 |
| 2013-04-29T00:00 | 27844 | 16 | -42.5 | -78.5 | ||
| 2013-04-29T00:00 | 29679 | 12 | -40.9 | -77.9 | ||
| 2013-04-29T00:00 | 30072 | 11 | -38.3 | -75.3 | ||
| 2013-04-29T12:00 | 26 | 1000 | ||||
| 2013-04-29T12:00 | 712 | 925 | ||||
| 2013-04-29T12:00 | 1446 | 850 | ||||
| 2013-04-29T12:00 | 1651 | 830 | 11.2 | 1.2 | ||
| 2013-04-29T12:00 | 1802 | 815 | 11.0 | -2.0 | ||
| 2013-04-29T12:00 | 1853 | 810 | 12.4 | -2.6 | ||
| 2013-04-29T12:00 | 1894 | 806 | 12.8 | -2.2 | ||
| 2013-04-29T12:00 | 2199 | 777 | 11.0 | -4.0 | ||
| 2013-04-29T12:00 | 2458 | 753 | 8.6 | -5.4 | ||
| 2013-04-29T12:00 | 3061 | 700 | 5.0 | -7.0 | 265 | 7 |
| 2013-04-29T12:00 | 3084 | 698 | 5.0 | -7.0 | ||
| 2013-04-29T12:00 | 4044 | 619 | -3.7 | -11.7 | ||
| 2013-04-29T12:00 | 5259 | 529 | -12.9 | -19.9 | ||
| 2013-04-29T12:00 | 5346 | 523 | -13.1 | -21.1 | ||
| 2013-04-29T12:00 | 5581 | 507 | -14.1 | -37.1 | ||
| 2013-04-29T12:00 | 5700 | 500 | -14.7 | -40.7 | 285 | 20 |
| 2013-04-29T12:00 | 5791 | 494 | -15.1 | -44.1 | ||
| 2013-04-29T12:00 | 6054 | 477 | -17.1 | -45.1 | ||
| 2013-04-29T12:00 | 7350 | 400 | -27.7 | -49.7 | 290 | 14 |
| 2013-04-29T12:00 | 9340 | 300 | -45.1 | -58.1 | 300 | 18 |
| 2013-04-29T12:00 | 9889 | 276 | -49.9 | -61.9 | ||
| 2013-04-29T12:00 | 10530 | 250 | -53.7 | -64.7 | 280 | 23 |
| 2013-04-29T12:00 | 10659 | 245 | -54.5 | -65.5 | ||
| 2013-04-29T12:00 | 11007 | 232 | -55.1 | -66.1 | ||
| 2013-04-29T12:00 | 11458 | 216 | -59.3 | -69.3 | ||
| 2013-04-29T12:00 | 11940 | 200 | -60.3 | -70.3 | 300 | 11 |
| 2013-04-29T12:00 | 12522 | 182 | -63.7 | -72.7 | ||
| 2013-04-29T12:00 | 12831 | 173 | -64.9 | -73.9 | ||
| 2013-04-29T12:00 | 12902 | 171 | -63.9 | -72.9 | ||
| 2013-04-29T12:00 | 13010 | 168 | -63.3 | -72.3 | ||
| 2013-04-29T12:00 | 13084 | 166 | -60.7 | -70.7 | ||
| 2013-04-29T12:00 | 13235 | 162 | -60.3 | -70.3 | ||
| 2013-04-29T12:00 | 13469 | 156 | -61.9 | -71.9 | ||
| 2013-04-29T12:00 | 13720 | 150 | -61.7 | -71.7 | 280 | 10 |
| 2013-04-29T12:00 | 13929 | 145 | -61.9 | -71.9 | ||
| 2013-04-29T12:00 | 14015 | 143 | -60.5 | -70.5 | ||
| 2013-04-29T12:00 | 14236 | 138 | -61.3 | -71.3 | ||
| 2013-04-29T12:00 | 14281 | 137 | -59.5 | -69.5 | ||
| 2013-04-29T12:00 | 14513 | 132 | -58.5 | -68.5 | ||
| 2013-04-29T12:00 | 14804 | 126 | -59.3 | -69.3 | ||
| 2013-04-29T12:00 | 14854 | 125 | -58.5 | -69.5 | ||
| 2013-04-29T12:00 | 15269 | 117 | -58.1 | -69.1 | ||
| 2013-04-29T12:00 | 15487 | 113 | -59.1 | -70.1 | ||
| 2013-04-29T12:00 | 15599 | 111 | -58.7 | -69.7 | ||
| 2013-04-29T12:00 | 15830 | 107 | -56.3 | -67.3 | ||
| 2013-04-29T12:00 | 16260 | 100 | -57.1 | -68.1 | 310 | 10 |
| 2013-04-29T12:00 | 16809 | 91 | -60.3 | -71.3 | ||
| 2013-04-29T12:00 | 16989 | 89 | -58.1 | -69.1 | ||
| 2013-04-29T12:00 | 17117 | 87 | -58.3 | -69.3 | ||
| 2013-04-29T12:00 | 17888 | 77 | -63.7 | -73.7 | ||
| 2013-04-29T12:00 | 18051 | 75 | -59.3 | -70.3 | ||
| 2013-04-29T12:00 | 18135 | 74 | -58.9 | -69.9 | ||
| 2013-04-29T12:00 | 18490 | 70 | -60.7 | -71.7 | 240 | 8 |
| 2013-04-29T12:00 | 18561 | 69 | -61.3 | -72.3 | ||
| 2013-04-29T12:00 | 18817 | 66 | -60.9 | -71.9 | ||
| 2013-04-29T12:00 | 19756 | 57 | -64.1 | -74.1 | ||
| 2013-04-29T12:00 | 20158 | 53 | -60.5 | -71.5 | ||
| 2013-04-29T12:00 | 20542 | 50 | -60.7 | -71.7 | ||
| 2013-04-29T12:00 | 20570 | 50 | -60.5 | -71.5 | 145 | 4 |
| 2013-04-29T12:00 | 20747 | 48 | -57.9 | -69.9 | ||
| 2013-04-29T12:00 | 21248 | 44 | -54.7 | -66.7 | ||
| 2013-04-29T12:00 | 21733 | 41 | -56.7 | -68.7 | ||
| 2013-04-29T12:00 | 22160 | 38 | -53.9 | -66.9 | ||
| 2013-04-29T12:00 | 22360 | 37 | -54.3 | -67.3 | ||
| 2013-04-29T12:00 | 22533 | 36 | -51.7 | -65.7 | ||
| 2013-04-29T12:00 | 23594 | 31 | -55.5 | -68.5 | ||
| 2013-04-29T12:00 | 23830 | 30 | -53.5 | -67.5 | 115 | 3 |
| 2013-04-29T12:00 | 24092 | 28 | -52.5 | -66.5 | ||
| 2013-04-29T12:00 | 24365 | 27 | -53.9 | -67.9 | ||
| 2013-04-29T12:00 | 24578 | 26 | -52.3 | -67.3 | ||
| 2013-04-29T12:00 | 24724 | 26 | -52.9 | -66.9 | ||
| 2013-04-29T12:00 | 25081 | 24 | -50.3 | -66.3 | ||
| 2013-04-29T12:00 | 25776 | 22 | -50.3 | -67.3 | ||
| 2013-04-29T12:00 | 26076 | 21 | -48.7 | -66.7 | ||
| 2013-04-29T12:00 | 26470 | 20 | -50.5 | -67.5 | 65 | 14 |
| 2013-04-29T12:00 | 26503 | 19 | -50.5 | -67.5 | ||
| 2013-04-29T12:00 | 27015 | 18 | -48.3 | -68.3 | ||
| 2013-04-29T12:00 | 27234 | 17 | -45.7 | -67.7 | ||
| 2013-04-29T12:00 | 28646 | 14 | -44.5 | -71.5 | ||
| 2013-04-29T12:00 | 29546 | 12 | -40.1 | -69.1 | ||
| 2013-04-29T12:00 | 31120 | 10 | -42.5 | -74.5 | 55 | 15 |
| 2013-04-29T12:00 | 32066 | 8 | -38.5 | -73.5 | ||
| 2013-04-30T00:00 | 638 | 925 | ||||
| 2013-04-30T00:00 | 1372 | 850 | ||||
| 2013-04-30T00:00 | 1653 | 823 | 23.8 | -15.2 | ||
| 2013-04-30T00:00 | 2471 | 748 | 16.0 | -17.0 | ||
| 2013-04-30T00:00 | 3027 | 700 | 10.6 | -15.4 | 310 | 4 |
| 2013-04-30T00:00 | 3610 | 652 | 5.0 | -15.0 | ||
| 2013-04-30T00:00 | 5130 | 538 | -9.7 | -16.7 | ||
| 2013-04-30T00:00 | 5480 | 514 | -11.5 | -19.5 | ||
| 2013-04-30T00:00 | 5700 | 500 | -11.7 | -26.7 | 290 | 18 |
| 2013-04-30T00:00 | 5792 | 494 | -11.9 | -28.9 | ||
| 2013-04-30T00:00 | 7360 | 400 | -25.3 | -41.3 | 280 | 18 |
| 2013-04-30T00:00 | 9102 | 312 | -40.9 | -52.9 | ||
| 2013-04-30T00:00 | 9380 | 300 | -42.9 | -54.9 | 300 | 17 |
| 2013-04-30T00:00 | 10056 | 271 | -47.9 | -57.9 | ||
| 2013-04-30T00:00 | 10580 | 250 | -52.5 | -61.5 | 310 | 19 |
| 2013-04-30T00:00 | 11980 | 200 | -65.5 | -73.5 | 320 | 23 |
| 2013-04-30T00:00 | 12258 | 191 | -67.9 | -75.9 | ||
| 2013-04-30T00:00 | 12547 | 182 | -68.5 | -76.5 | ||
| 2013-04-30T00:00 | 12613 | 180 | -66.3 | -74.3 | ||
| 2013-04-30T00:00 | 12783 | 175 | -67.3 | -75.3 | ||
| 2013-04-30T00:00 | 12957 | 170 | -67.1 | -75.1 | ||
| 2013-04-30T00:00 | 13138 | 165 | -63.7 | -71.7 | ||
| 2013-04-30T00:00 | 13289 | 161 | -62.1 | -70.1 | ||
| 2013-04-30T00:00 | 13730 | 150 | -63.1 | -71.1 | 280 | 19 |
| 2013-04-30T00:00 | 13854 | 147 | -63.5 | -71.5 | ||
| 2013-04-30T00:00 | 13896 | 146 | -63.1 | -72.1 | ||
| 2013-04-30T00:00 | 13981 | 144 | -61.1 | -70.1 | ||
| 2013-04-30T00:00 | 14024 | 143 | -60.7 | -69.7 | ||
| 2013-04-30T00:00 | 14471 | 133 | -63.3 | -72.3 | ||
| 2013-04-30T00:00 | 14660 | 129 | -58.1 | -67.1 | ||
| 2013-04-30T00:00 | 14808 | 126 | -58.7 | -67.7 | ||
| 2013-04-30T00:00 | 14908 | 124 | -58.1 | -67.1 | ||
| 2013-04-30T00:00 | 14959 | 123 | -56.7 | -66.7 | ||
| 2013-04-30T00:00 | 15381 | 115 | -59.5 | -68.5 | ||
| 2013-04-30T00:00 | 15889 | 106 | -59.5 | -69.5 | ||
| 2013-04-30T00:00 | 16068 | 103 | -60.3 | -70.3 | ||
| 2013-04-30T00:00 | 16260 | 100 | -59.1 | -69.1 | 260 | 12 |
| 2013-04-30T00:00 | 16680 | 93 | -59.1 | -69.1 | ||
| 2013-04-30T00:00 | 17301 | 84 | -62.1 | -72.1 | ||
| 2013-04-30T00:00 | 17510 | 81 | -59.5 | -69.5 | ||
| 2013-04-30T00:00 | 18198 | 73 | -57.5 | -67.5 | ||
| 2013-04-30T00:00 | 18490 | 70 | -59.1 | -69.1 | 275 | 7 |
| 2013-04-30T00:00 | 19413 | 60 | -63.5 | -73.5 | ||
| 2013-04-30T00:00 | 19905 | 55 | -58.3 | -69.3 | ||
| 2013-04-30T00:00 | 20146 | 53 | -58.9 | -69.9 | ||
| 2013-04-30T00:00 | 20580 | 50 | -56.9 | -67.9 | 180 | 5 |
| 2013-04-30T00:00 | 20838 | 48 | -56.3 | -67.3 | ||
| 2013-04-30T00:00 | 21431 | 43 | -56.9 | -67.9 | ||
| 2013-04-30T00:00 | 21519 | 43 | -54.1 | -66.1 | ||
| 2013-04-30T00:00 | 21967 | 40 | -51.5 | -64.5 | ||
| 2013-04-30T00:00 | 22767 | 35 | -54.3 | -67.3 | ||
| 2013-04-30T00:00 | 23063 | 33 | -52.3 | -66.3 | ||
| 2013-04-30T00:00 | 23159 | 33 | -50.1 | -65.1 | ||
| 2013-04-30T00:00 | 23558 | 31 | -53.7 | -67.7 | ||
| 2013-04-30T00:00 | 23860 | 30 | -54.1 | -68.1 | 195 | 3 |
| 2013-04-30T00:00 | 23946 | 29 | -54.3 | -68.3 | ||
| 2013-04-30T00:00 | 24959 | 25 | -50.1 | -68.1 | ||
| 2013-04-30T00:00 | 25549 | 23 | -51.9 | -69.9 | ||
| 2013-04-30T00:00 | 26490 | 20 | -51.1 | -73.1 | 60 | 7 |
| 2013-04-30T00:00 | 26788 | 19 | -52.1 | -74.1 | ||
| 2013-04-30T00:00 | 27622 | 16 | -49.1 | -81.1 | ||
| 2013-04-30T00:00 | 28319 | 15 | -49.7 | -83.7 | ||
| 2013-04-30T00:00 | 29456 | 12 | -46.7 | -81.7 | ||
| 2013-04-30T12:00 | 643 | 925 | ||||
| 2013-04-30T12:00 | 1378 | 850 | ||||
| 2013-04-30T12:00 | 1692 | 819 | 14.8 | -7.2 | ||
| 2013-04-30T12:00 | 1776 | 811 | 17.0 | -7.0 | ||
| 2013-04-30T12:00 | 1933 | 796 | 17.0 | -9.0 | ||
| 2013-04-30T12:00 | 2030 | 787 | 18.0 | -9.0 | ||
| 2013-04-30T12:00 | 2987 | 702 | 9.2 | -12.8 | ||
| 2013-04-30T12:00 | 3020 | 700 | 9.0 | -13.0 | 95 | 4 |
| 2013-04-30T12:00 | 4107 | 612 | -1.3 | -14.3 | ||
| 2013-04-30T12:00 | 5070 | 541 | -10.1 | -16.1 | ||
| 2013-04-30T12:00 | 5579 | 506 | -14.5 | -16.4 | ||
| 2013-04-30T12:00 | 5680 | 500 | -15.3 | -16.4 | 275 | 21 |
| 2013-04-30T12:00 | 6223 | 465 | -18.3 | -18.8 | ||
| 2013-04-30T12:00 | 6466 | 450 | -20.7 | -21.7 | ||
| 2013-04-30T12:00 | 6581 | 443 | -21.7 | -24.0 | ||
| 2013-04-30T12:00 | 6748 | 433 | -22.7 | -27.7 | ||
| 2013-04-30T12:00 | 7330 | 400 | -25.7 | -33.7 | 260 | 23 |
| 2013-04-30T12:00 | 7680 | 381 | -27.7 | -37.7 | ||
| 2013-04-30T12:00 | 7967 | 366 | -29.5 | -39.5 | ||
| 2013-04-30T12:00 | 9350 | 300 | -41.5 | -49.5 | 255 | 25 |
| 2013-04-30T12:00 | 10560 | 250 | -52.5 | -59.5 | 265 | 25 |
| 2013-04-30T12:00 | 10638 | 247 | -53.3 | -60.3 | ||
| 2013-04-30T12:00 | 11459 | 217 | -58.9 | -65.9 | ||
| 2013-04-30T12:00 | 11970 | 200 | -63.5 | 275 | 29 | |
| 2013-04-30T12:00 | 12808 | 174 | -70.9 | |||
| 2013-04-30T12:00 | 13526 | 154 | -72.7 | |||
| 2013-04-30T12:00 | 13680 | 150 | -69.9 | 275 | 33 | |
| 2013-04-30T12:00 | 13720 | 149 | -69.1 | |||
| 2013-04-30T12:00 | 13760 | 148 | -67.9 | |||
| 2013-04-30T12:00 | 13801 | 147 | -63.7 | |||
| 2013-04-30T12:00 | 14014 | 142 | -61.3 | |||
| 2013-04-30T12:00 | 14192 | 138 | -57.7 | |||
| 2013-04-30T12:00 | 14377 | 134 | -57.1 | |||
| 2013-04-30T12:00 | 14424 | 133 | -55.9 | |||
| 2013-04-30T12:00 | 14817 | 125 | -56.7 | |||
| 2013-04-30T12:00 | 15557 | 111 | -62.7 | |||
| 2013-04-30T12:00 | 15955 | 104 | -64.9 | |||
| 2013-04-30T12:00 | 16210 | 100 | -63.7 | 255 | 20 | |
| 2013-04-30T12:00 | 16727 | 91 | -63.7 | |||
| 2013-04-30T12:00 | 17256 | 84 | -56.7 | |||
| 2013-04-30T12:00 | 17691 | 78 | -56.1 | |||
| 2013-04-30T12:00 | 18293 | 71 | -59.7 | |||
| 2013-04-30T12:00 | 18430 | 70 | -58.3 | 245 | 9 | |
| 2013-04-30T12:00 | 18484 | 69 | -58.1 | |||
| 2013-04-30T12:00 | 19187 | 62 | -61.3 | |||
| 2013-04-30T12:00 | 19549 | 58 | -58.9 | |||
| 2013-04-30T12:00 | 20028 | 54 | -58.1 | |||
| 2013-04-30T12:00 | 20098 | 53 | -56.5 | |||
| 2013-04-30T12:00 | 20302 | 51 | -57.3 | |||
| 2013-04-30T12:00 | 20413 | 51 | -55.3 | |||
| 2013-04-30T12:00 | 20550 | 50 | -55.3 | 225 | 11 | |
| 2013-04-30T12:00 | 20876 | 47 | -55.7 | |||
| 2013-04-30T12:00 | 21323 | 44 | -51.3 | |||
| 2013-04-30T12:00 | 21824 | 41 | -51.7 | |||
| 2013-04-30T12:00 | 22710 | 35 | -56.3 | |||
| 2013-04-30T12:00 | 22983 | 34 | -54.3 | |||
| 2013-04-30T12:00 | 23830 | 30 | -55.3 | 180 | 7 | |
| 2013-04-30T12:00 | 24157 | 28 | -54.7 | |||
| 2013-04-30T12:00 | 24872 | 25 | -51.3 | |||
| 2013-04-30T12:00 | 25997 | 21 | -55.5 | |||
| 2013-04-30T12:00 | 26430 | 20 | -55.3 | 140 | 7 | |
| 2013-04-30T12:00 | 26995 | 18 | -55.7 | |||
| 2013-04-30T12:00 | 27317 | 17 | -53.9 | |||
| 2013-04-30T12:00 | 28854 | 13 | -52.1 | |||
| 2013-04-30T12:00 | 29146 | 13 | -48.3 | |||
| 2013-04-30T12:00 | 29670 | 12 | -45.9 | |||
| 2013-04-30T12:00 | 30064 | 11 | -47.9 | |||
| 2013-04-30T12:00 | 30940 | 10 | -45.3 | 100 | 13 | |
| 2013-04-30T12:00 | 31282 | 9 | -43.9 | |||
| 2013-04-30T12:00 | 31643 | 9 | -44.9 | |||
| 2013-04-30T12:00 | 31870 | 8 | -42.7 | |||
| 2013-04-30T12:00 | 32353 | 8 | -41.1 | -54.1 |
